<?xml version='1.0' encoding='UTF-8'?><gpx version="1.1" creator="JPX - https://github.com/jenetics/jpx" xmlns="http://www.topografix.com/GPX/1/1"><trk><trkseg><trkpt lat="45.38541188480295" lon="8.054865161883034"><ele>309.0</ele><time>2026-04-21T09:10:50.999Z</time></trkpt><trkpt lat="45.38536748629826" lon="8.054791491202364"><ele>309.0</ele><time>2026-04-21T09:11:24Z</time></trkpt><trkpt lat="45.38530618439866" lon="8.054756569902894"><ele>309.0</ele><time>2026-04-21T09:11:29Z</time></trkpt><trkpt lat="45.38524233565515" lon="8.054743375871107"><ele>309.0</ele><time>2026-04-21T09:11:31Z</time></trkpt><trkpt lat="45.38512759764355" lon="8.054707486389626"><ele>309.0</ele><time>2026-04-21T09:11:33Z</time></trkpt><trkpt lat="45.38505816284432" lon="8.054685763351884"><ele>309.0</ele><time>2026-04-21T09:11:34Z</time></trkpt><trkpt lat="45.384946925610386" lon="8.054566061972283"><ele>309.0</ele><time>2026-04-21T09:11:36Z</time></trkpt><trkpt lat="45.38486602832002" lon="8.054540746499118"><ele>309.0</ele><time>2026-04-21T09:11:37Z</time></trkpt><trkpt lat="45.38477355775959" lon="8.05451222862325"><ele>309.0</ele><time>2026-04-21T09:11:38Z</time></trkpt><trkpt lat="45.38468242118427" lon="8.054484234522192"><ele>309.0</ele><time>2026-04-21T09:11:39Z</time></trkpt><trkpt lat="45.38461003921508" lon="8.054462754865378"><ele>309.0</ele><time>2026-04-21T09:11:40Z</time></trkpt><trkpt lat="45.38454161076641" lon="8.054442448430118"><ele>309.0</ele><time>2026-04-21T09:11:41Z</time></trkpt><trkpt lat="45.3844450865935" lon="8.054465584463918"><ele>308.0</ele><time>2026-04-21T09:11:42Z</time></trkpt><trkpt lat="45.38434649995188" lon="8.054442729351114"><ele>307.0</ele><time>2026-04-21T09:11:43Z</time></trkpt><trkpt lat="45.38426076143602" lon="8.05442117881722"><ele>306.0</ele><time>2026-04-21T09:11:44Z</time></trkpt><trkpt lat="45.384185025149414" lon="8.054393467697569"><ele>305.0</ele><time>2026-04-21T09:11:45Z</time></trkpt><trkpt lat="45.384109207213754" lon="8.054381933434886"><ele>304.0</ele><time>2026-04-21T09:11:46Z</time></trkpt><trkpt lat="45.384041999510515" lon="8.054363751815671"><ele>303.0</ele><time>2026-04-21T09:11:47Z</time></trkpt><trkpt lat="45.38395977692332" lon="8.05433662993551"><ele>303.0</ele><time>2026-04-21T09:11:48Z</time></trkpt><trkpt lat="45.38389061665299" lon="8.054308909673308"><ele>303.0</ele><time>2026-04-21T09:11:49Z</time></trkpt><trkpt lat="45.383826403119485" lon="8.054288439710689"><ele>303.0</ele><time>2026-04-21T09:11:50Z</time></trkpt><trkpt lat="45.38374394862063" lon="8.054261518654112"><ele>303.0</ele><time>2026-04-21T09:11:51Z</time></trkpt><trkpt lat="45.383647798133914" lon="8.054209032144431"><ele>303.0</ele><time>2026-04-21T09:11:52Z</time></trkpt><trkpt lat="45.383563087874315" lon="8.05413031988516"><ele>303.0</ele><time>2026-04-21T09:11:53Z</time></trkpt><trkpt lat="45.38348119928429" lon="8.054108980870538"><ele>302.6</ele><time>2026-04-21T09:11:54Z</time></trkpt><trkpt lat="45.38337883109806" lon="8.054087633684787"><ele>302.20000000000005</ele><time>2026-04-21T09:11:55Z</time></trkpt><trkpt lat="45.3832789009563" lon="8.05408717250162"><ele>301.8</ele><time>2026-04-21T09:11:56Z</time></trkpt><trkpt lat="45.38317891672656" lon="8.054063568169992"><ele>301.40000000000003</ele><time>2026-04-21T09:11:57Z</time></trkpt><trkpt lat="45.383091004246275" lon="8.054025326719124"><ele>301.0</ele><time>2026-04-21T09:11:58Z</time></trkpt><trkpt lat="45.383005263635354" lon="8.05398954175609"><ele>300.5</ele><time>2026-04-21T09:11:59Z</time></trkpt><trkpt lat="45.38293756112337" lon="8.053964689121765"><ele>300.0</ele><time>2026-04-21T09:12:00Z</time></trkpt><trkpt lat="45.38287075066013" lon="8.053954525701537"><ele>299.5</ele><time>2026-04-21T09:12:01Z</time></trkpt><trkpt lat="45.38279805422267" lon="8.05396243269982"><ele>299.0</ele><time>2026-04-21T09:12:02Z</time></trkpt><trkpt lat="45.38272609840848" lon="8.05400776147166"><ele>298.5</ele><time>2026-04-21T09:12:03Z</time></trkpt><trkpt lat="45.382653671889265" lon="8.05408810777025"><ele>298.0</ele><time>2026-04-21T09:12:04Z</time></trkpt><trkpt lat="45.38257901350296" lon="8.054216824531007"><ele>298.0</ele><time>2026-04-21T09:12:05Z</time></trkpt><trkpt lat="45.38249784651876" lon="8.05436357807928"><ele>298.0</ele><time>2026-04-21T09:12:06Z</time></trkpt><trkpt lat="45.382402815222086" lon="8.054502536620378"><ele>298.0</ele><time>2026-04-21T09:12:07Z</time></trkpt><trkpt lat="45.38229479494299" lon="8.054641273085494"><ele>298.0</ele><time>2026-04-21T09:12:08Z</time></trkpt><trkpt lat="45.38219968692205" lon="8.054767091776789"><ele>298.0</ele><time>2026-04-21T09:12:09Z</time></trkpt><trkpt lat="45.382117453959104" lon="8.05488331092668"><ele>298.0</ele><time>2026-04-21T09:12:10Z</time></trkpt><trkpt lat="45.38203756559236" lon="8.054989033664551"><ele>298.0</ele><time>2026-04-21T09:12:11Z</time></trkpt><trkpt lat="45.38195367054" lon="8.055103180106592"><ele>298.0</ele><time>2026-04-21T09:12:12Z</time></trkpt><trkpt lat="45.38186457774097" lon="8.055228681292164"><ele>297.0</ele><time>2026-04-21T09:12:13Z</time></trkpt><trkpt lat="45.38175829726596" lon="8.055342222012813"><ele>296.0</ele><time>2026-04-21T09:12:14Z</time></trkpt><trkpt lat="45.38164283936814" lon="8.055462137464772"><ele>295.0</ele><time>2026-04-21T09:12:15Z</time></trkpt><trkpt lat="45.38153220572196" lon="8.05556876745281"><ele>294.0</ele><time>2026-04-21T09:12:15.999Z</time></trkpt><trkpt lat="45.38145711920266" lon="8.055714516915385"><ele>293.75</ele><time>2026-04-21T09:12:16.999Z</time></trkpt><trkpt lat="45.3813578793062" lon="8.055843179597764"><ele>293.5</ele><time>2026-04-21T09:12:17.999Z</time></trkpt><trkpt lat="45.381258843832505" lon="8.05598143854211"><ele>293.25</ele><time>2026-04-21T09:12:18.999Z</time></trkpt><trkpt lat="45.38116113127184" lon="8.056114390031317"><ele>293.0</ele><time>2026-04-21T09:12:19.999Z</time></trkpt><trkpt lat="45.38105477656407" lon="8.05625904355496"><ele>293.0</ele><time>2026-04-21T09:12:20.999Z</time></trkpt><trkpt lat="45.380953998957985" lon="8.056398968812827"><ele>293.0</ele><time>2026-04-21T09:12:21.999Z</time></trkpt><trkpt lat="45.380858195663215" lon="8.05652075086786"><ele>293.0</ele><time>2026-04-21T09:12:22.999Z</time></trkpt><trkpt lat="45.38077471473377" lon="8.056643542321828"><ele>293.0</ele><time>2026-04-21T09:12:23.999Z</time></trkpt><trkpt lat="45.380696056884865" lon="8.056753496098548"><ele>293.0</ele><time>2026-04-21T09:12:24.999Z</time></trkpt><trkpt lat="45.38061642746735" lon="8.056865494470562"><ele>293.0</ele><time>2026-04-21T09:12:25.999Z</time></trkpt><trkpt lat="45.38054574447269" lon="8.056978097339517"><ele>293.0</ele><time>2026-04-21T09:12:26.999Z</time></trkpt><trkpt lat="45.380465760360586" lon="8.057065540053092"><ele>293.0</ele><time>2026-04-21T09:12:27.999Z</time></trkpt><trkpt lat="45.38038021646423" lon="8.057132000382566"><ele>293.0</ele><time>2026-04-21T09:12:28.999Z</time></trkpt><trkpt lat="45.38029693126094" lon="8.057169172077383"><ele>292.25</ele><time>2026-04-21T09:12:29.999Z</time></trkpt><trkpt lat="45.38019534295672" lon="8.057191709643435"><ele>291.5</ele><time>2026-04-21T09:12:30.999Z</time></trkpt><trkpt lat="45.38006331442615" lon="8.05721306466032"><ele>290.75</ele><time>2026-04-21T09:12:31.999Z</time></trkpt><trkpt lat="45.37991601760462" lon="8.05723137215437"><ele>290.0</ele><time>2026-04-21T09:12:32.999Z</time></trkpt><trkpt lat="45.37976939698377" lon="8.057248195569576"><ele>289.75</ele><time>2026-04-21T09:12:33.999Z</time></trkpt><trkpt lat="45.37963874402547" lon="8.057270288931562"><ele>289.5</ele><time>2026-04-21T09:12:34.999Z</time></trkpt><trkpt lat="45.37951606171966" lon="8.057299773306793"><ele>289.25</ele><time>2026-04-21T09:12:35.999Z</time></trkpt><trkpt lat="45.37938908157897" lon="8.05734976153801"><ele>289.0</ele><time>2026-04-21T09:12:36.999Z</time></trkpt><trkpt lat="45.379269880183394" lon="8.057402140117427"><ele>288.4</ele><time>2026-04-21T09:12:37.999Z</time></trkpt><trkpt lat="45.379165560221914" lon="8.057454479714163"><ele>287.79999999999995</ele><time>2026-04-21T09:12:38.999Z</time></trkpt><trkpt lat="45.37906250257846" lon="8.057495562580135"><ele>287.20000000000005</ele><time>2026-04-21T09:12:39.999Z</time></trkpt><trkpt lat="45.378957093846466" lon="8.05753011056876"><ele>286.6</ele><time>2026-04-21T09:12:40.999Z</time></trkpt><trkpt lat="45.37884249173411" lon="8.05757520150069"><ele>286.0</ele><time>2026-04-21T09:12:41.999Z</time></trkpt><trkpt lat="45.378724591372325" lon="8.057634114712"><ele>285.25</ele><time>2026-04-21T09:12:42.999Z</time></trkpt><trkpt lat="45.378606671545406" lon="8.057684736078475"><ele>284.5</ele><time>2026-04-21T09:12:43.999Z</time></trkpt><trkpt lat="45.378466070361995" lon="8.05774669959795"><ele>283.75</ele><time>2026-04-21T09:12:44.999Z</time></trkpt><trkpt lat="45.37833077091352" lon="8.0578024342343"><ele>283.0</ele><time>2026-04-21T09:12:45.999Z</time></trkpt><trkpt lat="45.37821761316206" lon="8.05786000381487"><ele>283.0</ele><time>2026-04-21T09:12:46.999Z</time></trkpt><trkpt lat="45.37810043905995" lon="8.057917257763567"><ele>283.0</ele><time>2026-04-21T09:12:47.999Z</time></trkpt><trkpt lat="45.37797781504779" lon="8.057972545809859"><ele>283.0</ele><time>2026-04-21T09:12:48.999Z</time></trkpt><trkpt lat="45.37786256652802" lon="8.05801636001165"><ele>283.0</ele><time>2026-04-21T09:12:49.999Z</time></trkpt><trkpt lat="45.37774223835653" lon="8.058068119756623"><ele>282.75</ele><time>2026-04-21T09:12:50.999Z</time></trkpt><trkpt lat="45.37760820323553" lon="8.05811133769962"><ele>282.5</ele><time>2026-04-21T09:12:51.999Z</time></trkpt><trkpt lat="45.37747250878392" lon="8.058159743127812"><ele>282.25</ele><time>2026-04-21T09:12:52.999Z</time></trkpt><trkpt lat="45.37735795576168" lon="8.058195985082948"><ele>282.0</ele><time>2026-04-21T09:12:53.999Z</time></trkpt><trkpt lat="45.37725750547826" lon="8.058228847090191"><ele>282.0</ele><time>2026-04-21T09:12:54.999Z</time></trkpt><trkpt lat="45.377156576134425" lon="8.058264497914093"><ele>282.0</ele><time>2026-04-21T09:12:55.999Z</time></trkpt><trkpt lat="45.37705040297074" lon="8.058300605925897"><ele>282.0</ele><time>2026-04-21T09:12:56.999Z</time></trkpt><trkpt lat="45.37694364517607" lon="8.058339525695336"><ele>282.0</ele><time>2026-04-21T09:12:57.999Z</time></trkpt><trkpt lat="45.376843000498305" lon="8.058400651746155"><ele>282.0</ele><time>2026-04-21T09:12:58.999Z</time></trkpt><trkpt lat="45.37672731581819" lon="8.058473526171388"><ele>281.75</ele><time>2026-04-21T09:12:59.999Z</time></trkpt><trkpt lat="45.37663123096032" lon="8.058566829984882"><ele>281.5</ele><time>2026-04-21T09:13:00.999Z</time></trkpt><trkpt lat="45.376527992657" lon="8.058673757743282"><ele>281.25</ele><time>2026-04-21T09:13:01.999Z</time></trkpt><trkpt lat="45.376425723923234" lon="8.05878056755564"><ele>281.0</ele><time>2026-04-21T09:13:02.999Z</time></trkpt><trkpt lat="45.376335273654654" lon="8.058876275186952"><ele>281.0</ele><time>2026-04-21T09:13:03.999Z</time></trkpt><trkpt lat="45.37624101247041" lon="8.0589597610983"><ele>281.0</ele><time>2026-04-21T09:13:04.999Z</time></trkpt><trkpt lat="45.37614340631022" lon="8.059033844086127"><ele>281.0</ele><time>2026-04-21T09:13:05.999Z</time></trkpt><trkpt lat="45.376025535247166" lon="8.059105995564744"><ele>281.0</ele><time>2026-04-21T09:13:06.999Z</time></trkpt><trkpt lat="45.37589075888141" lon="8.059178469057136"><ele>280.5</ele><time>2026-04-21T09:13:07.999Z</time></trkpt><trkpt lat="45.37575856636072" lon="8.059256014691623"><ele>280.0</ele><time>2026-04-21T09:13:08.999Z</time></trkpt><trkpt lat="45.37565117686817" lon="8.059330060002615"><ele>279.5</ele><time>2026-04-21T09:13:09.999Z</time></trkpt><trkpt lat="45.37554631476564" lon="8.059398471080844"><ele>279.0</ele><time>2026-04-21T09:13:10.999Z</time></trkpt><trkpt lat="45.375429622993536" lon="8.059458545030353"><ele>278.5</ele><time>2026-04-21T09:13:11.999Z</time></trkpt><trkpt lat="45.375308450292984" lon="8.059535188999941"><ele>278.0</ele><time>2026-04-21T09:13:12.999Z</time></trkpt><trkpt lat="45.3751891436012" lon="8.059623223897699"><ele>277.5</ele><time>2026-04-21T09:13:13.999Z</time></trkpt><trkpt lat="45.375064384164894" lon="8.059726675559704"><ele>277.0</ele><time>2026-04-21T09:13:14.999Z</time></trkpt><trkpt lat="45.374939972599805" lon="8.059837661647576"><ele>277.0</ele><time>2026-04-21T09:13:15.999Z</time></trkpt><trkpt lat="45.37482742134617" lon="8.059939677586824"><ele>277.0</ele><time>2026-04-21T09:13:16.999Z</time></trkpt><trkpt lat="45.37471054431989" lon="8.060036365259144"><ele>277.0</ele><time>2026-04-21T09:13:17.999Z</time></trkpt><trkpt lat="45.37459402750272" lon="8.060153420312464"><ele>277.0</ele><time>2026-04-21T09:13:18.999Z</time></trkpt><trkpt lat="45.37448731604908" lon="8.060263426487177"><ele>275.75</ele><time>2026-04-21T09:13:19.999Z</time></trkpt><trkpt lat="45.374381022315745" lon="8.060367910594408"><ele>274.5</ele><time>2026-04-21T09:13:20.999Z</time></trkpt><trkpt lat="45.37426384026893" lon="8.06046399258092"><ele>273.25</ele><time>2026-04-21T09:13:21.999Z</time></trkpt><trkpt lat="45.37412350952159" lon="8.060560800752016"><ele>272.0</ele><time>2026-04-21T09:13:22.999Z</time></trkpt><trkpt lat="45.37398944611865" lon="8.060653716519987"><ele>272.0</ele><time>2026-04-21T09:13:23.999Z</time></trkpt><trkpt lat="45.37387764619013" lon="8.060722617432086"><ele>272.0</ele><time>2026-04-21T09:13:24.999Z</time></trkpt><trkpt lat="45.373764236103966" lon="8.060794575967543"><ele>272.0</ele><time>2026-04-21T09:13:25.999Z</time></trkpt><trkpt lat="45.37365233288735" lon="8.06086677033412"><ele>272.0</ele><time>2026-04-21T09:13:26.999Z</time></trkpt><trkpt lat="45.37354166867372" lon="8.060930428681855"><ele>271.8</ele><time>2026-04-21T09:13:27.999Z</time></trkpt><trkpt lat="45.373432664202916" lon="8.060981034743929"><ele>271.6</ele><time>2026-04-21T09:13:28.999Z</time></trkpt><trkpt lat="45.37332124072088" lon="8.061025354124691"><ele>271.40000000000003</ele><time>2026-04-21T09:13:30Z</time></trkpt><trkpt lat="45.373227640029235" lon="8.061084743045749"><ele>271.2</ele><time>2026-04-21T09:13:31Z</time></trkpt><trkpt lat="45.37314070021475" lon="8.06117141386518"><ele>271.0</ele><time>2026-04-21T09:13:32Z</time></trkpt><trkpt lat="45.373054704519426" lon="8.061283454416374"><ele>270.75</ele><time>2026-04-21T09:13:33Z</time></trkpt><trkpt lat="45.37296279357567" lon="8.061417452815304"><ele>270.5</ele><time>2026-04-21T09:13:34Z</time></trkpt><trkpt lat="45.37287794024219" lon="8.061556777395303"><ele>270.25</ele><time>2026-04-21T09:13:35Z</time></trkpt><trkpt lat="45.37279416366957" lon="8.06170779625401"><ele>270.0</ele><time>2026-04-21T09:13:36Z</time></trkpt><trkpt lat="45.3727065680463" lon="8.061875575182087"><ele>269.75</ele><time>2026-04-21T09:13:37Z</time></trkpt><trkpt lat="45.3726211505868" lon="8.062031416301346"><ele>269.5</ele><time>2026-04-21T09:13:38Z</time></trkpt><trkpt lat="45.37254051816609" lon="8.06218377190479"><ele>269.25</ele><time>2026-04-21T09:13:39Z</time></trkpt><trkpt lat="45.37246714944303" lon="8.062329504539555"><ele>269.0</ele><time>2026-04-21T09:13:40Z</time></trkpt><trkpt lat="45.37239404993157" lon="8.062470869510209"><ele>268.5</ele><time>2026-04-21T09:13:41Z</time></trkpt><trkpt lat="45.37232078974219" lon="8.062616933995207"><ele>268.0</ele><time>2026-04-21T09:13:42Z</time></trkpt><trkpt lat="45.37224340174659" lon="8.062771764622042"><ele>267.5</ele><time>2026-04-21T09:13:43Z</time></trkpt><trkpt lat="45.37216743319632" lon="8.062930896754324"><ele>267.0</ele><time>2026-04-21T09:13:44Z</time></trkpt><trkpt lat="45.37209704218815" lon="8.063095093365662"><ele>266.75</ele><time>2026-04-21T09:13:45Z</time></trkpt><trkpt lat="45.37202722189472" lon="8.063255128799057"><ele>266.5</ele><time>2026-04-21T09:13:46Z</time></trkpt><trkpt lat="45.3719607196145" lon="8.063412119584418"><ele>266.25</ele><time>2026-04-21T09:13:47Z</time></trkpt><trkpt lat="45.371892670020635" lon="8.063572485517529"><ele>266.0</ele><time>2026-04-21T09:13:48Z</time></trkpt><trkpt lat="45.37182516900115" lon="8.063732636783126"><ele>266.0</ele><time>2026-04-21T09:13:49Z</time></trkpt><trkpt lat="45.37176413778769" lon="8.063887376006015"><ele>266.0</ele><time>2026-04-21T09:13:50Z</time></trkpt><trkpt lat="45.37169331355468" lon="8.064064600048738"><ele>266.0</ele><time>2026-04-21T09:13:51Z</time></trkpt><trkpt lat="45.37162084926377" lon="8.064251626888"><ele>266.0</ele><time>2026-04-21T09:13:52Z</time></trkpt><trkpt lat="45.37155768390843" lon="8.064412927217436"><ele>266.0</ele><time>2026-04-21T09:13:53Z</time></trkpt><trkpt lat="45.37149613290899" lon="8.064563492243552"><ele>266.0</ele><time>2026-04-21T09:13:54Z</time></trkpt><trkpt lat="45.37143407016119" lon="8.06472638828316"><ele>266.0</ele><time>2026-04-21T09:13:55Z</time></trkpt><trkpt lat="45.37137767291506" lon="8.064902429733156"><ele>266.0</ele><time>2026-04-21T09:13:56Z</time></trkpt><trkpt lat="45.371315934760474" lon="8.065087687552317"><ele>264.5</ele><time>2026-04-21T09:13:57Z</time></trkpt><trkpt lat="45.37125719328947" lon="8.06525918735734"><ele>263.0</ele><time>2026-04-21T09:13:58Z</time></trkpt><trkpt lat="45.37119505255677" lon="8.065431707512575"><ele>261.5</ele><time>2026-04-21T09:13:59Z</time></trkpt><trkpt lat="45.37113194113797" lon="8.065609159169556"><ele>260.0</ele><time>2026-04-21T09:14:00Z</time></trkpt><trkpt lat="45.37106679328562" lon="8.065798392373415"><ele>259.6666666666667</ele><time>2026-04-21T09:14:01Z</time></trkpt><trkpt lat="45.37100018792751" lon="8.065993035691701"><ele>259.3333333333333</ele><time>2026-04-21T09:14:02Z</time></trkpt><trkpt lat="45.370921448116945" lon="8.066206068075857"><ele>259.0</ele><time>2026-04-21T09:14:03Z</time></trkpt><trkpt lat="45.370838897469525" lon="8.066426601562616"><ele>259.0</ele><time>2026-04-21T09:14:04Z</time></trkpt><trkpt lat="45.370751821625355" lon="8.06665902693858"><ele>259.0</ele><time>2026-04-21T09:14:05Z</time></trkpt><trkpt lat="45.37066765863615" lon="8.066890180272145"><ele>259.0</ele><time>2026-04-21T09:14:06Z</time></trkpt><trkpt lat="45.3705813455086" lon="8.06711108997715"><ele>258.66666666666663</ele><time>2026-04-21T09:14:07Z</time></trkpt><trkpt lat="45.370496062344564" lon="8.067328238383757"><ele>258.3333333333333</ele><time>2026-04-21T09:14:08Z</time></trkpt><trkpt lat="45.37041754058538" lon="8.067550440589361"><ele>258.0</ele><time>2026-04-21T09:14:09Z</time></trkpt><trkpt lat="45.37034645542342" lon="8.067737378497418"><ele>258.0</ele><time>2026-04-21T09:14:10Z</time></trkpt><trkpt lat="45.37028901328556" lon="8.067891136551076"><ele>258.0</ele><time>2026-04-21T09:14:11Z</time></trkpt><trkpt lat="45.37023696210238" lon="8.068029402669497"><ele>258.0</ele><time>2026-04-21T09:14:12Z</time></trkpt><trkpt lat="45.3701928332674" lon="8.068148565925803"><ele>258.0</ele><time>2026-04-21T09:14:13Z</time></trkpt><trkpt lat="45.3701548340634" lon="8.068264634442102"><ele>258.0</ele><time>2026-04-21T09:14:14Z</time></trkpt><trkpt lat="45.37012769467745" lon="8.068353959521641"><ele>258.0</ele><time>2026-04-21T09:14:15Z</time></trkpt><trkpt lat="45.37006953700722" lon="8.068418124386637"><ele>258.0</ele><time>2026-04-21T09:14:17Z</time></trkpt><trkpt lat="45.36995411417039" lon="8.068274569055502"><ele>258.0</ele><time>2026-04-21T09:14:18.999Z</time></trkpt><trkpt lat="45.36983848892276" lon="8.06820182022807"><ele>258.0</ele><time>2026-04-21T09:14:19.999Z</time></trkpt><trkpt lat="45.36970142685633" lon="8.068113545794674"><ele>258.0</ele><time>2026-04-21T09:14:20.999Z</time></trkpt><trkpt lat="45.36958070092009" lon="8.068044053864963"><ele>258.0</ele><time>2026-04-21T09:14:21.999Z</time></trkpt><trkpt lat="45.36945906459586" lon="8.067959902887386"><ele>258.0</ele><time>2026-04-21T09:14:23.999Z</time></trkpt><trkpt lat="45.369396714474526" lon="8.067921011504701"><ele>258.0</ele><time>2026-04-21T09:14:24.999Z</time></trkpt><trkpt lat="45.36931971229717" lon="8.06787298079072"><ele>258.0</ele><time>2026-04-21T09:14:25.999Z</time></trkpt><trkpt lat="45.369206100204835" lon="8.06779950267779"><ele>258.0</ele><time>2026-04-21T09:14:26.999Z</time></trkpt><trkpt lat="45.36907705498527" lon="8.067717098763765"><ele>258.0</ele><time>2026-04-21T09:14:27.999Z</time></trkpt><trkpt lat="45.368933070253064" lon="8.06762515498608"><ele>258.0</ele><time>2026-04-21T09:14:28.999Z</time></trkpt><trkpt lat="45.36878916505094" lon="8.06753326199271"><ele>257.0</ele><time>2026-04-21T09:14:29.999Z</time></trkpt><trkpt lat="45.36864031434506" lon="8.067437281639306"><ele>256.0</ele><time>2026-04-21T09:14:30.999Z</time></trkpt><trkpt lat="45.36850569812749" lon="8.067347186498445"><ele>255.0</ele><time>2026-04-21T09:14:31.999Z</time></trkpt><trkpt lat="45.36837161097126" lon="8.06725608585422"><ele>255.0</ele><time>2026-04-21T09:14:32.999Z</time></trkpt><trkpt lat="45.36821692948465" lon="8.067203399690854"><ele>255.0</ele><time>2026-04-21T09:14:33.999Z</time></trkpt><trkpt lat="45.3680841299974" lon="8.06712608924861"><ele>255.0</ele><time>2026-04-21T09:14:34.999Z</time></trkpt><trkpt lat="45.36795558445583" lon="8.06703391865076"><ele>255.0</ele><time>2026-04-21T09:14:35.999Z</time></trkpt><trkpt lat="45.36782503200128" lon="8.06694578308949"><ele>255.0</ele><time>2026-04-21T09:14:36.999Z</time></trkpt><trkpt lat="45.367688844059664" lon="8.066884323994604"><ele>255.0</ele><time>2026-04-21T09:14:37.999Z</time></trkpt><trkpt lat="45.367559213411184" lon="8.066832864973543"><ele>255.0</ele><time>2026-04-21T09:14:38.999Z</time></trkpt><trkpt lat="45.36743118028005" lon="8.06679025059067"><ele>255.0</ele><time>2026-04-21T09:14:39.999Z</time></trkpt><trkpt lat="45.367315817682865" lon="8.066762333999142"><ele>255.0</ele><time>2026-04-21T09:14:40.999Z</time></trkpt><trkpt lat="45.36720617893404" lon="8.066730433655527"><ele>255.0</ele><time>2026-04-21T09:14:41.999Z</time></trkpt><trkpt lat="45.367095331691374" lon="8.066696959908509"><ele>255.0</ele><time>2026-04-21T09:14:42.999Z</time></trkpt><trkpt lat="45.366983118595684" lon="8.06660937842812"><ele>255.0</ele><time>2026-04-21T09:14:43.999Z</time></trkpt><trkpt lat="45.36684709186877" lon="8.066548628857234"><ele>255.25</ele><time>2026-04-21T09:14:44.999Z</time></trkpt><trkpt lat="45.36671065856068" lon="8.066479990610903"><ele>255.5</ele><time>2026-04-21T09:14:45.999Z</time></trkpt><trkpt lat="45.36657251649718" lon="8.066405026997865"><ele>255.75</ele><time>2026-04-21T09:14:46.999Z</time></trkpt><trkpt lat="45.36645150469395" lon="8.066334657514542"><ele>256.0</ele><time>2026-04-21T09:14:47.999Z</time></trkpt><trkpt lat="45.36632612539592" lon="8.06625790357919"><ele>255.5</ele><time>2026-04-21T09:14:48.999Z</time></trkpt><trkpt lat="45.36620248390413" lon="8.0661815783885"><ele>255.0</ele><time>2026-04-21T09:14:49.999Z</time></trkpt><trkpt lat="45.36609447364921" lon="8.066112842268648"><ele>254.5</ele><time>2026-04-21T09:14:50.999Z</time></trkpt><trkpt lat="45.36599383508257" lon="8.066047648536918"><ele>254.0</ele><time>2026-04-21T09:14:51.999Z</time></trkpt><trkpt lat="45.365903037793395" lon="8.065988829991047"><ele>254.0</ele><time>2026-04-21T09:14:52.999Z</time></trkpt><trkpt lat="45.365814703370994" lon="8.065931606891779"><ele>253.99999999999997</ele><time>2026-04-21T09:14:53.999Z</time></trkpt><trkpt lat="45.365734278706974" lon="8.065881772586378"><ele>253.99999999999997</ele><time>2026-04-21T09:14:54.999Z</time></trkpt><trkpt lat="45.36566303830482" lon="8.065837889348868"><ele>254.0</ele><time>2026-04-21T09:14:55.999Z</time></trkpt><trkpt lat="45.365553312005204" lon="8.065801198159576"><ele>254.0</ele><time>2026-04-21T09:14:57.999Z</time></trkpt><trkpt lat="45.36556293958018" lon="8.065600439899777"><ele>254.33333333333334</ele><time>2026-04-21T09:14:59.999Z</time></trkpt><trkpt lat="45.36562735399329" lon="8.065447034898128"><ele>254.66666666666669</ele><time>2026-04-21T09:15:00.999Z</time></trkpt><trkpt lat="45.365728075845496" lon="8.065256821318433"><ele>255.0</ele><time>2026-04-21T09:15:01.999Z</time></trkpt><trkpt lat="45.36580275998988" lon="8.065035362232043"><ele>255.0</ele><time>2026-04-21T09:15:02.999Z</time></trkpt><trkpt lat="45.365862688482764" lon="8.064852462319905"><ele>255.0</ele><time>2026-04-21T09:15:03.999Z</time></trkpt><trkpt lat="45.3659184043614" lon="8.064682419154982"><ele>255.0</ele><time>2026-04-21T09:15:04.999Z</time></trkpt><trkpt lat="45.365971776429795" lon="8.064521846136113"><ele>255.0</ele><time>2026-04-21T09:15:05.999Z</time></trkpt><trkpt lat="45.36603543624904" lon="8.064343418590575"><ele>255.0</ele><time>2026-04-21T09:15:06.999Z</time></trkpt><trkpt lat="45.366099872091674" lon="8.064161028249432"><ele>255.0</ele><time>2026-04-21T09:15:07.999Z</time></trkpt><trkpt lat="45.36615285264214" lon="8.06400318272962"><ele>255.0</ele><time>2026-04-21T09:15:08.999Z</time></trkpt><trkpt lat="45.36620377233076" lon="8.063847540808315"><ele>255.0</ele><time>2026-04-21T09:15:09.999Z</time></trkpt><trkpt lat="45.36625142630151" lon="8.063701033684039"><ele>255.5</ele><time>2026-04-21T09:15:10.999Z</time></trkpt><trkpt lat="45.36629757674527" lon="8.063559147767549"><ele>256.0</ele><time>2026-04-21T09:15:11.999Z</time></trkpt><trkpt lat="45.3663504519807" lon="8.063396587004387"><ele>256.5</ele><time>2026-04-21T09:15:12.999Z</time></trkpt><trkpt lat="45.36634962189173" lon="8.063189937709664"><ele>257.0</ele><time>2026-04-21T09:15:13.999Z</time></trkpt><trkpt lat="45.36641742102512" lon="8.063003055592311"><ele>257.0</ele><time>2026-04-21T09:15:14.999Z</time></trkpt><trkpt lat="45.36646304140906" lon="8.062838292478704"><ele>257.0</ele><time>2026-04-21T09:15:15.999Z</time></trkpt><trkpt lat="45.36652327318783" lon="8.062662897552665"><ele>257.0</ele><time>2026-04-21T09:15:16.999Z</time></trkpt><trkpt lat="45.36658760446337" lon="8.062499984179302"><ele>257.0</ele><time>2026-04-21T09:15:17.999Z</time></trkpt><trkpt lat="45.366657986911235" lon="8.062332418597276"><ele>257.0</ele><time>2026-04-21T09:15:18.999Z</time></trkpt><trkpt lat="45.366729554193384" lon="8.062173815081705"><ele>257.0</ele><time>2026-04-21T09:15:19.999Z</time></trkpt><trkpt lat="45.36679722001707" lon="8.062010047741616"><ele>257.0</ele><time>2026-04-21T09:15:20.999Z</time></trkpt><trkpt lat="45.366872618536895" lon="8.061834965024202"><ele>257.0</ele><time>2026-04-21T09:15:21.999Z</time></trkpt><trkpt lat="45.36695385977658" lon="8.061644002897818"><ele>257.25</ele><time>2026-04-21T09:15:22.999Z</time></trkpt><trkpt lat="45.367032591298" lon="8.061460833738453"><ele>257.5</ele><time>2026-04-21T09:15:23.999Z</time></trkpt><trkpt lat="45.367109956100464" lon="8.061291259240198"><ele>257.75</ele><time>2026-04-21T09:15:24.999Z</time></trkpt><trkpt lat="45.367180377745235" lon="8.061119282411399"><ele>258.0</ele><time>2026-04-21T09:15:25.999Z</time></trkpt><trkpt lat="45.36724402532951" lon="8.060948547948607"><ele>259.0</ele><time>2026-04-21T09:15:26.999Z</time></trkpt><trkpt lat="45.36731267014575" lon="8.060760925776306"><ele>260.0</ele><time>2026-04-21T09:15:27.999Z</time></trkpt><trkpt lat="45.36738008389039" lon="8.06055247821721"><ele>261.0</ele><time>2026-04-21T09:15:28.999Z</time></trkpt><trkpt lat="45.36744556128297" lon="8.060340249214601"><ele>261.0</ele><time>2026-04-21T09:15:29.999Z</time></trkpt><trkpt lat="45.36751191361188" lon="8.060135431343351"><ele>261.0</ele><time>2026-04-21T09:15:30.999Z</time></trkpt><trkpt lat="45.36757970856271" lon="8.059941357695731"><ele>261.0</ele><time>2026-04-21T09:15:31.999Z</time></trkpt><trkpt lat="45.36764987669846" lon="8.059748057320354"><ele>261.5</ele><time>2026-04-21T09:15:32.999Z</time></trkpt><trkpt lat="45.36772100998386" lon="8.059558528365097"><ele>262.0</ele><time>2026-04-21T09:15:33.999Z</time></trkpt><trkpt lat="45.36778588000755" lon="8.059374845475462"><ele>262.5</ele><time>2026-04-21T09:15:34.999Z</time></trkpt><trkpt lat="45.36784229993777" lon="8.05921137593017"><ele>263.0</ele><time>2026-04-21T09:15:36Z</time></trkpt><trkpt lat="45.36788156455243" lon="8.059060804431292"><ele>263.0</ele><time>2026-04-21T09:15:37Z</time></trkpt><trkpt lat="45.36792490541192" lon="8.058913834469369"><ele>263.0</ele><time>2026-04-21T09:15:38Z</time></trkpt><trkpt lat="45.36795751076767" lon="8.058775259619113"><ele>263.0</ele><time>2026-04-21T09:15:39Z</time></trkpt><trkpt lat="45.367986152513225" lon="8.05862391134507"><ele>263.0</ele><time>2026-04-21T09:15:40Z</time></trkpt><trkpt lat="45.36801052335344" lon="8.058459502222105"><ele>263.0</ele><time>2026-04-21T09:15:41Z</time></trkpt><trkpt lat="45.368038092384815" lon="8.058316648684116"><ele>263.33333333333337</ele><time>2026-04-21T09:15:42Z</time></trkpt><trkpt lat="45.3680623215515" lon="8.058174422368216"><ele>263.6666666666667</ele><time>2026-04-21T09:15:43Z</time></trkpt><trkpt lat="45.368081191999835" lon="8.058029994304938"><ele>264.0</ele><time>2026-04-21T09:15:44Z</time></trkpt><trkpt lat="45.36809646884569" lon="8.057900216619776"><ele>264.3333333333333</ele><time>2026-04-21T09:15:45Z</time></trkpt><trkpt lat="45.36811124767219" lon="8.057794991365027"><ele>264.66666666666663</ele><time>2026-04-21T09:15:46Z</time></trkpt><trkpt lat="45.36812148553972" lon="8.057694488745343"><ele>265.0</ele><time>2026-04-21T09:15:47Z</time></trkpt><trkpt lat="45.368125199398946" lon="8.057603031885161"><ele>265.0</ele><time>2026-04-21T09:15:48Z</time></trkpt><trkpt lat="45.368085802343096" lon="8.057438906815214"><ele>265.0</ele><time>2026-04-21T09:15:50Z</time></trkpt><trkpt lat="45.36803932441093" lon="8.057372988800298"><ele>265.0</ele><time>2026-04-21T09:15:51Z</time></trkpt><trkpt lat="45.36796707729543" lon="8.057244274093113"><ele>265.0</ele><time>2026-04-21T09:15:53Z</time></trkpt><trkpt lat="45.3679587984496" lon="8.057139414401018"><ele>265.0</ele><time>2026-04-21T09:15:54Z</time></trkpt><trkpt lat="45.36796779861579" lon="8.057025217511711"><ele>265.0</ele><time>2026-04-21T09:15:55Z</time></trkpt><trkpt lat="45.36799318059215" lon="8.056890675391212"><ele>265.0</ele><time>2026-04-21T09:15:56Z</time></trkpt><trkpt lat="45.36802871484806" lon="8.056735765557434"><ele>265.0</ele><time>2026-04-21T09:15:57Z</time></trkpt><trkpt lat="45.368054289414104" lon="8.056602638802188"><ele>265.0</ele><time>2026-04-21T09:15:58Z</time></trkpt><trkpt lat="45.3680874988957" lon="8.05646333865288"><ele>265.0</ele><time>2026-04-21T09:15:59Z</time></trkpt><trkpt lat="45.36812100637907" lon="8.05631361425211"><ele>265.2</ele><time>2026-04-21T09:16:00Z</time></trkpt><trkpt lat="45.36815617519476" lon="8.056172458965547"><ele>265.4</ele><time>2026-04-21T09:16:01Z</time></trkpt><trkpt lat="45.36819212996326" lon="8.056040163084544"><ele>265.6</ele><time>2026-04-21T09:16:02Z</time></trkpt><trkpt lat="45.36823993103321" lon="8.055890303584405"><ele>265.8</ele><time>2026-04-21T09:16:03Z</time></trkpt><trkpt lat="45.36828485538441" lon="8.055732879188753"><ele>266.0</ele><time>2026-04-21T09:16:04Z</time></trkpt><trkpt lat="45.36832644556025" lon="8.055586303333302"><ele>266.5</ele><time>2026-04-21T09:16:05Z</time></trkpt><trkpt lat="45.36836451820586" lon="8.055434422079449"><ele>267.0</ele><time>2026-04-21T09:16:06Z</time></trkpt><trkpt lat="45.36840997647956" lon="8.05523792374114"><ele>267.5</ele><time>2026-04-21T09:16:07Z</time></trkpt><trkpt lat="45.36844677127386" lon="8.05506868697641"><ele>268.0</ele><time>2026-04-21T09:16:08Z</time></trkpt><trkpt lat="45.36848489417623" lon="8.054908353341897"><ele>268.25</ele><time>2026-04-21T09:16:09Z</time></trkpt><trkpt lat="45.36852779278405" lon="8.05473927551515"><ele>268.5</ele><time>2026-04-21T09:16:10Z</time></trkpt><trkpt lat="45.368578339371794" lon="8.054541161605181"><ele>268.75</ele><time>2026-04-21T09:16:11Z</time></trkpt><trkpt lat="45.36863350838802" lon="8.054365012916252"><ele>269.0</ele><time>2026-04-21T09:16:12Z</time></trkpt><trkpt lat="45.36868192261526" lon="8.054214887520764"><ele>268.75</ele><time>2026-04-21T09:16:13Z</time></trkpt><trkpt lat="45.36873167072842" lon="8.054052475720571"><ele>268.5</ele><time>2026-04-21T09:16:14Z</time></trkpt><trkpt lat="45.36876517202094" lon="8.053912796811225"><ele>268.25</ele><time>2026-04-21T09:16:15Z</time></trkpt><trkpt lat="45.36879870685459" lon="8.053747587266919"><ele>268.0</ele><time>2026-04-21T09:16:16Z</time></trkpt><trkpt lat="45.36884473855327" lon="8.053568325668476"><ele>268.5</ele><time>2026-04-21T09:16:17Z</time></trkpt><trkpt lat="45.36889729179418" lon="8.053389826067049"><ele>269.0</ele><time>2026-04-21T09:16:18Z</time></trkpt><trkpt lat="45.36894000237788" lon="8.053249764923551"><ele>269.5</ele><time>2026-04-21T09:16:19Z</time></trkpt><trkpt lat="45.36898110089974" lon="8.053097903089547"><ele>270.0</ele><time>2026-04-21T09:16:20Z</time></trkpt><trkpt lat="45.369017028742775" lon="8.052956379075148"><ele>270.0</ele><time>2026-04-21T09:16:21Z</time></trkpt><trkpt lat="45.36905513640042" lon="8.052800199689706"><ele>270.0</ele><time>2026-04-21T09:16:22Z</time></trkpt><trkpt lat="45.3690997117101" lon="8.052623081386292"><ele>270.0</ele><time>2026-04-21T09:16:23Z</time></trkpt><trkpt lat="45.369139022492575" lon="8.0524472533175"><ele>270.0</ele><time>2026-04-21T09:16:24Z</time></trkpt><trkpt lat="45.36917778840055" lon="8.052280600645773"><ele>270.25</ele><time>2026-04-21T09:16:25Z</time></trkpt><trkpt lat="45.36922140123644" lon="8.052104797172358"><ele>270.5</ele><time>2026-04-21T09:16:25.999Z</time></trkpt><trkpt lat="45.369262526009756" lon="8.051938164335379"><ele>270.75</ele><time>2026-04-21T09:16:26.999Z</time></trkpt><trkpt lat="45.36931074140673" lon="8.05177881730738"><ele>271.0</ele><time>2026-04-21T09:16:27.999Z</time></trkpt><trkpt lat="45.36935444045475" lon="8.051637822825946"><ele>271.2</ele><time>2026-04-21T09:16:28.999Z</time></trkpt><trkpt lat="45.36939589069436" lon="8.051501852021836"><ele>271.40000000000003</ele><time>2026-04-21T09:16:29.999Z</time></trkpt><trkpt lat="45.369437964300744" lon="8.051364592819313"><ele>271.6</ele><time>2026-04-21T09:16:30.999Z</time></trkpt><trkpt lat="45.36948225249667" lon="8.051230275346636"><ele>271.8</ele><time>2026-04-21T09:16:31.999Z</time></trkpt><trkpt lat="45.36952825457244" lon="8.051069267304452"><ele>272.0</ele><time>2026-04-21T09:16:32.999Z</time></trkpt><trkpt lat="45.36957168905953" lon="8.050926570167436"><ele>272.2</ele><time>2026-04-21T09:16:33.999Z</time></trkpt><trkpt lat="45.36962041263078" lon="8.050779778927428"><ele>272.4</ele><time>2026-04-21T09:16:34.999Z</time></trkpt><trkpt lat="45.369671904663285" lon="8.050642466262953"><ele>272.6</ele><time>2026-04-21T09:16:35.999Z</time></trkpt><trkpt lat="45.36972466682271" lon="8.050496292783352"><ele>272.8</ele><time>2026-04-21T09:16:36.999Z</time></trkpt><trkpt lat="45.36976558261435" lon="8.050361062699029"><ele>273.0</ele><time>2026-04-21T09:16:37.999Z</time></trkpt><trkpt lat="45.36980453266486" lon="8.05022980189842"><ele>273.4</ele><time>2026-04-21T09:16:38.999Z</time></trkpt><trkpt lat="45.36983478948876" lon="8.05010076674079"><ele>273.8</ele><time>2026-04-21T09:16:39.999Z</time></trkpt><trkpt lat="45.369859799606445" lon="8.049952016660127"><ele>274.2</ele><time>2026-04-21T09:16:40.999Z</time></trkpt><trkpt lat="45.36989287996211" lon="8.04980118635001"><ele>274.6</ele><time>2026-04-21T09:16:41.999Z</time></trkpt><trkpt lat="45.36993429196208" lon="8.049653828980789"><ele>275.0</ele><time>2026-04-21T09:16:42.999Z</time></trkpt><trkpt lat="45.36996860516744" lon="8.049535908106602"><ele>275.14285714285717</ele><time>2026-04-21T09:16:43.999Z</time></trkpt><trkpt lat="45.36999697229508" lon="8.049437123219205"><ele>275.2857142857143</ele><time>2026-04-21T09:16:44.999Z</time></trkpt><trkpt lat="45.37002617106258" lon="8.049349876833672"><ele>275.42857142857144</ele><time>2026-04-21T09:16:45.999Z</time></trkpt><trkpt lat="45.37004338773547" lon="8.04926250047448"><ele>275.57142857142856</ele><time>2026-04-21T09:16:46.999Z</time></trkpt><trkpt lat="45.370059422596626" lon="8.049172931031661"><ele>275.7142857142857</ele><time>2026-04-21T09:16:47.999Z</time></trkpt><trkpt lat="45.370079386731234" lon="8.049076464134213"><ele>275.8571428571429</ele><time>2026-04-21T09:16:48.999Z</time></trkpt><trkpt lat="45.37011149957486" lon="8.04898511397218"><ele>276.0</ele><time>2026-04-21T09:16:49.999Z</time></trkpt><trkpt lat="45.37014113277952" lon="8.048905333975808"><ele>276.0</ele><time>2026-04-21T09:16:50.999Z</time></trkpt><trkpt lat="45.370198816021876" lon="8.048788857387871"><ele>276.0</ele><time>2026-04-21T09:16:52.999Z</time></trkpt><trkpt lat="45.37031296286943" lon="8.048779669925034"><ele>276.0</ele><time>2026-04-21T09:16:54.999Z</time></trkpt><trkpt lat="45.370436250679184" lon="8.048815655514998"><ele>276.0</ele><time>2026-04-21T09:16:56.999Z</time></trkpt><trkpt lat="45.37052512356428" lon="8.048843079147826"><ele>276.0</ele><time>2026-04-21T09:16:58.999Z</time></trkpt><trkpt lat="45.37063260582022" lon="8.048733124510123"><ele>276.6</ele><time>2026-04-21T09:17:00.999Z</time></trkpt><trkpt lat="45.37070086342345" lon="8.04864105506136"><ele>277.20000000000005</ele><time>2026-04-21T09:17:01.999Z</time></trkpt><trkpt lat="45.370760246920696" lon="8.048545299033865"><ele>277.79999999999995</ele><time>2026-04-21T09:17:02.999Z</time></trkpt><trkpt lat="45.37082925535101" lon="8.048435394546487"><ele>278.4</ele><time>2026-04-21T09:17:03.999Z</time></trkpt><trkpt lat="45.370919901246246" lon="8.04831336604721"><ele>279.0</ele><time>2026-04-21T09:17:04.999Z</time></trkpt><trkpt lat="45.37101599472351" lon="8.04819328373813"><ele>279.0</ele><time>2026-04-21T09:17:05.999Z</time></trkpt><trkpt lat="45.37109703881096" lon="8.048090522150693"><ele>279.0</ele><time>2026-04-21T09:17:06.999Z</time></trkpt><trkpt lat="45.37116651584085" lon="8.047998050582125"><ele>279.0</ele><time>2026-04-21T09:17:07.999Z</time></trkpt><trkpt lat="45.37124415816458" lon="8.047879839424917"><ele>279.0</ele><time>2026-04-21T09:17:08.999Z</time></trkpt><trkpt lat="45.371317477659645" lon="8.047763964689954"><ele>279.0</ele><time>2026-04-21T09:17:09.999Z</time></trkpt><trkpt lat="45.37138163004581" lon="8.047661576334947"><ele>279.4</ele><time>2026-04-21T09:17:10.999Z</time></trkpt><trkpt lat="45.37144639797227" lon="8.047561299650422"><ele>279.79999999999995</ele><time>2026-04-21T09:17:11.999Z</time></trkpt><trkpt lat="45.37150929296176" lon="8.047466278042863"><ele>280.20000000000005</ele><time>2026-04-21T09:17:12.999Z</time></trkpt><trkpt lat="45.3715727895712" lon="8.047363717940392"><ele>280.6</ele><time>2026-04-21T09:17:13.999Z</time></trkpt><trkpt lat="45.37164026261948" lon="8.047270247584486"><ele>281.0</ele><time>2026-04-21T09:17:14.999Z</time></trkpt><trkpt lat="45.371711780405555" lon="8.047172738365566"><ele>281.2</ele><time>2026-04-21T09:17:15.999Z</time></trkpt><trkpt lat="45.371787127916534" lon="8.047054797790341"><ele>281.40000000000003</ele><time>2026-04-21T09:17:16.999Z</time></trkpt><trkpt lat="45.37185564709336" lon="8.046942269627063"><ele>281.6</ele><time>2026-04-21T09:17:17.999Z</time></trkpt><trkpt lat="45.37191641283974" lon="8.046837010115675"><ele>281.8</ele><time>2026-04-21T09:17:18.999Z</time></trkpt><trkpt lat="45.37197602804585" lon="8.04675743503044"><ele>282.0</ele><time>2026-04-21T09:17:19.999Z</time></trkpt><trkpt lat="45.37203036018131" lon="8.046684050382948"><ele>282.0</ele><time>2026-04-21T09:17:20.999Z</time></trkpt><trkpt lat="45.37207227235816" lon="8.046612520033836"><ele>282.0</ele><time>2026-04-21T09:17:21.999Z</time></trkpt><trkpt lat="45.37210325492691" lon="8.04652452867333"><ele>282.0</ele><time>2026-04-21T09:17:22.999Z</time></trkpt><trkpt lat="45.37212407508477" lon="8.046422875784309"><ele>282.0</ele><time>2026-04-21T09:17:23.999Z</time></trkpt><trkpt lat="45.37213439902541" lon="8.046311358400773"><ele>282.0</ele><time>2026-04-21T09:17:24.999Z</time></trkpt><trkpt lat="45.372152951530566" lon="8.046185900223326"><ele>282.0</ele><time>2026-04-21T09:17:25.999Z</time></trkpt><trkpt lat="45.37221673524076" lon="8.04606208997776"><ele>282.0</ele><time>2026-04-21T09:17:27.999Z</time></trkpt><trkpt lat="45.37227283718906" lon="8.046020530165801"><ele>282.0</ele><time>2026-04-21T09:17:28.999Z</time></trkpt><trkpt lat="45.37234468829378" lon="8.045974655095428"><ele>282.0</ele><time>2026-04-21T09:17:29.999Z</time></trkpt><trkpt lat="45.372397854941546" lon="8.045923749202027"><ele>282.0</ele><time>2026-04-21T09:17:30.999Z</time></trkpt><trkpt lat="45.37243489245395" lon="8.045850533167162"><ele>282.0</ele><time>2026-04-21T09:17:31.999Z</time></trkpt><trkpt lat="45.37245361783685" lon="8.045750152855865"><ele>282.0</ele><time>2026-04-21T09:17:32.999Z</time></trkpt><trkpt lat="45.372471126132176" lon="8.045610942545444"><ele>282.0</ele><time>2026-04-21T09:17:33.999Z</time></trkpt><trkpt lat="45.37250940117103" lon="8.045480113306477"><ele>282.4</ele><time>2026-04-21T09:17:34.999Z</time></trkpt><trkpt lat="45.37253255984128" lon="8.045388513210302"><ele>282.79999999999995</ele><time>2026-04-21T09:17:35.999Z</time></trkpt><trkpt lat="45.37252272664336" lon="8.045299937324632"><ele>283.2</ele><time>2026-04-21T09:17:36.999Z</time></trkpt><trkpt lat="45.37252533755633" lon="8.045144210802714"><ele>283.59999999999997</ele><time>2026-04-21T09:17:38.999Z</time></trkpt><trkpt lat="45.37243343796471" lon="8.044997919924059"><ele>284.0</ele><time>2026-04-21T09:17:41Z</time></trkpt><trkpt lat="45.37233808740601" lon="8.044900324019856"><ele>284.0</ele><time>2026-04-21T09:17:43Z</time></trkpt><trkpt lat="45.37231433407003" lon="8.044802056287207"><ele>284.0</ele><time>2026-04-21T09:18:17Z</time></trkpt><trkpt lat="45.37240878355484" lon="8.044831415501143"><ele>284.0</ele><time>2026-04-21T09:18:20Z</time></trkpt><trkpt lat="45.37248075661968" lon="8.044882155252921"><ele>284.0</ele><time>2026-04-21T09:18:21Z</time></trkpt><trkpt lat="45.372582029710486" lon="8.044917938832407"><ele>284.0</ele><time>2026-04-21T09:18:22Z</time></trkpt><trkpt lat="45.372692023175624" lon="8.044991451269237"><ele>284.25</ele><time>2026-04-21T09:18:23Z</time></trkpt><trkpt lat="45.37281058463255" lon="8.045019661697781"><ele>284.5</ele><time>2026-04-21T09:18:24Z</time></trkpt><trkpt lat="45.372915304028744" lon="8.045078715736048"><ele>284.75</ele><time>2026-04-21T09:18:25Z</time></trkpt><trkpt lat="45.373050896098405" lon="8.045115022464145"><ele>285.0</ele><time>2026-04-21T09:18:26Z</time></trkpt><trkpt lat="45.37317874332863" lon="8.045132824445188"><ele>285.3333333333333</ele><time>2026-04-21T09:18:26.999Z</time></trkpt><trkpt lat="45.37327751685878" lon="8.045172570946644"><ele>285.6666666666667</ele><time>2026-04-21T09:18:27.999Z</time></trkpt><trkpt lat="45.373355363303624" lon="8.04517451566993"><ele>286.0</ele><time>2026-04-21T09:18:28.999Z</time></trkpt><trkpt lat="45.373428132441724" lon="8.045165912015298"><ele>286.33333333333337</ele><time>2026-04-21T09:18:29.999Z</time></trkpt><trkpt lat="45.37349869166133" lon="8.045083757763193"><ele>286.6666666666667</ele><time>2026-04-21T09:18:30.999Z</time></trkpt><trkpt lat="45.373567641755464" lon="8.045006249125315"><ele>287.0</ele><time>2026-04-21T09:18:31.999Z</time></trkpt><trkpt lat="45.37364993864142" lon="8.044891161401821"><ele>287.0</ele><time>2026-04-21T09:18:32.999Z</time></trkpt><trkpt lat="45.37374506358345" lon="8.044756269657237"><ele>287.0</ele><time>2026-04-21T09:18:33.999Z</time></trkpt><trkpt lat="45.373847221153795" lon="8.044608974310757"><ele>287.0</ele><time>2026-04-21T09:18:34.999Z</time></trkpt><trkpt lat="45.37395429888862" lon="8.044439647278306"><ele>287.0</ele><time>2026-04-21T09:18:35.999Z</time></trkpt><trkpt lat="45.37406781917599" lon="8.044251746425246"><ele>288.0</ele><time>2026-04-21T09:18:36.999Z</time></trkpt><trkpt lat="45.37419031165161" lon="8.044047808130856"><ele>289.0</ele><time>2026-04-21T09:18:37.999Z</time></trkpt><trkpt lat="45.37429997319153" lon="8.043871211298336"><ele>290.0</ele><time>2026-04-21T09:18:38.999Z</time></trkpt><trkpt lat="45.37438947236108" lon="8.043728556897417"><ele>290.0</ele><time>2026-04-21T09:18:39.999Z</time></trkpt><trkpt lat="45.37446318248675" lon="8.043592734258059"><ele>290.0</ele><time>2026-04-21T09:18:40.999Z</time></trkpt><trkpt lat="45.374529506330816" lon="8.043475449928259"><ele>290.0</ele><time>2026-04-21T09:18:41.999Z</time></trkpt><trkpt lat="45.37458431293206" lon="8.043376254417481"><ele>290.0</ele><time>2026-04-21T09:18:42.999Z</time></trkpt><trkpt lat="45.37463868883457" lon="8.043295700962412"><ele>290.0</ele><time>2026-04-21T09:18:43.999Z</time></trkpt><trkpt lat="45.37469205853928" lon="8.043218716621094"><ele>290.33333333333337</ele><time>2026-04-21T09:18:44.999Z</time></trkpt><trkpt lat="45.374740890234534" lon="8.043157135648062"><ele>290.6666666666667</ele><time>2026-04-21T09:18:45.999Z</time></trkpt><trkpt lat="45.37480259746562" lon="8.043067979070821"><ele>291.0</ele><time>2026-04-21T09:18:47.999Z</time></trkpt><trkpt lat="45.374881686511955" lon="8.042994778651778"><ele>291.3333333333333</ele><time>2026-04-21T09:18:50.999Z</time></trkpt><trkpt lat="45.37494550595141" lon="8.042941015782402"><ele>291.66666666666663</ele><time>2026-04-21T09:18:51.999Z</time></trkpt><trkpt lat="45.375035522248275" lon="8.042877958388688"><ele>292.0</ele><time>2026-04-21T09:18:52.999Z</time></trkpt><trkpt lat="45.37514456164066" lon="8.04280829507547"><ele>292.0</ele><time>2026-04-21T09:18:53.999Z</time></trkpt><trkpt lat="45.375269383353334" lon="8.042740290183838"><ele>292.0</ele><time>2026-04-21T09:18:54.999Z</time></trkpt><trkpt lat="45.375394865799784" lon="8.042667933792027"><ele>292.0</ele><time>2026-04-21T09:18:55.999Z</time></trkpt><trkpt lat="45.37551533279483" lon="8.042593253208683"><ele>292.0</ele><time>2026-04-21T09:18:56.999Z</time></trkpt><trkpt lat="45.37564140557629" lon="8.042501105885966"><ele>293.25</ele><time>2026-04-21T09:18:57.999Z</time></trkpt><trkpt lat="45.37576860396037" lon="8.042399512936367"><ele>294.5</ele><time>2026-04-21T09:18:58.999Z</time></trkpt><trkpt lat="45.37588359861039" lon="8.042302204966306"><ele>295.75</ele><time>2026-04-21T09:18:59.999Z</time></trkpt><trkpt lat="45.37597232937166" lon="8.042216495309182"><ele>297.0</ele><time>2026-04-21T09:19:00.999Z</time></trkpt><trkpt lat="45.37604278341355" lon="8.04213382125527"><ele>297.0</ele><time>2026-04-21T09:19:01.999Z</time></trkpt><trkpt lat="45.376117316523214" lon="8.04202611474903"><ele>297.0</ele><time>2026-04-21T09:19:02.999Z</time></trkpt><trkpt lat="45.37619451743806" lon="8.041880261435175"><ele>297.0</ele><time>2026-04-21T09:19:03.999Z</time></trkpt><trkpt lat="45.37627112992394" lon="8.041700061598965"><ele>297.0</ele><time>2026-04-21T09:19:04.999Z</time></trkpt><trkpt lat="45.37635458306957" lon="8.041501817813918"><ele>296.0</ele><time>2026-04-21T09:19:05.999Z</time></trkpt><trkpt lat="45.37643133943567" lon="8.041278226124254"><ele>295.0</ele><time>2026-04-21T09:19:06.999Z</time></trkpt><trkpt lat="45.37649955187425" lon="8.041079963122266"><ele>294.0</ele><time>2026-04-21T09:19:07.999Z</time></trkpt><trkpt lat="45.37657368304509" lon="8.040880799274474"><ele>294.25</ele><time>2026-04-21T09:19:08.999Z</time></trkpt><trkpt lat="45.376644691805126" lon="8.040703473682802"><ele>294.5</ele><time>2026-04-21T09:19:09.999Z</time></trkpt><trkpt lat="45.37672422502272" lon="8.040565659848442"><ele>294.75</ele><time>2026-04-21T09:19:10.999Z</time></trkpt><trkpt lat="45.37680443887395" lon="8.04038560161487"><ele>295.0</ele><time>2026-04-21T09:19:11.999Z</time></trkpt><trkpt lat="45.376901307757954" lon="8.040208174365674"><ele>295.0</ele><time>2026-04-21T09:19:12.999Z</time></trkpt><trkpt lat="45.37700784427304" lon="8.0400268820816"><ele>295.0</ele><time>2026-04-21T09:19:13.999Z</time></trkpt><trkpt lat="45.37712886349179" lon="8.039847451958044"><ele>295.0</ele><time>2026-04-21T09:19:14.999Z</time></trkpt><trkpt lat="45.37724587956808" lon="8.039670259334303"><ele>295.5</ele><time>2026-04-21T09:19:15.999Z</time></trkpt><trkpt lat="45.37734921850383" lon="8.039509388456969"><ele>296.0</ele><time>2026-04-21T09:19:16.999Z</time></trkpt><trkpt lat="45.37745864806889" lon="8.03937456315112"><ele>296.5</ele><time>2026-04-21T09:19:17.999Z</time></trkpt><trkpt lat="45.3775341324233" lon="8.039229954734449"><ele>297.0</ele><time>2026-04-21T09:19:18.999Z</time></trkpt><trkpt lat="45.3776078999128" lon="8.039097920590905"><ele>297.75</ele><time>2026-04-21T09:19:19.999Z</time></trkpt><trkpt lat="45.377682029420384" lon="8.038978294177873"><ele>298.5</ele><time>2026-04-21T09:19:20.999Z</time></trkpt><trkpt lat="45.377778039793206" lon="8.038891557273589"><ele>299.25</ele><time>2026-04-21T09:19:21.999Z</time></trkpt><trkpt lat="45.37788634054943" lon="8.038801553564236"><ele>300.0</ele><time>2026-04-21T09:19:22.999Z</time></trkpt><trkpt lat="45.37798318053997" lon="8.038742957181501"><ele>300.0</ele><time>2026-04-21T09:19:23.999Z</time></trkpt><trkpt lat="45.378075210668136" lon="8.038693823612055"><ele>300.0</ele><time>2026-04-21T09:19:24.999Z</time></trkpt><trkpt lat="45.3781478976716" lon="8.038626803910136"><ele>300.0</ele><time>2026-04-21T09:19:25.999Z</time></trkpt><trkpt lat="45.37819696751956" lon="8.038533687370172"><ele>300.0</ele><time>2026-04-21T09:19:26.999Z</time></trkpt><trkpt lat="45.37823266817295" lon="8.038424886947213"><ele>300.0</ele><time>2026-04-21T09:19:27.999Z</time></trkpt><trkpt lat="45.37825006356724" lon="8.038311315165982"><ele>300.0</ele><time>2026-04-21T09:19:28.999Z</time></trkpt><trkpt lat="45.378249445006944" lon="8.038174807186303"><ele>300.0</ele><time>2026-04-21T09:19:29.999Z</time></trkpt><trkpt lat="45.378224745440384" lon="8.038011903189624"><ele>300.0</ele><time>2026-04-21T09:19:30.999Z</time></trkpt><trkpt lat="45.378161916199524" lon="8.037847078088191"><ele>300.0</ele><time>2026-04-21T09:19:31.999Z</time></trkpt><trkpt lat="45.378098471881515" lon="8.037684990091606"><ele>300.0</ele><time>2026-04-21T09:19:32.999Z</time></trkpt><trkpt lat="45.378022829351956" lon="8.037512876404124"><ele>301.0</ele><time>2026-04-21T09:19:33.999Z</time></trkpt><trkpt lat="45.37796962677944" lon="8.037371439079534"><ele>302.0</ele><time>2026-04-21T09:19:34.999Z</time></trkpt><trkpt lat="45.377943841726236" lon="8.037242943558155"><ele>303.0</ele><time>2026-04-21T09:19:35.999Z</time></trkpt><trkpt lat="45.37793688638775" lon="8.037116701115961"><ele>304.0</ele><time>2026-04-21T09:19:36.999Z</time></trkpt><trkpt lat="45.37795331778934" lon="8.036993900176832"><ele>305.0</ele><time>2026-04-21T09:19:37.999Z</time></trkpt><trkpt lat="45.3779986579683" lon="8.036877724979085"><ele>304.75</ele><time>2026-04-21T09:19:38.999Z</time></trkpt><trkpt lat="45.37807127350623" lon="8.036749401811107"><ele>304.5</ele><time>2026-04-21T09:19:39.999Z</time></trkpt><trkpt lat="45.378168810726905" lon="8.036591741049158"><ele>304.25</ele><time>2026-04-21T09:19:40.999Z</time></trkpt><trkpt lat="45.37827488012345" lon="8.036434421966193"><ele>304.0</ele><time>2026-04-21T09:19:41.999Z</time></trkpt><trkpt lat="45.37836062359221" lon="8.036306337931762"><ele>304.75</ele><time>2026-04-21T09:19:42.999Z</time></trkpt><trkpt lat="45.37844268648106" lon="8.036195307560574"><ele>305.5</ele><time>2026-04-21T09:19:43.999Z</time></trkpt><trkpt lat="45.378543819304525" lon="8.036087059001737"><ele>306.25</ele><time>2026-04-21T09:19:44.999Z</time></trkpt><trkpt lat="45.37866695202747" lon="8.03600114716402"><ele>307.0</ele><time>2026-04-21T09:19:45.999Z</time></trkpt><trkpt lat="45.37877377163795" lon="8.03592130793195"><ele>307.0</ele><time>2026-04-21T09:19:47Z</time></trkpt><trkpt lat="45.37886939989993" lon="8.035840341378826"><ele>307.0</ele><time>2026-04-21T09:19:48Z</time></trkpt><trkpt lat="45.37896232744212" lon="8.035708960728451"><ele>307.0</ele><time>2026-04-21T09:19:49Z</time></trkpt><trkpt lat="45.379064321061286" lon="8.035541910791231"><ele>307.0</ele><time>2026-04-21T09:19:50Z</time></trkpt><trkpt lat="45.379170685416526" lon="8.035385462731526"><ele>307.66666666666663</ele><time>2026-04-21T09:19:51Z</time></trkpt><trkpt lat="45.37928417818003" lon="8.035234754852683"><ele>308.3333333333333</ele><time>2026-04-21T09:19:52Z</time></trkpt><trkpt lat="45.379393441318335" lon="8.035092005886748"><ele>309.0</ele><time>2026-04-21T09:19:53Z</time></trkpt><trkpt lat="45.37952638424157" lon="8.034959665704381"><ele>310.2</ele><time>2026-04-21T09:19:54Z</time></trkpt><trkpt lat="45.37962176176523" lon="8.034825467270217"><ele>311.4</ele><time>2026-04-21T09:19:55Z</time></trkpt><trkpt lat="45.379713387148094" lon="8.034723214811102"><ele>312.6</ele><time>2026-04-21T09:19:56Z</time></trkpt><trkpt lat="45.37980724074359" lon="8.034661844842974"><ele>313.8</ele><time>2026-04-21T09:19:57Z</time></trkpt><trkpt lat="45.379888561926776" lon="8.03459215663893"><ele>315.0</ele><time>2026-04-21T09:19:58Z</time></trkpt><trkpt lat="45.37999072351038" lon="8.03451936661512"><ele>315.0</ele><time>2026-04-21T09:19:59Z</time></trkpt><trkpt lat="45.380115015269546" lon="8.03448498410195"><ele>315.0</ele><time>2026-04-21T09:20:00Z</time></trkpt><trkpt lat="45.380262047733524" lon="8.034459592075029"><ele>315.0</ele><time>2026-04-21T09:20:01Z</time></trkpt><trkpt lat="45.38041977350664" lon="8.034441621537988"><ele>315.0</ele><time>2026-04-21T09:20:02Z</time></trkpt><trkpt lat="45.380580475102526" lon="8.034444111518221"><ele>313.75</ele><time>2026-04-21T09:20:03Z</time></trkpt><trkpt lat="45.38071433411951" lon="8.034451567969128"><ele>312.5</ele><time>2026-04-21T09:20:04Z</time></trkpt><trkpt lat="45.38082083221912" lon="8.034469670475481"><ele>311.25</ele><time>2026-04-21T09:20:05Z</time></trkpt><trkpt lat="45.38092759091347" lon="8.034430338898403"><ele>310.0</ele><time>2026-04-21T09:20:06Z</time></trkpt><trkpt lat="45.38102290211729" lon="8.03439766386161"><ele>310.0</ele><time>2026-04-21T09:20:07Z</time></trkpt><trkpt lat="45.38110844033206" lon="8.034358327733358"><ele>310.0</ele><time>2026-04-21T09:20:08Z</time></trkpt><trkpt lat="45.38121149159189" lon="8.034302365603898"><ele>310.0</ele><time>2026-04-21T09:20:09Z</time></trkpt><trkpt lat="45.38133606700458" lon="8.034273073921213"><ele>310.0</ele><time>2026-04-21T09:20:10Z</time></trkpt><trkpt lat="45.381438980869255" lon="8.03420982035223"><ele>310.0</ele><time>2026-04-21T09:20:11Z</time></trkpt><trkpt lat="45.38152790380724" lon="8.034183142198874"><ele>310.6</ele><time>2026-04-21T09:20:12Z</time></trkpt><trkpt lat="45.38160637781412" lon="8.034183862499061"><ele>311.2</ele><time>2026-04-21T09:20:13Z</time></trkpt><trkpt lat="45.381671096575324" lon="8.034188458503385"><ele>311.8</ele><time>2026-04-21T09:20:14Z</time></trkpt><trkpt lat="45.381798940346016" lon="8.034139084403536"><ele>312.4</ele><time>2026-04-21T09:20:16Z</time></trkpt><trkpt lat="45.38186242594649" lon="8.03414066732877"><ele>313.0</ele><time>2026-04-21T09:20:19Z</time></trkpt><trkpt lat="45.382155288177344" lon="8.034175501702459"><ele>313.0</ele><time>2026-04-21T09:20:20Z</time></trkpt><trkpt lat="45.38184700598747" lon="8.034409173877094"><ele>313.0</ele><time>2026-04-21T09:20:21Z</time></trkpt><trkpt lat="45.38176641636716" lon="8.03439453611318"><ele>313.0</ele><time>2026-04-21T09:20:23Z</time></trkpt><trkpt lat="45.38176040112251" lon="8.034280428220667"><ele>313.0</ele><time>2026-04-21T09:20:25Z</time></trkpt><trkpt lat="45.38184269764217" lon="8.0342342107216"><ele>313.0</ele><time>2026-04-21T09:20:27Z</time></trkpt><trkpt lat="45.381940217278355" lon="8.034281760034185"><ele>313.0</ele><time>2026-04-21T09:20:29Z</time></trkpt><trkpt lat="45.38197706684197" lon="8.034444830209317"><ele>313.0</ele><time>2026-04-21T09:20:31Z</time></trkpt><trkpt lat="45.381963548999806" lon="8.034580067005754"><ele>313.0</ele><time>2026-04-21T09:20:33Z</time></trkpt><trkpt lat="45.38198932669371" lon="8.034477888323524"><ele>313.0</ele><time>2026-04-21T09:20:38.999Z</time></trkpt><trkpt lat="45.3819625812321" lon="8.03433045033016"><ele>313.0</ele><time>2026-04-21T09:20:40.999Z</time></trkpt><trkpt lat="45.38194758393828" lon="8.034219365823954"><ele>313.0</ele><time>2026-04-21T09:20:42.999Z</time></trkpt><trkpt lat="45.38192345926197" lon="8.034132759664171"><ele>313.0</ele><time>2026-04-21T09:20:45.999Z</time></trkpt><trkpt lat="45.381895765043204" lon="8.03404141843497"><ele>313.0</ele><time>2026-04-21T09:20:47.999Z</time></trkpt><trkpt lat="45.381867780625676" lon="8.033951139612538"><ele>313.0</ele><time>2026-04-21T09:20:49.999Z</time></trkpt><trkpt lat="45.381883646961704" lon="8.033860066272354"><ele>313.0</ele><time>2026-04-21T09:20:51.999Z</time></trkpt><trkpt lat="45.38195503850313" lon="8.03382240210444"><ele>313.0</ele><time>2026-04-21T09:20:53.999Z</time></trkpt><trkpt lat="45.382029252804365" lon="8.034077851393977"><ele>313.0</ele><time>2026-04-21T09:20:54.999Z</time></trkpt><trkpt lat="45.382054486811555" lon="8.033956695790318"><ele>313.0</ele><time>2026-04-21T09:20:56.999Z</time></trkpt><trkpt lat="45.382084388203765" lon="8.03405950596271"><ele>313.0</ele><time>2026-04-21T09:20:58.999Z</time></trkpt><trkpt lat="45.382014777891904" lon="8.034124736109781"><ele>313.0</ele><time>2026-04-21T09:21:00.999Z</time></trkpt><trkpt lat="45.38193139315474" lon="8.034055216376464"><ele>313.0</ele><time>2026-04-21T09:21:01.999Z</time></trkpt><trkpt lat="45.38184075650444" lon="8.034079578121863"><ele>313.0</ele><time>2026-04-21T09:21:03.999Z</time></trkpt><trkpt lat="45.381665263759295" lon="8.034448949178083"><ele>313.0</ele><time>2026-04-21T09:21:07.999Z</time></trkpt><trkpt lat="45.38190173956605" lon="8.03425456832214"><ele>313.0</ele><time>2026-04-21T09:21:31.999Z</time></trkpt><trkpt lat="45.381864508560426" lon="8.034157734490625"><ele>313.0</ele><time>2026-04-21T09:23:29.999Z</time></trkpt><trkpt lat="45.38189176846024" lon="8.034247046972597"><ele>313.0</ele><time>2026-04-21T09:23:35.999Z</time></trkpt><trkpt lat="45.381855196685656" lon="8.034159340837903"><ele>313.0</ele><time>2026-04-21T09:25:26.999Z</time></trkpt><trkpt lat="45.38191423881797" lon="8.034210904360044"><ele>313.0</ele><time>2026-04-21T09:28:27Z</time></trkpt><trkpt lat="45.38185227157414" lon="8.034187917073973"><ele>313.0</ele><time>2026-04-21T09:32:40Z</time></trkpt><trkpt lat="45.38189410337203" lon="8.034258026804133"><ele>313.0</ele><time>2026-04-21T09:33:15.999Z</time></trkpt><trkpt lat="45.381911662078586" lon="8.034356071740417"><ele>313.0</ele><time>2026-04-21T09:34:47Z</time></trkpt><trkpt lat="45.381900503795215" lon="8.034500462626227"><ele>313.0</ele><time>2026-04-21T09:34:48.999Z</time></trkpt><trkpt lat="45.38194513682929" lon="8.034596807530276"><ele>313.0</ele><time>2026-04-21T09:34:50.999Z</time></trkpt><trkpt lat="45.3820164313824" lon="8.03461138986935"><ele>313.0</ele><time>2026-04-21T09:34:52.999Z</time></trkpt><trkpt lat="45.38210224009062" lon="8.034594288363763"><ele>313.0</ele><time>2026-04-21T09:34:54.999Z</time></trkpt><trkpt lat="45.38216009287173" lon="8.034514956053906"><ele>313.0</ele><time>2026-04-21T09:34:56.999Z</time></trkpt><trkpt lat="45.382186596753996" lon="8.034370500625544"><ele>313.0</ele><time>2026-04-21T09:34:58.999Z</time></trkpt><trkpt lat="45.382182576461105" lon="8.034273982161723"><ele>313.0</ele><time>2026-04-21T09:34:59.999Z</time></trkpt><trkpt lat="45.38215922156682" lon="8.034157967395211"><ele>313.0</ele><time>2026-04-21T09:35:00.999Z</time></trkpt><trkpt lat="45.38211304788197" lon="8.034041846982518"><ele>313.0</ele><time>2026-04-21T09:35:01.999Z</time></trkpt><trkpt lat="45.382054809360426" lon="8.03393642710112"><ele>313.0</ele><time>2026-04-21T09:35:02.999Z</time></trkpt><trkpt lat="45.38199092044194" lon="8.033849196675158"><ele>313.0</ele><time>2026-04-21T09:35:03.999Z</time></trkpt><trkpt lat="45.38191813126598" lon="8.033780170409555"><ele>313.0</ele><time>2026-04-21T09:35:04.999Z</time></trkpt><trkpt lat="45.3818564415713" lon="8.033732349013853"><ele>313.0</ele><time>2026-04-21T09:35:05.999Z</time></trkpt><trkpt lat="45.381763967372294" lon="8.033654308714603"><ele>313.0</ele><time>2026-04-21T09:35:07.999Z</time></trkpt><trkpt lat="45.38165792366604" lon="8.033652230405929"><ele>313.0</ele><time>2026-04-21T09:35:09.999Z</time></trkpt><trkpt lat="45.38159957122976" lon="8.033712249965"><ele>313.0</ele><time>2026-04-21T09:35:10.999Z</time></trkpt><trkpt lat="45.38156169273898" lon="8.033818615317145"><ele>313.0</ele><time>2026-04-21T09:35:11.999Z</time></trkpt><trkpt lat="45.38155064889324" lon="8.033930121123447"><ele>313.0</ele><time>2026-04-21T09:35:12.999Z</time></trkpt><trkpt lat="45.38155362144805" lon="8.034035525254966"><ele>313.0</ele><time>2026-04-21T09:35:13.999Z</time></trkpt><trkpt lat="45.381570561220016" lon="8.034143190465523"><ele>313.0</ele><time>2026-04-21T09:35:14.999Z</time></trkpt><trkpt lat="45.38160314911668" lon="8.034251406474493"><ele>313.0</ele><time>2026-04-21T09:35:15.999Z</time></trkpt><trkpt lat="45.381641911448284" lon="8.034366206168219"><ele>313.0</ele><time>2026-04-21T09:35:16.999Z</time></trkpt><trkpt lat="45.38167559499108" lon="8.034467794619715"><ele>313.0</ele><time>2026-04-21T09:35:17.999Z</time></trkpt><trkpt lat="45.38171270114195" lon="8.034542878860597"><ele>313.0</ele><time>2026-04-21T09:35:18.999Z</time></trkpt><trkpt lat="45.38176680975293" lon="8.034595980969426"><ele>313.0</ele><time>2026-04-21T09:35:19.999Z</time></trkpt><trkpt lat="45.38183186952304" lon="8.034626373335753"><ele>313.0</ele><time>2026-04-21T09:35:20.999Z</time></trkpt><trkpt lat="45.381902658014134" lon="8.034635513536593"><ele>313.0</ele><time>2026-04-21T09:35:21.999Z</time></trkpt><trkpt lat="45.38198023987966" lon="8.034634911413859"><ele>313.0</ele><time>2026-04-21T09:35:22.999Z</time></trkpt><trkpt lat="45.38205191987761" lon="8.034614725621319"><ele>313.0</ele><time>2026-04-21T09:35:23.999Z</time></trkpt><trkpt lat="45.382152922293876" lon="8.034530483786073"><ele>313.0</ele><time>2026-04-21T09:35:25.999Z</time></trkpt><trkpt lat="45.38218114600253" lon="8.034440093553506"><ele>313.0</ele><time>2026-04-21T09:35:26.999Z</time></trkpt><trkpt lat="45.3821971986324" lon="8.034330721105473"><ele>313.0</ele><time>2026-04-21T09:35:27.999Z</time></trkpt><trkpt lat="45.38217867245416" lon="8.034208959273487"><ele>313.0</ele><time>2026-04-21T09:35:28.999Z</time></trkpt><trkpt lat="45.3821434680575" lon="8.03409323242522"><ele>313.0</ele><time>2026-04-21T09:35:29.999Z</time></trkpt><trkpt lat="45.38208242876476" lon="8.033972678838472"><ele>313.0</ele><time>2026-04-21T09:35:30.999Z</time></trkpt><trkpt lat="45.38200676425697" lon="8.033864250074524"><ele>313.0</ele><time>2026-04-21T09:35:31.999Z</time></trkpt><trkpt lat="45.38193352816335" lon="8.033786516075942"><ele>313.0</ele><time>2026-04-21T09:35:32.999Z</time></trkpt><trkpt lat="45.381863021836125" lon="8.03373303519863"><ele>313.0</ele><time>2026-04-21T09:35:33.999Z</time></trkpt><trkpt lat="45.381800155971995" lon="8.03368231849444"><ele>313.0</ele><time>2026-04-21T09:35:34.999Z</time></trkpt><trkpt lat="45.381706818906736" lon="8.033627951917282"><ele>313.0</ele><time>2026-04-21T09:35:36.999Z</time></trkpt><trkpt lat="45.38159956312181" lon="8.033709081523517"><ele>313.0</ele><time>2026-04-21T09:35:38.999Z</time></trkpt><trkpt lat="45.38155841721317" lon="8.033810826022581"><ele>313.0</ele><time>2026-04-21T09:35:39.999Z</time></trkpt><trkpt lat="45.381541220351004" lon="8.033916082529293"><ele>313.0</ele><time>2026-04-21T09:35:40.999Z</time></trkpt><trkpt lat="45.38154186101455" lon="8.034041661171635"><ele>313.0</ele><time>2026-04-21T09:35:41.999Z</time></trkpt><trkpt lat="45.381555658650406" lon="8.034156331462034"><ele>313.0</ele><time>2026-04-21T09:35:42.999Z</time></trkpt><trkpt lat="45.38159221271622" lon="8.034271372260497"><ele>313.0</ele><time>2026-04-21T09:35:43.999Z</time></trkpt><trkpt lat="45.38164840002304" lon="8.034395459764381"><ele>313.0</ele><time>2026-04-21T09:35:44.999Z</time></trkpt><trkpt lat="45.381692013557114" lon="8.034485432879114"><ele>313.0</ele><time>2026-04-21T09:35:45.999Z</time></trkpt><trkpt lat="45.38172773597683" lon="8.034559271890918"><ele>313.0</ele><time>2026-04-21T09:35:46.999Z</time></trkpt><trkpt lat="45.38184560050102" lon="8.034638558844998"><ele>313.0</ele><time>2026-04-21T09:35:48.999Z</time></trkpt><trkpt lat="45.38191113971694" lon="8.034650392366775"><ele>313.0</ele><time>2026-04-21T09:35:49.999Z</time></trkpt><trkpt lat="45.38198672984174" lon="8.034640506838056"><ele>313.0</ele><time>2026-04-21T09:35:50.999Z</time></trkpt><trkpt lat="45.38205881891788" lon="8.034614507102376"><ele>313.0</ele><time>2026-04-21T09:35:51.999Z</time></trkpt><trkpt lat="45.38211690092675" lon="8.03457938511592"><ele>313.0</ele><time>2026-04-21T09:35:52.999Z</time></trkpt><trkpt lat="45.38218171900802" lon="8.034434439228404"><ele>313.0</ele><time>2026-04-21T09:35:54.999Z</time></trkpt><trkpt lat="45.38219311797176" lon="8.03431951479969"><ele>313.0</ele><time>2026-04-21T09:35:55.999Z</time></trkpt><trkpt lat="45.382181097563276" lon="8.034206800396865"><ele>313.0</ele><time>2026-04-21T09:35:56.999Z</time></trkpt><trkpt lat="45.38214738563003" lon="8.034099084172768"><ele>313.0</ele><time>2026-04-21T09:35:57.999Z</time></trkpt><trkpt lat="45.382091679437046" lon="8.033990153943288"><ele>313.0</ele><time>2026-04-21T09:35:58.999Z</time></trkpt><trkpt lat="45.38201223223182" lon="8.033869766357128"><ele>313.0</ele><time>2026-04-21T09:35:59.999Z</time></trkpt><trkpt lat="45.381924837222705" lon="8.033770610942085"><ele>313.0</ele><time>2026-04-21T09:36:00.999Z</time></trkpt><trkpt lat="45.38184058016462" lon="8.03370538045058"><ele>313.0</ele><time>2026-04-21T09:36:01.999Z</time></trkpt><trkpt lat="45.38173497243118" lon="8.033635670521708"><ele>313.0</ele><time>2026-04-21T09:36:03.999Z</time></trkpt><trkpt lat="45.38162442318968" lon="8.033679952714442"><ele>313.0</ele><time>2026-04-21T09:36:05.999Z</time></trkpt><trkpt lat="45.38157873966182" lon="8.033776299738257"><ele>313.0</ele><time>2026-04-21T09:36:06.999Z</time></trkpt><trkpt lat="45.381553113799846" lon="8.033897403571725"><ele>313.0</ele><time>2026-04-21T09:36:07.999Z</time></trkpt><trkpt lat="45.38154658755631" lon="8.034036453761402"><ele>313.0</ele><time>2026-04-21T09:36:08.999Z</time></trkpt><trkpt lat="45.38155820371645" lon="8.034178016495705"><ele>313.0</ele><time>2026-04-21T09:36:09.999Z</time></trkpt><trkpt lat="45.38159145888825" lon="8.034312039698005"><ele>313.0</ele><time>2026-04-21T09:36:10.999Z</time></trkpt><trkpt lat="45.38164120948867" lon="8.03443362785626"><ele>313.0</ele><time>2026-04-21T09:36:11.999Z</time></trkpt><trkpt lat="45.381694216271946" lon="8.034519878968915"><ele>313.0</ele><time>2026-04-21T09:36:12.999Z</time></trkpt><trkpt lat="45.38174680903456" lon="8.03457994366204"><ele>313.0</ele><time>2026-04-21T09:36:13.999Z</time></trkpt><trkpt lat="45.3818085957019" lon="8.034629268701886"><ele>313.0</ele><time>2026-04-21T09:36:14.999Z</time></trkpt><trkpt lat="45.38187911637405" lon="8.034652692348358"><ele>313.0</ele><time>2026-04-21T09:36:15.999Z</time></trkpt><trkpt lat="45.381953602948734" lon="8.034643547326366"><ele>313.0</ele><time>2026-04-21T09:36:16.999Z</time></trkpt><trkpt lat="45.38203844110521" lon="8.03461851928354"><ele>313.0</ele><time>2026-04-21T09:36:17.999Z</time></trkpt><trkpt lat="45.3821035983651" lon="8.034589255331907"><ele>313.0</ele><time>2026-04-21T09:36:18.999Z</time></trkpt><trkpt lat="45.38217842367794" lon="8.034457285920048"><ele>313.0</ele><time>2026-04-21T09:36:20.999Z</time></trkpt><trkpt lat="45.382191579295686" lon="8.034350757568733"><ele>313.0</ele><time>2026-04-21T09:36:21.999Z</time></trkpt><trkpt lat="45.382179568871074" lon="8.034234017054237"><ele>313.0</ele><time>2026-04-21T09:36:22.999Z</time></trkpt><trkpt lat="45.382148051669716" lon="8.034107411853482"><ele>313.0</ele><time>2026-04-21T09:36:23.999Z</time></trkpt><trkpt lat="45.38208936415994" lon="8.033980038554825"><ele>313.0</ele><time>2026-04-21T09:36:24.999Z</time></trkpt><trkpt lat="45.38201082728584" lon="8.03386774383175"><ele>313.0</ele><time>2026-04-21T09:36:25.999Z</time></trkpt><trkpt lat="45.38192541908659" lon="8.033772970343053"><ele>313.0</ele><time>2026-04-21T09:36:26.999Z</time></trkpt><trkpt lat="45.381846042918575" lon="8.03371390860749"><ele>313.0</ele><time>2026-04-21T09:36:27.999Z</time></trkpt><trkpt lat="45.38178172972916" lon="8.033665628899406"><ele>313.0</ele><time>2026-04-21T09:36:28.999Z</time></trkpt><trkpt lat="45.38167419290959" lon="8.03362985949067"><ele>313.0</ele><time>2026-04-21T09:36:30.999Z</time></trkpt><trkpt lat="45.381619976353896" lon="8.033677982563697"><ele>313.0</ele><time>2026-04-21T09:36:31.999Z</time></trkpt><trkpt lat="45.381570088315165" lon="8.033774495601632"><ele>313.0</ele><time>2026-04-21T09:36:32.998Z</time></trkpt><trkpt lat="45.3815436224436" lon="8.033892207751766"><ele>313.0</ele><time>2026-04-21T09:36:33.998Z</time></trkpt><trkpt lat="45.38153653198122" lon="8.034032738545221"><ele>313.0</ele><time>2026-04-21T09:36:34.999Z</time></trkpt><trkpt lat="45.38154602059266" lon="8.03416175561322"><ele>313.0</ele><time>2026-04-21T09:36:35.999Z</time></trkpt><trkpt lat="45.38157735153694" lon="8.034269326856338"><ele>313.0</ele><time>2026-04-21T09:36:36.999Z</time></trkpt><trkpt lat="45.38162854834123" lon="8.034384254458363"><ele>313.0</ele><time>2026-04-21T09:36:37.999Z</time></trkpt><trkpt lat="45.38168095713134" lon="8.034488389672505"><ele>313.0</ele><time>2026-04-21T09:36:38.999Z</time></trkpt><trkpt lat="45.38172702652066" lon="8.034558608920651"><ele>313.0</ele><time>2026-04-21T09:36:39.999Z</time></trkpt><trkpt lat="45.38178418612668" lon="8.034611420355883"><ele>313.0</ele><time>2026-04-21T09:36:40.999Z</time></trkpt><trkpt lat="45.38185045361464" lon="8.034643309138293"><ele>313.0</ele><time>2026-04-21T09:36:41.999Z</time></trkpt><trkpt lat="45.38191937784689" lon="8.034651860389578"><ele>313.0</ele><time>2026-04-21T09:36:42.999Z</time></trkpt><trkpt lat="45.38200140129075" lon="8.034633255520232"><ele>313.0</ele><time>2026-04-21T09:36:43.999Z</time></trkpt><trkpt lat="45.382080638134084" lon="8.034605446891845"><ele>313.0</ele><time>2026-04-21T09:36:44.999Z</time></trkpt><trkpt lat="45.38213652998348" lon="8.034560600685282"><ele>313.0</ele><time>2026-04-21T09:36:45.999Z</time></trkpt><trkpt lat="45.382188864054214" lon="8.03438897289077"><ele>313.0</ele><time>2026-04-21T09:36:47.999Z</time></trkpt><trkpt lat="45.382186724895035" lon="8.034255455011312"><ele>313.0</ele><time>2026-04-21T09:36:48.999Z</time></trkpt><trkpt lat="45.382160406963735" lon="8.034113612637686"><ele>313.0</ele><time>2026-04-21T09:36:49.999Z</time></trkpt><trkpt lat="45.382101711512924" lon="8.03399018227869"><ele>313.0</ele><time>2026-04-21T09:36:50.999Z</time></trkpt><trkpt lat="45.38202896547498" lon="8.033879691908398"><ele>313.0</ele><time>2026-04-21T09:36:51.999Z</time></trkpt><trkpt lat="45.38195146164669" lon="8.033797865832303"><ele>313.0</ele><time>2026-04-21T09:36:52.999Z</time></trkpt><trkpt lat="45.38188866747077" lon="8.03373794560417"><ele>313.0</ele><time>2026-04-21T09:36:53.999Z</time></trkpt><trkpt lat="45.381793589729746" lon="8.033654007769492"><ele>313.0</ele><time>2026-04-21T09:36:55.999Z</time></trkpt><trkpt lat="45.38167542058603" lon="8.03363929434544"><ele>313.0</ele><time>2026-04-21T09:36:57.999Z</time></trkpt><trkpt lat="45.38161876796471" lon="8.033685415013865"><ele>313.0</ele><time>2026-04-21T09:36:58.999Z</time></trkpt><trkpt lat="45.38157308146223" lon="8.033782070605913"><ele>313.0</ele><time>2026-04-21T09:36:59.999Z</time></trkpt><trkpt lat="45.38155002750593" lon="8.03390653519651"><ele>313.0</ele><time>2026-04-21T09:37:00.999Z</time></trkpt><trkpt lat="45.38154676389734" lon="8.03405291143609"><ele>313.0</ele><time>2026-04-21T09:37:01.999Z</time></trkpt><trkpt lat="45.38155675433952" lon="8.034185464310912"><ele>313.0</ele><time>2026-04-21T09:37:02.999Z</time></trkpt><trkpt lat="45.38158575813112" lon="8.034281403925219"><ele>313.0</ele><time>2026-04-21T09:37:03.999Z</time></trkpt><trkpt lat="45.381662250380664" lon="8.034438154708083"><ele>313.0</ele><time>2026-04-21T09:37:05.999Z</time></trkpt><trkpt lat="45.381697612530104" lon="8.034527903899237"><ele>313.0</ele><time>2026-04-21T09:37:06.999Z</time></trkpt><trkpt lat="45.38174040756817" lon="8.03459440210403"><ele>313.0</ele><time>2026-04-21T09:37:07.999Z</time></trkpt><trkpt lat="45.38180593665083" lon="8.034639900495876"><ele>313.0</ele><time>2026-04-21T09:37:08.999Z</time></trkpt><trkpt lat="45.38188345638361" lon="8.0346518186074"><ele>313.0</ele><time>2026-04-21T09:37:09.999Z</time></trkpt><trkpt lat="45.38197107143621" lon="8.034640791093377"><ele>313.0</ele><time>2026-04-21T09:37:10.999Z</time></trkpt><trkpt lat="45.38204582341037" lon="8.034621005762812"><ele>313.0</ele><time>2026-04-21T09:37:11.999Z</time></trkpt><trkpt lat="45.38214885992454" lon="8.03453773212356"><ele>313.0</ele><time>2026-04-21T09:37:14Z</time></trkpt><trkpt lat="45.38218153053819" lon="8.034456905063672"><ele>313.0</ele><time>2026-04-21T09:37:15Z</time></trkpt><trkpt lat="45.38219378912161" lon="8.034352624298256"><ele>313.0</ele><time>2026-04-21T09:37:16Z</time></trkpt><trkpt lat="45.38218024700247" lon="8.03422398432923"><ele>313.0</ele><time>2026-04-21T09:37:17Z</time></trkpt><trkpt lat="45.382149033770354" lon="8.034098694060718"><ele>313.0</ele><time>2026-04-21T09:37:18Z</time></trkpt><trkpt lat="45.38209155762841" lon="8.033978132836706"><ele>313.0</ele><time>2026-04-21T09:37:19Z</time></trkpt><trkpt lat="45.382021830325726" lon="8.033876338297107"><ele>313.0</ele><time>2026-04-21T09:37:20Z</time></trkpt><trkpt lat="45.3819493455309" lon="8.033784119650269"><ele>313.0</ele><time>2026-04-21T09:37:21Z</time></trkpt><trkpt lat="45.38187013820522" lon="8.033711289708588"><ele>313.0</ele><time>2026-04-21T09:37:22Z</time></trkpt><trkpt lat="45.38180591447824" lon="8.033663467349244"><ele>313.0</ele><time>2026-04-21T09:37:23Z</time></trkpt><trkpt lat="45.38169166966803" lon="8.033626442196514"><ele>313.0</ele><time>2026-04-21T09:37:25Z</time></trkpt><trkpt lat="45.38157741463141" lon="8.033742548168835"><ele>313.0</ele><time>2026-04-21T09:37:27Z</time></trkpt><trkpt lat="45.38154790583461" lon="8.033853497748886"><ele>313.0</ele><time>2026-04-21T09:37:28Z</time></trkpt><trkpt lat="45.38154473581184" lon="8.033985487522258"><ele>313.0</ele><time>2026-04-21T09:37:29Z</time></trkpt><trkpt lat="45.381553513781284" lon="8.03413461276677"><ele>313.0</ele><time>2026-04-21T09:37:30Z</time></trkpt><trkpt lat="45.3815737956321" lon="8.034289796486517"><ele>313.0</ele><time>2026-04-21T09:37:31Z</time></trkpt><trkpt lat="45.38160536405441" lon="8.034405379491693"><ele>313.0</ele><time>2026-04-21T09:37:32Z</time></trkpt><trkpt lat="45.381686507751624" lon="8.034531710714495"><ele>313.0</ele><time>2026-04-21T09:37:34Z</time></trkpt><trkpt lat="45.3817394800835" lon="8.03458636583571"><ele>313.0</ele><time>2026-04-21T09:37:35Z</time></trkpt><trkpt lat="45.381808036880166" lon="8.034625921651541"><ele>313.0</ele><time>2026-04-21T09:37:36Z</time></trkpt><trkpt lat="45.38188295594291" lon="8.03464709474554"><ele>313.0</ele><time>2026-04-21T09:37:37Z</time></trkpt><trkpt lat="45.381970155647295" lon="8.034641822533601"><ele>313.0</ele><time>2026-04-21T09:37:38Z</time></trkpt><trkpt lat="45.38203899431765" lon="8.034614912048026"><ele>313.0</ele><time>2026-04-21T09:37:39Z</time></trkpt><trkpt lat="45.38212722317537" lon="8.034522394871045"><ele>313.0</ele><time>2026-04-21T09:37:41Z</time></trkpt><trkpt lat="45.38215281599985" lon="8.034352450873955"><ele>313.0</ele><time>2026-04-21T09:37:43Z</time></trkpt><trkpt lat="45.382165418251304" lon="8.03423533944244"><ele>313.0</ele><time>2026-04-21T09:37:44Z</time></trkpt><trkpt lat="45.3821465642674" lon="8.03412067671474"><ele>313.0</ele><time>2026-04-21T09:37:45Z</time></trkpt><trkpt lat="45.38210343135376" lon="8.03400892655234"><ele>313.0</ele><time>2026-04-21T09:37:46Z</time></trkpt><trkpt lat="45.382038873470606" lon="8.033907880329199"><ele>313.0</ele><time>2026-04-21T09:37:47Z</time></trkpt><trkpt lat="45.38198385282934" lon="8.033837555246786"><ele>313.0</ele><time>2026-04-21T09:37:48Z</time></trkpt><trkpt lat="45.38192841179758" lon="8.033790201130333"><ele>313.0</ele><time>2026-04-21T09:37:49Z</time></trkpt><trkpt lat="45.38186265279205" lon="8.033764306867605"><ele>313.0</ele><time>2026-04-21T09:37:51Z</time></trkpt><trkpt lat="45.38179213543725" lon="8.033717862734228"><ele>313.0</ele><time>2026-04-21T09:38:37Z</time></trkpt><trkpt lat="45.381718575335476" lon="8.033663492522544"><ele>313.0</ele><time>2026-04-21T09:38:38.999Z</time></trkpt><trkpt lat="45.381622746863336" lon="8.033687774228202"><ele>313.0</ele><time>2026-04-21T09:38:41Z</time></trkpt><trkpt lat="45.3815701807125" lon="8.03381144222933"><ele>313.0</ele><time>2026-04-21T09:38:43Z</time></trkpt><trkpt lat="45.381553969564294" lon="8.033994872497829"><ele>313.0</ele><time>2026-04-21T09:38:45Z</time></trkpt><trkpt lat="45.3815559460526" lon="8.03408587520745"><ele>313.0</ele><time>2026-04-21T09:38:46.001Z</time></trkpt><trkpt lat="45.38157284092066" lon="8.03418552602688"><ele>313.0</ele><time>2026-04-21T09:38:47.001Z</time></trkpt><trkpt lat="45.38160321963028" lon="8.03427458191557"><ele>313.0</ele><time>2026-04-21T09:38:48.001Z</time></trkpt><trkpt lat="45.38164338180962" lon="8.034371737160997"><ele>313.0</ele><time>2026-04-21T09:38:49.001Z</time></trkpt><trkpt lat="45.381676139004774" lon="8.034454042416758"><ele>313.0</ele><time>2026-04-21T09:38:50.001Z</time></trkpt><trkpt lat="45.38173016998075" lon="8.034549298802375"><ele>313.0</ele><time>2026-04-21T09:38:52.001Z</time></trkpt><trkpt lat="45.38179092230433" lon="8.03459025411742"><ele>313.0</ele><time>2026-04-21T09:38:54.001Z</time></trkpt><trkpt lat="45.381900805640726" lon="8.034641238874864"><ele>313.0</ele><time>2026-04-21T09:38:56Z</time></trkpt><trkpt lat="45.38197127731329" lon="8.034640542167459"><ele>313.0</ele><time>2026-04-21T09:38:57Z</time></trkpt><trkpt lat="45.382045848833975" lon="8.034619061969446"><ele>313.0</ele><time>2026-04-21T09:38:58Z</time></trkpt><trkpt lat="45.382144889285875" lon="8.034532336648128"><ele>313.0</ele><time>2026-04-21T09:39:00Z</time></trkpt><trkpt lat="45.38219125676631" lon="8.034357442990146"><ele>313.0</ele><time>2026-04-21T09:39:02Z</time></trkpt><trkpt lat="45.38218127937603" lon="8.034242386595064"><ele>313.0</ele><time>2026-04-21T09:39:03Z</time></trkpt><trkpt lat="45.38216048599312" lon="8.03413225868851"><ele>313.0</ele><time>2026-04-21T09:39:04Z</time></trkpt><trkpt lat="45.38211792038132" lon="8.034017562659418"><ele>313.0</ele><time>2026-04-21T09:39:05Z</time></trkpt><trkpt lat="45.38205702670819" lon="8.03391720790161"><ele>313.0</ele><time>2026-04-21T09:39:06Z</time></trkpt><trkpt lat="45.381987712790135" lon="8.033833948506784"><ele>313.0</ele><time>2026-04-21T09:39:07Z</time></trkpt><trkpt lat="45.38192543181816" lon="8.033778844022912"><ele>313.0</ele><time>2026-04-21T09:39:08Z</time></trkpt><trkpt lat="45.381871486483405" lon="8.033732189129099"><ele>313.0</ele><time>2026-04-21T09:39:09Z</time></trkpt><trkpt lat="45.381812897991296" lon="8.033682414602724"><ele>313.0</ele><time>2026-04-21T09:39:10Z</time></trkpt><trkpt lat="45.38171609485768" lon="8.033630261313618"><ele>313.0</ele><time>2026-04-21T09:39:12Z</time></trkpt><trkpt lat="45.381606380996864" lon="8.03370984257203"><ele>313.0</ele><time>2026-04-21T09:39:14Z</time></trkpt><trkpt lat="45.381559022312544" lon="8.033810319310044"><ele>313.0</ele><time>2026-04-21T09:39:15Z</time></trkpt><trkpt lat="45.38154634047426" lon="8.033915775489042"><ele>313.0</ele><time>2026-04-21T09:39:16Z</time></trkpt><trkpt lat="45.38155183266177" lon="8.034023271704074"><ele>313.0</ele><time>2026-04-21T09:39:17Z</time></trkpt><trkpt lat="45.38156956132644" lon="8.034128632173164"><ele>313.0</ele><time>2026-04-21T09:39:18Z</time></trkpt><trkpt lat="45.381592403422985" lon="8.0342404439358"><ele>313.0</ele><time>2026-04-21T09:39:19Z</time></trkpt><trkpt lat="45.38162377194333" lon="8.034352135889034"><ele>313.0</ele><time>2026-04-21T09:39:20Z</time></trkpt><trkpt lat="45.381662856578124" lon="8.034456220366907"><ele>313.0</ele><time>2026-04-21T09:39:21Z</time></trkpt><trkpt lat="45.381705068077814" lon="8.034531817599888"><ele>313.0</ele><time>2026-04-21T09:39:22Z</time></trkpt><trkpt lat="45.38181958354835" lon="8.034627176073318"><ele>313.0</ele><time>2026-04-21T09:39:24Z</time></trkpt><trkpt lat="45.38189423610181" lon="8.034649063344903"><ele>313.0</ele><time>2026-04-21T09:39:25Z</time></trkpt><trkpt lat="45.381975795217016" lon="8.034635700246671"><ele>313.0</ele><time>2026-04-21T09:39:26Z</time></trkpt><trkpt lat="45.382053271558455" lon="8.034607014824644"><ele>313.0</ele><time>2026-04-21T09:39:27Z</time></trkpt><trkpt lat="45.38215301905672" lon="8.034519692532202"><ele>313.0</ele><time>2026-04-21T09:39:29Z</time></trkpt><trkpt lat="45.38218886611793" lon="8.034330311218254"><ele>313.0</ele><time>2026-04-21T09:39:31Z</time></trkpt><trkpt lat="45.382176932823306" lon="8.03420279381306"><ele>313.0</ele><time>2026-04-21T09:39:32Z</time></trkpt><trkpt lat="45.382144464015894" lon="8.03407824659101"><ele>313.0</ele><time>2026-04-21T09:39:33Z</time></trkpt><trkpt lat="45.38208790554396" lon="8.033962831360586"><ele>313.0</ele><time>2026-04-21T09:39:34Z</time></trkpt><trkpt lat="45.38201280429006" lon="8.03386204053307"><ele>313.0</ele><time>2026-04-21T09:39:35Z</time></trkpt><trkpt lat="45.381933733413256" lon="8.033786142712074"><ele>313.0</ele><time>2026-04-21T09:39:36Z</time></trkpt><trkpt lat="45.38186148481092" lon="8.033725157131528"><ele>313.0</ele><time>2026-04-21T09:39:37Z</time></trkpt><trkpt lat="45.381800630748025" lon="8.03367426809205"><ele>313.0</ele><time>2026-04-21T09:39:38Z</time></trkpt><trkpt lat="45.38170629408574" lon="8.033629092636346"><ele>313.0</ele><time>2026-04-21T09:39:40Z</time></trkpt><trkpt lat="45.38159762529551" lon="8.033719116160606"><ele>313.0</ele><time>2026-04-21T09:39:42Z</time></trkpt><trkpt lat="45.38155604326842" lon="8.033838316687161"><ele>313.0</ele><time>2026-04-21T09:39:43Z</time></trkpt><trkpt lat="45.38154220839715" lon="8.033975490528126"><ele>313.0</ele><time>2026-04-21T09:39:44Z</time></trkpt><trkpt lat="45.38155228872895" lon="8.034114716706956"><ele>313.0</ele><time>2026-04-21T09:39:45Z</time></trkpt><trkpt lat="45.38158285774642" lon="8.034262970962008"><ele>313.0</ele><time>2026-04-21T09:39:46Z</time></trkpt><trkpt lat="45.38162661932903" lon="8.03441875357128"><ele>313.0</ele><time>2026-04-21T09:39:47Z</time></trkpt><trkpt lat="45.381672313646185" lon="8.034531793408915"><ele>313.0</ele><time>2026-04-21T09:39:48Z</time></trkpt><trkpt lat="45.381725702584006" lon="8.034597215431214"><ele>313.0</ele><time>2026-04-21T09:39:49Z</time></trkpt><trkpt lat="45.38179320012445" lon="8.034631246534738"><ele>313.0</ele><time>2026-04-21T09:39:50Z</time></trkpt><trkpt lat="45.381887133215834" lon="8.034645900062056"><ele>313.0</ele><time>2026-04-21T09:39:51Z</time></trkpt><trkpt lat="45.38197027436288" lon="8.034637338357802"><ele>313.0</ele><time>2026-04-21T09:39:52Z</time></trkpt><trkpt lat="45.382036656794554" lon="8.034619019723577"><ele>313.0</ele><time>2026-04-21T09:39:53Z</time></trkpt><trkpt lat="45.382132424000794" lon="8.034552273196073"><ele>313.0</ele><time>2026-04-21T09:39:55Z</time></trkpt><trkpt lat="45.38216528719106" lon="8.034474063102827"><ele>313.0</ele><time>2026-04-21T09:39:56Z</time></trkpt><trkpt lat="45.38217879853743" lon="8.034354988832384"><ele>313.0</ele><time>2026-04-21T09:39:57Z</time></trkpt><trkpt lat="45.38217979031573" lon="8.03423552682687"><ele>313.0</ele><time>2026-04-21T09:39:58Z</time></trkpt><trkpt lat="45.38215443916022" lon="8.034115504308156"><ele>313.0</ele><time>2026-04-21T09:39:59Z</time></trkpt><trkpt lat="45.382110109886135" lon="8.034001560682526"><ele>313.0</ele><time>2026-04-21T09:40:00Z</time></trkpt><trkpt lat="45.382035378437216" lon="8.033896320151992"><ele>313.0</ele><time>2026-04-21T09:40:01Z</time></trkpt><trkpt lat="45.38195773043851" lon="8.033806418582808"><ele>313.0</ele><time>2026-04-21T09:40:02Z</time></trkpt><trkpt lat="45.381887836847206" lon="8.033743190327368"><ele>313.0</ele><time>2026-04-21T09:40:03Z</time></trkpt><trkpt lat="45.3818247078937" lon="8.033694686030683"><ele>313.0</ele><time>2026-04-21T09:40:04Z</time></trkpt><trkpt lat="45.38176848621911" lon="8.033651843965256"><ele>313.0</ele><time>2026-04-21T09:40:05Z</time></trkpt><trkpt lat="45.38167100734275" lon="8.033631697069316"><ele>313.0</ele><time>2026-04-21T09:40:07Z</time></trkpt><trkpt lat="45.38161339270373" lon="8.033677440077563"><ele>313.0</ele><time>2026-04-21T09:40:08Z</time></trkpt><trkpt lat="45.381565399175514" lon="8.033776629740704"><ele>313.0</ele><time>2026-04-21T09:40:09Z</time></trkpt><trkpt lat="45.38154162104848" lon="8.033906405207958"><ele>313.0</ele><time>2026-04-21T09:40:10Z</time></trkpt><trkpt lat="45.38154252642195" lon="8.034054514746247"><ele>313.0</ele><time>2026-04-21T09:40:11Z</time></trkpt><trkpt lat="45.38155555569779" lon="8.03419418323415"><ele>313.0</ele><time>2026-04-21T09:40:12Z</time></trkpt><trkpt lat="45.381581314238495" lon="8.03428396022467"><ele>313.0</ele><time>2026-04-21T09:40:13Z</time></trkpt><trkpt lat="45.38167629861841" lon="8.034357140905348"><ele>313.0</ele><time>2026-04-21T09:40:15Z</time></trkpt><trkpt lat="45.381741749899184" lon="8.034350511536681"><ele>313.0</ele><time>2026-04-21T09:40:16Z</time></trkpt><trkpt lat="45.38180563262246" lon="8.034306213369643"><ele>313.0</ele><time>2026-04-21T09:40:17Z</time></trkpt><trkpt lat="45.38187633630361" lon="8.03420583271631"><ele>313.0</ele><time>2026-04-21T09:40:19Z</time></trkpt><trkpt lat="45.38186941293101" lon="8.034098854043906"><ele>313.0</ele><time>2026-04-21T09:43:27Z</time></trkpt><trkpt lat="45.381794551218015" lon="8.034091643924869"><ele>313.0</ele><time>2026-04-21T09:43:29Z</time></trkpt><trkpt lat="45.3816969480448" lon="8.034152206871934"><ele>313.0</ele><time>2026-04-21T09:43:31Z</time></trkpt><trkpt lat="45.38163712526255" lon="8.034245548154278"><ele>313.0</ele><time>2026-04-21T09:43:33Z</time></trkpt><trkpt lat="45.381599639013324" lon="8.034367411064187"><ele>313.0</ele><time>2026-04-21T09:43:35Z</time></trkpt><trkpt lat="45.38165502751318" lon="8.034476739477295"><ele>313.0</ele><time>2026-04-21T09:43:37Z</time></trkpt><trkpt lat="45.38173486384751" lon="8.034564962997681"><ele>313.0</ele><time>2026-04-21T09:43:39Z</time></trkpt><trkpt lat="45.38183664889849" lon="8.03464005702024"><ele>313.0</ele><time>2026-04-21T09:43:41Z</time></trkpt><trkpt lat="45.38192722814773" lon="8.034638796325929"><ele>313.0</ele><time>2026-04-21T09:43:43Z</time></trkpt><trkpt lat="45.38203807316805" lon="8.034609537327945"><ele>313.0</ele><time>2026-04-21T09:43:45Z</time></trkpt><trkpt lat="45.382114434071916" lon="8.034567468038675"><ele>313.0</ele><time>2026-04-21T09:43:47Z</time></trkpt><trkpt lat="45.38217938404397" lon="8.03442495206643"><ele>313.0</ele><time>2026-04-21T09:43:49Z</time></trkpt><trkpt lat="45.3821928999479" lon="8.034322224684256"><ele>313.0</ele><time>2026-04-21T09:43:50Z</time></trkpt><trkpt lat="45.38217583474879" lon="8.034221970664136"><ele>313.0</ele><time>2026-04-21T09:43:51Z</time></trkpt><trkpt lat="45.3821318757733" lon="8.03408271332842"><ele>313.0</ele><time>2026-04-21T09:43:53Z</time></trkpt><trkpt lat="45.38206505059287" lon="8.0339502228968"><ele>313.0</ele><time>2026-04-21T09:43:55Z</time></trkpt><trkpt lat="45.382012930054366" lon="8.033877586567556"><ele>313.0</ele><time>2026-04-21T09:43:56Z</time></trkpt><trkpt lat="45.381951688810595" lon="8.033815382618826"><ele>313.0</ele><time>2026-04-21T09:43:57Z</time></trkpt><trkpt lat="45.381848507572" lon="8.033726596310364"><ele>313.0</ele><time>2026-04-21T09:43:59Z</time></trkpt><trkpt lat="45.3817576578216" lon="8.033655422167538"><ele>313.0</ele><time>2026-04-21T09:44:01Z</time></trkpt><trkpt lat="45.38166835616152" lon="8.033662083399891"><ele>313.0</ele><time>2026-04-21T09:44:03Z</time></trkpt><trkpt lat="45.381580056154114" lon="8.033775541039674"><ele>313.0</ele><time>2026-04-21T09:44:05Z</time></trkpt><trkpt lat="45.381552622228725" lon="8.033946672034226"><ele>313.0</ele><time>2026-04-21T09:44:07Z</time></trkpt><trkpt lat="45.38155273816953" lon="8.034041822192965"><ele>313.0</ele><time>2026-04-21T09:44:08Z</time></trkpt><trkpt lat="45.38156457785342" lon="8.034138864179706"><ele>313.0</ele><time>2026-04-21T09:44:09Z</time></trkpt><trkpt lat="45.38159342341312" lon="8.034232347657136"><ele>313.0</ele><time>2026-04-21T09:44:10Z</time></trkpt><trkpt lat="45.381648377635" lon="8.034383525371245"><ele>313.0</ele><time>2026-04-21T09:44:12Z</time></trkpt><trkpt lat="45.38170259589666" lon="8.034525082943842"><ele>313.0</ele><time>2026-04-21T09:44:14Z</time></trkpt><trkpt lat="45.381796882044554" lon="8.03462556899253"><ele>313.0</ele><time>2026-04-21T09:44:16Z</time></trkpt><trkpt lat="45.38185934180754" lon="8.034646614718795"><ele>313.0</ele><time>2026-04-21T09:44:17Z</time></trkpt><trkpt lat="45.38200010493824" lon="8.0346302218689"><ele>313.0</ele><time>2026-04-21T09:44:19Z</time></trkpt><trkpt lat="45.38206707854831" lon="8.034610109548867"><ele>313.0</ele><time>2026-04-21T09:44:20Z</time></trkpt><trkpt lat="45.38214997023379" lon="8.03453437000795"><ele>313.0</ele><time>2026-04-21T09:44:22Z</time></trkpt><trkpt lat="45.38218568394634" lon="8.034360643977564"><ele>313.0</ele><time>2026-04-21T09:44:24Z</time></trkpt><trkpt lat="45.38218204938342" lon="8.034246774915063"><ele>313.0</ele><time>2026-04-21T09:44:25Z</time></trkpt><trkpt lat="45.38216141965278" lon="8.03415531900912"><ele>313.0</ele><time>2026-04-21T09:44:26Z</time></trkpt><trkpt lat="45.382121436357174" lon="8.034052900160491"><ele>313.0</ele><time>2026-04-21T09:44:27Z</time></trkpt><trkpt lat="45.382058207751804" lon="8.03394064608413"><ele>313.0</ele><time>2026-04-21T09:44:28Z</time></trkpt><trkpt lat="45.38199354907559" lon="8.033850268424619"><ele>313.0</ele><time>2026-04-21T09:44:29Z</time></trkpt><trkpt lat="45.3819330657688" lon="8.033792935148789"><ele>313.0</ele><time>2026-04-21T09:44:30Z</time></trkpt><trkpt lat="45.381876385512534" lon="8.033746817006627"><ele>313.0</ele><time>2026-04-21T09:44:31Z</time></trkpt><trkpt lat="45.38181159812189" lon="8.033692913175267"><ele>313.0</ele><time>2026-04-21T09:44:32Z</time></trkpt><trkpt lat="45.38173406390748" lon="8.033629279458768"><ele>313.0</ele><time>2026-04-21T09:44:33Z</time></trkpt><trkpt lat="45.38167214192282" lon="8.033597236602832"><ele>313.0</ele><time>2026-04-21T09:44:34Z</time></trkpt><trkpt lat="45.381574263761344" lon="8.03365024178545"><ele>313.0</ele><time>2026-04-21T09:44:36Z</time></trkpt><trkpt lat="45.381545903028886" lon="8.033812418892882"><ele>313.0</ele><time>2026-04-21T09:44:38Z</time></trkpt><trkpt lat="45.38155266969707" lon="8.033936909136973"><ele>313.0</ele><time>2026-04-21T09:44:39Z</time></trkpt><trkpt lat="45.38155890123066" lon="8.034062444171786"><ele>313.0</ele><time>2026-04-21T09:44:40Z</time></trkpt><trkpt lat="45.381576463147205" lon="8.034193801069568"><ele>313.0</ele><time>2026-04-21T09:44:42Z</time></trkpt><trkpt lat="45.381602344760665" lon="8.034278902538373"><ele>313.0</ele><time>2026-04-21T09:44:43Z</time></trkpt><trkpt lat="45.38164490407092" lon="8.034395301548804"><ele>313.0</ele><time>2026-04-21T09:44:44Z</time></trkpt><trkpt lat="45.381688432797496" lon="8.034495818854227"><ele>313.0</ele><time>2026-04-21T09:44:45Z</time></trkpt><trkpt lat="45.38175664951991" lon="8.034598054153808"><ele>313.0</ele><time>2026-04-21T09:44:47Z</time></trkpt><trkpt lat="45.38182193330698" lon="8.034635437004564"><ele>313.0</ele><time>2026-04-21T09:44:48Z</time></trkpt><trkpt lat="45.38189896565393" lon="8.034649470562668"><ele>313.0</ele><time>2026-04-21T09:44:49Z</time></trkpt><trkpt lat="45.38198598532379" lon="8.034640489664122"><ele>313.0</ele><time>2026-04-21T09:44:50Z</time></trkpt><trkpt lat="45.382089506517005" lon="8.034593717321862"><ele>313.0</ele><time>2026-04-21T09:44:51.999Z</time></trkpt><trkpt lat="45.38216394356724" lon="8.034486458703348"><ele>313.0</ele><time>2026-04-21T09:44:53.999Z</time></trkpt><trkpt lat="45.38218470613908" lon="8.034391987837028"><ele>313.0</ele><time>2026-04-21T09:44:54.999Z</time></trkpt><trkpt lat="45.382181029581034" lon="8.034278344955553"><ele>313.0</ele><time>2026-04-21T09:44:55.999Z</time></trkpt><trkpt lat="45.382160432276685" lon="8.034162484571759"><ele>313.0</ele><time>2026-04-21T09:44:56.999Z</time></trkpt><trkpt lat="45.38212535975723" lon="8.034061907878312"><ele>313.0</ele><time>2026-04-21T09:44:58Z</time></trkpt><trkpt lat="45.38206407710073" lon="8.033961102436159"><ele>313.0</ele><time>2026-04-21T09:44:59Z</time></trkpt><trkpt lat="45.38199107979926" lon="8.033857339503047"><ele>313.0</ele><time>2026-04-21T09:45:00Z</time></trkpt><trkpt lat="45.381914530962355" lon="8.033770468874415"><ele>313.0</ele><time>2026-04-21T09:45:01Z</time></trkpt><trkpt lat="45.38183462067108" lon="8.033715640723887"><ele>313.0</ele><time>2026-04-21T09:45:02Z</time></trkpt><trkpt lat="45.38177559308601" lon="8.033674871695272"><ele>313.0</ele><time>2026-04-21T09:45:03Z</time></trkpt><trkpt lat="45.38169050944291" lon="8.033645774756367"><ele>313.0</ele><time>2026-04-21T09:45:05Z</time></trkpt><trkpt lat="45.381586432576825" lon="8.033741616030207"><ele>313.0</ele><time>2026-04-21T09:45:07Z</time></trkpt><trkpt lat="45.38155426514172" lon="8.033832517813313"><ele>313.0</ele><time>2026-04-21T09:45:08Z</time></trkpt><trkpt lat="45.381548623878324" lon="8.033932250232896"><ele>313.0</ele><time>2026-04-21T09:45:09Z</time></trkpt><trkpt lat="45.3815544579461" lon="8.034028937327253"><ele>313.0</ele><time>2026-04-21T09:45:10Z</time></trkpt><trkpt lat="45.381590850912865" lon="8.034209739406217"><ele>313.0</ele><time>2026-04-21T09:45:12Z</time></trkpt><trkpt lat="45.38162809405835" lon="8.034331752039805"><ele>313.0</ele><time>2026-04-21T09:45:13Z</time></trkpt><trkpt lat="45.38167383187551" lon="8.03445815826137"><ele>313.0</ele><time>2026-04-21T09:45:14Z</time></trkpt><trkpt lat="45.38171372927457" lon="8.034547053757414"><ele>313.0</ele><time>2026-04-21T09:45:15Z</time></trkpt><trkpt lat="45.3817968502522" lon="8.034633005346269"><ele>313.0</ele><time>2026-04-21T09:45:17Z</time></trkpt><trkpt lat="45.38187539161486" lon="8.034652632234188"><ele>313.0</ele><time>2026-04-21T09:45:18Z</time></trkpt><trkpt lat="45.3819605998273" lon="8.034652515354487"><ele>313.0</ele><time>2026-04-21T09:45:19Z</time></trkpt><trkpt lat="45.38202307028181" lon="8.034625478892638"><ele>313.0</ele><time>2026-04-21T09:45:20Z</time></trkpt><trkpt lat="45.38212010916475" lon="8.034569226405809"><ele>313.0</ele><time>2026-04-21T09:45:22Z</time></trkpt><trkpt lat="45.38218038797969" lon="8.034431315053938"><ele>313.0</ele><time>2026-04-21T09:45:24Z</time></trkpt><trkpt lat="45.38218263186181" lon="8.034320311715494"><ele>313.0</ele><time>2026-04-21T09:45:25Z</time></trkpt><trkpt lat="45.38217254789196" lon="8.034205182527264"><ele>313.0</ele><time>2026-04-21T09:45:26Z</time></trkpt><trkpt lat="45.38214826468876" lon="8.034106127408176"><ele>313.0</ele><time>2026-04-21T09:45:27Z</time></trkpt><trkpt lat="45.382096433291466" lon="8.03400355995104"><ele>313.0</ele><time>2026-04-21T09:45:28Z</time></trkpt><trkpt lat="45.38202495781921" lon="8.033900472149634"><ele>313.0</ele><time>2026-04-21T09:45:29Z</time></trkpt><trkpt lat="45.381965604695345" lon="8.033823025133584"><ele>313.0</ele><time>2026-04-21T09:45:30Z</time></trkpt><trkpt lat="45.38189231165689" lon="8.033751353762298"><ele>313.0</ele><time>2026-04-21T09:45:31Z</time></trkpt><trkpt lat="45.38181364924377" lon="8.033697017815118"><ele>313.0</ele><time>2026-04-21T09:45:32Z</time></trkpt><trkpt lat="45.38175124707441" lon="8.033651971965682"><ele>313.0</ele><time>2026-04-21T09:45:33Z</time></trkpt><trkpt lat="45.38165055021206" lon="8.033643891207051"><ele>313.0</ele><time>2026-04-21T09:45:35Z</time></trkpt><trkpt lat="45.38159583175999" lon="8.033713682130603"><ele>313.0</ele><time>2026-04-21T09:45:36Z</time></trkpt><trkpt lat="45.38155095337023" lon="8.033840438360487"><ele>313.0</ele><time>2026-04-21T09:45:37Z</time></trkpt><trkpt lat="45.38153661910877" lon="8.033983316124562"><ele>313.0</ele><time>2026-04-21T09:45:38Z</time></trkpt><trkpt lat="45.38154177162755" lon="8.03411490939095"><ele>313.0</ele><time>2026-04-21T09:45:39Z</time></trkpt><trkpt lat="45.38156655002236" lon="8.034212256414497"><ele>313.0</ele><time>2026-04-21T09:45:40Z</time></trkpt><trkpt lat="45.38160730198911" lon="8.034285344257656"><ele>313.0</ele><time>2026-04-21T09:45:41Z</time></trkpt><trkpt lat="45.381645471436" lon="8.034359454390186"><ele>313.0</ele><time>2026-04-21T09:45:42Z</time></trkpt><trkpt lat="45.381679390923104" lon="8.034444906111016"><ele>313.0</ele><time>2026-04-21T09:45:43Z</time></trkpt><trkpt lat="45.38173784465705" lon="8.034574046834383"><ele>313.0</ele><time>2026-04-21T09:45:45Z</time></trkpt><trkpt lat="45.38179000096028" lon="8.034627133749686"><ele>313.0</ele><time>2026-04-21T09:45:46Z</time></trkpt><trkpt lat="45.38186793485844" lon="8.034649618301655"><ele>313.0</ele><time>2026-04-21T09:45:47Z</time></trkpt><trkpt lat="45.38197784115409" lon="8.034643964024738"><ele>313.0</ele><time>2026-04-21T09:45:49Z</time></trkpt><trkpt lat="45.38205361608551" lon="8.034618047338613"><ele>313.0</ele><time>2026-04-21T09:45:50Z</time></trkpt><trkpt lat="45.38213668012951" lon="8.034550284606784"><ele>313.0</ele><time>2026-04-21T09:45:52Z</time></trkpt><trkpt lat="45.38219020025842" lon="8.034382280000687"><ele>313.0</ele><time>2026-04-21T09:45:54Z</time></trkpt><trkpt lat="45.38217978713674" lon="8.034256303891215"><ele>313.0</ele><time>2026-04-21T09:45:55Z</time></trkpt><trkpt lat="45.38215985569641" lon="8.034148488356342"><ele>313.0</ele><time>2026-04-21T09:45:56Z</time></trkpt><trkpt lat="45.38213206735325" lon="8.03406764359667"><ele>313.0</ele><time>2026-04-21T09:45:57Z</time></trkpt><trkpt lat="45.382086167856265" lon="8.033983498229622"><ele>313.0</ele><time>2026-04-21T09:45:58Z</time></trkpt><trkpt lat="45.38201448482785" lon="8.033892273079104"><ele>313.0</ele><time>2026-04-21T09:45:59Z</time></trkpt><trkpt lat="45.381952101598195" lon="8.03382687912752"><ele>313.0</ele><time>2026-04-21T09:46:00Z</time></trkpt><trkpt lat="45.3818754286013" lon="8.033722738349555"><ele>313.0</ele><time>2026-04-21T09:46:01Z</time></trkpt><trkpt lat="45.38178600153176" lon="8.033654211027455"><ele>313.0</ele><time>2026-04-21T09:46:02Z</time></trkpt><trkpt lat="45.381735551322365" lon="8.033597941676726"><ele>313.0</ele><time>2026-04-21T09:46:03Z</time></trkpt><trkpt lat="45.38160379327606" lon="8.03365406719362"><ele>313.0</ele><time>2026-04-21T09:46:05Z</time></trkpt><trkpt lat="45.38155146914614" lon="8.033710410290265"><ele>313.0</ele><time>2026-04-21T09:46:06Z</time></trkpt><trkpt lat="45.38152905831057" lon="8.033837047584804"><ele>313.0</ele><time>2026-04-21T09:46:07Z</time></trkpt><trkpt lat="45.381512439754765" lon="8.033965799796542"><ele>313.0</ele><time>2026-04-21T09:46:08Z</time></trkpt><trkpt lat="45.3815161125454" lon="8.03407301128136"><ele>313.0</ele><time>2026-04-21T09:46:09Z</time></trkpt><trkpt lat="45.381540477387674" lon="8.034156781764285"><ele>313.0</ele><time>2026-04-21T09:46:10Z</time></trkpt><trkpt lat="45.3815797841276" lon="8.034252197570336"><ele>313.0</ele><time>2026-04-21T09:46:11Z</time></trkpt><trkpt lat="45.38162712619373" lon="8.034358102363422"><ele>313.0</ele><time>2026-04-21T09:46:12Z</time></trkpt><trkpt lat="45.381673164861624" lon="8.034469714686464"><ele>313.0</ele><time>2026-04-21T09:46:13Z</time></trkpt><trkpt lat="45.381742856035615" lon="8.034593761999645"><ele>313.0</ele><time>2026-04-21T09:46:15Z</time></trkpt><trkpt lat="45.38180379589468" lon="8.034633019405044"><ele>313.0</ele><time>2026-04-21T09:46:16Z</time></trkpt><trkpt lat="45.381888721855134" lon="8.034652128273015"><ele>313.0</ele><time>2026-04-21T09:46:17Z</time></trkpt><trkpt lat="45.38195199462665" lon="8.03465557016678"><ele>313.0</ele><time>2026-04-21T09:46:18Z</time></trkpt><trkpt lat="45.38206313509325" lon="8.0346219487118"><ele>313.0</ele><time>2026-04-21T09:46:20Z</time></trkpt><trkpt lat="45.38212550306546" lon="8.034570458158846"><ele>313.0</ele><time>2026-04-21T09:46:21Z</time></trkpt><trkpt lat="45.38216694706923" lon="8.03449310873373"><ele>313.0</ele><time>2026-04-21T09:46:22Z</time></trkpt><trkpt lat="45.38218291683448" lon="8.034392849414209"><ele>313.0</ele><time>2026-04-21T09:46:23Z</time></trkpt><trkpt lat="45.38218353187793" lon="8.034267816366077"><ele>313.0</ele><time>2026-04-21T09:46:24Z</time></trkpt><trkpt lat="45.3821477099863" lon="8.034099717813335"><ele>313.0</ele><time>2026-04-21T09:46:26Z</time></trkpt><trkpt lat="45.38209169017994" lon="8.034000990350176"><ele>313.0</ele><time>2026-04-21T09:46:27Z</time></trkpt><trkpt lat="45.38202104167999" lon="8.033893512899757"><ele>313.0</ele><time>2026-04-21T09:46:28Z</time></trkpt><trkpt lat="45.38196569746358" lon="8.033823554055457"><ele>313.0</ele><time>2026-04-21T09:46:29Z</time></trkpt><trkpt lat="45.38189991264461" lon="8.033758848802812"><ele>313.0</ele><time>2026-04-21T09:46:30Z</time></trkpt><trkpt lat="45.38181042886071" lon="8.03369830002602"><ele>313.0</ele><time>2026-04-21T09:46:31Z</time></trkpt><trkpt lat="45.38174481082071" lon="8.033649868509345"><ele>313.0</ele><time>2026-04-21T09:46:32Z</time></trkpt><trkpt lat="45.381652993861756" lon="8.033646376412824"><ele>313.0</ele><time>2026-04-21T09:46:34Z</time></trkpt><trkpt lat="45.381597066010436" lon="8.033719395799691"><ele>313.0</ele><time>2026-04-21T09:46:35Z</time></trkpt><trkpt lat="45.381552768943656" lon="8.033833643941717"><ele>313.0</ele><time>2026-04-21T09:46:36Z</time></trkpt><trkpt lat="45.38153172261465" lon="8.033950499196305"><ele>313.0</ele><time>2026-04-21T09:46:37Z</time></trkpt><trkpt lat="45.381533287478476" lon="8.034046800770128"><ele>313.0</ele><time>2026-04-21T09:46:38Z</time></trkpt><trkpt lat="45.38154898626156" lon="8.03414768461782"><ele>313.0</ele><time>2026-04-21T09:46:39Z</time></trkpt><trkpt lat="45.38157954057686" lon="8.034252206483808"><ele>313.0</ele><time>2026-04-21T09:46:40Z</time></trkpt><trkpt lat="45.381630609924855" lon="8.034373799194215"><ele>313.0</ele><time>2026-04-21T09:46:41Z</time></trkpt><trkpt lat="45.381675707669984" lon="8.034490972758139"><ele>313.0</ele><time>2026-04-21T09:46:42Z</time></trkpt><trkpt lat="45.38171121059687" lon="8.03456711198658"><ele>313.0</ele><time>2026-04-21T09:46:42.999Z</time></trkpt><trkpt lat="45.381832744404896" lon="8.034645045862145"><ele>313.0</ele><time>2026-04-21T09:46:44.999Z</time></trkpt><trkpt lat="45.38192401195894" lon="8.034652025696245"><ele>313.0</ele><time>2026-04-21T09:46:45.999Z</time></trkpt><trkpt lat="45.38200386153919" lon="8.034641294972054"><ele>313.0</ele><time>2026-04-21T09:46:46.999Z</time></trkpt><trkpt lat="45.38211465481654" lon="8.034575640533406"><ele>313.0</ele><time>2026-04-21T09:46:48.999Z</time></trkpt><trkpt lat="45.38218107643101" lon="8.034411168733575"><ele>313.0</ele><time>2026-04-21T09:46:50.999Z</time></trkpt><trkpt lat="45.382182505643534" lon="8.034282049804947"><ele>313.0</ele><time>2026-04-21T09:46:51.999Z</time></trkpt><trkpt lat="45.38216849843782" lon="8.034165045220863"><ele>313.0</ele><time>2026-04-21T09:46:52.999Z</time></trkpt><trkpt lat="45.382134474435695" lon="8.034071911210923"><ele>313.0</ele><time>2026-04-21T09:46:53.999Z</time></trkpt><trkpt lat="45.382080131034655" lon="8.033974213713066"><ele>313.0</ele><time>2026-04-21T09:46:54.999Z</time></trkpt><trkpt lat="45.38202315785919" lon="8.033891329804254"><ele>313.0</ele><time>2026-04-21T09:46:55.999Z</time></trkpt><trkpt lat="45.38195977487994" lon="8.033820434620845"><ele>313.0</ele><time>2026-04-21T09:46:56.999Z</time></trkpt><trkpt lat="45.38186944314642" lon="8.03374304892422"><ele>313.0</ele><time>2026-04-21T09:46:57.999Z</time></trkpt><trkpt lat="45.381788128806505" lon="8.033683649030584"><ele>313.0</ele><time>2026-04-21T09:46:58.999Z</time></trkpt><trkpt lat="45.38168507209036" lon="8.033641155947837"><ele>313.0</ele><time>2026-04-21T09:47:00.999Z</time></trkpt><trkpt lat="45.38162545956635" lon="8.033677740715056"><ele>313.0</ele><time>2026-04-21T09:47:01.999Z</time></trkpt><trkpt lat="45.38156931005065" lon="8.033759462537908"><ele>313.0</ele><time>2026-04-21T09:47:02.999Z</time></trkpt><trkpt lat="45.38153288241185" lon="8.033879474864992"><ele>313.0</ele><time>2026-04-21T09:47:04Z</time></trkpt><trkpt lat="45.3815310177481" lon="8.033981770384274"><ele>313.0</ele><time>2026-04-21T09:47:05Z</time></trkpt><trkpt lat="45.38154430108462" lon="8.034077187328721"><ele>313.0</ele><time>2026-04-21T09:47:06Z</time></trkpt><trkpt lat="45.38157269208501" lon="8.034201751178799"><ele>313.0</ele><time>2026-04-21T09:47:07Z</time></trkpt><trkpt lat="45.38160334250918" lon="8.034310035349787"><ele>313.0</ele><time>2026-04-21T09:47:08Z</time></trkpt><trkpt lat="45.3816661787123" lon="8.03448433260859"><ele>313.0</ele><time>2026-04-21T09:47:10Z</time></trkpt><trkpt lat="45.381708516297174" lon="8.034568566529213"><ele>313.0</ele><time>2026-04-21T09:47:11Z</time></trkpt><trkpt lat="45.38182713433683" lon="8.034646891410658"><ele>313.0</ele><time>2026-04-21T09:47:13Z</time></trkpt><trkpt lat="45.381912888380825" lon="8.03465072149888"><ele>313.0</ele><time>2026-04-21T09:47:14Z</time></trkpt><trkpt lat="45.381992040521" lon="8.034637753497242"><ele>313.0</ele><time>2026-04-21T09:47:15Z</time></trkpt><trkpt lat="45.38206051260332" lon="8.034621924598246"><ele>313.0</ele><time>2026-04-21T09:47:16Z</time></trkpt><trkpt lat="45.38215446092339" lon="8.03450991714594"><ele>313.0</ele><time>2026-04-21T09:47:18Z</time></trkpt><trkpt lat="45.38218102413058" lon="8.0344129663726"><ele>313.0</ele><time>2026-04-21T09:47:19Z</time></trkpt><trkpt lat="45.382184559098405" lon="8.034285441715408"><ele>313.0</ele><time>2026-04-21T09:47:20Z</time></trkpt><trkpt lat="45.38216578322972" lon="8.034171503280039"><ele>313.0</ele><time>2026-04-21T09:47:21Z</time></trkpt><trkpt lat="45.382125353912244" lon="8.034060872878026"><ele>313.0</ele><time>2026-04-21T09:47:22Z</time></trkpt><trkpt lat="45.38206575634277" lon="8.033951047059995"><ele>313.0</ele><time>2026-04-21T09:47:23Z</time></trkpt><trkpt lat="45.38201545751626" lon="8.033880263412255"><ele>313.0</ele><time>2026-04-21T09:47:24Z</time></trkpt><trkpt lat="45.381946552784726" lon="8.033799994501969"><ele>313.0</ele><time>2026-04-21T09:47:25Z</time></trkpt><trkpt lat="45.38185204540478" lon="8.033722874345399"><ele>313.0</ele><time>2026-04-21T09:47:26Z</time></trkpt><trkpt lat="45.38177562874001" lon="8.03366967640672"><ele>313.0</ele><time>2026-04-21T09:47:27Z</time></trkpt><trkpt lat="45.38167385306215" lon="8.033630219765174"><ele>313.0</ele><time>2026-04-21T09:47:29Z</time></trkpt><trkpt lat="45.3816197967037" lon="8.033676980145058"><ele>313.0</ele><time>2026-04-21T09:47:30Z</time></trkpt><trkpt lat="45.381570808249094" lon="8.033772250330669"><ele>313.0</ele><time>2026-04-21T09:47:31Z</time></trkpt><trkpt lat="45.38154521195929" lon="8.033898879727792"><ele>313.0</ele><time>2026-04-21T09:47:32Z</time></trkpt><trkpt lat="45.38154208699018" lon="8.034029281928634"><ele>313.0</ele><time>2026-04-21T09:47:33Z</time></trkpt><trkpt lat="45.38155855762576" lon="8.034157271564931"><ele>313.0</ele><time>2026-04-21T09:47:34Z</time></trkpt><trkpt lat="45.38158669934432" lon="8.034278694358266"><ele>313.0</ele><time>2026-04-21T09:47:35Z</time></trkpt><trkpt lat="45.381627719801635" lon="8.034380973605986"><ele>313.0</ele><time>2026-04-21T09:47:36Z</time></trkpt><trkpt lat="45.38166807315302" lon="8.034454199996459"><ele>313.0</ele><time>2026-04-21T09:47:37Z</time></trkpt><trkpt lat="45.3817045317067" lon="8.034533055564717"><ele>313.0</ele><time>2026-04-21T09:47:38Z</time></trkpt><trkpt lat="45.38176414278761" lon="8.034601846423294"><ele>313.0</ele><time>2026-04-21T09:47:39Z</time></trkpt><trkpt lat="45.38184285889828" lon="8.034630529220157"><ele>313.0</ele><time>2026-04-21T09:47:40Z</time></trkpt><trkpt lat="45.381929206163534" lon="8.034645250297698"><ele>313.0</ele><time>2026-04-21T09:47:41Z</time></trkpt><trkpt lat="45.38199419998688" lon="8.034642859566294"><ele>313.0</ele><time>2026-04-21T09:47:42Z</time></trkpt><trkpt lat="45.38206455411607" lon="8.034625021230706"><ele>313.0</ele><time>2026-04-21T09:47:43Z</time></trkpt><trkpt lat="45.38212252696875" lon="8.03457007081079"><ele>313.0</ele><time>2026-04-21T09:47:44Z</time></trkpt><trkpt lat="45.3821636528793" lon="8.03449448438829"><ele>313.0</ele><time>2026-04-21T09:47:45Z</time></trkpt><trkpt lat="45.38217676209392" lon="8.034397322973277"><ele>313.0</ele><time>2026-04-21T09:47:46Z</time></trkpt><trkpt lat="45.38217650477489" lon="8.034265260026288"><ele>313.0</ele><time>2026-04-21T09:47:47Z</time></trkpt><trkpt lat="45.382165133257566" lon="8.0341594309845"><ele>313.0</ele><time>2026-04-21T09:47:48Z</time></trkpt><trkpt lat="45.38208836335194" lon="8.033993215069014"><ele>313.0</ele><time>2026-04-21T09:47:50Z</time></trkpt><trkpt lat="45.38201071777552" lon="8.033889776819132"><ele>313.0</ele><time>2026-04-21T09:47:51Z</time></trkpt><trkpt lat="45.38195796408141" lon="8.033806083569413"><ele>313.0</ele><time>2026-04-21T09:47:52Z</time></trkpt><trkpt lat="45.38187172806644" lon="8.033736341391336"><ele>313.0</ele><time>2026-04-21T09:47:53Z</time></trkpt><trkpt lat="45.38178458685335" lon="8.033677352570471"><ele>313.0</ele><time>2026-04-21T09:47:54Z</time></trkpt><trkpt lat="45.381679108865505" lon="8.033634070036141"><ele>313.0</ele><time>2026-04-21T09:47:56Z</time></trkpt><trkpt lat="45.381621118190445" lon="8.033671011459953"><ele>313.0</ele><time>2026-04-21T09:47:57Z</time></trkpt><trkpt lat="45.381577138490904" lon="8.033758323211734"><ele>313.0</ele><time>2026-04-21T09:47:58Z</time></trkpt><trkpt lat="45.381551407365855" lon="8.033882787121076"><ele>313.0</ele><time>2026-04-21T09:47:59Z</time></trkpt><trkpt lat="45.38154316573968" lon="8.034021702730948"><ele>313.0</ele><time>2026-04-21T09:48:00Z</time></trkpt><trkpt lat="45.381547845787466" lon="8.034143446689283"><ele>313.0</ele><time>2026-04-21T09:48:01Z</time></trkpt><trkpt lat="45.38157186634313" lon="8.034229355456953"><ele>313.0</ele><time>2026-04-21T09:48:02Z</time></trkpt><trkpt lat="45.3816946972417" lon="8.034304143057836"><ele>313.0</ele><time>2026-04-21T09:48:04Z</time></trkpt><trkpt lat="45.38177086280835" lon="8.034287591143682"><ele>313.0</ele><time>2026-04-21T09:48:05Z</time></trkpt><trkpt lat="45.381857953998065" lon="8.034266657540464"><ele>313.0</ele><time>2026-04-21T09:48:06Z</time></trkpt><trkpt lat="45.381856397556554" lon="8.034359345426651"><ele>313.0</ele><time>2026-04-21T09:48:07Z</time></trkpt><trkpt lat="45.38188219792327" lon="8.034266220302632"><ele>313.0</ele><time>2026-04-21T09:48:08Z</time></trkpt><trkpt lat="45.38191842923991" lon="8.034182144246026"><ele>313.0</ele><time>2026-04-21T09:48:09Z</time></trkpt><trkpt lat="45.38191728539709" lon="8.034042871041532"><ele>313.0</ele><time>2026-04-21T09:48:11Z</time></trkpt><trkpt lat="45.38192998588227" lon="8.033942366644634"><ele>313.0</ele><time>2026-04-21T09:48:13Z</time></trkpt><trkpt lat="45.38185841135817" lon="8.033828093907012"><ele>313.0</ele><time>2026-04-21T09:48:23Z</time></trkpt><trkpt lat="45.3818209220737" lon="8.033749923362103"><ele>313.0</ele><time>2026-04-21T09:48:24Z</time></trkpt><trkpt lat="45.38175098303044" lon="8.03364383144076"><ele>313.0</ele><time>2026-04-21T09:48:26Z</time></trkpt><trkpt lat="45.38172049342511" lon="8.03354552282177"><ele>313.0</ele><time>2026-04-21T09:48:28Z</time></trkpt><trkpt lat="45.38156240286781" lon="8.033758182828954"><ele>313.0</ele><time>2026-04-21T09:48:30Z</time></trkpt><trkpt lat="45.38155579475994" lon="8.033864815224574"><ele>313.0</ele><time>2026-04-21T09:48:31Z</time></trkpt><trkpt lat="45.3815438563801" lon="8.033988931846059"><ele>313.0</ele><time>2026-04-21T09:48:32Z</time></trkpt><trkpt lat="45.381543537130774" lon="8.034137497633916"><ele>313.0</ele><time>2026-04-21T09:48:33Z</time></trkpt><trkpt lat="45.38159276435849" lon="8.034236931441232"><ele>313.0</ele><time>2026-04-21T09:48:34Z</time></trkpt><trkpt lat="45.38163051164793" lon="8.034353101497478"><ele>313.0</ele><time>2026-04-21T09:48:35Z</time></trkpt><trkpt lat="45.38167541832503" lon="8.034474245625633"><ele>313.0</ele><time>2026-04-21T09:48:36Z</time></trkpt><trkpt lat="45.381714380701695" lon="8.034562118462619"><ele>313.0</ele><time>2026-04-21T09:48:37Z</time></trkpt><trkpt lat="45.3818209332984" lon="8.03461859381106"><ele>313.0</ele><time>2026-04-21T09:48:39Z</time></trkpt><trkpt lat="45.38188957646647" lon="8.03463625686752"><ele>313.0</ele><time>2026-04-21T09:48:40Z</time></trkpt><trkpt lat="45.38196683286205" lon="8.03463211964654"><ele>313.0</ele><time>2026-04-21T09:48:41Z</time></trkpt><trkpt lat="45.38205648270465" lon="8.034635111914444"><ele>313.0</ele><time>2026-04-21T09:48:42Z</time></trkpt><trkpt lat="45.382112608865484" lon="8.034593740292415"><ele>313.0</ele><time>2026-04-21T09:48:43Z</time></trkpt><trkpt lat="45.382160024176095" lon="8.03453321861666"><ele>313.0</ele><time>2026-04-21T09:48:44Z</time></trkpt><trkpt lat="45.382190751263366" lon="8.034429705804168"><ele>313.0</ele><time>2026-04-21T09:48:45Z</time></trkpt><trkpt lat="45.38218907409385" lon="8.034283554248775"><ele>313.0</ele><time>2026-04-21T09:48:46Z</time></trkpt><trkpt lat="45.38216908525241" lon="8.034131298310571"><ele>313.0</ele><time>2026-04-21T09:48:47Z</time></trkpt><trkpt lat="45.38212570916462" lon="8.034029263954492"><ele>313.0</ele><time>2026-04-21T09:48:48Z</time></trkpt><trkpt lat="45.382059122850755" lon="8.033932802704676"><ele>313.0</ele><time>2026-04-21T09:48:49Z</time></trkpt><trkpt lat="45.38197226000012" lon="8.033817730420164"><ele>313.0</ele><time>2026-04-21T09:48:49.999Z</time></trkpt><trkpt lat="45.38187655938645" lon="8.033728702619252"><ele>313.0</ele><time>2026-04-21T09:48:50.999Z</time></trkpt><trkpt lat="45.38178817263866" lon="8.033673899113529"><ele>313.0</ele><time>2026-04-21T09:48:51.999Z</time></trkpt><trkpt lat="45.381721898328195" lon="8.033630683190857"><ele>313.0</ele><time>2026-04-21T09:48:52.999Z</time></trkpt><trkpt lat="45.38161644511272" lon="8.033668517904283"><ele>313.0</ele><time>2026-04-21T09:48:54.999Z</time></trkpt><trkpt lat="45.381566440291344" lon="8.033767268821018"><ele>313.0</ele><time>2026-04-21T09:48:55.999Z</time></trkpt><trkpt lat="45.38153703905584" lon="8.03389961815234"><ele>313.0</ele><time>2026-04-21T09:48:56.999Z</time></trkpt><trkpt lat="45.381534567423444" lon="8.034040897539423"><ele>313.0</ele><time>2026-04-21T09:48:57.999Z</time></trkpt><trkpt lat="45.3815461150671" lon="8.034186169251553"><ele>313.0</ele><time>2026-04-21T09:48:58.999Z</time></trkpt><trkpt lat="45.381577984417575" lon="8.034309523921385"><ele>313.0</ele><time>2026-04-21T09:48:59.999Z</time></trkpt><trkpt lat="45.38164753851955" lon="8.034405152075575"><ele>313.0</ele><time>2026-04-21T09:49:00.999Z</time></trkpt><trkpt lat="45.38169064296501" lon="8.034537434340013"><ele>313.0</ele><time>2026-04-21T09:49:01.999Z</time></trkpt><trkpt lat="45.381749475167254" lon="8.034614973916568"><ele>313.0</ele><time>2026-04-21T09:49:02.999Z</time></trkpt><trkpt lat="45.38181837940298" lon="8.034661802559933"><ele>313.0</ele><time>2026-04-21T09:49:03.999Z</time></trkpt><trkpt lat="45.3819067221405" lon="8.034670801942918"><ele>313.0</ele><time>2026-04-21T09:49:04.999Z</time></trkpt><trkpt lat="45.38199397204224" lon="8.034652542906937"><ele>313.0</ele><time>2026-04-21T09:49:05.999Z</time></trkpt><trkpt lat="45.38207563168898" lon="8.03461888617569"><ele>313.0</ele><time>2026-04-21T09:49:06.999Z</time></trkpt><trkpt lat="45.38214825932746" lon="8.034564108023789"><ele>313.0</ele><time>2026-04-21T09:49:07.999Z</time></trkpt><trkpt lat="45.38218648120474" lon="8.034482377601634"><ele>313.0</ele><time>2026-04-21T09:49:08.999Z</time></trkpt><trkpt lat="45.382198890794285" lon="8.034376093839782"><ele>313.0</ele><time>2026-04-21T09:49:10Z</time></trkpt><trkpt lat="45.382188433668276" lon="8.034257894111509"><ele>313.0</ele><time>2026-04-21T09:49:11Z</time></trkpt><trkpt lat="45.38217119246875" lon="8.034120816711901"><ele>313.0</ele><time>2026-04-21T09:49:12Z</time></trkpt><trkpt lat="45.38214180539414" lon="8.033990258449512"><ele>313.0</ele><time>2026-04-21T09:49:13Z</time></trkpt><trkpt lat="45.382041629049205" lon="8.033880292522742"><ele>313.0</ele><time>2026-04-21T09:49:14Z</time></trkpt><trkpt lat="45.38197359468836" lon="8.033787195599507"><ele>313.0</ele><time>2026-04-21T09:49:15Z</time></trkpt><trkpt lat="45.381864594744314" lon="8.033701045912593"><ele>313.0</ele><time>2026-04-21T09:49:16Z</time></trkpt><trkpt lat="45.381782434395674" lon="8.033639386320536"><ele>313.0</ele><time>2026-04-21T09:49:17Z</time></trkpt><trkpt lat="45.38173398032877" lon="8.033560231871045"><ele>313.0</ele><time>2026-04-21T09:49:18Z</time></trkpt><trkpt lat="45.38156441626101" lon="8.033790837328208"><ele>313.0</ele><time>2026-04-21T09:49:21Z</time></trkpt><trkpt lat="45.38153783810339" lon="8.03393158022763"><ele>313.0</ele><time>2026-04-21T09:49:22Z</time></trkpt><trkpt lat="45.3815379170249" lon="8.034060074047703"><ele>313.0</ele><time>2026-04-21T09:49:23Z</time></trkpt><trkpt lat="45.38155642205696" lon="8.034186992582983"><ele>313.0</ele><time>2026-04-21T09:49:24Z</time></trkpt><trkpt lat="45.38161255589392" lon="8.034292340229271"><ele>313.0</ele><time>2026-04-21T09:49:25Z</time></trkpt><trkpt lat="45.38165315876465" lon="8.034436252459436"><ele>313.0</ele><time>2026-04-21T09:49:26Z</time></trkpt><trkpt lat="45.381704531942816" lon="8.034543556994546"><ele>313.0</ele><time>2026-04-21T09:49:27Z</time></trkpt><trkpt lat="45.38174792792738" lon="8.034614926999511"><ele>313.0</ele><time>2026-04-21T09:49:28Z</time></trkpt><trkpt lat="45.38182401768036" lon="8.034620513861775"><ele>313.0</ele><time>2026-04-21T09:49:29Z</time></trkpt><trkpt lat="45.38189784742614" lon="8.034671135008923"><ele>313.0</ele><time>2026-04-21T09:49:30Z</time></trkpt><trkpt lat="45.38198482240798" lon="8.034655745111833"><ele>313.0</ele><time>2026-04-21T09:49:31Z</time></trkpt><trkpt lat="45.38207050394728" lon="8.03462610214841"><ele>313.0</ele><time>2026-04-21T09:49:32Z</time></trkpt><trkpt lat="45.38212786508874" lon="8.034580156407877"><ele>313.0</ele><time>2026-04-21T09:49:33Z</time></trkpt><trkpt lat="45.38219172909207" lon="8.034428909143578"><ele>313.0</ele><time>2026-04-21T09:49:35Z</time></trkpt><trkpt lat="45.38219031430235" lon="8.034308669863707"><ele>313.0</ele><time>2026-04-21T09:49:36Z</time></trkpt><trkpt lat="45.382176119747776" lon="8.034164985400256"><ele>313.0</ele><time>2026-04-21T09:49:37Z</time></trkpt><trkpt lat="45.3821333859605" lon="8.034040627456374"><ele>313.0</ele><time>2026-04-21T09:49:38Z</time></trkpt><trkpt lat="45.382063933141424" lon="8.03392352071462"><ele>313.0</ele><time>2026-04-21T09:49:39Z</time></trkpt><trkpt lat="45.38196628295769" lon="8.03381525401352"><ele>313.0</ele><time>2026-04-21T09:49:40Z</time></trkpt><trkpt lat="45.3818583613393" lon="8.033719102087359"><ele>313.0</ele><time>2026-04-21T09:49:41Z</time></trkpt><trkpt lat="45.381774943115815" lon="8.033660560410695"><ele>313.0</ele><time>2026-04-21T09:49:42Z</time></trkpt><trkpt lat="45.38167201990495" lon="8.033616650173789"><ele>313.0</ele><time>2026-04-21T09:49:44Z</time></trkpt><trkpt lat="45.38158567819151" lon="8.03372351110096"><ele>313.0</ele><time>2026-04-21T09:49:46Z</time></trkpt><trkpt lat="45.38155784757828" lon="8.033852961157828"><ele>313.0</ele><time>2026-04-21T09:49:47Z</time></trkpt><trkpt lat="45.381550695326034" lon="8.033982325311284"><ele>313.0</ele><time>2026-04-21T09:49:48Z</time></trkpt><trkpt lat="45.38158240250751" lon="8.03412185479694"><ele>313.0</ele><time>2026-04-21T09:49:50Z</time></trkpt><trkpt lat="45.381664032102144" lon="8.034169415345405"><ele>313.0</ele><time>2026-04-21T09:49:52Z</time></trkpt><trkpt lat="45.38175049597507" lon="8.034138934146362"><ele>313.0</ele><time>2026-04-21T09:49:54Z</time></trkpt><trkpt lat="45.38181190097823" lon="8.034109037774861"><ele>313.0</ele><time>2026-04-21T09:49:55Z</time></trkpt><trkpt lat="45.381902872112086" lon="8.0340545858953"><ele>313.0</ele><time>2026-04-21T09:49:57Z</time></trkpt><trkpt lat="45.38196756287278" lon="8.034120203008019"><ele>313.0</ele><time>2026-04-21T09:50:01Z</time></trkpt><trkpt lat="45.38192548519078" lon="8.034188366482333"><ele>313.0</ele><time>2026-04-21T09:50:03Z</time></trkpt><trkpt lat="45.38184536314412" lon="8.034223917804095"><ele>313.0</ele><time>2026-04-21T09:50:05Z</time></trkpt><trkpt lat="45.38178691903106" lon="8.034270260227842"><ele>313.0</ele><time>2026-04-21T09:50:06Z</time></trkpt><trkpt lat="45.38170623061381" lon="8.034263134791718"><ele>313.0</ele><time>2026-04-21T09:50:08Z</time></trkpt><trkpt lat="45.38164492204945" lon="8.034307365990903"><ele>313.0</ele><time>2026-04-21T09:50:11Z</time></trkpt><trkpt lat="45.38171905532211" lon="8.034371439236116"><ele>313.0</ele><time>2026-04-21T09:50:14Z</time></trkpt><trkpt lat="45.38178245567756" lon="8.034408741686526"><ele>313.0</ele><time>2026-04-21T09:50:15Z</time></trkpt><trkpt lat="45.381849610670535" lon="8.034475354139515"><ele>313.0</ele><time>2026-04-21T09:50:16Z</time></trkpt><trkpt lat="45.381915375533396" lon="8.03455756452598"><ele>313.0</ele><time>2026-04-21T09:50:17Z</time></trkpt><trkpt lat="45.38196572567797" lon="8.03461258528688"><ele>313.0</ele><time>2026-04-21T09:50:18Z</time></trkpt><trkpt lat="45.38206350389358" lon="8.034635785449577"><ele>313.0</ele><time>2026-04-21T09:50:20Z</time></trkpt><trkpt lat="45.3821501845896" lon="8.034528489689139"><ele>313.0</ele><time>2026-04-21T09:50:22Z</time></trkpt><trkpt lat="45.38217864959907" lon="8.034427864505403"><ele>313.0</ele><time>2026-04-21T09:50:23Z</time></trkpt><trkpt lat="45.38217764943679" lon="8.034300044390028"><ele>313.0</ele><time>2026-04-21T09:50:24Z</time></trkpt><trkpt lat="45.38215772852482" lon="8.034157918554989"><ele>313.0</ele><time>2026-04-21T09:50:25Z</time></trkpt><trkpt lat="45.38212423679895" lon="8.034058938137923"><ele>313.0</ele><time>2026-04-21T09:50:26Z</time></trkpt><trkpt lat="45.38207041696308" lon="8.033960603839377"><ele>313.0</ele><time>2026-04-21T09:50:27Z</time></trkpt><trkpt lat="45.38199741721784" lon="8.033860376499138"><ele>313.0</ele><time>2026-04-21T09:50:28Z</time></trkpt><trkpt lat="45.3819138719548" lon="8.033769918458882"><ele>313.0</ele><time>2026-04-21T09:50:29Z</time></trkpt><trkpt lat="45.381844271946285" lon="8.033707012697578"><ele>313.0</ele><time>2026-04-21T09:50:30Z</time></trkpt><trkpt lat="45.38176523226158" lon="8.03365345572332"><ele>313.0</ele><time>2026-04-21T09:50:31Z</time></trkpt><trkpt lat="45.381666927689764" lon="8.033651725567594"><ele>313.0</ele><time>2026-04-21T09:50:33Z</time></trkpt><trkpt lat="45.38161926132817" lon="8.033715221735893"><ele>313.0</ele><time>2026-04-21T09:50:34Z</time></trkpt><trkpt lat="45.38157746729627" lon="8.033813252258945"><ele>313.0</ele><time>2026-04-21T09:50:35Z</time></trkpt><trkpt lat="45.381560736692485" lon="8.033941196218503"><ele>313.0</ele><time>2026-04-21T09:50:36Z</time></trkpt><trkpt lat="45.38155716072134" lon="8.034074109831597"><ele>313.0</ele><time>2026-04-21T09:50:37Z</time></trkpt><trkpt lat="45.38156987491125" lon="8.034193189176353"><ele>313.0</ele><time>2026-04-21T09:50:38Z</time></trkpt><trkpt lat="45.38160279198412" lon="8.034298660002506"><ele>313.0</ele><time>2026-04-21T09:50:39Z</time></trkpt><trkpt lat="45.3816576557315" lon="8.034418271198538"><ele>313.0</ele><time>2026-04-21T09:50:40Z</time></trkpt><trkpt lat="45.381705562284985" lon="8.034532208092633"><ele>313.0</ele><time>2026-04-21T09:50:41Z</time></trkpt><trkpt lat="45.381753781882395" lon="8.034602852460525"><ele>313.0</ele><time>2026-04-21T09:50:42Z</time></trkpt><trkpt lat="45.38181962225093" lon="8.034639930488877"><ele>313.0</ele><time>2026-04-21T09:50:43Z</time></trkpt><trkpt lat="45.38190299060378" lon="8.034659004416127"><ele>313.0</ele><time>2026-04-21T09:50:44Z</time></trkpt><trkpt lat="45.38199034231112" lon="8.034648174455189"><ele>313.0</ele><time>2026-04-21T09:50:45Z</time></trkpt><trkpt lat="45.382075460845606" lon="8.03461073299118"><ele>313.0</ele><time>2026-04-21T09:50:46Z</time></trkpt><trkpt lat="45.38216297599047" lon="8.034501945036745"><ele>313.0</ele><time>2026-04-21T09:50:48Z</time></trkpt><trkpt lat="45.382199796878574" lon="8.034406550477934"><ele>313.0</ele><time>2026-04-21T09:50:49Z</time></trkpt><trkpt lat="45.38220314497857" lon="8.034262186154102"><ele>313.0</ele><time>2026-04-21T09:50:50Z</time></trkpt><trkpt lat="45.382177254312765" lon="8.034123894660498"><ele>313.0</ele><time>2026-04-21T09:50:51Z</time></trkpt><trkpt lat="45.38214806861107" lon="8.034015493493063"><ele>313.0</ele><time>2026-04-21T09:50:52Z</time></trkpt><trkpt lat="45.38206847270328" lon="8.033905727539373"><ele>313.0</ele><time>2026-04-21T09:50:53Z</time></trkpt><trkpt lat="45.381976761628735" lon="8.033799210061195"><ele>313.0</ele><time>2026-04-21T09:50:54Z</time></trkpt><trkpt lat="45.38186743139573" lon="8.033739822019731"><ele>313.0</ele><time>2026-04-21T09:50:55Z</time></trkpt><trkpt lat="45.3817865108475" lon="8.033678311588195"><ele>313.0</ele><time>2026-04-21T09:50:56Z</time></trkpt><trkpt lat="45.381755184997765" lon="8.033584607168464"><ele>313.0</ele><time>2026-04-21T09:50:56.999Z</time></trkpt><trkpt lat="45.38170187896608" lon="8.033531815798522"><ele>313.0</ele><time>2026-04-21T09:50:58.999Z</time></trkpt><trkpt lat="45.381591968260125" lon="8.033758366846524"><ele>313.0</ele><time>2026-04-21T09:50:59.999Z</time></trkpt><trkpt lat="45.3815618779326" lon="8.033877051947542"><ele>313.0</ele><time>2026-04-21T09:51:00.999Z</time></trkpt><trkpt lat="45.38155081488847" lon="8.033998351479534"><ele>313.0</ele><time>2026-04-21T09:51:01.999Z</time></trkpt><trkpt lat="45.38155653239984" lon="8.03409295341582"><ele>313.0</ele><time>2026-04-21T09:51:02.999Z</time></trkpt><trkpt lat="45.38160100683246" lon="8.0342216033316"><ele>313.0</ele><time>2026-04-21T09:51:04.999Z</time></trkpt><trkpt lat="45.38166992178161" lon="8.034273915969885"><ele>313.0</ele><time>2026-04-21T09:51:06.999Z</time></trkpt><trkpt lat="45.38162007262607" lon="8.03442548496368"><ele>313.0</ele><time>2026-04-21T09:51:07.999Z</time></trkpt><trkpt lat="45.38173369275699" lon="8.034563779021726"><ele>313.0</ele><time>2026-04-21T09:51:11.999Z</time></trkpt><trkpt lat="45.381805941529194" lon="8.034622254403065"><ele>313.0</ele><time>2026-04-21T09:51:12.999Z</time></trkpt><trkpt lat="45.38190368936602" lon="8.034535011938479"><ele>313.0</ele><time>2026-04-21T09:51:15Z</time></trkpt><trkpt lat="45.38192917237785" lon="8.034417369052475"><ele>313.0</ele><time>2026-04-21T09:51:18Z</time></trkpt><trkpt lat="45.38187540024311" lon="8.034340217603217"><ele>313.0</ele><time>2026-04-21T09:51:20Z</time></trkpt><trkpt lat="45.38185492366728" lon="8.034241018246572"><ele>313.0</ele><time>2026-04-21T09:51:23Z</time></trkpt><trkpt lat="45.38191384203861" lon="8.034105608137619"><ele>313.0</ele><time>2026-04-21T09:54:20Z</time></trkpt><trkpt lat="45.38198881339216" lon="8.034053188961957"><ele>313.0</ele><time>2026-04-21T09:54:22Z</time></trkpt><trkpt lat="45.3820827516562" lon="8.034097192836018"><ele>313.0</ele><time>2026-04-21T09:54:24Z</time></trkpt><trkpt lat="45.382148915150715" lon="8.034119232464336"><ele>313.0</ele><time>2026-04-21T09:54:25Z</time></trkpt><trkpt lat="45.382208233414566" lon="8.034158290914585"><ele>313.0</ele><time>2026-04-21T09:54:26Z</time></trkpt><trkpt lat="45.38227036201771" lon="8.034213739774826"><ele>313.0</ele><time>2026-04-21T09:54:27Z</time></trkpt><trkpt lat="45.382330690269235" lon="8.03424810248807"><ele>313.6</ele><time>2026-04-21T09:54:28Z</time></trkpt><trkpt lat="45.382449091005775" lon="8.03427987945908"><ele>314.20000000000005</ele><time>2026-04-21T09:54:30Z</time></trkpt><trkpt lat="45.38251801554858" lon="8.034296701056123"><ele>314.8</ele><time>2026-04-21T09:54:31Z</time></trkpt><trkpt lat="45.38261035123046" lon="8.034324635757091"><ele>315.40000000000003</ele><time>2026-04-21T09:54:32Z</time></trkpt><trkpt lat="45.3826985509785" lon="8.034361251616504"><ele>316.0</ele><time>2026-04-21T09:54:33Z</time></trkpt><trkpt lat="45.382779438704645" lon="8.034351113686645"><ele>316.0</ele><time>2026-04-21T09:54:34Z</time></trkpt><trkpt lat="45.38286449863585" lon="8.034329273214055"><ele>316.0</ele><time>2026-04-21T09:54:35Z</time></trkpt><trkpt lat="45.38294282092347" lon="8.03431035090226"><ele>316.0</ele><time>2026-04-21T09:54:36Z</time></trkpt><trkpt lat="45.3830237893272" lon="8.034328376632422"><ele>316.0</ele><time>2026-04-21T09:54:37Z</time></trkpt><trkpt lat="45.38311832190959" lon="8.034343462451016"><ele>316.0</ele><time>2026-04-21T09:54:38Z</time></trkpt><trkpt lat="45.3832059155651" lon="8.034345025657165"><ele>316.0</ele><time>2026-04-21T09:54:39Z</time></trkpt><trkpt lat="45.38327347783842" lon="8.03433986594593"><ele>316.3333333333333</ele><time>2026-04-21T09:54:40Z</time></trkpt><trkpt lat="45.38334251452224" lon="8.034287901985728"><ele>316.66666666666663</ele><time>2026-04-21T09:54:41Z</time></trkpt><trkpt lat="45.383399071622094" lon="8.034215981855118"><ele>317.0</ele><time>2026-04-21T09:54:42Z</time></trkpt><trkpt lat="45.38345108512641" lon="8.034139604580162"><ele>317.3333333333333</ele><time>2026-04-21T09:54:43Z</time></trkpt><trkpt lat="45.38351314947781" lon="8.034025368274174"><ele>317.6666666666667</ele><time>2026-04-21T09:54:44Z</time></trkpt><trkpt lat="45.38359020485594" lon="8.033901265363362"><ele>318.0</ele><time>2026-04-21T09:54:45Z</time></trkpt><trkpt lat="45.383665432166445" lon="8.033792551539824"><ele>318.0</ele><time>2026-04-21T09:54:46Z</time></trkpt><trkpt lat="45.38374273843426" lon="8.033714138012193"><ele>318.0</ele><time>2026-04-21T09:54:47Z</time></trkpt><trkpt lat="45.38381648558798" lon="8.033642278589925"><ele>318.0</ele><time>2026-04-21T09:54:48Z</time></trkpt><trkpt lat="45.383899920831674" lon="8.033554613089422"><ele>318.0</ele><time>2026-04-21T09:54:48.999Z</time></trkpt><trkpt lat="45.383958412025656" lon="8.033429239507724"><ele>318.0</ele><time>2026-04-21T09:54:49.999Z</time></trkpt><trkpt lat="45.38399974342841" lon="8.033315976442736"><ele>318.5</ele><time>2026-04-21T09:54:50.999Z</time></trkpt><trkpt lat="45.3840409070132" lon="8.03319340907242"><ele>319.0</ele><time>2026-04-21T09:54:51.999Z</time></trkpt><trkpt lat="45.38407095091488" lon="8.033020062613966"><ele>319.5</ele><time>2026-04-21T09:54:52.999Z</time></trkpt><trkpt lat="45.3841097744586" lon="8.03285967656013"><ele>320.0</ele><time>2026-04-21T09:54:53.999Z</time></trkpt><trkpt lat="45.384182001001236" lon="8.03266740471751"><ele>320.0</ele><time>2026-04-21T09:54:54.999Z</time></trkpt><trkpt lat="45.38426166275165" lon="8.032504108684247"><ele>320.0</ele><time>2026-04-21T09:54:55.999Z</time></trkpt><trkpt lat="45.384334002597896" lon="8.032342744744932"><ele>320.0</ele><time>2026-04-21T09:54:56.999Z</time></trkpt><trkpt lat="45.38439521902375" lon="8.032188029539642"><ele>320.0</ele><time>2026-04-21T09:54:57.999Z</time></trkpt><trkpt lat="45.384448455754985" lon="8.032041188292476"><ele>320.0</ele><time>2026-04-21T09:54:58.999Z</time></trkpt><trkpt lat="45.38450960893462" lon="8.031898427111045"><ele>320.0</ele><time>2026-04-21T09:54:59.999Z</time></trkpt><trkpt lat="45.38459097841912" lon="8.03176546892913"><ele>320.0</ele><time>2026-04-21T09:55:00.999Z</time></trkpt><trkpt lat="45.38468522984442" lon="8.031623420599571"><ele>320.0</ele><time>2026-04-21T09:55:01.999Z</time></trkpt><trkpt lat="45.38479844090476" lon="8.031474007635941"><ele>320.0</ele><time>2026-04-21T09:55:02.999Z</time></trkpt><trkpt lat="45.38489709167205" lon="8.031338320015626"><ele>320.0</ele><time>2026-04-21T09:55:03.999Z</time></trkpt><trkpt lat="45.38500317559592" lon="8.031195471811651"><ele>320.0</ele><time>2026-04-21T09:55:04.999Z</time></trkpt><trkpt lat="45.385100327885446" lon="8.031061707275404"><ele>320.0</ele><time>2026-04-21T09:55:05.999Z</time></trkpt><trkpt lat="45.38518769640516" lon="8.03093143603284"><ele>320.0</ele><time>2026-04-21T09:55:06.999Z</time></trkpt><trkpt lat="45.38526382817319" lon="8.030821198674394"><ele>320.0</ele><time>2026-04-21T09:55:07.999Z</time></trkpt><trkpt lat="45.38532120075325" lon="8.030727652204144"><ele>320.0</ele><time>2026-04-21T09:55:08.999Z</time></trkpt><trkpt lat="45.385389912516416" lon="8.030643631346408"><ele>320.0</ele><time>2026-04-21T09:55:09.999Z</time></trkpt><trkpt lat="45.3854481560129" lon="8.03058005255803"><ele>320.0</ele><time>2026-04-21T09:55:10.999Z</time></trkpt><trkpt lat="45.38553437328186" lon="8.0305394516059"><ele>321.0</ele><time>2026-04-21T09:55:11.999Z</time></trkpt><trkpt lat="45.38563408297702" lon="8.030510760412389"><ele>322.0</ele><time>2026-04-21T09:55:12.999Z</time></trkpt><trkpt lat="45.3857411771941" lon="8.03049118230027"><ele>323.0</ele><time>2026-04-21T09:55:13.999Z</time></trkpt><trkpt lat="45.385826231298864" lon="8.030461157319678"><ele>324.0</ele><time>2026-04-21T09:55:14.999Z</time></trkpt><trkpt lat="45.38589342926864" lon="8.030416182545233"><ele>325.0</ele><time>2026-04-21T09:55:15.999Z</time></trkpt><trkpt lat="45.385957464758356" lon="8.03032873119792"><ele>325.0</ele><time>2026-04-21T09:55:16.999Z</time></trkpt><trkpt lat="45.38601596117458" lon="8.03023487096387"><ele>325.0</ele><time>2026-04-21T09:55:17.999Z</time></trkpt><trkpt lat="45.38609081415787" lon="8.0301429221408"><ele>325.0</ele><time>2026-04-21T09:55:18.999Z</time></trkpt><trkpt lat="45.38617281091925" lon="8.030061933703596"><ele>325.0</ele><time>2026-04-21T09:55:19.999Z</time></trkpt><trkpt lat="45.38627059323177" lon="8.029975338599485"><ele>325.0</ele><time>2026-04-21T09:55:20.999Z</time></trkpt><trkpt lat="45.38635978637773" lon="8.029865510205413"><ele>326.75</ele><time>2026-04-21T09:55:21.999Z</time></trkpt><trkpt lat="45.386445019162686" lon="8.029721061504842"><ele>328.5</ele><time>2026-04-21T09:55:22.999Z</time></trkpt><trkpt lat="45.38654489206556" lon="8.029563248420414"><ele>330.25</ele><time>2026-04-21T09:55:23.999Z</time></trkpt><trkpt lat="45.386643588822714" lon="8.029433703636835"><ele>332.0</ele><time>2026-04-21T09:55:24.999Z</time></trkpt><trkpt lat="45.38673917517599" lon="8.029316758705095"><ele>332.0</ele><time>2026-04-21T09:55:25.999Z</time></trkpt><trkpt lat="45.38681840973301" lon="8.02922816294099"><ele>332.0</ele><time>2026-04-21T09:55:27Z</time></trkpt><trkpt lat="45.38688347854476" lon="8.029154101435909"><ele>332.0</ele><time>2026-04-21T09:55:28Z</time></trkpt><trkpt lat="45.38694839477351" lon="8.02908737233582"><ele>332.0</ele><time>2026-04-21T09:55:29Z</time></trkpt><trkpt lat="45.38702392737983" lon="8.029025690753192"><ele>332.0</ele><time>2026-04-21T09:55:30Z</time></trkpt><trkpt lat="45.38712268149364" lon="8.028980214256057"><ele>332.0</ele><time>2026-04-21T09:55:31Z</time></trkpt><trkpt lat="45.38722103437459" lon="8.028970572827932"><ele>332.0</ele><time>2026-04-21T09:55:32Z</time></trkpt><trkpt lat="45.38729915775597" lon="8.028963728972753"><ele>332.0</ele><time>2026-04-21T09:55:33Z</time></trkpt><trkpt lat="45.38740548403953" lon="8.028920451663542"><ele>332.0</ele><time>2026-04-21T09:55:35Z</time></trkpt><trkpt lat="45.387463629809254" lon="8.028854319826666"><ele>332.0</ele><time>2026-04-21T09:55:36Z</time></trkpt><trkpt lat="45.38752249632346" lon="8.028785757015092"><ele>332.0</ele><time>2026-04-21T09:55:38Z</time></trkpt><trkpt lat="45.38758882950699" lon="8.028758195567404"><ele>332.0</ele><time>2026-04-21T09:55:42Z</time></trkpt><trkpt lat="45.38767583220935" lon="8.028755655580147"><ele>332.0</ele><time>2026-04-21T09:55:53Z</time></trkpt><trkpt lat="45.38773427606936" lon="8.028793449943214"><ele>332.0</ele><time>2026-04-21T09:55:54Z</time></trkpt><trkpt lat="45.38781592848468" lon="8.028842634958018"><ele>332.0</ele><time>2026-04-21T09:55:55Z</time></trkpt><trkpt lat="45.38790469226651" lon="8.028908692948441"><ele>332.0</ele><time>2026-04-21T09:55:56Z</time></trkpt><trkpt lat="45.38796334171476" lon="8.029002957565131"><ele>332.0</ele><time>2026-04-21T09:55:57Z</time></trkpt><trkpt lat="45.38803391106756" lon="8.02911831403088"><ele>332.8</ele><time>2026-04-21T09:55:58Z</time></trkpt><trkpt lat="45.388123476804104" lon="8.029226002129628"><ele>333.6</ele><time>2026-04-21T09:55:59Z</time></trkpt><trkpt lat="45.388206510638284" lon="8.02932805345845"><ele>334.40000000000003</ele><time>2026-04-21T09:56:00Z</time></trkpt><trkpt lat="45.38828504187945" lon="8.029405147710984"><ele>335.20000000000005</ele><time>2026-04-21T09:56:01Z</time></trkpt><trkpt lat="45.38837948823287" lon="8.029472413111499"><ele>336.0</ele><time>2026-04-21T09:56:02Z</time></trkpt><trkpt lat="45.38845293684017" lon="8.02956677809848"><ele>336.0</ele><time>2026-04-21T09:56:03Z</time></trkpt><trkpt lat="45.3885152875077" lon="8.029633573331443"><ele>336.0</ele><time>2026-04-21T09:56:04Z</time></trkpt><trkpt lat="45.388582225767614" lon="8.029683347679489"><ele>336.0</ele><time>2026-04-21T09:56:05Z</time></trkpt><trkpt lat="45.38863742528663" lon="8.029758209094421"><ele>336.0</ele><time>2026-04-21T09:56:06Z</time></trkpt><trkpt lat="45.38871137685374" lon="8.02983358838407"><ele>336.0</ele><time>2026-04-21T09:56:07Z</time></trkpt><trkpt lat="45.38879284005524" lon="8.029907434892124"><ele>336.0</ele><time>2026-04-21T09:56:08Z</time></trkpt><trkpt lat="45.38887668533089" lon="8.0299856565663"><ele>337.3333333333333</ele><time>2026-04-21T09:56:09Z</time></trkpt><trkpt lat="45.38895280745291" lon="8.03006314316016"><ele>338.6666666666667</ele><time>2026-04-21T09:56:10Z</time></trkpt><trkpt lat="45.38900131383229" lon="8.030132964563727"><ele>340.0</ele><time>2026-04-21T09:56:11Z</time></trkpt><trkpt lat="45.38905081220275" lon="8.030197286769042"><ele>341.33333333333337</ele><time>2026-04-21T09:56:12Z</time></trkpt><trkpt lat="45.38912277679336" lon="8.030272091217805"><ele>342.6666666666667</ele><time>2026-04-21T09:56:14Z</time></trkpt><trkpt lat="45.38918440296096" lon="8.030349054984372"><ele>344.0</ele><time>2026-04-21T09:56:16Z</time></trkpt><trkpt lat="45.38923325409467" lon="8.030414120212564"><ele>344.0</ele><time>2026-04-21T09:56:18Z</time></trkpt><trkpt lat="45.389277880153124" lon="8.03048482492718"><ele>344.0</ele><time>2026-04-21T09:56:19Z</time></trkpt><trkpt lat="45.389355837347075" lon="8.030546687634116"><ele>344.0</ele><time>2026-04-21T09:56:20Z</time></trkpt><trkpt lat="45.389442244344494" lon="8.030590593942627"><ele>344.0</ele><time>2026-04-21T09:56:21Z</time></trkpt><trkpt lat="45.38951127986255" lon="8.030616031987824"><ele>344.0</ele><time>2026-04-21T09:56:22Z</time></trkpt><trkpt lat="45.3895604964817" lon="8.030688498580856"><ele>344.0</ele><time>2026-04-21T09:56:24Z</time></trkpt><trkpt lat="45.38958930038634" lon="8.030813522984266"><ele>344.6666666666667</ele><time>2026-04-21T09:56:27Z</time></trkpt><trkpt lat="45.38958779663304" lon="8.030928540098909"><ele>345.33333333333337</ele><time>2026-04-21T09:56:29Z</time></trkpt><trkpt lat="45.38958726036794" lon="8.031043438243143"><ele>346.0</ele><time>2026-04-21T09:56:31Z</time></trkpt><trkpt lat="45.38962209665514" lon="8.03117608670267"><ele>346.6666666666667</ele><time>2026-04-21T09:56:33Z</time></trkpt><trkpt lat="45.38966417920824" lon="8.03127804121529"><ele>347.3333333333333</ele><time>2026-04-21T09:56:34Z</time></trkpt><trkpt lat="45.389697522914624" lon="8.031412203866614"><ele>348.0</ele><time>2026-04-21T09:56:36Z</time></trkpt><trkpt lat="45.389757713523004" lon="8.031580518295018"><ele>346.2</ele><time>2026-04-21T09:56:38Z</time></trkpt><trkpt lat="45.3897833859406" lon="8.031691173780187"><ele>344.4</ele><time>2026-04-21T09:56:39Z</time></trkpt><trkpt lat="45.38981086373305" lon="8.031772534043952"><ele>342.59999999999997</ele><time>2026-04-21T09:56:40Z</time></trkpt><trkpt lat="45.3898237721019" lon="8.03193034883647"><ele>340.79999999999995</ele><time>2026-04-21T09:56:42Z</time></trkpt><trkpt lat="45.38981404392553" lon="8.032048762470444"><ele>339.0</ele><time>2026-04-21T09:56:44Z</time></trkpt><trkpt lat="45.38981398766706" lon="8.032212205824653"><ele>339.0</ele><time>2026-04-21T09:56:47Z</time></trkpt><trkpt lat="45.389798569339526" lon="8.032328807263099"><ele>339.0</ele><time>2026-04-21T09:56:49Z</time></trkpt><trkpt lat="45.38981209049135" lon="8.032420785435734"><ele>339.0</ele><time>2026-04-21T09:56:50Z</time></trkpt><trkpt lat="45.389821512640154" lon="8.032530746779734"><ele>339.0</ele><time>2026-04-21T09:56:51Z</time></trkpt><trkpt lat="45.38981305801764" lon="8.032627941647931"><ele>339.0</ele><time>2026-04-21T09:56:51.999Z</time></trkpt><trkpt lat="45.38978053123777" lon="8.032782195471356"><ele>339.0</ele><time>2026-04-21T09:56:53.999Z</time></trkpt><trkpt lat="45.38974996325936" lon="8.03287734566411"><ele>338.79999999999995</ele><time>2026-04-21T09:56:54.999Z</time></trkpt><trkpt lat="45.38971163302833" lon="8.032962311239181"><ele>338.59999999999997</ele><time>2026-04-21T09:56:55.999Z</time></trkpt><trkpt lat="45.389674303960284" lon="8.033038280502407"><ele>338.4</ele><time>2026-04-21T09:56:56.999Z</time></trkpt><trkpt lat="45.38961440917723" lon="8.033164495348576"><ele>338.2</ele><time>2026-04-21T09:56:58.999Z</time></trkpt><trkpt lat="45.38956456037905" lon="8.033310636840842"><ele>338.0</ele><time>2026-04-21T09:57:00.999Z</time></trkpt><trkpt lat="45.38951733227329" lon="8.033479512103115"><ele>341.6666666666667</ele><time>2026-04-21T09:57:02.999Z</time></trkpt><trkpt lat="45.389497981632985" lon="8.03358521035583"><ele>345.33333333333337</ele><time>2026-04-21T09:57:03.999Z</time></trkpt><trkpt lat="45.389474320969306" lon="8.033713200180491"><ele>349.0</ele><time>2026-04-21T09:57:04.999Z</time></trkpt><trkpt lat="45.38945567408507" lon="8.033821476898536"><ele>352.6666666666667</ele><time>2026-04-21T09:57:05.999Z</time></trkpt><trkpt lat="45.389429929768625" lon="8.033938556622303"><ele>356.3333333333333</ele><time>2026-04-21T09:57:06.999Z</time></trkpt><trkpt lat="45.38939084173093" lon="8.034040489470438"><ele>360.0</ele><time>2026-04-21T09:57:07.999Z</time></trkpt><trkpt lat="45.389345109198274" lon="8.034122799992174"><ele>358.57142857142856</ele><time>2026-04-21T09:57:08.999Z</time></trkpt><trkpt lat="45.389317773903585" lon="8.034211239027075"><ele>357.14285714285717</ele><time>2026-04-21T09:57:09.999Z</time></trkpt><trkpt lat="45.38929664736551" lon="8.034300187159394"><ele>355.7142857142857</ele><time>2026-04-21T09:57:10.999Z</time></trkpt><trkpt lat="45.38929504896894" lon="8.034398062566025"><ele>354.2857142857143</ele><time>2026-04-21T09:57:11.999Z</time></trkpt><trkpt lat="45.3892969281958" lon="8.034515549183395"><ele>352.8571428571429</ele><time>2026-04-21T09:57:12.999Z</time></trkpt><trkpt lat="45.38930480772494" lon="8.034621239945018"><ele>351.42857142857144</ele><time>2026-04-21T09:57:13.999Z</time></trkpt><trkpt lat="45.389289913928046" lon="8.034729873896412"><ele>350.0</ele><time>2026-04-21T09:57:14.999Z</time></trkpt><trkpt lat="45.38926599468996" lon="8.034838011907539"><ele>350.0</ele><time>2026-04-21T09:57:15.999Z</time></trkpt><trkpt lat="45.389240468535114" lon="8.034968389542964"><ele>350.0</ele><time>2026-04-21T09:57:16.999Z</time></trkpt><trkpt lat="45.38923904072744" lon="8.035087816853638"><ele>350.0</ele><time>2026-04-21T09:57:17.999Z</time></trkpt><trkpt lat="45.38923155412415" lon="8.035181649242142"><ele>350.0</ele><time>2026-04-21T09:57:18.999Z</time></trkpt><trkpt lat="45.38919574665516" lon="8.035378651670825"><ele>350.0</ele><time>2026-04-21T09:57:20.999Z</time></trkpt><trkpt lat="45.38917407936313" lon="8.035506125099177"><ele>349.33333333333337</ele><time>2026-04-21T09:57:21.999Z</time></trkpt><trkpt lat="45.38913772458961" lon="8.035639636540273"><ele>348.6666666666667</ele><time>2026-04-21T09:57:22.999Z</time></trkpt><trkpt lat="45.38909892349725" lon="8.035735101562008"><ele>348.0</ele><time>2026-04-21T09:57:23.999Z</time></trkpt><trkpt lat="45.38906889806942" lon="8.03582671647135"><ele>347.3333333333333</ele><time>2026-04-21T09:57:24.999Z</time></trkpt><trkpt lat="45.389024653815326" lon="8.035921183329194"><ele>346.66666666666663</ele><time>2026-04-21T09:57:25.999Z</time></trkpt><trkpt lat="45.388979331606116" lon="8.03600657973126"><ele>346.0</ele><time>2026-04-21T09:57:26.999Z</time></trkpt><trkpt lat="45.38893238815007" lon="8.036081696570784"><ele>344.8333333333333</ele><time>2026-04-21T09:57:27.999Z</time></trkpt><trkpt lat="45.38886912531385" lon="8.036141731662937"><ele>343.66666666666663</ele><time>2026-04-21T09:57:28.999Z</time></trkpt><trkpt lat="45.38881336486676" lon="8.036209729388917"><ele>342.5</ele><time>2026-04-21T09:57:29.999Z</time></trkpt><trkpt lat="45.38876172594097" lon="8.036289546375825"><ele>341.3333333333333</ele><time>2026-04-21T09:57:30.999Z</time></trkpt><trkpt lat="45.38870354470057" lon="8.0363639851418"><ele>340.1666666666667</ele><time>2026-04-21T09:57:31.999Z</time></trkpt><trkpt lat="45.38864910232914" lon="8.036427390476064"><ele>339.0</ele><time>2026-04-21T09:57:33Z</time></trkpt><trkpt lat="45.38858138648299" lon="8.036503795143465"><ele>342.2</ele><time>2026-04-21T09:57:34Z</time></trkpt><trkpt lat="45.38851311142874" lon="8.03659358716633"><ele>345.4</ele><time>2026-04-21T09:57:35Z</time></trkpt><trkpt lat="45.38844756148836" lon="8.036681163008236"><ele>348.6</ele><time>2026-04-21T09:57:36Z</time></trkpt><trkpt lat="45.38839547080944" lon="8.03675293491281"><ele>351.8</ele><time>2026-04-21T09:57:37Z</time></trkpt><trkpt lat="45.38831694745183" lon="8.036885831592487"><ele>355.0</ele><time>2026-04-21T09:57:39Z</time></trkpt><trkpt lat="45.38827760591419" lon="8.03697490271988"><ele>355.0</ele><time>2026-04-21T09:57:40Z</time></trkpt><trkpt lat="45.38824368802489" lon="8.037087023866237"><ele>355.0</ele><time>2026-04-21T09:57:41Z</time></trkpt><trkpt lat="45.38822482693674" lon="8.037223371959989"><ele>355.0</ele><time>2026-04-21T09:57:42Z</time></trkpt><trkpt lat="45.388201312059145" lon="8.037348870031456"><ele>355.0</ele><time>2026-04-21T09:57:43Z</time></trkpt><trkpt lat="45.388176083527455" lon="8.037447692676166"><ele>355.0</ele><time>2026-04-21T09:57:44Z</time></trkpt><trkpt lat="45.388145223682045" lon="8.037552556727944"><ele>355.0</ele><time>2026-04-21T09:57:45Z</time></trkpt><trkpt lat="45.388116802857716" lon="8.03764097935284"><ele>353.4</ele><time>2026-04-21T09:57:46Z</time></trkpt><trkpt lat="45.388080703404654" lon="8.037719777516429"><ele>351.8</ele><time>2026-04-21T09:57:47Z</time></trkpt><trkpt lat="45.388021847622994" lon="8.037886830752093"><ele>350.20000000000005</ele><time>2026-04-21T09:57:49Z</time></trkpt><trkpt lat="45.38800982366492" lon="8.037975588809621"><ele>348.6</ele><time>2026-04-21T09:57:50Z</time></trkpt><trkpt lat="45.38802101623648" lon="8.038144589547745"><ele>347.0</ele><time>2026-04-21T09:57:52Z</time></trkpt><trkpt lat="45.38802157966171" lon="8.038290213260934"><ele>346.40000000000003</ele><time>2026-04-21T09:57:53Z</time></trkpt><trkpt lat="45.388022824832994" lon="8.038403880782935"><ele>345.8</ele><time>2026-04-21T09:57:54Z</time></trkpt><trkpt lat="45.38802769238144" lon="8.038504475207018"><ele>345.2</ele><time>2026-04-21T09:57:55Z</time></trkpt><trkpt lat="45.38802731361711" lon="8.038677033557851"><ele>344.6</ele><time>2026-04-21T09:57:57Z</time></trkpt><trkpt lat="45.387988976998564" lon="8.038869260304192"><ele>344.0</ele><time>2026-04-21T09:57:59Z</time></trkpt><trkpt lat="45.38797799156169" lon="8.038961305787552"><ele>348.2</ele><time>2026-04-21T09:58:00Z</time></trkpt><trkpt lat="45.38794819273387" lon="8.039112248217497"><ele>352.4</ele><time>2026-04-21T09:58:02Z</time></trkpt><trkpt lat="45.3879224405063" lon="8.039194564282344"><ele>356.6</ele><time>2026-04-21T09:58:04Z</time></trkpt><trkpt lat="45.3878785099255" lon="8.039316973467509"><ele>360.8</ele><time>2026-04-21T09:58:06Z</time></trkpt><trkpt lat="45.38781844471583" lon="8.039490450187001"><ele>365.0</ele><time>2026-04-21T09:58:08Z</time></trkpt><trkpt lat="45.38777727853565" lon="8.039593986913967"><ele>365.0</ele><time>2026-04-21T09:58:09Z</time></trkpt><trkpt lat="45.387733714486714" lon="8.03972530097107"><ele>365.0</ele><time>2026-04-21T09:58:10Z</time></trkpt><trkpt lat="45.38769499365585" lon="8.039869292388651"><ele>365.0</ele><time>2026-04-21T09:58:11Z</time></trkpt><trkpt lat="45.387657720402586" lon="8.04000215265541"><ele>365.0</ele><time>2026-04-21T09:58:12Z</time></trkpt><trkpt lat="45.38762475029912" lon="8.040132728054031"><ele>365.0</ele><time>2026-04-21T09:58:13Z</time></trkpt><trkpt lat="45.3875767654395" lon="8.040249614327335"><ele>363.4</ele><time>2026-04-21T09:58:14Z</time></trkpt><trkpt lat="45.38753351559923" lon="8.040343336150492"><ele>361.8</ele><time>2026-04-21T09:58:15Z</time></trkpt><trkpt lat="45.387501397595095" lon="8.040450346060304"><ele>360.20000000000005</ele><time>2026-04-21T09:58:16Z</time></trkpt><trkpt lat="45.38748417540159" lon="8.040621973015204"><ele>358.6</ele><time>2026-04-21T09:58:18Z</time></trkpt><trkpt lat="45.38750021013641" lon="8.040741746349687"><ele>357.0</ele><time>2026-04-21T09:58:19Z</time></trkpt><trkpt lat="45.38750949300216" lon="8.040869654745979"><ele>356.0</ele><time>2026-04-21T09:58:20Z</time></trkpt><trkpt lat="45.38753318549197" lon="8.040985415380028"><ele>355.0</ele><time>2026-04-21T09:58:21Z</time></trkpt><trkpt lat="45.38757278990688" lon="8.041125409382778"><ele>354.0</ele><time>2026-04-21T09:58:22Z</time></trkpt><trkpt lat="45.38762375625978" lon="8.041241231200488"><ele>353.0</ele><time>2026-04-21T09:58:23Z</time></trkpt><trkpt lat="45.3876540707542" lon="8.041345788011942"><ele>352.0</ele><time>2026-04-21T09:58:24Z</time></trkpt><trkpt lat="45.38768999488897" lon="8.041440834368887"><ele>351.0</ele><time>2026-04-21T09:58:25Z</time></trkpt><trkpt lat="45.3877285164423" lon="8.041531078256716"><ele>351.0</ele><time>2026-04-21T09:58:26Z</time></trkpt><trkpt lat="45.38776836379086" lon="8.041623890576094"><ele>351.0</ele><time>2026-04-21T09:58:27Z</time></trkpt><trkpt lat="45.38781414996827" lon="8.041727609623761"><ele>351.0</ele><time>2026-04-21T09:58:28Z</time></trkpt><trkpt lat="45.387850347155585" lon="8.041819717844637"><ele>351.0</ele><time>2026-04-21T09:58:29Z</time></trkpt><trkpt lat="45.3878854906263" lon="8.041902543825053"><ele>351.0</ele><time>2026-04-21T09:58:30Z</time></trkpt><trkpt lat="45.387917165809874" lon="8.042088975704914"><ele>351.0</ele><time>2026-04-21T09:58:32Z</time></trkpt><trkpt lat="45.38790838496984" lon="8.042180186675592"><ele>351.4</ele><time>2026-04-21T09:58:33Z</time></trkpt><trkpt lat="45.38792578437426" lon="8.04234749526936"><ele>351.8</ele><time>2026-04-21T09:58:35Z</time></trkpt><trkpt lat="45.38795864878538" lon="8.0425165349566"><ele>352.2</ele><time>2026-04-21T09:58:37Z</time></trkpt><trkpt lat="45.38796998405943" lon="8.042617466847897"><ele>352.59999999999997</ele><time>2026-04-21T09:58:38Z</time></trkpt><trkpt lat="45.38799451073305" lon="8.042705788480164"><ele>353.0</ele><time>2026-04-21T09:58:39Z</time></trkpt><trkpt lat="45.388045033152935" lon="8.042834620758011"><ele>350.2857142857143</ele><time>2026-04-21T09:58:41Z</time></trkpt><trkpt lat="45.3880676579005" lon="8.042935325630244"><ele>347.5714285714286</ele><time>2026-04-21T09:58:43Z</time></trkpt><trkpt lat="45.38809411918158" lon="8.043068943711505"><ele>344.8571428571429</ele><time>2026-04-21T09:58:45Z</time></trkpt><trkpt lat="45.38810525747133" lon="8.043164808910996"><ele>342.1428571428571</ele><time>2026-04-21T09:58:46Z</time></trkpt><trkpt lat="45.38810680779376" lon="8.04325494695801"><ele>339.42857142857144</ele><time>2026-04-21T09:58:48Z</time></trkpt><trkpt lat="45.38807552221464" lon="8.043334650679306"><ele>336.7142857142857</ele><time>2026-04-21T09:58:52Z</time></trkpt><trkpt lat="45.3881218912357" lon="8.043413822147093"><ele>334.0</ele><time>2026-04-21T10:00:14Z</time></trkpt><trkpt lat="45.38806426610264" lon="8.043515783051635"><ele>334.0</ele><time>2026-04-21T10:00:29Z</time></trkpt><trkpt lat="45.38801515701123" lon="8.04365458763366"><ele>334.0</ele><time>2026-04-21T10:00:31Z</time></trkpt><trkpt lat="45.38796574734724" lon="8.043779757284453"><ele>334.0</ele><time>2026-04-21T10:00:33Z</time></trkpt><trkpt lat="45.38790312590816" lon="8.043884697147968"><ele>334.0</ele><time>2026-04-21T10:00:35Z</time></trkpt><trkpt lat="45.38787472301505" lon="8.043985684790885"><ele>334.0</ele><time>2026-04-21T10:00:37Z</time></trkpt><trkpt lat="45.38787088611025" lon="8.044102658873948"><ele>336.16666666666663</ele><time>2026-04-21T10:00:38Z</time></trkpt><trkpt lat="45.38787774398788" lon="8.044231953378763"><ele>338.3333333333333</ele><time>2026-04-21T10:00:39Z</time></trkpt><trkpt lat="45.38788269027437" lon="8.044334092423863"><ele>340.5</ele><time>2026-04-21T10:00:40Z</time></trkpt><trkpt lat="45.38784324448911" lon="8.044506019520004"><ele>342.6666666666667</ele><time>2026-04-21T10:00:42Z</time></trkpt><trkpt lat="45.38781910497733" lon="8.044610559393757"><ele>344.83333333333337</ele><time>2026-04-21T10:00:43Z</time></trkpt><trkpt lat="45.38780661710395" lon="8.044706391166017"><ele>347.0</ele><time>2026-04-21T10:00:44Z</time></trkpt><trkpt lat="45.38781916896767" lon="8.044821370585417"><ele>347.0</ele><time>2026-04-21T10:00:45Z</time></trkpt><trkpt lat="45.38784733685967" lon="8.044950451270136"><ele>347.0</ele><time>2026-04-21T10:00:46Z</time></trkpt><trkpt lat="45.387868585955886" lon="8.045049222543703"><ele>347.0</ele><time>2026-04-21T10:00:47Z</time></trkpt><trkpt lat="45.38793867062268" lon="8.045154217089186"><ele>347.0</ele><time>2026-04-21T10:00:49Z</time></trkpt><trkpt lat="45.388037525585936" lon="8.045214927908663"><ele>347.0</ele><time>2026-04-21T10:00:51Z</time></trkpt><trkpt lat="45.38810133260123" lon="8.045246667321644"><ele>347.0</ele><time>2026-04-21T10:00:52Z</time></trkpt><trkpt lat="45.388164636412554" lon="8.045296972852748"><ele>344.0</ele><time>2026-04-21T10:00:53Z</time></trkpt><trkpt lat="45.38830108265856" lon="8.045314100398265"><ele>341.0</ele><time>2026-04-21T10:00:55Z</time></trkpt><trkpt lat="45.388388045263376" lon="8.045294898999815"><ele>338.0</ele><time>2026-04-21T10:00:56Z</time></trkpt><trkpt lat="45.38849887775498" lon="8.04536993915142"><ele>335.0</ele><time>2026-04-21T10:00:58Z</time></trkpt><trkpt lat="45.38855406597964" lon="8.045434073354325"><ele>332.0</ele><time>2026-04-21T10:00:59Z</time></trkpt><trkpt lat="45.38865442046516" lon="8.045511432260975"><ele>332.0</ele><time>2026-04-21T10:01:01Z</time></trkpt><trkpt lat="45.388710076940534" lon="8.04564337682913"><ele>332.0</ele><time>2026-04-21T10:01:03Z</time></trkpt><trkpt lat="45.38872574511258" lon="8.045733889086273"><ele>332.0</ele><time>2026-04-21T10:01:04Z</time></trkpt><trkpt lat="45.38869271028238" lon="8.04589037816754"><ele>332.0</ele><time>2026-04-21T10:01:06Z</time></trkpt><trkpt lat="45.38866105561794" lon="8.04597336603414"><ele>332.0</ele><time>2026-04-21T10:01:07Z</time></trkpt><trkpt lat="45.388622229935656" lon="8.046052642227123"><ele>332.0</ele><time>2026-04-21T10:01:08Z</time></trkpt><trkpt lat="45.38859165141697" lon="8.046142457577272"><ele>332.0</ele><time>2026-04-21T10:01:10.999Z</time></trkpt><trkpt lat="45.388650362592244" lon="8.046176447238865"><ele>332.0</ele><time>2026-04-21T10:01:14.999Z</time></trkpt><trkpt lat="45.38868368175316" lon="8.046081034346003"><ele>332.0</ele><time>2026-04-21T10:01:20.999Z</time></trkpt><trkpt lat="45.38865504508663" lon="8.04592195686362"><ele>332.0</ele><time>2026-04-21T10:01:23.999Z</time></trkpt><trkpt lat="45.388710940205286" lon="8.04578445316144"><ele>332.0</ele><time>2026-04-21T10:01:25.999Z</time></trkpt><trkpt lat="45.388699531181146" lon="8.045653679526362"><ele>332.0</ele><time>2026-04-21T10:01:27.999Z</time></trkpt><trkpt lat="45.38863110125886" lon="8.045520021129294"><ele>332.0</ele><time>2026-04-21T10:01:29.999Z</time></trkpt><trkpt lat="45.38856343423366" lon="8.04543584868134"><ele>332.0</ele><time>2026-04-21T10:01:30.999Z</time></trkpt><trkpt lat="45.38849341771825" lon="8.045381311698673"><ele>332.0</ele><time>2026-04-21T10:01:31.999Z</time></trkpt><trkpt lat="45.388415883653174" lon="8.045342580884185"><ele>332.0</ele><time>2026-04-21T10:01:32.999Z</time></trkpt><trkpt lat="45.38835384549379" lon="8.045325469803629"><ele>332.0</ele><time>2026-04-21T10:01:33.999Z</time></trkpt><trkpt lat="45.388279977828574" lon="8.045337501963067"><ele>332.0</ele><time>2026-04-21T10:01:34.999Z</time></trkpt><trkpt lat="45.38818515818186" lon="8.045331937186942"><ele>332.0</ele><time>2026-04-21T10:01:35.999Z</time></trkpt><trkpt lat="45.38809373043237" lon="8.045302926349093"><ele>332.0</ele><time>2026-04-21T10:01:36.999Z</time></trkpt><trkpt lat="45.388026612744476" lon="8.045242485082658"><ele>332.0</ele><time>2026-04-21T10:01:37.999Z</time></trkpt><trkpt lat="45.38793453591295" lon="8.045148580135898"><ele>332.0</ele><time>2026-04-21T10:01:39.999Z</time></trkpt><trkpt lat="45.387875054963544" lon="8.045051275632913"><ele>334.5</ele><time>2026-04-21T10:01:41.999Z</time></trkpt><trkpt lat="45.38785103116307" lon="8.044941444849032"><ele>337.0</ele><time>2026-04-21T10:01:42.999Z</time></trkpt><trkpt lat="45.38782266736214" lon="8.044826713129805"><ele>339.5</ele><time>2026-04-21T10:01:44Z</time></trkpt><trkpt lat="45.38782608017609" lon="8.044689688293857"><ele>342.0</ele><time>2026-04-21T10:01:45Z</time></trkpt><trkpt lat="45.38782555632207" lon="8.044587008491645"><ele>344.5</ele><time>2026-04-21T10:01:46Z</time></trkpt><trkpt lat="45.38785532857589" lon="8.044480808974033"><ele>347.0</ele><time>2026-04-21T10:01:47Z</time></trkpt><trkpt lat="45.38788228498743" lon="8.044392468968889"><ele>347.0</ele><time>2026-04-21T10:01:48Z</time></trkpt><trkpt lat="45.38789793476192" lon="8.044268767258641"><ele>347.0</ele><time>2026-04-21T10:01:50Z</time></trkpt><trkpt lat="45.38788844798526" lon="8.044126498360049"><ele>347.0</ele><time>2026-04-21T10:01:52Z</time></trkpt><trkpt lat="45.387894273724335" lon="8.043989009703404"><ele>347.0</ele><time>2026-04-21T10:01:54Z</time></trkpt><trkpt lat="45.387927528929154" lon="8.043848599340555"><ele>347.0</ele><time>2026-04-21T10:01:56Z</time></trkpt><trkpt lat="45.387798130501906" lon="8.043647055967497"><ele>348.40000000000003</ele><time>2026-04-21T10:01:57Z</time></trkpt><trkpt lat="45.38784781612557" lon="8.04353943424745"><ele>349.8</ele><time>2026-04-21T10:01:59Z</time></trkpt><trkpt lat="45.38802875899182" lon="8.043613425932634"><ele>351.2</ele><time>2026-04-21T10:02:01Z</time></trkpt><trkpt lat="45.38806663108274" lon="8.043537306805936"><ele>352.6</ele><time>2026-04-21T10:02:03Z</time></trkpt><trkpt lat="45.388090790722565" lon="8.043445209261556"><ele>354.0</ele><time>2026-04-21T10:02:07Z</time></trkpt><trkpt lat="45.3880947712196" lon="8.043323041578757"><ele>354.1666666666667</ele><time>2026-04-21T10:02:35Z</time></trkpt><trkpt lat="45.388049868012295" lon="8.043210786112933"><ele>354.3333333333333</ele><time>2026-04-21T10:02:38Z</time></trkpt><trkpt lat="45.38801137895389" lon="8.043101785000694"><ele>354.5</ele><time>2026-04-21T10:02:40Z</time></trkpt><trkpt lat="45.38798504617449" lon="8.043017783873353"><ele>354.66666666666663</ele><time>2026-04-21T10:02:42Z</time></trkpt><trkpt lat="45.3879560775043" lon="8.042931935339832"><ele>354.8333333333333</ele><time>2026-04-21T10:02:44Z</time></trkpt><trkpt lat="45.38792132046457" lon="8.042814212046796"><ele>355.0</ele><time>2026-04-21T10:02:46Z</time></trkpt><trkpt lat="45.38788069299809" lon="8.042707452404592"><ele>355.0</ele><time>2026-04-21T10:02:48Z</time></trkpt><trkpt lat="45.387833944738595" lon="8.042574948810213"><ele>355.0</ele><time>2026-04-21T10:02:50Z</time></trkpt><trkpt lat="45.38779963883774" lon="8.042467215006848"><ele>355.0</ele><time>2026-04-21T10:02:52Z</time></trkpt><trkpt lat="45.38776171543959" lon="8.042366340116118"><ele>355.0</ele><time>2026-04-21T10:02:54Z</time></trkpt><trkpt lat="45.3877338721455" lon="8.04224826934232"><ele>355.0</ele><time>2026-04-21T10:02:56Z</time></trkpt><trkpt lat="45.38768520602493" lon="8.042089555612865"><ele>354.66666666666663</ele><time>2026-04-21T10:02:58Z</time></trkpt><trkpt lat="45.387640402026506" lon="8.042024624666315"><ele>354.3333333333333</ele><time>2026-04-21T10:03:00Z</time></trkpt><trkpt lat="45.38756859434584" lon="8.042035926416181"><ele>354.0</ele><time>2026-04-21T10:03:03Z</time></trkpt><trkpt lat="45.38751103222423" lon="8.042079300186792"><ele>353.6666666666667</ele><time>2026-04-21T10:03:04Z</time></trkpt><trkpt lat="45.38745302924547" lon="8.042146970990858"><ele>353.33333333333337</ele><time>2026-04-21T10:03:06Z</time></trkpt><trkpt lat="45.38743475181162" lon="8.042310685531195"><ele>353.0</ele><time>2026-04-21T10:03:08Z</time></trkpt><trkpt lat="45.38740732229308" lon="8.042406292497299"><ele>353.33333333333337</ele><time>2026-04-21T10:03:10Z</time></trkpt><trkpt lat="45.38739793480212" lon="8.042498937653997"><ele>353.6666666666667</ele><time>2026-04-21T10:03:11Z</time></trkpt><trkpt lat="45.387370328707654" lon="8.042637313040961"><ele>354.0</ele><time>2026-04-21T10:03:13Z</time></trkpt><trkpt lat="45.387339072872685" lon="8.042752152912417"><ele>354.3333333333333</ele><time>2026-04-21T10:03:14.999Z</time></trkpt><trkpt lat="45.38731525447833" lon="8.042894588081593"><ele>354.66666666666663</ele><time>2026-04-21T10:03:16.999Z</time></trkpt><trkpt lat="45.387279996919645" lon="8.042988297460264"><ele>355.0</ele><time>2026-04-21T10:03:17.999Z</time></trkpt><trkpt lat="45.387241974577016" lon="8.043109527498817"><ele>355.0</ele><time>2026-04-21T10:03:19.999Z</time></trkpt><trkpt lat="45.38720676964955" lon="8.043260328412977"><ele>355.0</ele><time>2026-04-21T10:03:21.999Z</time></trkpt><trkpt lat="45.38718570355877" lon="8.043350578984825"><ele>355.0</ele><time>2026-04-21T10:03:22.999Z</time></trkpt><trkpt lat="45.387137845402734" lon="8.043508564964624"><ele>355.0</ele><time>2026-04-21T10:03:24.999Z</time></trkpt><trkpt lat="45.38710616765484" lon="8.043620841868025"><ele>355.0</ele><time>2026-04-21T10:03:26.999Z</time></trkpt><trkpt lat="45.38705361326606" lon="8.043696460376013"><ele>358.16666666666663</ele><time>2026-04-21T10:03:27.999Z</time></trkpt><trkpt lat="45.386990874296785" lon="8.043773646075687"><ele>361.3333333333333</ele><time>2026-04-21T10:03:29.999Z</time></trkpt><trkpt lat="45.38691920567718" lon="8.043705383045362"><ele>364.5</ele><time>2026-04-21T10:03:32.999Z</time></trkpt><trkpt lat="45.38693237105701" lon="8.043591650927288"><ele>367.6666666666667</ele><time>2026-04-21T10:03:35.999Z</time></trkpt><trkpt lat="45.38695899547843" lon="8.043501368109705"><ele>370.83333333333337</ele><time>2026-04-21T10:03:38.999Z</time></trkpt><trkpt lat="45.38695748242839" lon="8.043345101221407"><ele>374.0</ele><time>2026-04-21T10:03:41.999Z</time></trkpt><trkpt lat="45.3869642105632" lon="8.043183066139097"><ele>375.33333333333337</ele><time>2026-04-21T10:03:43.999Z</time></trkpt><trkpt lat="45.386967461906806" lon="8.04299928311965"><ele>376.6666666666667</ele><time>2026-04-21T10:03:45.999Z</time></trkpt><trkpt lat="45.38697244782881" lon="8.042908472539358"><ele>378.0</ele><time>2026-04-21T10:03:46.999Z</time></trkpt><trkpt lat="45.3869692197297" lon="8.04281039607165"><ele>379.3333333333333</ele><time>2026-04-21T10:03:47.999Z</time></trkpt><trkpt lat="45.386970132810006" lon="8.042718833942956"><ele>380.66666666666663</ele><time>2026-04-21T10:03:48.999Z</time></trkpt><trkpt lat="45.38691757447156" lon="8.042560836495676"><ele>382.0</ele><time>2026-04-21T10:03:51Z</time></trkpt><trkpt lat="45.38687370842472" lon="8.042411269412622"><ele>382.0</ele><time>2026-04-21T10:03:53Z</time></trkpt><trkpt lat="45.38684177055113" lon="8.04233087796244"><ele>382.0</ele><time>2026-04-21T10:03:54Z</time></trkpt><trkpt lat="45.38680390818767" lon="8.042254863728967"><ele>382.0</ele><time>2026-04-21T10:03:55Z</time></trkpt><trkpt lat="45.38672717887363" lon="8.042192942806778"><ele>382.0</ele><time>2026-04-21T10:03:57Z</time></trkpt><trkpt lat="45.38664328751692" lon="8.04220629732322"><ele>382.0</ele><time>2026-04-21T10:03:59Z</time></trkpt><trkpt lat="45.386594659721446" lon="8.042138538705435"><ele>382.0</ele><time>2026-04-21T10:04:01Z</time></trkpt><trkpt lat="45.38654865670162" lon="8.042011668971039"><ele>382.0</ele><time>2026-04-21T10:04:03Z</time></trkpt><trkpt lat="45.38649804944161" lon="8.041849872357593"><ele>382.0</ele><time>2026-04-21T10:04:05Z</time></trkpt><trkpt lat="45.386464359752004" lon="8.041773951409066"><ele>382.0</ele><time>2026-04-21T10:04:06Z</time></trkpt><trkpt lat="45.386405345121275" lon="8.041633371638882"><ele>382.0</ele><time>2026-04-21T10:04:08Z</time></trkpt><trkpt lat="45.38637614061242" lon="8.041540287313113"><ele>382.0</ele><time>2026-04-21T10:04:09Z</time></trkpt><trkpt lat="45.38631982872187" lon="8.041442514763387"><ele>381.2857142857143</ele><time>2026-04-21T10:04:11Z</time></trkpt><trkpt lat="45.38628110656469" lon="8.04136469994869"><ele>380.57142857142856</ele><time>2026-04-21T10:07:15Z</time></trkpt><trkpt lat="45.38631684069013" lon="8.041441026156324"><ele>379.85714285714283</ele><time>2026-04-21T10:07:54.999Z</time></trkpt><trkpt lat="45.386269589038115" lon="8.041381459700716"><ele>379.1428571428571</ele><time>2026-04-21T10:11:54.999Z</time></trkpt><trkpt lat="45.38623600969689" lon="8.041299973714398"><ele>378.42857142857144</ele><time>2026-04-21T10:11:56.999Z</time></trkpt><trkpt lat="45.3862176885643" lon="8.041210725585891"><ele>377.71428571428567</ele><time>2026-04-21T10:11:58.999Z</time></trkpt><trkpt lat="45.38623865094601" lon="8.0411237974433"><ele>377.0</ele><time>2026-04-21T10:12:03.999Z</time></trkpt><trkpt lat="45.386200961936694" lon="8.041027887821244"><ele>377.0</ele><time>2026-04-21T10:12:42Z</time></trkpt><trkpt lat="45.38620561738998" lon="8.040916065279726"><ele>377.0</ele><time>2026-04-21T10:12:45Z</time></trkpt><trkpt lat="45.38625706289715" lon="8.040808329031822"><ele>377.0</ele><time>2026-04-21T10:12:48Z</time></trkpt><trkpt lat="45.386295507765645" lon="8.040698354728441"><ele>377.0</ele><time>2026-04-21T10:12:51.999Z</time></trkpt><trkpt lat="45.386351713762544" lon="8.040592780607968"><ele>377.0</ele><time>2026-04-21T10:12:54.999Z</time></trkpt><trkpt lat="45.38640893272406" lon="8.040513486619975"><ele>377.0</ele><time>2026-04-21T10:12:56.999Z</time></trkpt><trkpt lat="45.38648322052486" lon="8.040371962505274"><ele>377.20000000000005</ele><time>2026-04-21T10:12:58.999Z</time></trkpt><trkpt lat="45.38655539520954" lon="8.040293982344373"><ele>377.4</ele><time>2026-04-21T10:13:01.999Z</time></trkpt><trkpt lat="45.38662124690476" lon="8.040183971862557"><ele>377.6</ele><time>2026-04-21T10:13:03.999Z</time></trkpt><trkpt lat="45.3866651136204" lon="8.04009026208628"><ele>377.79999999999995</ele><time>2026-04-21T10:13:05.999Z</time></trkpt><trkpt lat="45.3866504829518" lon="8.039949513853603"><ele>378.0</ele><time>2026-04-21T10:13:07.999Z</time></trkpt><trkpt lat="45.38667271205583" lon="8.039814205983234"><ele>378.0</ele><time>2026-04-21T10:13:09.999Z</time></trkpt><trkpt lat="45.38668885551052" lon="8.039698153632317"><ele>378.0</ele><time>2026-04-21T10:13:12.999Z</time></trkpt><trkpt lat="45.386700703639775" lon="8.039577508317674"><ele>378.0</ele><time>2026-04-21T10:13:15.999Z</time></trkpt><trkpt lat="45.386675725639606" lon="8.039456063711606"><ele>378.0</ele><time>2026-04-21T10:13:18.999Z</time></trkpt><trkpt lat="45.38669339106872" lon="8.03936746417757"><ele>378.0</ele><time>2026-04-21T10:13:21.999Z</time></trkpt><trkpt lat="45.38672426599032" lon="8.039287576368809"><ele>378.0</ele><time>2026-04-21T10:13:23.999Z</time></trkpt><trkpt lat="45.38682117593069" lon="8.039216974897016"><ele>378.0</ele><time>2026-04-21T10:13:25.999Z</time></trkpt><trkpt lat="45.386889583573236" lon="8.039188519915273"><ele>378.0</ele><time>2026-04-21T10:13:27.999Z</time></trkpt><trkpt lat="45.38694405964408" lon="8.039126863017486"><ele>378.0</ele><time>2026-04-21T10:13:29.999Z</time></trkpt><trkpt lat="45.38700209611061" lon="8.039034984569799"><ele>378.0</ele><time>2026-04-21T10:13:32.999Z</time></trkpt><trkpt lat="45.38701747794245" lon="8.038930518659704"><ele>378.0</ele><time>2026-04-21T10:13:34.999Z</time></trkpt><trkpt lat="45.38705991728875" lon="8.038845293193793"><ele>378.0</ele><time>2026-04-21T10:13:36.999Z</time></trkpt><trkpt lat="45.387096640702964" lon="8.038728309094264"><ele>376.79999999999995</ele><time>2026-04-21T10:13:38.999Z</time></trkpt><trkpt lat="45.3871409926894" lon="8.038622581616751"><ele>375.6</ele><time>2026-04-21T10:13:40.999Z</time></trkpt><trkpt lat="45.387148566696084" lon="8.038451499689263"><ele>374.4</ele><time>2026-04-21T10:13:42.999Z</time></trkpt><trkpt lat="45.38716020978627" lon="8.038317278083417"><ele>373.20000000000005</ele><time>2026-04-21T10:13:43.999Z</time></trkpt><trkpt lat="45.38716959624567" lon="8.03821299053586"><ele>372.0</ele><time>2026-04-21T10:13:44.999Z</time></trkpt><trkpt lat="45.38718353043931" lon="8.038067393942494"><ele>371.5</ele><time>2026-04-21T10:13:46.999Z</time></trkpt><trkpt lat="45.38721342179245" lon="8.03793227271547"><ele>371.0</ele><time>2026-04-21T10:13:48.999Z</time></trkpt><trkpt lat="45.38723136695276" lon="8.037836827121758"><ele>370.5</ele><time>2026-04-21T10:13:50.999Z</time></trkpt><trkpt lat="45.38724036423075" lon="8.037716849464443"><ele>370.0</ele><time>2026-04-21T10:15:06Z</time></trkpt><trkpt lat="45.387230803377314" lon="8.037619065311485"><ele>369.5</ele><time>2026-04-21T10:15:11Z</time></trkpt><trkpt lat="45.387226513488656" lon="8.037519586270475"><ele>369.0</ele><time>2026-04-21T10:15:15Z</time></trkpt><trkpt lat="45.38716155267948" lon="8.03743678245906"><ele>366.1666666666667</ele><time>2026-04-21T10:15:18.999Z</time></trkpt><trkpt lat="45.38710615027191" lon="8.037354012174688"><ele>363.3333333333333</ele><time>2026-04-21T10:15:22.999Z</time></trkpt><trkpt lat="45.38703192571611" lon="8.037313265461128"><ele>360.5</ele><time>2026-04-21T10:15:26.999Z</time></trkpt><trkpt lat="45.38696620778708" lon="8.037289158267557"><ele>357.66666666666663</ele><time>2026-04-21T10:15:29.999Z</time></trkpt><trkpt lat="45.3868909473533" lon="8.037294818693596"><ele>354.8333333333333</ele><time>2026-04-21T10:15:32.999Z</time></trkpt><trkpt lat="45.3868285010616" lon="8.03728240625019"><ele>352.0</ele><time>2026-04-21T10:15:34.999Z</time></trkpt><trkpt lat="45.386740564500236" lon="8.037289434127896"><ele>352.0</ele><time>2026-04-21T10:15:37.999Z</time></trkpt><trkpt lat="45.386673290847284" lon="8.0372742072092"><ele>352.0</ele><time>2026-04-21T10:15:40.999Z</time></trkpt><trkpt lat="45.38660186896337" lon="8.037280276853807"><ele>352.0</ele><time>2026-04-21T10:15:43.999Z</time></trkpt><trkpt lat="45.38652422375711" lon="8.03720731124598"><ele>352.0</ele><time>2026-04-21T10:15:46.999Z</time></trkpt><trkpt lat="45.38646106862882" lon="8.037146637319871"><ele>352.0</ele><time>2026-04-21T10:15:48.999Z</time></trkpt><trkpt lat="45.38641015151284" lon="8.037086170345058"><ele>352.0</ele><time>2026-04-21T10:15:56.999Z</time></trkpt><trkpt lat="45.38638503946698" lon="8.036988982408035"><ele>352.0</ele><time>2026-04-21T10:16:16.999Z</time></trkpt><trkpt lat="45.38642582136801" lon="8.036889297035462"><ele>352.0</ele><time>2026-04-21T10:16:18.999Z</time></trkpt><trkpt lat="45.3864542196559" lon="8.036789632056818"><ele>352.0</ele><time>2026-04-21T10:16:20.999Z</time></trkpt><trkpt lat="45.38645640805244" lon="8.03664042495321"><ele>352.0</ele><time>2026-04-21T10:16:22.999Z</time></trkpt><trkpt lat="45.386486089553486" lon="8.036474396310572"><ele>352.0</ele><time>2026-04-21T10:16:25Z</time></trkpt><trkpt lat="45.38650417159755" lon="8.036378125480917"><ele>352.0</ele><time>2026-04-21T10:16:26Z</time></trkpt><trkpt lat="45.38650859803985" lon="8.03626738186387"><ele>352.0</ele><time>2026-04-21T10:16:27Z</time></trkpt><trkpt lat="45.38651078580719" lon="8.036161339097324"><ele>351.40000000000003</ele><time>2026-04-21T10:16:28Z</time></trkpt><trkpt lat="45.38652446348886" lon="8.036072914700101"><ele>350.8</ele><time>2026-04-21T10:16:29Z</time></trkpt><trkpt lat="45.386494969760655" lon="8.035905425039441"><ele>350.2</ele><time>2026-04-21T10:16:31Z</time></trkpt><trkpt lat="45.38643229971728" lon="8.035752039656636"><ele>349.6</ele><time>2026-04-21T10:16:33Z</time></trkpt><trkpt lat="45.386382936047454" lon="8.035638389428476"><ele>349.0</ele><time>2026-04-21T10:16:35Z</time></trkpt><trkpt lat="45.3862976693072" lon="8.035489177148389"><ele>346.6</ele><time>2026-04-21T10:16:37Z</time></trkpt><trkpt lat="45.38623106624855" lon="8.035372063162608"><ele>344.2</ele><time>2026-04-21T10:16:39Z</time></trkpt><trkpt lat="45.38617852432433" lon="8.035283605479627"><ele>341.8</ele><time>2026-04-21T10:16:41Z</time></trkpt><trkpt lat="45.38610571361913" lon="8.035209847025335"><ele>339.40000000000003</ele><time>2026-04-21T10:16:43Z</time></trkpt><trkpt lat="45.38598687271292" lon="8.035165380322923"><ele>337.0</ele><time>2026-04-21T10:16:45Z</time></trkpt><trkpt lat="45.38586532765091" lon="8.035126881474682"><ele>337.0</ele><time>2026-04-21T10:16:47Z</time></trkpt><trkpt lat="45.385758340180836" lon="8.035090532955653"><ele>337.0</ele><time>2026-04-21T10:16:49Z</time></trkpt><trkpt lat="45.38569236007911" lon="8.035045682492584"><ele>337.0</ele><time>2026-04-21T10:16:50Z</time></trkpt><trkpt lat="45.38561375136629" lon="8.0349325336685"><ele>337.0</ele><time>2026-04-21T10:16:52Z</time></trkpt><trkpt lat="45.38551589165077" lon="8.034899917694931"><ele>337.0</ele><time>2026-04-21T10:16:54Z</time></trkpt><trkpt lat="45.385434926766145" lon="8.03481019887147"><ele>335.16666666666663</ele><time>2026-04-21T10:16:56Z</time></trkpt><trkpt lat="45.38538856000928" lon="8.03474661530348"><ele>333.3333333333333</ele><time>2026-04-21T10:16:57Z</time></trkpt><trkpt lat="45.38533678630915" lon="8.034684614676392"><ele>331.5</ele><time>2026-04-21T10:16:58Z</time></trkpt><trkpt lat="45.385236041627344" lon="8.034579278017066"><ele>329.6666666666667</ele><time>2026-04-21T10:17:00Z</time></trkpt><trkpt lat="45.38518457539954" lon="8.034510249817206"><ele>327.83333333333337</ele><time>2026-04-21T10:17:01Z</time></trkpt><trkpt lat="45.385136286077" lon="8.034414188861348"><ele>326.0</ele><time>2026-04-21T10:17:03Z</time></trkpt><trkpt lat="45.38504375047564" lon="8.034365439871108"><ele>326.0</ele><time>2026-04-21T10:17:05Z</time></trkpt><trkpt lat="45.384945726431106" lon="8.034307440366147"><ele>326.0</ele><time>2026-04-21T10:17:07Z</time></trkpt><trkpt lat="45.3848761997849" lon="8.034315041006778"><ele>326.0</ele><time>2026-04-21T10:17:08Z</time></trkpt><trkpt lat="45.38476874076048" lon="8.034244805447964"><ele>326.0</ele><time>2026-04-21T10:17:10Z</time></trkpt><trkpt lat="45.384710581360565" lon="8.034143442047117"><ele>326.0</ele><time>2026-04-21T10:17:12Z</time></trkpt><trkpt lat="45.38461908043926" lon="8.034087610496588"><ele>325.6666666666667</ele><time>2026-04-21T10:17:14Z</time></trkpt><trkpt lat="45.38451275973183" lon="8.034086464076244"><ele>325.33333333333337</ele><time>2026-04-21T10:17:16Z</time></trkpt><trkpt lat="45.38443395655672" lon="8.034120300593868"><ele>325.0</ele><time>2026-04-21T10:17:17Z</time></trkpt><trkpt lat="45.38436790568226" lon="8.034166628683744"><ele>324.6666666666667</ele><time>2026-04-21T10:17:18Z</time></trkpt><trkpt lat="45.38430172905557" lon="8.03415608522114"><ele>324.3333333333333</ele><time>2026-04-21T10:17:19Z</time></trkpt><trkpt lat="45.384214604106816" lon="8.034122984045604"><ele>324.0</ele><time>2026-04-21T10:17:20Z</time></trkpt><trkpt lat="45.38411679652857" lon="8.034077318624481"><ele>323.6</ele><time>2026-04-21T10:17:21Z</time></trkpt><trkpt lat="45.38401269833938" lon="8.03407508815585"><ele>323.2</ele><time>2026-04-21T10:17:22Z</time></trkpt><trkpt lat="45.38391357656183" lon="8.034067756946147"><ele>322.8</ele><time>2026-04-21T10:17:23Z</time></trkpt><trkpt lat="45.38382017003957" lon="8.034076811364688"><ele>322.40000000000003</ele><time>2026-04-21T10:17:24Z</time></trkpt><trkpt lat="45.38371462851175" lon="8.03410630790921"><ele>322.0</ele><time>2026-04-21T10:17:25Z</time></trkpt><trkpt lat="45.383626860689056" lon="8.034132464160384"><ele>321.40000000000003</ele><time>2026-04-21T10:17:26Z</time></trkpt><trkpt lat="45.38355872342998" lon="8.034155483468437"><ele>320.8</ele><time>2026-04-21T10:17:27Z</time></trkpt><trkpt lat="45.383461550750795" lon="8.03419725009226"><ele>320.2</ele><time>2026-04-21T10:17:29Z</time></trkpt><trkpt lat="45.383441500075854" lon="8.034108193292017"><ele>319.6</ele><time>2026-04-21T10:17:35.999Z</time></trkpt><trkpt lat="45.38352397167427" lon="8.034040949050622"><ele>319.0</ele><time>2026-04-21T10:17:37.999Z</time></trkpt><trkpt lat="45.38360725366788" lon="8.033916162478738"><ele>318.8333333333333</ele><time>2026-04-21T10:17:39.999Z</time></trkpt><trkpt lat="45.383649751246416" lon="8.033839079917216"><ele>318.66666666666663</ele><time>2026-04-21T10:17:40.999Z</time></trkpt><trkpt lat="45.383741998007935" lon="8.033719215506851"><ele>318.5</ele><time>2026-04-21T10:17:42.999Z</time></trkpt><trkpt lat="45.3838160843043" lon="8.033644755002237"><ele>318.3333333333333</ele><time>2026-04-21T10:17:44.999Z</time></trkpt><trkpt lat="45.383867895127" lon="8.033573666637404"><ele>318.1666666666667</ele><time>2026-04-21T10:17:45.999Z</time></trkpt><trkpt lat="45.383927854761" lon="8.033472350981244"><ele>318.0</ele><time>2026-04-21T10:17:46.999Z</time></trkpt><trkpt lat="45.38399316410834" lon="8.033339240096163"><ele>318.4</ele><time>2026-04-21T10:17:47.999Z</time></trkpt><trkpt lat="45.38403303584138" lon="8.033209042727563"><ele>318.8</ele><time>2026-04-21T10:17:48.999Z</time></trkpt><trkpt lat="45.38406256744655" lon="8.03307748455117"><ele>319.2</ele><time>2026-04-21T10:17:49.999Z</time></trkpt><trkpt lat="45.384091868105465" lon="8.032917700299803"><ele>319.6</ele><time>2026-04-21T10:17:50.999Z</time></trkpt><trkpt lat="45.384154053470155" lon="8.032762099496843"><ele>320.0</ele><time>2026-04-21T10:17:51.999Z</time></trkpt><trkpt lat="45.38422500954195" lon="8.032598238344708"><ele>319.75</ele><time>2026-04-21T10:17:52.999Z</time></trkpt><trkpt lat="45.384296979726564" lon="8.032451237013273"><ele>319.5</ele><time>2026-04-21T10:17:53.999Z</time></trkpt><trkpt lat="45.384357020652125" lon="8.032299039418298"><ele>319.25</ele><time>2026-04-21T10:17:54.999Z</time></trkpt><trkpt lat="45.38440911603619" lon="8.032175076445094"><ele>319.0</ele><time>2026-04-21T10:17:55.999Z</time></trkpt><trkpt lat="45.384469717225265" lon="8.032058742034232"><ele>319.0</ele><time>2026-04-21T10:17:56.999Z</time></trkpt><trkpt lat="45.3845290980882" lon="8.031920181889076"><ele>319.0</ele><time>2026-04-21T10:17:57.999Z</time></trkpt><trkpt lat="45.38461133568589" lon="8.031804446718338"><ele>319.0</ele><time>2026-04-21T10:17:58.999Z</time></trkpt><trkpt lat="45.384706937704685" lon="8.031672277198783"><ele>319.0</ele><time>2026-04-21T10:17:59.999Z</time></trkpt><trkpt lat="45.3847905126052" lon="8.031557687959259"><ele>319.25</ele><time>2026-04-21T10:18:00.999Z</time></trkpt><trkpt lat="45.38486313404516" lon="8.031425286760639"><ele>319.5</ele><time>2026-04-21T10:18:01.999Z</time></trkpt><trkpt lat="45.38496759657927" lon="8.03128419482072"><ele>319.75</ele><time>2026-04-21T10:18:02.999Z</time></trkpt><trkpt lat="45.38507348451614" lon="8.031169705910647"><ele>320.0</ele><time>2026-04-21T10:18:03.999Z</time></trkpt><trkpt lat="45.38515282557074" lon="8.031060921696744"><ele>320.0</ele><time>2026-04-21T10:18:04.999Z</time></trkpt><trkpt lat="45.38522501561171" lon="8.030934572311768"><ele>320.0</ele><time>2026-04-21T10:18:05.999Z</time></trkpt><trkpt lat="45.385307725215995" lon="8.030858982720947"><ele>320.0</ele><time>2026-04-21T10:18:06.999Z</time></trkpt><trkpt lat="45.38537905281963" lon="8.030772435817058"><ele>320.0</ele><time>2026-04-21T10:18:07.999Z</time></trkpt><trkpt lat="45.38544427299259" lon="8.030690864328962"><ele>320.0</ele><time>2026-04-21T10:18:08.999Z</time></trkpt><trkpt lat="45.385562205158685" lon="8.030553009721922"><ele>321.0</ele><time>2026-04-21T10:18:10.999Z</time></trkpt><trkpt lat="45.38568234324002" lon="8.030527790440717"><ele>322.0</ele><time>2026-04-21T10:18:11.999Z</time></trkpt><trkpt lat="45.38577867980277" lon="8.030465684383792"><ele>323.0</ele><time>2026-04-21T10:18:12.999Z</time></trkpt><trkpt lat="45.38585633637121" lon="8.030430412285238"><ele>324.0</ele><time>2026-04-21T10:18:13.999Z</time></trkpt><trkpt lat="45.38598354371286" lon="8.030349248974302"><ele>325.0</ele><time>2026-04-21T10:18:15.999Z</time></trkpt><trkpt lat="45.38606627070733" lon="8.030255952136939"><ele>325.0</ele><time>2026-04-21T10:18:16.999Z</time></trkpt><trkpt lat="45.38612161654053" lon="8.030134554836277"><ele>325.0</ele><time>2026-04-21T10:18:17.999Z</time></trkpt><trkpt lat="45.38619325031922" lon="8.030052950791426"><ele>325.0</ele><time>2026-04-21T10:18:18.999Z</time></trkpt><trkpt lat="45.386263817501835" lon="8.029934417671678"><ele>325.0</ele><time>2026-04-21T10:18:19.999Z</time></trkpt><trkpt lat="45.386357284438425" lon="8.029793179556648"><ele>325.0</ele><time>2026-04-21T10:18:20.999Z</time></trkpt><trkpt lat="45.386437154302364" lon="8.029674656600031"><ele>326.75</ele><time>2026-04-21T10:18:21.999Z</time></trkpt><trkpt lat="45.38653568282906" lon="8.02957372501893"><ele>328.5</ele><time>2026-04-21T10:18:22.999Z</time></trkpt><trkpt lat="45.386633279552306" lon="8.029468942804254"><ele>330.25</ele><time>2026-04-21T10:18:23.999Z</time></trkpt><trkpt lat="45.38673771583607" lon="8.029369033822578"><ele>332.0</ele><time>2026-04-21T10:18:24.999Z</time></trkpt><trkpt lat="45.38683184554509" lon="8.029284834054323"><ele>332.0</ele><time>2026-04-21T10:18:25.999Z</time></trkpt><trkpt lat="45.38691241498605" lon="8.029215569629633"><ele>332.0</ele><time>2026-04-21T10:18:26.999Z</time></trkpt><trkpt lat="45.38698057770008" lon="8.029159334798614"><ele>332.0</ele><time>2026-04-21T10:18:27.999Z</time></trkpt><trkpt lat="45.38706372317762" lon="8.029092627696322"><ele>332.0</ele><time>2026-04-21T10:18:28.999Z</time></trkpt><trkpt lat="45.38714774094825" lon="8.0290305513546"><ele>332.0</ele><time>2026-04-21T10:18:29.999Z</time></trkpt><trkpt lat="45.38722040419623" lon="8.028968894929797"><ele>332.0</ele><time>2026-04-21T10:18:31Z</time></trkpt><trkpt lat="45.387286282428775" lon="8.028958712202519"><ele>332.0</ele><time>2026-04-21T10:18:32Z</time></trkpt><trkpt lat="45.38735786493639" lon="8.028924847559832"><ele>332.0</ele><time>2026-04-21T10:18:33Z</time></trkpt><trkpt lat="45.38743085823819" lon="8.028873359561908"><ele>332.0</ele><time>2026-04-21T10:18:34Z</time></trkpt><trkpt lat="45.38749561337816" lon="8.028800316513644"><ele>332.0</ele><time>2026-04-21T10:18:35Z</time></trkpt><trkpt lat="45.38754344308704" lon="8.028714607683494"><ele>332.0</ele><time>2026-04-21T10:18:36Z</time></trkpt><trkpt lat="45.387596153734016" lon="8.028574827036808"><ele>332.0</ele><time>2026-04-21T10:18:38Z</time></trkpt><trkpt lat="45.38764352192266" lon="8.028383819109903"><ele>332.0</ele><time>2026-04-21T10:18:40Z</time></trkpt><trkpt lat="45.387596305486774" lon="8.028263148248108"><ele>332.0</ele><time>2026-04-21T10:18:41Z</time></trkpt><trkpt lat="45.38759050754719" lon="8.028165662843627"><ele>332.0</ele><time>2026-04-21T10:18:42Z</time></trkpt><trkpt lat="45.387561912569836" lon="8.028056082095167"><ele>332.0</ele><time>2026-04-21T10:18:43Z</time></trkpt><trkpt lat="45.38751319327375" lon="8.027948388061303"><ele>332.0</ele><time>2026-04-21T10:18:44Z</time></trkpt><trkpt lat="45.38744811628845" lon="8.027809027222709"><ele>332.0</ele><time>2026-04-21T10:18:45Z</time></trkpt><trkpt lat="45.38738381433412" lon="8.027682154443038"><ele>332.0</ele><time>2026-04-21T10:18:46Z</time></trkpt><trkpt lat="45.38732522723517" lon="8.027572440037469"><ele>332.0</ele><time>2026-04-21T10:18:47Z</time></trkpt><trkpt lat="45.38727683842437" lon="8.027475624488227"><ele>332.0</ele><time>2026-04-21T10:18:48Z</time></trkpt><trkpt lat="45.38723372904166" lon="8.027392756042053"><ele>332.0</ele><time>2026-04-21T10:18:49Z</time></trkpt><trkpt lat="45.38719603503285" lon="8.027297300906405"><ele>332.0</ele><time>2026-04-21T10:18:50Z</time></trkpt><trkpt lat="45.38718428819339" lon="8.027176893841935"><ele>332.0</ele><time>2026-04-21T10:18:51Z</time></trkpt><trkpt lat="45.387192340923626" lon="8.027042090415181"><ele>332.0</ele><time>2026-04-21T10:18:52Z</time></trkpt><trkpt lat="45.38721177200165" lon="8.02690166868386"><ele>332.0</ele><time>2026-04-21T10:18:53Z</time></trkpt><trkpt lat="45.387222070118064" lon="8.026745782385564"><ele>332.0</ele><time>2026-04-21T10:18:54Z</time></trkpt><trkpt lat="45.38722453897553" lon="8.026578742517524"><ele>332.0</ele><time>2026-04-21T10:18:55Z</time></trkpt><trkpt lat="45.387230247847754" lon="8.026432925788738"><ele>332.20000000000005</ele><time>2026-04-21T10:18:56Z</time></trkpt><trkpt lat="45.38722633185897" lon="8.026300377854904"><ele>332.4</ele><time>2026-04-21T10:18:57Z</time></trkpt><trkpt lat="45.3872299826048" lon="8.026156567064499"><ele>332.6</ele><time>2026-04-21T10:18:58Z</time></trkpt><trkpt lat="45.38724144137465" lon="8.026002188337202"><ele>332.79999999999995</ele><time>2026-04-21T10:18:59Z</time></trkpt><trkpt lat="45.387251969609046" lon="8.025840923423493"><ele>333.0</ele><time>2026-04-21T10:19:00Z</time></trkpt><trkpt lat="45.387270270055055" lon="8.025652493689647"><ele>333.25</ele><time>2026-04-21T10:19:01Z</time></trkpt><trkpt lat="45.3872901680809" lon="8.025492642726949"><ele>333.5</ele><time>2026-04-21T10:19:02Z</time></trkpt><trkpt lat="45.38731495374093" lon="8.025330309751157"><ele>333.75</ele><time>2026-04-21T10:19:03Z</time></trkpt><trkpt lat="45.387345994668806" lon="8.025143961804027"><ele>334.0</ele><time>2026-04-21T10:19:04Z</time></trkpt><trkpt lat="45.387376938455695" lon="8.024963570131094"><ele>335.4</ele><time>2026-04-21T10:19:05Z</time></trkpt><trkpt lat="45.3874061868155" lon="8.024798891103469"><ele>336.79999999999995</ele><time>2026-04-21T10:19:06Z</time></trkpt><trkpt lat="45.38743292663109" lon="8.024654913165973"><ele>338.20000000000005</ele><time>2026-04-21T10:19:07Z</time></trkpt><trkpt lat="45.38745210648671" lon="8.024534031399359"><ele>339.6</ele><time>2026-04-21T10:19:08Z</time></trkpt><trkpt lat="45.387460513172456" lon="8.02441029164208"><ele>341.0</ele><time>2026-04-21T10:19:09Z</time></trkpt><trkpt lat="45.38746186971386" lon="8.024282323248592"><ele>341.0</ele><time>2026-04-21T10:19:10Z</time></trkpt><trkpt lat="45.38745218437918" lon="8.024167426652774"><ele>341.0</ele><time>2026-04-21T10:19:11Z</time></trkpt><trkpt lat="45.387453761620506" lon="8.024060895563325"><ele>341.0</ele><time>2026-04-21T10:19:12Z</time></trkpt><trkpt lat="45.387447057296306" lon="8.023936933854872"><ele>341.0</ele><time>2026-04-21T10:19:14Z</time></trkpt><trkpt lat="45.387382966323685" lon="8.023886436530825"><ele>341.0</ele><time>2026-04-21T10:19:15Z</time></trkpt><trkpt lat="45.38735552758201" lon="8.023769586522237"><ele>341.0</ele><time>2026-04-21T10:19:16Z</time></trkpt><trkpt lat="45.387304524947496" lon="8.023714126729976"><ele>341.4</ele><time>2026-04-21T10:19:17Z</time></trkpt><trkpt lat="45.38725994308436" lon="8.02362398527385"><ele>341.8</ele><time>2026-04-21T10:19:18Z</time></trkpt><trkpt lat="45.387198384480016" lon="8.02351517343802"><ele>342.2</ele><time>2026-04-21T10:19:19Z</time></trkpt><trkpt lat="45.38714257761974" lon="8.0233899069676"><ele>342.59999999999997</ele><time>2026-04-21T10:19:20Z</time></trkpt><trkpt lat="45.38707499853241" lon="8.02331101527"><ele>343.0</ele><time>2026-04-21T10:19:21Z</time></trkpt><trkpt lat="45.38702150342473" lon="8.023197586005827"><ele>344.2</ele><time>2026-04-21T10:19:22Z</time></trkpt><trkpt lat="45.3869849543231" lon="8.023082966873714"><ele>345.4</ele><time>2026-04-21T10:19:23Z</time></trkpt><trkpt lat="45.38690865727078" lon="8.022979594533329"><ele>346.59999999999997</ele><time>2026-04-21T10:19:24Z</time></trkpt><trkpt lat="45.38681252804697" lon="8.022853486837535"><ele>347.79999999999995</ele><time>2026-04-21T10:19:25Z</time></trkpt><trkpt lat="45.3867310902649" lon="8.02272583727568"><ele>349.0</ele><time>2026-04-21T10:19:26Z</time></trkpt><trkpt lat="45.386635199987516" lon="8.02257824725064"><ele>350.0</ele><time>2026-04-21T10:19:27Z</time></trkpt><trkpt lat="45.38653823543639" lon="8.022427759076516"><ele>351.0</ele><time>2026-04-21T10:19:28Z</time></trkpt><trkpt lat="45.38644014407533" lon="8.022276506162086"><ele>352.0</ele><time>2026-04-21T10:19:29Z</time></trkpt><trkpt lat="45.38635579385761" lon="8.02215948007723"><ele>353.0</ele><time>2026-04-21T10:19:30Z</time></trkpt><trkpt lat="45.38628976419803" lon="8.022062887342125"><ele>353.0</ele><time>2026-04-21T10:19:31Z</time></trkpt><trkpt lat="45.38621502677711" lon="8.021954712560591"><ele>353.0</ele><time>2026-04-21T10:19:32Z</time></trkpt><trkpt lat="45.38612240622312" lon="8.021850564049018"><ele>353.0</ele><time>2026-04-21T10:19:33Z</time></trkpt><trkpt lat="45.38602101170185" lon="8.021734542515455"><ele>353.0</ele><time>2026-04-21T10:19:34Z</time></trkpt><trkpt lat="45.38591383428565" lon="8.021621170554733"><ele>353.25</ele><time>2026-04-21T10:19:35Z</time></trkpt><trkpt lat="45.38579734348722" lon="8.021518338563327"><ele>353.5</ele><time>2026-04-21T10:19:36Z</time></trkpt><trkpt lat="45.38568460549063" lon="8.021425751984545"><ele>353.75</ele><time>2026-04-21T10:19:37Z</time></trkpt><trkpt lat="45.385575961892606" lon="8.021333197200748"><ele>354.0</ele><time>2026-04-21T10:19:38Z</time></trkpt><trkpt lat="45.38546670693303" lon="8.021250142587112"><ele>354.0</ele><time>2026-04-21T10:19:39Z</time></trkpt><trkpt lat="45.385362217414844" lon="8.02115422697947"><ele>354.0</ele><time>2026-04-21T10:19:40Z</time></trkpt><trkpt lat="45.38527269790925" lon="8.021061239569487"><ele>354.0</ele><time>2026-04-21T10:19:41Z</time></trkpt><trkpt lat="45.38518557847846" lon="8.02095351709702"><ele>354.0</ele><time>2026-04-21T10:19:42Z</time></trkpt><trkpt lat="45.38510010296944" lon="8.020818443182115"><ele>354.0</ele><time>2026-04-21T10:19:42.999Z</time></trkpt><trkpt lat="45.3850129389926" lon="8.020648875439962"><ele>354.0</ele><time>2026-04-21T10:19:43.999Z</time></trkpt><trkpt lat="45.384912360915365" lon="8.020469509725219"><ele>354.0</ele><time>2026-04-21T10:19:44.999Z</time></trkpt><trkpt lat="45.38481455319476" lon="8.020299448369716"><ele>354.0</ele><time>2026-04-21T10:19:45.999Z</time></trkpt><trkpt lat="45.38470841699637" lon="8.020147215303583"><ele>354.0</ele><time>2026-04-21T10:19:46.999Z</time></trkpt><trkpt lat="45.38459792807934" lon="8.01999988678642"><ele>354.0</ele><time>2026-04-21T10:19:47.999Z</time></trkpt><trkpt lat="45.38448835057216" lon="8.0198601976458"><ele>354.0</ele><time>2026-04-21T10:19:48.999Z</time></trkpt><trkpt lat="45.38438507429599" lon="8.019728715045147"><ele>354.5</ele><time>2026-04-21T10:19:49.999Z</time></trkpt><trkpt lat="45.38428533395474" lon="8.019581142778547"><ele>355.0</ele><time>2026-04-21T10:19:50.999Z</time></trkpt><trkpt lat="45.38419076217519" lon="8.019436537686143"><ele>355.5</ele><time>2026-04-21T10:19:51.999Z</time></trkpt><trkpt lat="45.38410172488318" lon="8.019294694222113"><ele>356.0</ele><time>2026-04-21T10:19:52.999Z</time></trkpt><trkpt lat="45.38402901825121" lon="8.019164212867892"><ele>356.33333333333337</ele><time>2026-04-21T10:19:53.999Z</time></trkpt><trkpt lat="45.38396863330879" lon="8.019053286581304"><ele>356.6666666666667</ele><time>2026-04-21T10:19:54.999Z</time></trkpt><trkpt lat="45.38391868861811" lon="8.01895798097649"><ele>357.0</ele><time>2026-04-21T10:19:55.999Z</time></trkpt><trkpt lat="45.3838757344938" lon="8.018881733269435"><ele>357.3333333333333</ele><time>2026-04-21T10:19:56.999Z</time></trkpt><trkpt lat="45.383813723242085" lon="8.018763672233964"><ele>357.66666666666663</ele><time>2026-04-21T10:19:58.999Z</time></trkpt><trkpt lat="45.38378878345995" lon="8.018665054965934"><ele>358.0</ele><time>2026-04-21T10:20:01.999Z</time></trkpt><trkpt lat="45.38381569688475" lon="8.018579732842426"><ele>356.79999999999995</ele><time>2026-04-21T10:20:47Z</time></trkpt><trkpt lat="45.383814478513706" lon="8.018430363388036"><ele>355.6</ele><time>2026-04-21T10:20:49Z</time></trkpt><trkpt lat="45.38376478781852" lon="8.018355570641695"><ele>354.4</ele><time>2026-04-21T10:20:50Z</time></trkpt><trkpt lat="45.38369487983838" lon="8.018280038829893"><ele>353.20000000000005</ele><time>2026-04-21T10:20:51Z</time></trkpt><trkpt lat="45.383605048538726" lon="8.018171609503046"><ele>352.0</ele><time>2026-04-21T10:20:52Z</time></trkpt><trkpt lat="45.383524769372784" lon="8.018035076635236"><ele>351.75</ele><time>2026-04-21T10:20:53Z</time></trkpt><trkpt lat="45.383438398236976" lon="8.017891979394243"><ele>351.5</ele><time>2026-04-21T10:20:54Z</time></trkpt><trkpt lat="45.38333872219252" lon="8.017735680539136"><ele>351.25</ele><time>2026-04-21T10:20:55Z</time></trkpt><trkpt lat="45.383243641979114" lon="8.017583177218265"><ele>351.0</ele><time>2026-04-21T10:20:56Z</time></trkpt><trkpt lat="45.38315927058017" lon="8.017444495690741"><ele>350.5</ele><time>2026-04-21T10:20:57Z</time></trkpt><trkpt lat="45.38308196692051" lon="8.017318502231774"><ele>350.0</ele><time>2026-04-21T10:20:58Z</time></trkpt><trkpt lat="45.38300998019164" lon="8.017196499911162"><ele>349.5</ele><time>2026-04-21T10:20:59Z</time></trkpt><trkpt lat="45.38293414401578" lon="8.017056205644373"><ele>349.0</ele><time>2026-04-21T10:21:00Z</time></trkpt><trkpt lat="45.382853975688334" lon="8.016889030042739"><ele>349.0</ele><time>2026-04-21T10:21:01Z</time></trkpt><trkpt lat="45.38278502125143" lon="8.016730994687622"><ele>349.0</ele><time>2026-04-21T10:21:02Z</time></trkpt><trkpt lat="45.38271887275512" lon="8.01657964491035"><ele>349.0</ele><time>2026-04-21T10:21:03Z</time></trkpt><trkpt lat="45.382657955572455" lon="8.016409852985204"><ele>349.0</ele><time>2026-04-21T10:21:04Z</time></trkpt><trkpt lat="45.38260892365882" lon="8.016223004532932"><ele>350.5</ele><time>2026-04-21T10:21:05Z</time></trkpt><trkpt lat="45.38256498449466" lon="8.016021985635907"><ele>352.0</ele><time>2026-04-21T10:21:06Z</time></trkpt><trkpt lat="45.382524146577545" lon="8.015831831869225"><ele>353.5</ele><time>2026-04-21T10:21:07Z</time></trkpt><trkpt lat="45.382501524297794" lon="8.015654362873727"><ele>355.0</ele><time>2026-04-21T10:21:08Z</time></trkpt><trkpt lat="45.38249167496209" lon="8.015463952352468"><ele>355.5</ele><time>2026-04-21T10:21:09Z</time></trkpt><trkpt lat="45.38248512361224" lon="8.01528287345407"><ele>356.0</ele><time>2026-04-21T10:21:10Z</time></trkpt><trkpt lat="45.38248182783306" lon="8.015122533012082"><ele>356.5</ele><time>2026-04-21T10:21:11Z</time></trkpt><trkpt lat="45.38247434188085" lon="8.014953707013607"><ele>357.0</ele><time>2026-04-21T10:21:12Z</time></trkpt><trkpt lat="45.38244271484308" lon="8.01480863914133"><ele>357.25</ele><time>2026-04-21T10:21:13Z</time></trkpt><trkpt lat="45.382400031088466" lon="8.014678609818898"><ele>357.5</ele><time>2026-04-21T10:21:14Z</time></trkpt><trkpt lat="45.382342058228005" lon="8.01452449338408"><ele>357.75</ele><time>2026-04-21T10:21:15Z</time></trkpt><trkpt lat="45.38225479717018" lon="8.014366530650756"><ele>358.0</ele><time>2026-04-21T10:21:16Z</time></trkpt><trkpt lat="45.382166424614006" lon="8.014224591895314"><ele>357.0</ele><time>2026-04-21T10:21:17Z</time></trkpt><trkpt lat="45.382110061706726" lon="8.014092149670052"><ele>356.0</ele><time>2026-04-21T10:21:18Z</time></trkpt><trkpt lat="45.38207029507243" lon="8.01397034042433"><ele>355.0</ele><time>2026-04-21T10:21:19Z</time></trkpt><trkpt lat="45.382038494955935" lon="8.013852749096161"><ele>354.0</ele><time>2026-04-21T10:21:20Z</time></trkpt><trkpt lat="45.382023792111525" lon="8.013718610712468"><ele>353.0</ele><time>2026-04-21T10:21:21Z</time></trkpt><trkpt lat="45.3820241099473" lon="8.013569228097362"><ele>353.0</ele><time>2026-04-21T10:21:22Z</time></trkpt><trkpt lat="45.38203229865598" lon="8.013403627451684"><ele>353.0</ele><time>2026-04-21T10:21:23Z</time></trkpt><trkpt lat="45.38203359511933" lon="8.013239568432224"><ele>353.0</ele><time>2026-04-21T10:21:24Z</time></trkpt><trkpt lat="45.38202318260895" lon="8.013063933542247"><ele>353.0</ele><time>2026-04-21T10:21:25Z</time></trkpt><trkpt lat="45.38198631452614" lon="8.012876644505122"><ele>352.79999999999995</ele><time>2026-04-21T10:21:26Z</time></trkpt><trkpt lat="45.38195185900118" lon="8.012715817689463"><ele>352.6</ele><time>2026-04-21T10:21:27Z</time></trkpt><trkpt lat="45.38193007532982" lon="8.012583684567609"><ele>352.4</ele><time>2026-04-21T10:21:28Z</time></trkpt><trkpt lat="45.381903874993796" lon="8.012458445229406"><ele>352.20000000000005</ele><time>2026-04-21T10:21:29Z</time></trkpt><trkpt lat="45.38185526841402" lon="8.012346383109042"><ele>352.0</ele><time>2026-04-21T10:21:30Z</time></trkpt><trkpt lat="45.3817728119964" lon="8.01224468174208"><ele>353.0</ele><time>2026-04-21T10:21:31Z</time></trkpt><trkpt lat="45.38168198650848" lon="8.012145792988836"><ele>354.0</ele><time>2026-04-21T10:21:32Z</time></trkpt><trkpt lat="45.381621252070346" lon="8.012022808943414"><ele>355.0</ele><time>2026-04-21T10:21:33Z</time></trkpt><trkpt lat="45.381589677000605" lon="8.011882747506716"><ele>356.0</ele><time>2026-04-21T10:21:34Z</time></trkpt><trkpt lat="45.38155769194487" lon="8.01170854458558"><ele>356.5</ele><time>2026-04-21T10:21:35Z</time></trkpt><trkpt lat="45.381507870867964" lon="8.011526009856194"><ele>357.0</ele><time>2026-04-21T10:21:36Z</time></trkpt><trkpt lat="45.381444919890555" lon="8.01133776247874"><ele>357.5</ele><time>2026-04-21T10:21:37Z</time></trkpt><trkpt lat="45.3813924709418" lon="8.011163601816204"><ele>358.0</ele><time>2026-04-21T10:21:38Z</time></trkpt><trkpt lat="45.38134170142203" lon="8.011017043469808"><ele>357.0</ele><time>2026-04-21T10:21:39Z</time></trkpt><trkpt lat="45.38128191175892" lon="8.010862027283043"><ele>356.0</ele><time>2026-04-21T10:21:40Z</time></trkpt><trkpt lat="45.381218873732315" lon="8.010698476715964"><ele>355.0</ele><time>2026-04-21T10:21:41Z</time></trkpt><trkpt lat="45.381162376350034" lon="8.010523035734401"><ele>354.0</ele><time>2026-04-21T10:21:42Z</time></trkpt><trkpt lat="45.381117196159494" lon="8.010359884736618"><ele>354.0</ele><time>2026-04-21T10:21:43Z</time></trkpt><trkpt lat="45.381079652682516" lon="8.010221776300924"><ele>354.0</ele><time>2026-04-21T10:21:44Z</time></trkpt><trkpt lat="45.38104853720442" lon="8.010091844981371"><ele>354.0</ele><time>2026-04-21T10:21:45Z</time></trkpt><trkpt lat="45.381023160778916" lon="8.009969684975436"><ele>354.0</ele><time>2026-04-21T10:21:46Z</time></trkpt><trkpt lat="45.381003065677525" lon="8.009856740665128"><ele>354.0</ele><time>2026-04-21T10:21:46.999Z</time></trkpt><trkpt lat="45.38098260752707" lon="8.009714125659691"><ele>353.79999999999995</ele><time>2026-04-21T10:21:48.999Z</time></trkpt><trkpt lat="45.38098514207901" lon="8.009612044566"><ele>353.59999999999997</ele><time>2026-04-21T10:21:50.999Z</time></trkpt><trkpt lat="45.381053785919114" lon="8.009523216878916"><ele>353.4</ele><time>2026-04-21T10:21:52.999Z</time></trkpt><trkpt lat="45.38111292797294" lon="8.009478349605121"><ele>353.2</ele><time>2026-04-21T10:21:53.999Z</time></trkpt><trkpt lat="45.381197461258324" lon="8.009388738787626"><ele>353.0</ele><time>2026-04-21T10:21:54.999Z</time></trkpt><trkpt lat="45.38130410826922" lon="8.009285078308867"><ele>352.75</ele><time>2026-04-21T10:21:55.999Z</time></trkpt><trkpt lat="45.38141849568269" lon="8.009183141176566"><ele>352.5</ele><time>2026-04-21T10:21:56.999Z</time></trkpt><trkpt lat="45.38154868350458" lon="8.00909421928857"><ele>352.25</ele><time>2026-04-21T10:21:57.999Z</time></trkpt><trkpt lat="45.381671861019555" lon="8.009029181851016"><ele>352.0</ele><time>2026-04-21T10:21:58.999Z</time></trkpt><trkpt lat="45.38178465176554" lon="8.00897658638634"><ele>352.0</ele><time>2026-04-21T10:21:59.999Z</time></trkpt><trkpt lat="45.3819007523882" lon="8.008926513785589"><ele>352.0</ele><time>2026-04-21T10:22:00.999Z</time></trkpt><trkpt lat="45.38202641580592" lon="8.008887801860093"><ele>352.0</ele><time>2026-04-21T10:22:01.999Z</time></trkpt><trkpt lat="45.38215185417676" lon="8.008861935173863"><ele>352.0</ele><time>2026-04-21T10:22:02.999Z</time></trkpt><trkpt lat="45.382269734863655" lon="8.008833230322463"><ele>352.8</ele><time>2026-04-21T10:22:03.999Z</time></trkpt><trkpt lat="45.38239021660896" lon="8.008800378359117"><ele>353.6</ele><time>2026-04-21T10:22:04.999Z</time></trkpt><trkpt lat="45.38250176967302" lon="8.00877100377566"><ele>354.40000000000003</ele><time>2026-04-21T10:22:05.999Z</time></trkpt><trkpt lat="45.382603309134154" lon="8.00874495612709"><ele>355.20000000000005</ele><time>2026-04-21T10:22:06.999Z</time></trkpt><trkpt lat="45.382698910382025" lon="8.008720254303043"><ele>356.0</ele><time>2026-04-21T10:22:07.999Z</time></trkpt><trkpt lat="45.382804605695675" lon="8.008692328019599"><ele>356.0</ele><time>2026-04-21T10:22:08.999Z</time></trkpt><trkpt lat="45.38292438613516" lon="8.00865735003759"><ele>356.0</ele><time>2026-04-21T10:22:09.999Z</time></trkpt><trkpt lat="45.38306773995327" lon="8.008622442286107"><ele>356.0</ele><time>2026-04-21T10:22:10.999Z</time></trkpt><trkpt lat="45.38322441557059" lon="8.008588095110904"><ele>356.0</ele><time>2026-04-21T10:22:11.999Z</time></trkpt><trkpt lat="45.38335749053546" lon="8.00855920760162"><ele>356.25</ele><time>2026-04-21T10:22:12.999Z</time></trkpt><trkpt lat="45.38349213538648" lon="8.008530595068954"><ele>356.5</ele><time>2026-04-21T10:22:13.999Z</time></trkpt><trkpt lat="45.38363246797578" lon="8.008499494657974"><ele>356.75</ele><time>2026-04-21T10:22:14.999Z</time></trkpt><trkpt lat="45.38376702212253" lon="8.008469164261841"><ele>357.0</ele><time>2026-04-21T10:22:15.999Z</time></trkpt><trkpt lat="45.38390106259159" lon="8.008437350538175"><ele>357.25</ele><time>2026-04-21T10:22:16.999Z</time></trkpt><trkpt lat="45.38403540728075" lon="8.008407960534605"><ele>357.5</ele><time>2026-04-21T10:22:17.999Z</time></trkpt><trkpt lat="45.38417177263563" lon="8.008374299174037"><ele>357.75</ele><time>2026-04-21T10:22:18.999Z</time></trkpt><trkpt lat="45.384306774323896" lon="8.008340875319965"><ele>358.0</ele><time>2026-04-21T10:22:19.999Z</time></trkpt><trkpt lat="45.3844400794067" lon="8.0083115617627"><ele>358.0</ele><time>2026-04-21T10:22:20.999Z</time></trkpt><trkpt lat="45.38456845560381" lon="8.008285132886583"><ele>358.0</ele><time>2026-04-21T10:22:21.999Z</time></trkpt><trkpt lat="45.38470113697038" lon="8.008254407570206"><ele>358.0</ele><time>2026-04-21T10:22:22.999Z</time></trkpt><trkpt lat="45.3848342348319" lon="8.00822335715342"><ele>358.0</ele><time>2026-04-21T10:22:23.999Z</time></trkpt><trkpt lat="45.38496552428217" lon="8.008196098003861"><ele>358.5</ele><time>2026-04-21T10:22:24.999Z</time></trkpt><trkpt lat="45.3850980880519" lon="8.008168234074716"><ele>359.0</ele><time>2026-04-21T10:22:25.999Z</time></trkpt><trkpt lat="45.38523403161562" lon="8.00813898020763"><ele>359.5</ele><time>2026-04-21T10:22:26.999Z</time></trkpt><trkpt lat="45.38536958842823" lon="8.008109458948297"><ele>360.0</ele><time>2026-04-21T10:22:27.999Z</time></trkpt><trkpt lat="45.3855058048438" lon="8.008078349455497"><ele>360.0</ele><time>2026-04-21T10:22:28.999Z</time></trkpt><trkpt lat="45.385631684126274" lon="8.008048081056177"><ele>360.0</ele><time>2026-04-21T10:22:29.999Z</time></trkpt><trkpt lat="45.3857399268549" lon="8.008017380499954"><ele>360.0</ele><time>2026-04-21T10:22:30.999Z</time></trkpt><trkpt lat="45.385833511634296" lon="8.007986065122186"><ele>360.0</ele><time>2026-04-21T10:22:31.999Z</time></trkpt><trkpt lat="45.38592059801119" lon="8.007951442322081"><ele>360.0</ele><time>2026-04-21T10:22:32.999Z</time></trkpt><trkpt lat="45.38602552602938" lon="8.00792503400811"><ele>360.0</ele><time>2026-04-21T10:22:34.999Z</time></trkpt><trkpt lat="45.38610745087528" lon="8.008030235048814"><ele>360.0</ele><time>2026-04-21T10:22:36.999Z</time></trkpt><trkpt lat="45.38618760347011" lon="8.008046402780193"><ele>360.0</ele><time>2026-04-21T10:22:37.999Z</time></trkpt><trkpt lat="45.38626646915394" lon="8.008020033368254"><ele>360.0</ele><time>2026-04-21T10:22:38.999Z</time></trkpt><trkpt lat="45.38635613926139" lon="8.007979240132928"><ele>360.0</ele><time>2026-04-21T10:22:39.999Z</time></trkpt><trkpt lat="45.38644107699686" lon="8.007968966742741"><ele>358.8</ele><time>2026-04-21T10:22:40.999Z</time></trkpt><trkpt lat="45.38653442875823" lon="8.007959542014426"><ele>357.6</ele><time>2026-04-21T10:22:41.999Z</time></trkpt><trkpt lat="45.38663466117882" lon="8.007977263768426"><ele>356.4</ele><time>2026-04-21T10:22:43Z</time></trkpt><trkpt lat="45.386754942473004" lon="8.007999324991498"><ele>355.2</ele><time>2026-04-21T10:22:44Z</time></trkpt><trkpt lat="45.386871630177026" lon="8.008014654976778"><ele>354.0</ele><time>2026-04-21T10:22:45Z</time></trkpt><trkpt lat="45.38700400058149" lon="8.008039058678431"><ele>354.0</ele><time>2026-04-21T10:22:46Z</time></trkpt><trkpt lat="45.387133226238184" lon="8.008061878192608"><ele>354.0</ele><time>2026-04-21T10:22:47Z</time></trkpt><trkpt lat="45.38725560719279" lon="8.008081499150396"><ele>354.0</ele><time>2026-04-21T10:22:48Z</time></trkpt><trkpt lat="45.38737403441154" lon="8.008103003333021"><ele>354.0</ele><time>2026-04-21T10:22:49Z</time></trkpt><trkpt lat="45.38750156195955" lon="8.008125701208137"><ele>352.25</ele><time>2026-04-21T10:22:50Z</time></trkpt><trkpt lat="45.38764109716037" lon="8.008145853947791"><ele>350.5</ele><time>2026-04-21T10:22:51Z</time></trkpt><trkpt lat="45.38777711974204" lon="8.008175730983503"><ele>348.75</ele><time>2026-04-21T10:22:52Z</time></trkpt><trkpt lat="45.38790268175615" lon="8.008201896776944"><ele>347.0</ele><time>2026-04-21T10:22:53Z</time></trkpt><trkpt lat="45.3880318617269" lon="8.00822884514708"><ele>345.5</ele><time>2026-04-21T10:22:54Z</time></trkpt><trkpt lat="45.38817020445824" lon="8.008247095821005"><ele>344.0</ele><time>2026-04-21T10:22:55Z</time></trkpt><trkpt lat="45.38830003916681" lon="8.008259509951687"><ele>342.5</ele><time>2026-04-21T10:22:56Z</time></trkpt><trkpt lat="45.38841264038027" lon="8.008272577126789"><ele>341.0</ele><time>2026-04-21T10:22:57Z</time></trkpt><trkpt lat="45.388523022270476" lon="8.008277024643956"><ele>341.0</ele><time>2026-04-21T10:22:58Z</time></trkpt><trkpt lat="45.38862125883259" lon="8.008272734181865"><ele>341.0</ele><time>2026-04-21T10:22:59Z</time></trkpt><trkpt lat="45.3887004107786" lon="8.008256324243137"><ele>341.0</ele><time>2026-04-21T10:23:00Z</time></trkpt><trkpt lat="45.38878058907262" lon="8.008229681949121"><ele>341.0</ele><time>2026-04-21T10:23:01Z</time></trkpt><trkpt lat="45.388859757780395" lon="8.008185893174867"><ele>341.0</ele><time>2026-04-21T10:23:02Z</time></trkpt><trkpt lat="45.38893885993194" lon="8.008158416825776"><ele>341.0</ele><time>2026-04-21T10:23:03Z</time></trkpt><trkpt lat="45.38901218635318" lon="8.008141923862691"><ele>341.6</ele><time>2026-04-21T10:23:04Z</time></trkpt><trkpt lat="45.38910625379108" lon="8.008216281932883"><ele>342.20000000000005</ele><time>2026-04-21T10:23:05Z</time></trkpt><trkpt lat="45.38919083940842" lon="8.008311292106095"><ele>342.79999999999995</ele><time>2026-04-21T10:23:06Z</time></trkpt><trkpt lat="45.38929224774017" lon="8.008386689407214"><ele>343.4</ele><time>2026-04-21T10:23:07Z</time></trkpt><trkpt lat="45.38937777428764" lon="8.008475284833722"><ele>344.0</ele><time>2026-04-21T10:23:08Z</time></trkpt><trkpt lat="45.38947366191363" lon="8.008565500227558"><ele>344.25</ele><time>2026-04-21T10:23:09Z</time></trkpt><trkpt lat="45.38957006767709" lon="8.008662703405284"><ele>344.5</ele><time>2026-04-21T10:23:10Z</time></trkpt><trkpt lat="45.389657320822145" lon="8.00876226718964"><ele>344.75</ele><time>2026-04-21T10:23:11Z</time></trkpt><trkpt lat="45.389742255442464" lon="8.008862594698956"><ele>345.0</ele><time>2026-04-21T10:23:12Z</time></trkpt><trkpt lat="45.38982718581215" lon="8.008966537145682"><ele>345.0</ele><time>2026-04-21T10:23:13Z</time></trkpt><trkpt lat="45.389912824331326" lon="8.009072662223057"><ele>345.0</ele><time>2026-04-21T10:23:14Z</time></trkpt><trkpt lat="45.39000303322762" lon="8.009179014482354"><ele>345.0</ele><time>2026-04-21T10:23:15Z</time></trkpt><trkpt lat="45.39010079220613" lon="8.00929267123065"><ele>345.0</ele><time>2026-04-21T10:23:16Z</time></trkpt><trkpt lat="45.39019972204226" lon="8.009417057803168"><ele>345.5</ele><time>2026-04-21T10:23:17Z</time></trkpt><trkpt lat="45.39029647194029" lon="8.009552792421717"><ele>346.0</ele><time>2026-04-21T10:23:18Z</time></trkpt><trkpt lat="45.39038695302088" lon="8.009678556297072"><ele>346.5</ele><time>2026-04-21T10:23:19Z</time></trkpt><trkpt lat="45.390486187654275" lon="8.009795094644002"><ele>347.0</ele><time>2026-04-21T10:23:20Z</time></trkpt><trkpt lat="45.39060341902488" lon="8.009891585997607"><ele>347.0</ele><time>2026-04-21T10:23:21Z</time></trkpt><trkpt lat="45.39072014025592" lon="8.009960027664075"><ele>347.0</ele><time>2026-04-21T10:23:22Z</time></trkpt><trkpt lat="45.390804857144964" lon="8.010008993571036"><ele>347.0</ele><time>2026-04-21T10:23:23Z</time></trkpt><trkpt lat="45.3908758317813" lon="8.010052835401352"><ele>347.0</ele><time>2026-04-21T10:23:24Z</time></trkpt><trkpt lat="45.39094799585328" lon="8.0100900574403"><ele>347.0</ele><time>2026-04-21T10:23:25Z</time></trkpt><trkpt lat="45.39101397561602" lon="8.010127646596835"><ele>347.0</ele><time>2026-04-21T10:23:26Z</time></trkpt><trkpt lat="45.39108183806506" lon="8.01017099583501"><ele>347.0</ele><time>2026-04-21T10:23:27Z</time></trkpt><trkpt lat="45.39116631807201" lon="8.01021511354246"><ele>347.0</ele><time>2026-04-21T10:23:28Z</time></trkpt><trkpt lat="45.39125993932179" lon="8.010264197878154"><ele>347.0</ele><time>2026-04-21T10:23:29Z</time></trkpt><trkpt lat="45.3913696159977" lon="8.010307660653721"><ele>347.0</ele><time>2026-04-21T10:23:30Z</time></trkpt><trkpt lat="45.3914740701209" lon="8.01037138162766"><ele>347.0</ele><time>2026-04-21T10:23:31Z</time></trkpt><trkpt lat="45.39156554890195" lon="8.010435116466287"><ele>346.75</ele><time>2026-04-21T10:23:32Z</time></trkpt><trkpt lat="45.39166361106142" lon="8.01049757902994"><ele>346.5</ele><time>2026-04-21T10:23:33Z</time></trkpt><trkpt lat="45.39177571263673" lon="8.010579034424396"><ele>346.25</ele><time>2026-04-21T10:23:34Z</time></trkpt><trkpt lat="45.391889929290514" lon="8.010673449680983"><ele>346.0</ele><time>2026-04-21T10:23:35Z</time></trkpt><trkpt lat="45.391998423700215" lon="8.010751093609505"><ele>346.0</ele><time>2026-04-21T10:23:36Z</time></trkpt><trkpt lat="45.39211466317679" lon="8.010822625069062"><ele>346.0</ele><time>2026-04-21T10:23:37Z</time></trkpt><trkpt lat="45.39222836211713" lon="8.01088292250573"><ele>346.0</ele><time>2026-04-21T10:23:38Z</time></trkpt><trkpt lat="45.39235606323386" lon="8.010936517733265"><ele>346.0</ele><time>2026-04-21T10:23:39Z</time></trkpt><trkpt lat="45.392482171517045" lon="8.010966341845004"><ele>346.0</ele><time>2026-04-21T10:23:40Z</time></trkpt><trkpt lat="45.39259324585275" lon="8.010984095574782"><ele>346.0</ele><time>2026-04-21T10:23:41Z</time></trkpt><trkpt lat="45.39268106424677" lon="8.010999471875921"><ele>346.0</ele><time>2026-04-21T10:23:41.999Z</time></trkpt><trkpt lat="45.39274909593052" lon="8.011010848148038"><ele>346.0</ele><time>2026-04-21T10:23:42.999Z</time></trkpt><trkpt lat="45.39285370018076" lon="8.011050349644158"><ele>346.0</ele><time>2026-04-21T10:23:44.999Z</time></trkpt><trkpt lat="45.3929024546419" lon="8.011186325120754"><ele>346.0</ele><time>2026-04-21T10:23:46.999Z</time></trkpt><trkpt lat="45.392923878626405" lon="8.011291408588765"><ele>346.0</ele><time>2026-04-21T10:23:47.999Z</time></trkpt><trkpt lat="45.392948622094" lon="8.011419358495656"><ele>346.0</ele><time>2026-04-21T10:23:48.999Z</time></trkpt><trkpt lat="45.392979427057185" lon="8.011576280961743"><ele>346.0</ele><time>2026-04-21T10:23:49.999Z</time></trkpt><trkpt lat="45.3930116910978" lon="8.01172803173508"><ele>346.0</ele><time>2026-04-21T10:23:50.999Z</time></trkpt><trkpt lat="45.39304389690386" lon="8.011875011685001"><ele>346.0</ele><time>2026-04-21T10:23:51.999Z</time></trkpt><trkpt lat="45.39308100111107" lon="8.01203582158826"><ele>346.0</ele><time>2026-04-21T10:23:52.999Z</time></trkpt><trkpt lat="45.393123403298944" lon="8.012205767243717"><ele>346.0</ele><time>2026-04-21T10:23:53.999Z</time></trkpt><trkpt lat="45.39317595673114" lon="8.01236030358317"><ele>346.0</ele><time>2026-04-21T10:23:54.999Z</time></trkpt><trkpt lat="45.39321333426843" lon="8.012512358038405"><ele>346.25</ele><time>2026-04-21T10:23:55.999Z</time></trkpt><trkpt lat="45.39325288373148" lon="8.012681052094448"><ele>346.5</ele><time>2026-04-21T10:23:56.999Z</time></trkpt><trkpt lat="45.39327822686263" lon="8.012832489300498"><ele>346.75</ele><time>2026-04-21T10:23:57.999Z</time></trkpt><trkpt lat="45.39326184366182" lon="8.012994385831764"><ele>347.0</ele><time>2026-04-21T10:23:58.999Z</time></trkpt><trkpt lat="45.39325054448948" lon="8.013159567498596"><ele>347.5</ele><time>2026-04-21T10:23:59.999Z</time></trkpt><trkpt lat="45.39326064309789" lon="8.013322752408646"><ele>348.0</ele><time>2026-04-21T10:24:00.999Z</time></trkpt><trkpt lat="45.39327089629936" lon="8.01346134618405"><ele>348.5</ele><time>2026-04-21T10:24:01.999Z</time></trkpt><trkpt lat="45.39327900185166" lon="8.013570909731804"><ele>349.0</ele><time>2026-04-21T10:24:02.999Z</time></trkpt><trkpt lat="45.39329072294348" lon="8.01367362228301"><ele>349.5</ele><time>2026-04-21T10:24:03.999Z</time></trkpt><trkpt lat="45.393321001563066" lon="8.013756343508724"><ele>350.0</ele><time>2026-04-21T10:24:04.999Z</time></trkpt><trkpt lat="45.39343349783295" lon="8.013824106248697"><ele>350.0</ele><time>2026-04-21T10:24:06.999Z</time></trkpt><trkpt lat="45.39351366882287" lon="8.013842347640157"><ele>350.0</ele><time>2026-04-21T10:24:07.999Z</time></trkpt><trkpt lat="45.39361844718078" lon="8.013854966847234"><ele>350.0</ele><time>2026-04-21T10:24:08.999Z</time></trkpt><trkpt lat="45.39373670320848" lon="8.013866667256975"><ele>350.0</ele><time>2026-04-21T10:24:09.999Z</time></trkpt><trkpt lat="45.39384412574293" lon="8.013854613808789"><ele>350.0</ele><time>2026-04-21T10:24:10.999Z</time></trkpt><trkpt lat="45.3939484632784" lon="8.013815448981248"><ele>350.0</ele><time>2026-04-21T10:24:11.999Z</time></trkpt><trkpt lat="45.39406052369934" lon="8.013747182919122"><ele>350.0</ele><time>2026-04-21T10:24:12.999Z</time></trkpt><trkpt lat="45.39416130639004" lon="8.013683757558239"><ele>350.0</ele><time>2026-04-21T10:24:13.999Z</time></trkpt><trkpt lat="45.394268044885436" lon="8.013636450359067"><ele>350.0</ele><time>2026-04-21T10:24:14.999Z</time></trkpt><trkpt lat="45.394388033674296" lon="8.013598089860029"><ele>350.0</ele><time>2026-04-21T10:24:15.999Z</time></trkpt><trkpt lat="45.3945147785555" lon="8.01357885088031"><ele>350.0</ele><time>2026-04-21T10:24:16.999Z</time></trkpt><trkpt lat="45.39465266354796" lon="8.013580182679899"><ele>350.0</ele><time>2026-04-21T10:24:17.999Z</time></trkpt><trkpt lat="45.39479083920768" lon="8.013591345329491"><ele>350.0</ele><time>2026-04-21T10:24:18.999Z</time></trkpt><trkpt lat="45.39493241011786" lon="8.013611873075575"><ele>350.0</ele><time>2026-04-21T10:24:19.999Z</time></trkpt><trkpt lat="45.395067594100595" lon="8.013643226082587"><ele>350.0</ele><time>2026-04-21T10:24:20.999Z</time></trkpt><trkpt lat="45.39517606555876" lon="8.013671250306299"><ele>350.0</ele><time>2026-04-21T10:24:21.999Z</time></trkpt><trkpt lat="45.39526619744585" lon="8.013695574774509"><ele>350.0</ele><time>2026-04-21T10:24:22.999Z</time></trkpt><trkpt lat="45.39535562825852" lon="8.013714298761236"><ele>350.0</ele><time>2026-04-21T10:24:23.999Z</time></trkpt><trkpt lat="45.395446589289016" lon="8.013703377150001"><ele>350.4</ele><time>2026-04-21T10:24:24.999Z</time></trkpt><trkpt lat="45.39553538777421" lon="8.013657495423175"><ele>350.8</ele><time>2026-04-21T10:24:25.999Z</time></trkpt><trkpt lat="45.395627604902565" lon="8.013575817214232"><ele>351.20000000000005</ele><time>2026-04-21T10:24:26.999Z</time></trkpt><trkpt lat="45.395714403057596" lon="8.013481796185843"><ele>351.6</ele><time>2026-04-21T10:24:27.999Z</time></trkpt><trkpt lat="45.39580424689308" lon="8.013417580945458"><ele>352.0</ele><time>2026-04-21T10:24:28.999Z</time></trkpt><trkpt lat="45.39587065679441" lon="8.013338369217102"><ele>352.0</ele><time>2026-04-21T10:24:29.999Z</time></trkpt><trkpt lat="45.39593935712241" lon="8.013296656977282"><ele>352.0</ele><time>2026-04-21T10:24:30.999Z</time></trkpt><trkpt lat="45.3960182289489" lon="8.01327311450595"><ele>352.0</ele><time>2026-04-21T10:24:31.999Z</time></trkpt><trkpt lat="45.39610036492054" lon="8.013271701783884"><ele>352.0</ele><time>2026-04-21T10:24:32.999Z</time></trkpt><trkpt lat="45.396199013891" lon="8.013290581871686"><ele>352.0</ele><time>2026-04-21T10:24:33.999Z</time></trkpt><trkpt lat="45.39630087818019" lon="8.013332143537514"><ele>352.0</ele><time>2026-04-21T10:24:34.999Z</time></trkpt><trkpt lat="45.396405893150856" lon="8.013390099757508"><ele>351.20000000000005</ele><time>2026-04-21T10:24:35.999Z</time></trkpt><trkpt lat="45.39650711363832" lon="8.013438164975762"><ele>350.4</ele><time>2026-04-21T10:24:36.999Z</time></trkpt><trkpt lat="45.39659539489864" lon="8.013477307178864"><ele>349.6</ele><time>2026-04-21T10:24:37.999Z</time></trkpt><trkpt lat="45.39669466960062" lon="8.01348432464336"><ele>348.79999999999995</ele><time>2026-04-21T10:24:38.999Z</time></trkpt><trkpt lat="45.39679903562912" lon="8.013474504541405"><ele>348.0</ele><time>2026-04-21T10:24:39.999Z</time></trkpt><trkpt lat="45.39690102456884" lon="8.013445259704657"><ele>348.0</ele><time>2026-04-21T10:24:40.999Z</time></trkpt><trkpt lat="45.39699141667303" lon="8.013403314493411"><ele>348.0</ele><time>2026-04-21T10:24:41.999Z</time></trkpt><trkpt lat="45.39707100047814" lon="8.013354156046493"><ele>348.0</ele><time>2026-04-21T10:24:42.999Z</time></trkpt><trkpt lat="45.39714911657711" lon="8.013318021306791"><ele>348.0</ele><time>2026-04-21T10:24:43.999Z</time></trkpt><trkpt lat="45.39722593596218" lon="8.013310701952548"><ele>348.0</ele><time>2026-04-21T10:24:44.999Z</time></trkpt><trkpt lat="45.39730829434731" lon="8.013338220417127"><ele>348.0</ele><time>2026-04-21T10:24:45.999Z</time></trkpt><trkpt lat="45.39738545905561" lon="8.013396279163224"><ele>347.0</ele><time>2026-04-21T10:24:46.999Z</time></trkpt><trkpt lat="45.39745152006969" lon="8.013464561384689"><ele>346.0</ele><time>2026-04-21T10:24:47.999Z</time></trkpt><trkpt lat="45.397522397858786" lon="8.013541051327284"><ele>345.0</ele><time>2026-04-21T10:24:49Z</time></trkpt><trkpt lat="45.39759617699238" lon="8.013666195165081"><ele>344.0</ele><time>2026-04-21T10:24:50Z</time></trkpt><trkpt lat="45.39767247598021" lon="8.013815079705173"><ele>343.0</ele><time>2026-04-21T10:24:51Z</time></trkpt><trkpt lat="45.39776062902316" lon="8.013963951966499"><ele>343.0</ele><time>2026-04-21T10:24:52Z</time></trkpt><trkpt lat="45.397844526005855" lon="8.014122237029015"><ele>343.0</ele><time>2026-04-21T10:24:53Z</time></trkpt><trkpt lat="45.39794311030205" lon="8.014235285422696"><ele>343.0</ele><time>2026-04-21T10:24:54Z</time></trkpt><trkpt lat="45.39803642457465" lon="8.01434129519548"><ele>343.0</ele><time>2026-04-21T10:24:55Z</time></trkpt><trkpt lat="45.39811719466906" lon="8.014440531707473"><ele>341.79999999999995</ele><time>2026-04-21T10:24:56Z</time></trkpt><trkpt lat="45.39819351013373" lon="8.014531035122694"><ele>340.6</ele><time>2026-04-21T10:24:57Z</time></trkpt><trkpt lat="45.39827589682111" lon="8.014596483554822"><ele>339.4</ele><time>2026-04-21T10:24:58Z</time></trkpt><trkpt lat="45.39837578613346" lon="8.014642967533746"><ele>338.20000000000005</ele><time>2026-04-21T10:24:59Z</time></trkpt><trkpt lat="45.39847353609572" lon="8.014660915127967"><ele>337.0</ele><time>2026-04-21T10:25:00Z</time></trkpt><trkpt lat="45.398571099002666" lon="8.014670317315359"><ele>337.0</ele><time>2026-04-21T10:25:01Z</time></trkpt><trkpt lat="45.3986605545166" lon="8.014693722714025"><ele>337.0</ele><time>2026-04-21T10:25:02Z</time></trkpt><trkpt lat="45.39875034699998" lon="8.014747847528012"><ele>337.0</ele><time>2026-04-21T10:25:03Z</time></trkpt><trkpt lat="45.39883234588618" lon="8.01481099463408"><ele>337.0</ele><time>2026-04-21T10:25:04Z</time></trkpt><trkpt lat="45.39891594477535" lon="8.014884090144017"><ele>337.0</ele><time>2026-04-21T10:25:05Z</time></trkpt><trkpt lat="45.39901680492792" lon="8.014973321986886"><ele>335.75</ele><time>2026-04-21T10:25:06Z</time></trkpt><trkpt lat="45.39911927191083" lon="8.015073130073677"><ele>334.5</ele><time>2026-04-21T10:25:07Z</time></trkpt><trkpt lat="45.399204290127386" lon="8.015154704509584"><ele>333.25</ele><time>2026-04-21T10:25:08Z</time></trkpt><trkpt lat="45.39930621921058" lon="8.01524405743781"><ele>332.0</ele><time>2026-04-21T10:25:09Z</time></trkpt><trkpt lat="45.399395507263925" lon="8.015332294858903"><ele>332.0</ele><time>2026-04-21T10:25:10Z</time></trkpt><trkpt lat="45.399497211419344" lon="8.01541393743564"><ele>332.0</ele><time>2026-04-21T10:25:11Z</time></trkpt><trkpt lat="45.39957356558639" lon="8.015493508496554"><ele>332.0</ele><time>2026-04-21T10:25:12Z</time></trkpt><trkpt lat="45.39962922478063" lon="8.015569041236068"><ele>332.0</ele><time>2026-04-21T10:25:13Z</time></trkpt><trkpt lat="45.39970104433786" lon="8.015657774821923"><ele>332.0</ele><time>2026-04-21T10:25:14Z</time></trkpt><trkpt lat="45.39975512133171" lon="8.015760853163929"><ele>329.6</ele><time>2026-04-21T10:25:15Z</time></trkpt><trkpt lat="45.39978369969727" lon="8.015883226541888"><ele>327.20000000000005</ele><time>2026-04-21T10:25:16Z</time></trkpt><trkpt lat="45.39980330629721" lon="8.016030113411134"><ele>324.8</ele><time>2026-04-21T10:25:17Z</time></trkpt><trkpt lat="45.39981163466317" lon="8.016177198653473"><ele>322.4</ele><time>2026-04-21T10:25:18Z</time></trkpt><trkpt lat="45.399813903991245" lon="8.016284158444929"><ele>320.0</ele><time>2026-04-21T10:25:19Z</time></trkpt><trkpt lat="45.39983834825497" lon="8.01640871761774"><ele>320.0</ele><time>2026-04-21T10:25:21Z</time></trkpt><trkpt lat="45.39978886681649" lon="8.016505870311885"><ele>320.0</ele><time>2026-04-21T10:25:30Z</time></trkpt><trkpt lat="45.39972258945323" lon="8.016544781098634"><ele>320.0</ele><time>2026-04-21T10:25:32Z</time></trkpt><trkpt lat="45.399666878778646" lon="8.016593322250372"><ele>320.0</ele><time>2026-04-21T10:25:56.999Z</time></trkpt><trkpt lat="45.39958726226452" lon="8.016664302014169"><ele>320.0</ele><time>2026-04-21T10:25:58.999Z</time></trkpt><trkpt lat="45.399516989786605" lon="8.016750126139286"><ele>320.0</ele><time>2026-04-21T10:26:00.999Z</time></trkpt><trkpt lat="45.399404276362915" lon="8.01683779212953"><ele>322.5</ele><time>2026-04-21T10:26:02.999Z</time></trkpt><trkpt lat="45.39934048074108" lon="8.016893785469813"><ele>325.0</ele><time>2026-04-21T10:26:03.999Z</time></trkpt><trkpt lat="45.3992558142853" lon="8.016953089910372"><ele>327.5</ele><time>2026-04-21T10:26:05.999Z</time></trkpt><trkpt lat="45.3991908138965" lon="8.016974791430503"><ele>330.0</ele><time>2026-04-21T10:26:07.999Z</time></trkpt><trkpt lat="45.39910636843216" lon="8.017015193924054"><ele>332.5</ele><time>2026-04-21T10:26:09.999Z</time></trkpt><trkpt lat="45.39901278312045" lon="8.017075867590401"><ele>335.0</ele><time>2026-04-21T10:26:11.999Z</time></trkpt><trkpt lat="45.39896528480611" lon="8.017144198745818"><ele>335.0</ele><time>2026-04-21T10:26:12.999Z</time></trkpt><trkpt lat="45.398921636370204" lon="8.01724508630911"><ele>335.0</ele><time>2026-04-21T10:26:13.999Z</time></trkpt><trkpt lat="45.39888013518574" lon="8.01736580045376"><ele>335.0</ele><time>2026-04-21T10:26:14.999Z</time></trkpt><trkpt lat="45.39884354467726" lon="8.017459828834935"><ele>335.0</ele><time>2026-04-21T10:26:15.999Z</time></trkpt><trkpt lat="45.398809047099036" lon="8.017567012128634"><ele>335.0</ele><time>2026-04-21T10:26:16.999Z</time></trkpt><trkpt lat="45.398776175255" lon="8.017662468465344"><ele>335.0</ele><time>2026-04-21T10:26:17.999Z</time></trkpt><trkpt lat="45.39873236070587" lon="8.017776363854365"><ele>335.6666666666667</ele><time>2026-04-21T10:26:18.999Z</time></trkpt><trkpt lat="45.39868925761753" lon="8.01789050793923"><ele>336.33333333333337</ele><time>2026-04-21T10:26:19.999Z</time></trkpt><trkpt lat="45.398636186696834" lon="8.017978024413134"><ele>337.0</ele><time>2026-04-21T10:26:20.999Z</time></trkpt><trkpt lat="45.39859207988484" lon="8.018083165370872"><ele>337.6666666666667</ele><time>2026-04-21T10:26:21.999Z</time></trkpt><trkpt lat="45.39853780660133" lon="8.018197608381689"><ele>338.3333333333333</ele><time>2026-04-21T10:26:22.999Z</time></trkpt><trkpt lat="45.398485625548524" lon="8.018292985677647"><ele>339.0</ele><time>2026-04-21T10:26:23.999Z</time></trkpt><trkpt lat="45.39844476977588" lon="8.018377670192285"><ele>339.0</ele><time>2026-04-21T10:26:24.999Z</time></trkpt><trkpt lat="45.398390650331876" lon="8.0184830536253"><ele>339.0</ele><time>2026-04-21T10:26:25.999Z</time></trkpt><trkpt lat="45.39832436793557" lon="8.018609744123843"><ele>339.0</ele><time>2026-04-21T10:26:26.999Z</time></trkpt><trkpt lat="45.398273418120084" lon="8.018723508035663"><ele>339.0</ele><time>2026-04-21T10:26:27.999Z</time></trkpt><trkpt lat="45.39821459245666" lon="8.018816700542065"><ele>339.0</ele><time>2026-04-21T10:26:28.999Z</time></trkpt><trkpt lat="45.39816541010218" lon="8.018916418176914"><ele>339.0</ele><time>2026-04-21T10:26:29.999Z</time></trkpt><trkpt lat="45.398127784538964" lon="8.01901755264498"><ele>339.0</ele><time>2026-04-21T10:26:30.999Z</time></trkpt><trkpt lat="45.39808591458917" lon="8.019089590301471"><ele>339.0</ele><time>2026-04-21T10:26:31.999Z</time></trkpt><trkpt lat="45.39804545681907" lon="8.019167787662106"><ele>339.0</ele><time>2026-04-21T10:26:32.999Z</time></trkpt><trkpt lat="45.39800340133868" lon="8.019242035017482"><ele>339.0</ele><time>2026-04-21T10:26:33.999Z</time></trkpt><trkpt lat="45.39794646989871" lon="8.019333001767432"><ele>339.0</ele><time>2026-04-21T10:26:34.999Z</time></trkpt><trkpt lat="45.39789832523751" lon="8.019430047907067"><ele>340.0</ele><time>2026-04-21T10:26:35.999Z</time></trkpt><trkpt lat="45.397855289436905" lon="8.019511780226635"><ele>341.0</ele><time>2026-04-21T10:26:36.999Z</time></trkpt><trkpt lat="45.39781051056067" lon="8.019592765539773"><ele>342.0</ele><time>2026-04-21T10:26:37.999Z</time></trkpt><trkpt lat="45.39773671512912" lon="8.019627752498863"><ele>343.0</ele><time>2026-04-21T10:26:39.999Z</time></trkpt><trkpt lat="45.39766736885974" lon="8.019637845836014"><ele>344.0</ele><time>2026-04-21T10:26:41.999Z</time></trkpt><trkpt lat="45.3976003655229" lon="8.019652065550293"><ele>345.0</ele><time>2026-04-21T10:26:49.999Z</time></trkpt><trkpt lat="45.39752163441714" lon="8.019681249327276"><ele>346.0</ele><time>2026-04-21T10:26:51.999Z</time></trkpt><trkpt lat="45.39745300781579" lon="8.019732690510672"><ele>346.0</ele><time>2026-04-21T10:26:54Z</time></trkpt><trkpt lat="45.397373212524094" lon="8.01976103637144"><ele>346.0</ele><time>2026-04-21T10:26:56Z</time></trkpt><trkpt lat="45.39725620066536" lon="8.019835162635797"><ele>346.0</ele><time>2026-04-21T10:26:58Z</time></trkpt><trkpt lat="45.39716552948659" lon="8.019931585653259"><ele>346.0</ele><time>2026-04-21T10:27:00Z</time></trkpt><trkpt lat="45.39706040164632" lon="8.020019882140542"><ele>346.0</ele><time>2026-04-21T10:27:02Z</time></trkpt><trkpt lat="45.3969524477601" lon="8.020124176427553"><ele>347.6</ele><time>2026-04-21T10:27:04Z</time></trkpt><trkpt lat="45.39686620025216" lon="8.020229707991122"><ele>349.20000000000005</ele><time>2026-04-21T10:27:06Z</time></trkpt><trkpt lat="45.3967833048324" lon="8.02033980875043"><ele>350.79999999999995</ele><time>2026-04-21T10:27:08Z</time></trkpt><trkpt lat="45.39671782125029" lon="8.020445187102768"><ele>352.4</ele><time>2026-04-21T10:27:10Z</time></trkpt><trkpt lat="45.39667435396708" lon="8.020603575087595"><ele>354.0</ele><time>2026-04-21T10:27:12Z</time></trkpt><trkpt lat="45.3966600176925" lon="8.020701855871927"><ele>354.0</ele><time>2026-04-21T10:27:13Z</time></trkpt><trkpt lat="45.396658204368855" lon="8.020797290672387"><ele>354.0</ele><time>2026-04-21T10:27:14Z</time></trkpt><trkpt lat="45.39662685087416" lon="8.02093240685054"><ele>354.0</ele><time>2026-04-21T10:27:16Z</time></trkpt><trkpt lat="45.396574061770295" lon="8.021044523762432"><ele>354.0</ele><time>2026-04-21T10:27:18Z</time></trkpt><trkpt lat="45.396497260389545" lon="8.021138307678505"><ele>354.0</ele><time>2026-04-21T10:27:20Z</time></trkpt><trkpt lat="45.39644194723785" lon="8.021203189767926"><ele>354.0</ele><time>2026-04-21T10:27:21Z</time></trkpt><trkpt lat="45.39636278162014" lon="8.021312763855457"><ele>355.2</ele><time>2026-04-21T10:27:23Z</time></trkpt><trkpt lat="45.39632393368761" lon="8.021469158675679"><ele>356.4</ele><time>2026-04-21T10:27:25Z</time></trkpt><trkpt lat="45.39625058963916" lon="8.021595163841692"><ele>357.6</ele><time>2026-04-21T10:27:27Z</time></trkpt><trkpt lat="45.39616427532244" lon="8.021735539409233"><ele>358.8</ele><time>2026-04-21T10:27:29Z</time></trkpt><trkpt lat="45.396104582458996" lon="8.021816044707531"><ele>360.0</ele><time>2026-04-21T10:27:30Z</time></trkpt><trkpt lat="45.39603722014521" lon="8.021883872699732"><ele>360.0</ele><time>2026-04-21T10:27:31Z</time></trkpt><trkpt lat="45.39597949400604" lon="8.021920319487533"><ele>360.0</ele><time>2026-04-21T10:27:32Z</time></trkpt><trkpt lat="45.39588640980212" lon="8.022009666457011"><ele>360.0</ele><time>2026-04-21T10:27:34Z</time></trkpt><trkpt lat="45.3958309920752" lon="8.02206895637768"><ele>360.0</ele><time>2026-04-21T10:27:35Z</time></trkpt><trkpt lat="45.39576227356153" lon="8.022118582352535"><ele>360.0</ele><time>2026-04-21T10:27:36Z</time></trkpt><trkpt lat="45.395675154212576" lon="8.022157352679526"><ele>360.0</ele><time>2026-04-21T10:27:37Z</time></trkpt><trkpt lat="45.395600716674984" lon="8.022183412745482"><ele>360.0</ele><time>2026-04-21T10:27:38Z</time></trkpt><trkpt lat="45.395534248233425" lon="8.022213144655405"><ele>360.0</ele><time>2026-04-21T10:27:39Z</time></trkpt><trkpt lat="45.395477898940335" lon="8.022308092358147"><ele>360.0</ele><time>2026-04-21T10:27:41Z</time></trkpt><trkpt lat="45.395382775125775" lon="8.022403821641742"><ele>360.0</ele><time>2026-04-21T10:27:43Z</time></trkpt><trkpt lat="45.39531804592874" lon="8.022469652647077"><ele>360.0</ele><time>2026-04-21T10:27:44Z</time></trkpt><trkpt lat="45.39525912313241" lon="8.022514149126835"><ele>360.0</ele><time>2026-04-21T10:27:45Z</time></trkpt><trkpt lat="45.39516139674963" lon="8.02262812053644"><ele>360.6666666666667</ele><time>2026-04-21T10:27:47Z</time></trkpt><trkpt lat="45.39511677894206" lon="8.022706174530205"><ele>361.3333333333333</ele><time>2026-04-21T10:27:47.999Z</time></trkpt><trkpt lat="45.39506889739492" lon="8.022808522370006"><ele>362.0</ele><time>2026-04-21T10:27:48.999Z</time></trkpt><trkpt lat="45.39503227091051" lon="8.022905430270146"><ele>362.66666666666663</ele><time>2026-04-21T10:27:49.999Z</time></trkpt><trkpt lat="45.39498540673177" lon="8.02298643716454"><ele>363.3333333333333</ele><time>2026-04-21T10:27:50.999Z</time></trkpt><trkpt lat="45.39492245485755" lon="8.023049236063624"><ele>364.0</ele><time>2026-04-21T10:27:51.999Z</time></trkpt><trkpt lat="45.394860292481304" lon="8.023102370369733"><ele>364.0</ele><time>2026-04-21T10:27:52.999Z</time></trkpt><trkpt lat="45.39476734949582" lon="8.023195851318953"><ele>364.0</ele><time>2026-04-21T10:27:54.999Z</time></trkpt><trkpt lat="45.39467225622993" lon="8.023205911484741"><ele>364.0</ele><time>2026-04-21T10:27:56.999Z</time></trkpt><trkpt lat="45.394605484786624" lon="8.023188290218815"><ele>364.0</ele><time>2026-04-21T10:27:57.999Z</time></trkpt><trkpt lat="45.394542165812496" lon="8.02319750450526"><ele>364.0</ele><time>2026-04-21T10:27:58.999Z</time></trkpt><trkpt lat="45.3944692376607" lon="8.023297858860293"><ele>364.0</ele><time>2026-04-21T10:28:00.999Z</time></trkpt><trkpt lat="45.39439291833408" lon="8.023490802481312"><ele>365.79999999999995</ele><time>2026-04-21T10:28:02.999Z</time></trkpt><trkpt lat="45.39435658407176" lon="8.023590209502393"><ele>367.59999999999997</ele><time>2026-04-21T10:28:03.999Z</time></trkpt><trkpt lat="45.39432188858032" lon="8.023702059819039"><ele>369.4</ele><time>2026-04-21T10:28:06.999Z</time></trkpt><trkpt lat="45.39428063944437" lon="8.02386137366865"><ele>371.2</ele><time>2026-04-21T10:28:08.999Z</time></trkpt><trkpt lat="45.394247567649835" lon="8.023960294447017"><ele>373.0</ele><time>2026-04-21T10:28:09.999Z</time></trkpt><trkpt lat="45.39419829699355" lon="8.024111644331786"><ele>370.4</ele><time>2026-04-21T10:28:11.999Z</time></trkpt><trkpt lat="45.394149476345646" lon="8.024228885560092"><ele>367.79999999999995</ele><time>2026-04-21T10:28:13.999Z</time></trkpt><trkpt lat="45.39411117549675" lon="8.024316115225908"><ele>365.2</ele><time>2026-04-21T10:28:14.999Z</time></trkpt><trkpt lat="45.394023097786224" lon="8.024421939389724"><ele>362.6</ele><time>2026-04-21T10:28:16.999Z</time></trkpt><trkpt lat="45.39393383848626" lon="8.024507921573708"><ele>360.0</ele><time>2026-04-21T10:28:18.999Z</time></trkpt><trkpt lat="45.39387093189389" lon="8.0245649124136"><ele>364.0</ele><time>2026-04-21T10:28:19.999Z</time></trkpt><trkpt lat="45.393781148108424" lon="8.02463313683622"><ele>368.0</ele><time>2026-04-21T10:28:20.999Z</time></trkpt><trkpt lat="45.393714305103835" lon="8.024703968119743"><ele>372.0</ele><time>2026-04-21T10:28:21.999Z</time></trkpt><trkpt lat="45.39366284003607" lon="8.024785924596614"><ele>376.0</ele><time>2026-04-21T10:28:22.999Z</time></trkpt><trkpt lat="45.3935705245136" lon="8.024891009861756"><ele>380.0</ele><time>2026-04-21T10:28:24.999Z</time></trkpt><trkpt lat="45.39352623149907" lon="8.024974829641756"><ele>377.0</ele><time>2026-04-21T10:28:25.999Z</time></trkpt><trkpt lat="45.39349949220604" lon="8.02506019703837"><ele>374.0</ele><time>2026-04-21T10:28:26.999Z</time></trkpt><trkpt lat="45.39345768821308" lon="8.02520358618429"><ele>371.0</ele><time>2026-04-21T10:28:28.999Z</time></trkpt><trkpt lat="45.393426142711405" lon="8.025306657285595"><ele>368.0</ele><time>2026-04-21T10:28:30.999Z</time></trkpt><trkpt lat="45.39339771310617" lon="8.025418399849501"><ele>365.0</ele><time>2026-04-21T10:28:32.999Z</time></trkpt><trkpt lat="45.393353559797035" lon="8.025533575893563"><ele>362.0</ele><time>2026-04-21T10:28:34.999Z</time></trkpt><trkpt lat="45.393349936077136" lon="8.025632957089426"><ele>362.0</ele><time>2026-04-21T10:28:36.999Z</time></trkpt><trkpt lat="45.39338834272775" lon="8.025784111435305"><ele>362.0</ele><time>2026-04-21T10:28:38.999Z</time></trkpt><trkpt lat="45.393403169496175" lon="8.025893014389904"><ele>362.0</ele><time>2026-04-21T10:28:39.999Z</time></trkpt><trkpt lat="45.39345327822417" lon="8.026051289847134"><ele>362.0</ele><time>2026-04-21T10:28:41.999Z</time></trkpt><trkpt lat="45.39344966165891" lon="8.02614874032928"><ele>362.0</ele><time>2026-04-21T10:28:42.999Z</time></trkpt><trkpt lat="45.393438315965724" lon="8.026242591780504"><ele>362.0</ele><time>2026-04-21T10:28:45.999Z</time></trkpt><trkpt lat="45.39339596059474" lon="8.026363772372651"><ele>361.0</ele><time>2026-04-21T10:28:47.999Z</time></trkpt><trkpt lat="45.393358196326666" lon="8.026456688807404"><ele>360.0</ele><time>2026-04-21T10:28:48.999Z</time></trkpt><trkpt lat="45.39332140272808" lon="8.02656634897469"><ele>359.0</ele><time>2026-04-21T10:28:49.999Z</time></trkpt><trkpt lat="45.3932867014071" lon="8.026679863578128"><ele>358.0</ele><time>2026-04-21T10:28:50.999Z</time></trkpt><trkpt lat="45.39327787039514" lon="8.026814848647458"><ele>357.0</ele><time>2026-04-21T10:28:51.999Z</time></trkpt><trkpt lat="45.39324900965576" lon="8.02693152460146"><ele>356.0</ele><time>2026-04-21T10:28:52.999Z</time></trkpt><trkpt lat="45.393221975783014" lon="8.027036877572797"><ele>356.0</ele><time>2026-04-21T10:28:53.999Z</time></trkpt><trkpt lat="45.39318857615351" lon="8.027126161162647"><ele>356.0</ele><time>2026-04-21T10:28:54.999Z</time></trkpt><trkpt lat="45.393124408016746" lon="8.027218100170423"><ele>356.0</ele><time>2026-04-21T10:28:55.999Z</time></trkpt><trkpt lat="45.39307751798937" lon="8.027331727279957"><ele>356.0</ele><time>2026-04-21T10:28:56.999Z</time></trkpt><trkpt lat="45.39304178936504" lon="8.027457592269894"><ele>356.0</ele><time>2026-04-21T10:28:59Z</time></trkpt><trkpt lat="45.39297342007885" lon="8.027509647253176"><ele>356.0</ele><time>2026-04-21T10:29:01Z</time></trkpt><trkpt lat="45.392941863296436" lon="8.027671059260229"><ele>358.33333333333337</ele><time>2026-04-21T10:29:03Z</time></trkpt><trkpt lat="45.39292563944558" lon="8.027800173906796"><ele>360.6666666666667</ele><time>2026-04-21T10:29:04Z</time></trkpt><trkpt lat="45.392873566367854" lon="8.027891757765765"><ele>363.0</ele><time>2026-04-21T10:29:05Z</time></trkpt><trkpt lat="45.39281207130888" lon="8.027973250422663"><ele>365.3333333333333</ele><time>2026-04-21T10:29:06Z</time></trkpt><trkpt lat="45.3927678139525" lon="8.028064760607302"><ele>367.66666666666663</ele><time>2026-04-21T10:29:07Z</time></trkpt><trkpt lat="45.39272486653758" lon="8.028165705466526"><ele>370.0</ele><time>2026-04-21T10:29:09Z</time></trkpt><trkpt lat="45.392662347174905" lon="8.028244309291024"><ele>367.3333333333333</ele><time>2026-04-21T10:29:11Z</time></trkpt><trkpt lat="45.39262297160604" lon="8.02832708951724"><ele>364.66666666666663</ele><time>2026-04-21T10:29:12Z</time></trkpt><trkpt lat="45.39257028558798" lon="8.028419472596578"><ele>362.0</ele><time>2026-04-21T10:29:13Z</time></trkpt><trkpt lat="45.39253796724145" lon="8.028522073687904"><ele>359.3333333333333</ele><time>2026-04-21T10:29:14Z</time></trkpt><trkpt lat="45.39251216259971" lon="8.02862845694887"><ele>356.6666666666667</ele><time>2026-04-21T10:29:15Z</time></trkpt><trkpt lat="45.39249113077195" lon="8.028754667979559"><ele>354.0</ele><time>2026-04-21T10:29:16Z</time></trkpt><trkpt lat="45.3924649967536" lon="8.028873456003522"><ele>354.0</ele><time>2026-04-21T10:29:17Z</time></trkpt><trkpt lat="45.39243582029695" lon="8.028972350254232"><ele>354.0</ele><time>2026-04-21T10:29:18Z</time></trkpt><trkpt lat="45.392355287553755" lon="8.02913409301414"><ele>354.0</ele><time>2026-04-21T10:29:20Z</time></trkpt><trkpt lat="45.39228756285702" lon="8.029226205810023"><ele>354.0</ele><time>2026-04-21T10:29:21Z</time></trkpt><trkpt lat="45.39222457085069" lon="8.029309267935371"><ele>354.0</ele><time>2026-04-21T10:29:22Z</time></trkpt><trkpt lat="45.392172693342744" lon="8.029387870948938"><ele>356.8333333333333</ele><time>2026-04-21T10:29:23Z</time></trkpt><trkpt lat="45.39212108555194" lon="8.029463760097714"><ele>359.6666666666667</ele><time>2026-04-21T10:29:24Z</time></trkpt><trkpt lat="45.39207063809595" lon="8.029528643854425"><ele>362.5</ele><time>2026-04-21T10:29:25Z</time></trkpt><trkpt lat="45.3920034006988" lon="8.029631159800589"><ele>365.33333333333337</ele><time>2026-04-21T10:29:27Z</time></trkpt><trkpt lat="45.39195703078828" lon="8.029716652697555"><ele>368.1666666666667</ele><time>2026-04-21T10:29:33Z</time></trkpt><trkpt lat="45.39190260156044" lon="8.029782659865177"><ele>371.0</ele><time>2026-04-21T10:29:36Z</time></trkpt><trkpt lat="45.391857343545354" lon="8.029852244304085"><ele>371.0</ele><time>2026-04-21T10:29:37Z</time></trkpt><trkpt lat="45.39182038034703" lon="8.0299411300461"><ele>371.0</ele><time>2026-04-21T10:29:38Z</time></trkpt><trkpt lat="45.39177436169983" lon="8.030007951120167"><ele>371.0</ele><time>2026-04-21T10:29:39Z</time></trkpt><trkpt lat="45.39171547809864" lon="8.030058896648566"><ele>371.0</ele><time>2026-04-21T10:29:40Z</time></trkpt><trkpt lat="45.39161466946098" lon="8.030103556914957"><ele>371.0</ele><time>2026-04-21T10:29:42Z</time></trkpt><trkpt lat="45.39152797412179" lon="8.030149930336458"><ele>371.0</ele><time>2026-04-21T10:29:43.999Z</time></trkpt><trkpt lat="45.39145964476232" lon="8.030209483006281"><ele>370.83333333333337</ele><time>2026-04-21T10:29:44.999Z</time></trkpt><trkpt lat="45.391380665620815" lon="8.030265788500012"><ele>370.6666666666667</ele><time>2026-04-21T10:29:45.999Z</time></trkpt><trkpt lat="45.3912897185989" lon="8.030305827253187"><ele>370.5</ele><time>2026-04-21T10:29:46.999Z</time></trkpt><trkpt lat="45.391212067148736" lon="8.030340556033753"><ele>370.3333333333333</ele><time>2026-04-21T10:29:47.999Z</time></trkpt><trkpt lat="45.39114243406882" lon="8.030378911620671"><ele>370.16666666666663</ele><time>2026-04-21T10:29:48.999Z</time></trkpt><trkpt lat="45.39106592165265" lon="8.030417208728265"><ele>370.0</ele><time>2026-04-21T10:29:49.999Z</time></trkpt><trkpt lat="45.39098112948564" lon="8.030437532022402"><ele>369.99999999999994</ele><time>2026-04-21T10:29:50.999Z</time></trkpt><trkpt lat="45.39091879178794" lon="8.030457863596244"><ele>370.0</ele><time>2026-04-21T10:29:51.999Z</time></trkpt><trkpt lat="45.390840257109446" lon="8.03043927242811"><ele>370.0</ele><time>2026-04-21T10:29:53.999Z</time></trkpt><trkpt lat="45.390764835167026" lon="8.030439971015689"><ele>370.0</ele><time>2026-04-21T10:29:55.999Z</time></trkpt><trkpt lat="45.39069781650558" lon="8.030470322676614"><ele>370.0</ele><time>2026-04-21T10:30:14.999Z</time></trkpt><trkpt lat="45.390620663461156" lon="8.030452858007644"><ele>369.99999999999994</ele><time>2026-04-21T10:30:18.999Z</time></trkpt><trkpt lat="45.39055668841821" lon="8.03044899616804"><ele>370.0</ele><time>2026-04-21T10:30:21.999Z</time></trkpt><trkpt lat="45.39047400038041" lon="8.030456682235956"><ele>368.2857142857143</ele><time>2026-04-21T10:30:26.999Z</time></trkpt><trkpt lat="45.39040660369859" lon="8.030469445102655"><ele>366.57142857142856</ele><time>2026-04-21T10:30:29.999Z</time></trkpt><trkpt lat="45.3903338623529" lon="8.030473841064598"><ele>364.8571428571429</ele><time>2026-04-21T10:30:33.999Z</time></trkpt><trkpt lat="45.39025194283819" lon="8.030459092194402"><ele>363.1428571428571</ele><time>2026-04-21T10:30:36.999Z</time></trkpt><trkpt lat="45.390184965545714" lon="8.030470903917585"><ele>361.42857142857144</ele><time>2026-04-21T10:30:39.999Z</time></trkpt><trkpt lat="45.39011147853047" lon="8.030513513857715"><ele>359.7142857142857</ele><time>2026-04-21T10:30:42.999Z</time></trkpt><trkpt lat="45.39004289902359" lon="8.030517733181455"><ele>358.0</ele><time>2026-04-21T10:30:44.999Z</time></trkpt><trkpt lat="45.38997683618443" lon="8.030502244635633"><ele>358.0</ele><time>2026-04-21T10:30:46.999Z</time></trkpt><trkpt lat="45.389885685433796" lon="8.03049630704723"><ele>358.0</ele><time>2026-04-21T10:30:49.999Z</time></trkpt><trkpt lat="45.38982031925215" lon="8.03051089621056"><ele>358.0</ele><time>2026-04-21T10:30:51.999Z</time></trkpt><trkpt lat="45.38972550477809" lon="8.030523879263606"><ele>358.0</ele><time>2026-04-21T10:30:53.999Z</time></trkpt><trkpt lat="45.38965518047227" lon="8.030512597993688"><ele>358.0</ele><time>2026-04-21T10:30:55.999Z</time></trkpt><trkpt lat="45.38958233759542" lon="8.030551125500834"><ele>358.0</ele><time>2026-04-21T10:30:58.999Z</time></trkpt><trkpt lat="45.389543309038054" lon="8.030632786370587"><ele>357.0</ele><time>2026-04-21T10:31:48.999Z</time></trkpt><trkpt lat="45.38956058501599" lon="8.030742692699679"><ele>356.0</ele><time>2026-04-21T10:31:52.999Z</time></trkpt><trkpt lat="45.389581349634504" lon="8.030839613574562"><ele>355.0</ele><time>2026-04-21T10:31:54.999Z</time></trkpt><trkpt lat="45.38956391683638" lon="8.030988293649589"><ele>354.0</ele><time>2026-04-21T10:31:56.999Z</time></trkpt><trkpt lat="45.389592171199816" lon="8.031120167012821"><ele>353.0</ele><time>2026-04-21T10:31:58.999Z</time></trkpt><trkpt lat="45.38964410479208" lon="8.031193125301058"><ele>352.0</ele><time>2026-04-21T10:31:59.999Z</time></trkpt><trkpt lat="45.38965646767325" lon="8.031307445169082"><ele>351.20000000000005</ele><time>2026-04-21T10:32:00.999Z</time></trkpt><trkpt lat="45.38969553287508" lon="8.031443316131407"><ele>350.4</ele><time>2026-04-21T10:32:02.999Z</time></trkpt><trkpt lat="45.38974292015578" lon="8.031612880687014"><ele>349.6</ele><time>2026-04-21T10:32:04.999Z</time></trkpt><trkpt lat="45.38976891736863" lon="8.031723620281364"><ele>348.79999999999995</ele><time>2026-04-21T10:32:05.999Z</time></trkpt><trkpt lat="45.38979545383923" lon="8.031817781560932"><ele>348.0</ele><time>2026-04-21T10:32:06.999Z</time></trkpt><trkpt lat="45.38980718885246" lon="8.031990756918002"><ele>346.2</ele><time>2026-04-21T10:32:08.999Z</time></trkpt><trkpt lat="45.38980159209699" lon="8.032153144826482"><ele>344.4</ele><time>2026-04-21T10:32:10.999Z</time></trkpt><trkpt lat="45.38978090965214" lon="8.032327767522444"><ele>342.59999999999997</ele><time>2026-04-21T10:32:12.999Z</time></trkpt><trkpt lat="45.38978786310342" lon="8.032484378888634"><ele>340.79999999999995</ele><time>2026-04-21T10:32:14.999Z</time></trkpt><trkpt lat="45.389794446210445" lon="8.032579637745611"><ele>339.0</ele><time>2026-04-21T10:32:15.999Z</time></trkpt><trkpt lat="45.38979406589427" lon="8.032697735993253"><ele>338.8333333333333</ele><time>2026-04-21T10:32:17.999Z</time></trkpt><trkpt lat="45.38977552449807" lon="8.032783536798432"><ele>338.6666666666667</ele><time>2026-04-21T10:32:18.999Z</time></trkpt><trkpt lat="45.38974023213296" lon="8.032882198559525"><ele>338.5</ele><time>2026-04-21T10:32:19.999Z</time></trkpt><trkpt lat="45.38970091386981" lon="8.032958028351448"><ele>338.33333333333337</ele><time>2026-04-21T10:32:20.999Z</time></trkpt><trkpt lat="45.38965884929132" lon="8.033061384216337"><ele>338.1666666666667</ele><time>2026-04-21T10:32:21.999Z</time></trkpt><trkpt lat="45.38961228439339" lon="8.033145490429165"><ele>338.0</ele><time>2026-04-21T10:32:22.999Z</time></trkpt><trkpt lat="45.38954599531938" lon="8.033332289023535"><ele>342.4</ele><time>2026-04-21T10:32:24.999Z</time></trkpt><trkpt lat="45.389507775415666" lon="8.033449589423032"><ele>346.79999999999995</ele><time>2026-04-21T10:32:25.999Z</time></trkpt><trkpt lat="45.38949437115725" lon="8.033551513640564"><ele>351.2</ele><time>2026-04-21T10:32:26.999Z</time></trkpt><trkpt lat="45.389475137680606" lon="8.03369549941942"><ele>355.6</ele><time>2026-04-21T10:32:27.999Z</time></trkpt><trkpt lat="45.38945146106781" lon="8.033827199678122"><ele>360.0</ele><time>2026-04-21T10:32:28.999Z</time></trkpt><trkpt lat="45.389420692096515" lon="8.033955485654307"><ele>360.0</ele><time>2026-04-21T10:32:29.999Z</time></trkpt><trkpt lat="45.38937600564425" lon="8.034092475076147"><ele>360.0</ele><time>2026-04-21T10:32:30.999Z</time></trkpt><trkpt lat="45.389329586791" lon="8.034220623294983"><ele>360.0</ele><time>2026-04-21T10:32:31.999Z</time></trkpt><trkpt lat="45.38930281952377" lon="8.03435120496757"><ele>360.0</ele><time>2026-04-21T10:32:32.999Z</time></trkpt><trkpt lat="45.38929027839982" lon="8.034444403075874"><ele>360.0</ele><time>2026-04-21T10:32:33.999Z</time></trkpt><trkpt lat="45.38930465700007" lon="8.034555564138863"><ele>360.0</ele><time>2026-04-21T10:32:34.999Z</time></trkpt><trkpt lat="45.38931098149754" lon="8.034693931368217"><ele>358.3333333333333</ele><time>2026-04-21T10:32:35.999Z</time></trkpt><trkpt lat="45.389287944527894" lon="8.034826946528439"><ele>356.6666666666667</ele><time>2026-04-21T10:32:36.999Z</time></trkpt><trkpt lat="45.38925543218658" lon="8.03495996424338"><ele>355.0</ele><time>2026-04-21T10:32:37.999Z</time></trkpt><trkpt lat="45.38924526624675" lon="8.035092028381452"><ele>353.33333333333337</ele><time>2026-04-21T10:32:38.999Z</time></trkpt><trkpt lat="45.389240718024816" lon="8.035206573124276"><ele>351.6666666666667</ele><time>2026-04-21T10:32:39.999Z</time></trkpt><trkpt lat="45.38923555723337" lon="8.035302381491794"><ele>350.0</ele><time>2026-04-21T10:32:40.999Z</time></trkpt><trkpt lat="45.38921069149864" lon="8.035425983876578"><ele>349.2</ele><time>2026-04-21T10:32:41.999Z</time></trkpt><trkpt lat="45.38916237596911" lon="8.035563361337541"><ele>348.4</ele><time>2026-04-21T10:32:42.999Z</time></trkpt><trkpt lat="45.38911203386948" lon="8.035704720304452"><ele>347.6</ele><time>2026-04-21T10:32:43.999Z</time></trkpt><trkpt lat="45.389082633962865" lon="8.035805843609179"><ele>346.8</ele><time>2026-04-21T10:32:44.999Z</time></trkpt><trkpt lat="45.38904205740141" lon="8.035905133480023"><ele>346.0</ele><time>2026-04-21T10:32:45.999Z</time></trkpt><trkpt lat="45.38899316056151" lon="8.036002575101076"><ele>344.8333333333333</ele><time>2026-04-21T10:32:46.999Z</time></trkpt><trkpt lat="45.38893990072052" lon="8.036087434953457"><ele>343.66666666666663</ele><time>2026-04-21T10:32:47.999Z</time></trkpt><trkpt lat="45.38886966039652" lon="8.036161741161155"><ele>342.5</ele><time>2026-04-21T10:32:48.999Z</time></trkpt><trkpt lat="45.388802415201546" lon="8.036245677494481"><ele>341.3333333333333</ele><time>2026-04-21T10:32:49.999Z</time></trkpt><trkpt lat="45.38872998155618" lon="8.036344129120717"><ele>340.1666666666667</ele><time>2026-04-21T10:32:50.999Z</time></trkpt><trkpt lat="45.38866516431386" lon="8.036421537774531"><ele>339.0</ele><time>2026-04-21T10:32:51.999Z</time></trkpt><trkpt lat="45.38859513390108" lon="8.036499923083484"><ele>341.6666666666667</ele><time>2026-04-21T10:32:52.999Z</time></trkpt><trkpt lat="45.38851731965009" lon="8.036591078034869"><ele>344.3333333333333</ele><time>2026-04-21T10:32:53.999Z</time></trkpt><trkpt lat="45.388439891087735" lon="8.03670054788111"><ele>347.0</ele><time>2026-04-21T10:32:54.999Z</time></trkpt><trkpt lat="45.38837732989818" lon="8.03679953062161"><ele>349.66666666666663</ele><time>2026-04-21T10:32:55.999Z</time></trkpt><trkpt lat="45.38832840196413" lon="8.036873460466719"><ele>352.3333333333333</ele><time>2026-04-21T10:32:56.999Z</time></trkpt><trkpt lat="45.38829093587482" lon="8.03695327068231"><ele>355.0</ele><time>2026-04-21T10:32:57.999Z</time></trkpt><trkpt lat="45.38826434982853" lon="8.037039170506457"><ele>355.0</ele><time>2026-04-21T10:32:58.999Z</time></trkpt><trkpt lat="45.38822657642081" lon="8.037184997344436"><ele>355.0</ele><time>2026-04-21T10:32:59.999Z</time></trkpt><trkpt lat="45.3882051873426" lon="8.037328322479963"><ele>355.0</ele><time>2026-04-21T10:33:00.999Z</time></trkpt><trkpt lat="45.38817221128054" lon="8.03746581707495"><ele>355.0</ele><time>2026-04-21T10:33:01.999Z</time></trkpt><trkpt lat="45.38813815006408" lon="8.037599026698198"><ele>355.0</ele><time>2026-04-21T10:33:02.999Z</time></trkpt><trkpt lat="45.388088871858145" lon="8.03770335024788"><ele>353.66666666666663</ele><time>2026-04-21T10:33:03.999Z</time></trkpt><trkpt lat="45.388032902023824" lon="8.037791818384267"><ele>352.3333333333333</ele><time>2026-04-21T10:33:04.999Z</time></trkpt><trkpt lat="45.38800291765672" lon="8.03788069589886"><ele>351.0</ele><time>2026-04-21T10:33:05.999Z</time></trkpt><trkpt lat="45.38800212843691" lon="8.037976323617846"><ele>349.6666666666667</ele><time>2026-04-21T10:33:06.999Z</time></trkpt><trkpt lat="45.38799814811474" lon="8.038081067945768"><ele>348.33333333333337</ele><time>2026-04-21T10:33:07.999Z</time></trkpt><trkpt lat="45.388013377818204" lon="8.038198905672864"><ele>347.0</ele><time>2026-04-21T10:33:08.999Z</time></trkpt><trkpt lat="45.38801302021246" lon="8.038358898866134"><ele>346.5</ele><time>2026-04-21T10:33:09.999Z</time></trkpt><trkpt lat="45.388012090529045" lon="8.038472376817444"><ele>346.0</ele><time>2026-04-21T10:33:11Z</time></trkpt><trkpt lat="45.38801304622094" lon="8.038593048684945"><ele>345.5</ele><time>2026-04-21T10:33:12Z</time></trkpt><trkpt lat="45.38801792592498" lon="8.038699263719064"><ele>345.0</ele><time>2026-04-21T10:33:13Z</time></trkpt><trkpt lat="45.388011205599604" lon="8.038810997100098"><ele>344.5</ele><time>2026-04-21T10:33:14Z</time></trkpt><trkpt lat="45.38800056886309" lon="8.038943077168222"><ele>344.0</ele><time>2026-04-21T10:33:15Z</time></trkpt><trkpt lat="45.38798101536687" lon="8.039053149713983"><ele>348.2</ele><time>2026-04-21T10:33:16Z</time></trkpt><trkpt lat="45.38795575705565" lon="8.039145604222012"><ele>352.4</ele><time>2026-04-21T10:33:17Z</time></trkpt><trkpt lat="45.38792171210747" lon="8.039225699102822"><ele>356.6</ele><time>2026-04-21T10:33:18Z</time></trkpt><trkpt lat="45.387862721649626" lon="8.039391591213004"><ele>360.8</ele><time>2026-04-21T10:33:20Z</time></trkpt><trkpt lat="45.38782568493129" lon="8.039492751624506"><ele>365.0</ele><time>2026-04-21T10:33:21Z</time></trkpt><trkpt lat="45.38777225022649" lon="8.039630024279704"><ele>365.0</ele><time>2026-04-21T10:33:22Z</time></trkpt><trkpt lat="45.387715311190334" lon="8.039782348870569"><ele>365.0</ele><time>2026-04-21T10:33:23Z</time></trkpt><trkpt lat="45.38768519035836" lon="8.039921979298988"><ele>365.0</ele><time>2026-04-21T10:33:24Z</time></trkpt><trkpt lat="45.387667391974375" lon="8.040033867784308"><ele>365.0</ele><time>2026-04-21T10:33:25Z</time></trkpt><trkpt lat="45.387633931545516" lon="8.040138828844492"><ele>365.0</ele><time>2026-04-21T10:33:26Z</time></trkpt><trkpt lat="45.38756391132867" lon="8.040262288651506"><ele>363.6666666666667</ele><time>2026-04-21T10:33:27Z</time></trkpt><trkpt lat="45.387515984750166" lon="8.04040354436431"><ele>362.33333333333337</ele><time>2026-04-21T10:33:28Z</time></trkpt><trkpt lat="45.38748545613166" lon="8.040522177549555"><ele>361.0</ele><time>2026-04-21T10:33:29Z</time></trkpt><trkpt lat="45.38747342491528" lon="8.040617696237971"><ele>359.6666666666667</ele><time>2026-04-21T10:33:30Z</time></trkpt><trkpt lat="45.3874825156435" lon="8.040708167514095"><ele>358.3333333333333</ele><time>2026-04-21T10:33:31Z</time></trkpt><trkpt lat="45.38751458580775" lon="8.040814443798538"><ele>357.0</ele><time>2026-04-21T10:33:32Z</time></trkpt><trkpt lat="45.38754416759356" lon="8.040945002308819"><ele>355.8</ele><time>2026-04-21T10:33:33Z</time></trkpt><trkpt lat="45.387565695287606" lon="8.041069526348645"><ele>354.6</ele><time>2026-04-21T10:33:34Z</time></trkpt><trkpt lat="45.387600771000905" lon="8.041206570070957"><ele>353.40000000000003</ele><time>2026-04-21T10:33:35Z</time></trkpt><trkpt lat="45.38764428727269" lon="8.041340952986873"><ele>352.20000000000005</ele><time>2026-04-21T10:33:36Z</time></trkpt><trkpt lat="45.38767542543232" lon="8.041478434674186"><ele>351.0</ele><time>2026-04-21T10:33:37Z</time></trkpt><trkpt lat="45.387711738867594" lon="8.041569715539437"><ele>351.3333333333333</ele><time>2026-04-21T10:33:38Z</time></trkpt><trkpt lat="45.38777304353648" lon="8.041680015349582"><ele>351.6666666666667</ele><time>2026-04-21T10:33:39Z</time></trkpt><trkpt lat="45.38782321247044" lon="8.041800457074864"><ele>352.0</ele><time>2026-04-21T10:33:40Z</time></trkpt><trkpt lat="45.387854801674" lon="8.041916263089037"><ele>352.33333333333337</ele><time>2026-04-21T10:33:41Z</time></trkpt><trkpt lat="45.38787757761946" lon="8.042027121362755"><ele>352.6666666666667</ele><time>2026-04-21T10:33:42Z</time></trkpt><trkpt lat="45.38789580322964" lon="8.042127864347314"><ele>353.0</ele><time>2026-04-21T10:33:42.999Z</time></trkpt><trkpt lat="45.387891455370195" lon="8.042234777342404"><ele>353.0</ele><time>2026-04-21T10:33:43.999Z</time></trkpt><trkpt lat="45.38790035761084" lon="8.042326043036375"><ele>353.0</ele><time>2026-04-21T10:33:44.999Z</time></trkpt><trkpt lat="45.38791879897125" lon="8.042412117724549"><ele>353.0</ele><time>2026-04-21T10:33:45.999Z</time></trkpt><trkpt lat="45.38794706970577" lon="8.042585124064935"><ele>353.0</ele><time>2026-04-21T10:33:47.999Z</time></trkpt><trkpt lat="45.387983802099996" lon="8.042759922005295"><ele>353.0</ele><time>2026-04-21T10:33:49.999Z</time></trkpt><trkpt lat="45.38801979868611" lon="8.042836677290868"><ele>353.0</ele><time>2026-04-21T10:33:50.999Z</time></trkpt><trkpt lat="45.38807634309882" lon="8.042978424867586"><ele>349.2</ele><time>2026-04-21T10:33:52.999Z</time></trkpt><trkpt lat="45.388093576195615" lon="8.043069520746744"><ele>345.4</ele><time>2026-04-21T10:33:53.999Z</time></trkpt><trkpt lat="45.388121701478305" lon="8.043257252386136"><ele>341.59999999999997</ele><time>2026-04-21T10:33:55.999Z</time></trkpt><trkpt lat="45.38810471024825" lon="8.043355902362082"><ele>337.79999999999995</ele><time>2026-04-21T10:33:56.999Z</time></trkpt><trkpt lat="45.3880689176158" lon="8.043485538835762"><ele>334.0</ele><time>2026-04-21T10:33:57.999Z</time></trkpt><trkpt lat="45.388021432661496" lon="8.043652940946348"><ele>336.16666666666663</ele><time>2026-04-21T10:33:58.999Z</time></trkpt><trkpt lat="45.38797908105306" lon="8.043772089306664"><ele>338.3333333333333</ele><time>2026-04-21T10:33:59.999Z</time></trkpt><trkpt lat="45.387952072538546" lon="8.043872536764054"><ele>340.5</ele><time>2026-04-21T10:34:00.999Z</time></trkpt><trkpt lat="45.387926191241704" lon="8.043966411406215"><ele>342.6666666666667</ele><time>2026-04-21T10:34:01.999Z</time></trkpt><trkpt lat="45.38790620088161" lon="8.044060999707863"><ele>344.83333333333337</ele><time>2026-04-21T10:34:02.999Z</time></trkpt><trkpt lat="45.3878925243472" lon="8.04418291200355"><ele>347.0</ele><time>2026-04-21T10:34:03.999Z</time></trkpt><trkpt lat="45.3878780686095" lon="8.044320994089736"><ele>347.0</ele><time>2026-04-21T10:34:04.999Z</time></trkpt><trkpt lat="45.38786939042567" lon="8.044444527793786"><ele>347.0</ele><time>2026-04-21T10:34:05.999Z</time></trkpt><trkpt lat="45.38784868518497" lon="8.044530992738542"><ele>347.0</ele><time>2026-04-21T10:34:06.999Z</time></trkpt><trkpt lat="45.38782214682216" lon="8.044620852728558"><ele>347.0</ele><time>2026-04-21T10:34:07.999Z</time></trkpt><trkpt lat="45.38780045560078" lon="8.04473083299917"><ele>347.0</ele><time>2026-04-21T10:34:08.999Z</time></trkpt><trkpt lat="45.387812337407915" lon="8.044877838939975"><ele>347.0</ele><time>2026-04-21T10:34:09.999Z</time></trkpt><trkpt lat="45.38782875655755" lon="8.044995100966435"><ele>345.6</ele><time>2026-04-21T10:34:10.999Z</time></trkpt><trkpt lat="45.38786472748002" lon="8.045074544215458"><ele>344.20000000000005</ele><time>2026-04-21T10:34:11.999Z</time></trkpt><trkpt lat="45.3879214506411" lon="8.045198093048747"><ele>342.8</ele><time>2026-04-21T10:34:13.999Z</time></trkpt><trkpt lat="45.388029982405264" lon="8.04528415825038"><ele>341.4</ele><time>2026-04-21T10:34:15.999Z</time></trkpt><trkpt lat="45.3881125085217" lon="8.045315913865217"><ele>340.0</ele><time>2026-04-21T10:34:16.999Z</time></trkpt><trkpt lat="45.388194337340465" lon="8.045359030059515"><ele>338.4</ele><time>2026-04-21T10:34:17.999Z</time></trkpt><trkpt lat="45.38828185957238" lon="8.04537171086439"><ele>336.8</ele><time>2026-04-21T10:34:18.999Z</time></trkpt><trkpt lat="45.38835976932122" lon="8.045356132524521"><ele>335.20000000000005</ele><time>2026-04-21T10:34:19.999Z</time></trkpt><trkpt lat="45.38849002043146" lon="8.045411177898869"><ele>333.6</ele><time>2026-04-21T10:34:21.999Z</time></trkpt><trkpt lat="45.3885357849571" lon="8.045524971275901"><ele>332.0</ele><time>2026-04-21T10:34:23.999Z</time></trkpt><trkpt lat="45.38864119947613" lon="8.045665167051663"><ele>331.25</ele><time>2026-04-21T10:34:25.999Z</time></trkpt><trkpt lat="45.388678766704174" lon="8.045824436456659"><ele>330.5</ele><time>2026-04-21T10:34:27.999Z</time></trkpt><trkpt lat="45.388605514852934" lon="8.045976318982197"><ele>329.75</ele><time>2026-04-21T10:34:29.999Z</time></trkpt><trkpt lat="45.388556939427154" lon="8.046112801997413"><ele>329.0</ele><time>2026-04-21T10:34:30.999Z</time></trkpt><trkpt lat="45.388517642044214" lon="8.046250738064973"><ele>329.0</ele><time>2026-04-21T10:34:31.999Z</time></trkpt><trkpt lat="45.38848245820391" lon="8.046386286442436"><ele>329.0</ele><time>2026-04-21T10:34:32.999Z</time></trkpt><trkpt lat="45.388437778921016" lon="8.046504933847553"><ele>329.0</ele><time>2026-04-21T10:34:33.999Z</time></trkpt><trkpt lat="45.388396347654314" lon="8.046596660898256"><ele>329.0</ele><time>2026-04-21T10:34:34.999Z</time></trkpt><trkpt lat="45.388361633018896" lon="8.046676744957907"><ele>329.0</ele><time>2026-04-21T10:34:36.999Z</time></trkpt><trkpt lat="45.38834239606799" lon="8.046813918649814"><ele>329.0</ele><time>2026-04-21T10:35:12.999Z</time></trkpt><trkpt lat="45.38826705209573" lon="8.046908503449743"><ele>328.1666666666667</ele><time>2026-04-21T10:35:14.999Z</time></trkpt><trkpt lat="45.388259918126664" lon="8.04700202876579"><ele>327.33333333333337</ele><time>2026-04-21T10:35:15.999Z</time></trkpt><trkpt lat="45.388257968692955" lon="8.04711050549418"><ele>326.5</ele><time>2026-04-21T10:35:18Z</time></trkpt><trkpt lat="45.38832243869673" lon="8.04713791302581"><ele>325.6666666666667</ele><time>2026-04-21T10:35:20Z</time></trkpt><trkpt lat="45.38839305436357" lon="8.047043597498003"><ele>324.8333333333333</ele><time>2026-04-21T10:35:22Z</time></trkpt><trkpt lat="45.388452873931165" lon="8.046970157442423"><ele>324.0</ele><time>2026-04-21T10:35:23Z</time></trkpt><trkpt lat="45.38851633707021" lon="8.046885537315724"><ele>324.0</ele><time>2026-04-21T10:35:24Z</time></trkpt><trkpt lat="45.38857058942144" lon="8.046803993485106"><ele>324.0</ele><time>2026-04-21T10:35:25Z</time></trkpt><trkpt lat="45.388625958258906" lon="8.046735949451753"><ele>324.0</ele><time>2026-04-21T10:35:26Z</time></trkpt><trkpt lat="45.388723003835125" lon="8.046685695233757"><ele>324.0</ele><time>2026-04-21T10:35:28Z</time></trkpt><trkpt lat="45.38885173116332" lon="8.046732037522725"><ele>324.0</ele><time>2026-04-21T10:35:30Z</time></trkpt><trkpt lat="45.388917354714835" lon="8.046786236321061"><ele>322.0</ele><time>2026-04-21T10:35:31Z</time></trkpt><trkpt lat="45.38901340325987" lon="8.046929548288409"><ele>320.0</ele><time>2026-04-21T10:35:33Z</time></trkpt><trkpt lat="45.38906731108324" lon="8.047050833761773"><ele>318.0</ele><time>2026-04-21T10:35:34Z</time></trkpt><trkpt lat="45.38911524387802" lon="8.047177391489473"><ele>316.0</ele><time>2026-04-21T10:35:35Z</time></trkpt><trkpt lat="45.38915453557602" lon="8.047284416926749"><ele>314.0</ele><time>2026-04-21T10:35:36Z</time></trkpt><trkpt lat="45.38920489075199" lon="8.047392107220675"><ele>314.2</ele><time>2026-04-21T10:35:37Z</time></trkpt><trkpt lat="45.38926336719639" lon="8.047485337822623"><ele>314.4</ele><time>2026-04-21T10:35:38Z</time></trkpt><trkpt lat="45.3893302936601" lon="8.047554936121793"><ele>314.6</ele><time>2026-04-21T10:35:39Z</time></trkpt><trkpt lat="45.3894073875979" lon="8.047610020557984"><ele>314.8</ele><time>2026-04-21T10:35:40Z</time></trkpt><trkpt lat="45.38949330519356" lon="8.047644286803132"><ele>315.0</ele><time>2026-04-21T10:35:41Z</time></trkpt><trkpt lat="45.38960835442544" lon="8.047681312533326"><ele>314.0</ele><time>2026-04-21T10:35:42Z</time></trkpt><trkpt lat="45.38974464685503" lon="8.047712907411206"><ele>313.0</ele><time>2026-04-21T10:35:43Z</time></trkpt><trkpt lat="45.3898720671845" lon="8.047742772370384"><ele>312.0</ele><time>2026-04-21T10:35:44Z</time></trkpt><trkpt lat="45.38998695555506" lon="8.04778590186935"><ele>311.0</ele><time>2026-04-21T10:35:45Z</time></trkpt><trkpt lat="45.39009748647801" lon="8.047833909126572"><ele>311.0</ele><time>2026-04-21T10:35:46Z</time></trkpt><trkpt lat="45.39019412857837" lon="8.047885995292955"><ele>311.0</ele><time>2026-04-21T10:35:47Z</time></trkpt><trkpt lat="45.3902796475722" lon="8.047964980950766"><ele>311.0</ele><time>2026-04-21T10:35:48Z</time></trkpt><trkpt lat="45.39036359406626" lon="8.04804636094955"><ele>311.0</ele><time>2026-04-21T10:35:49Z</time></trkpt><trkpt lat="45.390427408295125" lon="8.048111720523828"><ele>311.0</ele><time>2026-04-21T10:35:49.999Z</time></trkpt><trkpt lat="45.390501940358824" lon="8.048181201386269"><ele>310.83333333333337</ele><time>2026-04-21T10:35:50.999Z</time></trkpt><trkpt lat="45.39057452983437" lon="8.048249794641332"><ele>310.6666666666667</ele><time>2026-04-21T10:35:51.999Z</time></trkpt><trkpt lat="45.39063884540601" lon="8.048307514216086"><ele>310.5</ele><time>2026-04-21T10:35:52.999Z</time></trkpt><trkpt lat="45.390701503267444" lon="8.04834794754737"><ele>310.3333333333333</ele><time>2026-04-21T10:35:53.999Z</time></trkpt><trkpt lat="45.39078105708977" lon="8.04838373371558"><ele>310.16666666666663</ele><time>2026-04-21T10:35:55.999Z</time></trkpt><trkpt lat="45.390822066542846" lon="8.048313981173012"><ele>310.0</ele><time>2026-04-21T10:35:58.999Z</time></trkpt><trkpt lat="45.390815678038834" lon="8.04820227313461"><ele>308.66666666666663</ele><time>2026-04-21T10:36:01.999Z</time></trkpt><trkpt lat="45.39080515127329" lon="8.048065215346497"><ele>307.3333333333333</ele><time>2026-04-21T10:36:03.999Z</time></trkpt><trkpt lat="45.390809366742474" lon="8.047951853447602"><ele>306.0</ele><time>2026-04-21T10:36:04.999Z</time></trkpt><trkpt lat="45.39081492349" lon="8.047841670806546"><ele>304.6666666666667</ele><time>2026-04-21T10:36:05.999Z</time></trkpt><trkpt lat="45.390838723287466" lon="8.047726525768429"><ele>303.33333333333337</ele><time>2026-04-21T10:36:06.999Z</time></trkpt><trkpt lat="45.39086228772068" lon="8.04761042393977"><ele>302.0</ele><time>2026-04-21T10:36:07.999Z</time></trkpt><trkpt lat="45.39088933035714" lon="8.047460215728885"><ele>301.8</ele><time>2026-04-21T10:36:08.999Z</time></trkpt><trkpt lat="45.390908072728806" lon="8.047299434371114"><ele>301.6</ele><time>2026-04-21T10:36:09.999Z</time></trkpt><trkpt lat="45.3909230449275" lon="8.04713022213029"><ele>301.40000000000003</ele><time>2026-04-21T10:36:10.999Z</time></trkpt><trkpt lat="45.390925500296525" lon="8.046995925667526"><ele>301.2</ele><time>2026-04-21T10:36:11.999Z</time></trkpt><trkpt lat="45.39092941669835" lon="8.046890611123668"><ele>301.0</ele><time>2026-04-21T10:36:12.999Z</time></trkpt><trkpt lat="45.39095116741948" lon="8.046798048656251"><ele>301.0</ele><time>2026-04-21T10:36:13.999Z</time></trkpt><trkpt lat="45.391000458317" lon="8.046738982741704"><ele>301.0</ele><time>2026-04-21T10:36:14.999Z</time></trkpt><trkpt lat="45.39106572659855" lon="8.04670080904336"><ele>301.0</ele><time>2026-04-21T10:36:15.999Z</time></trkpt><trkpt lat="45.39115693372347" lon="8.046660991281179"><ele>301.0</ele><time>2026-04-21T10:36:16.999Z</time></trkpt><trkpt lat="45.39125401191933" lon="8.046618598890014"><ele>301.0</ele><time>2026-04-21T10:36:17.999Z</time></trkpt><trkpt lat="45.3913382898538" lon="8.046600335551958"><ele>301.0</ele><time>2026-04-21T10:36:18.999Z</time></trkpt><trkpt lat="45.39143034109856" lon="8.046595373533792"><ele>299.8333333333333</ele><time>2026-04-21T10:36:19.999Z</time></trkpt><trkpt lat="45.39152048668585" lon="8.046598341825645"><ele>298.66666666666663</ele><time>2026-04-21T10:36:20.999Z</time></trkpt><trkpt lat="45.391599617787264" lon="8.046566476215405"><ele>297.5</ele><time>2026-04-21T10:36:21.999Z</time></trkpt><trkpt lat="45.39166683005699" lon="8.046534126757221"><ele>296.3333333333333</ele><time>2026-04-21T10:36:22.999Z</time></trkpt><trkpt lat="45.391736681435304" lon="8.046502810620574"><ele>295.1666666666667</ele><time>2026-04-21T10:36:23.999Z</time></trkpt><trkpt lat="45.39180192039363" lon="8.04644864047181"><ele>294.0</ele><time>2026-04-21T10:36:24.999Z</time></trkpt><trkpt lat="45.391851443069434" lon="8.04636233122228"><ele>294.0</ele><time>2026-04-21T10:36:25.999Z</time></trkpt><trkpt lat="45.39189071789513" lon="8.046273728174684"><ele>294.0</ele><time>2026-04-21T10:36:26.999Z</time></trkpt><trkpt lat="45.391935294850676" lon="8.046149634017953"><ele>294.0</ele><time>2026-04-21T10:36:27.999Z</time></trkpt><trkpt lat="45.392004382565084" lon="8.046018697789492"><ele>294.0</ele><time>2026-04-21T10:36:28.999Z</time></trkpt><trkpt lat="45.39208342547211" lon="8.045909437803838"><ele>294.0</ele><time>2026-04-21T10:36:29.999Z</time></trkpt><trkpt lat="45.39216884071489" lon="8.0458162351881"><ele>291.0</ele><time>2026-04-21T10:36:30.999Z</time></trkpt><trkpt lat="45.39224818486137" lon="8.045718956788846"><ele>288.0</ele><time>2026-04-21T10:36:31.999Z</time></trkpt><trkpt lat="45.39231561272573" lon="8.04559951994601"><ele>285.0</ele><time>2026-04-21T10:36:32.999Z</time></trkpt><trkpt lat="45.39236932132616" lon="8.045501427504474"><ele>282.0</ele><time>2026-04-21T10:36:33.999Z</time></trkpt><trkpt lat="45.39244054353101" lon="8.045403397587883"><ele>279.0</ele><time>2026-04-21T10:36:34.999Z</time></trkpt><trkpt lat="45.39251676997808" lon="8.045332852546775"><ele>279.0</ele><time>2026-04-21T10:36:35.999Z</time></trkpt><trkpt lat="45.39259146900783" lon="8.045254187032073"><ele>279.0</ele><time>2026-04-21T10:36:36.999Z</time></trkpt><trkpt lat="45.392665685192306" lon="8.045169472624938"><ele>279.0</ele><time>2026-04-21T10:36:37.999Z</time></trkpt><trkpt lat="45.39272371541437" lon="8.045077713741213"><ele>279.0</ele><time>2026-04-21T10:36:38.999Z</time></trkpt><trkpt lat="45.39278444259447" lon="8.044989452087101"><ele>279.0</ele><time>2026-04-21T10:36:39.999Z</time></trkpt><trkpt lat="45.39282965593816" lon="8.044857707173662"><ele>280.0</ele><time>2026-04-21T10:36:40.999Z</time></trkpt><trkpt lat="45.39285826812592" lon="8.044713038881728"><ele>281.0</ele><time>2026-04-21T10:36:41.999Z</time></trkpt><trkpt lat="45.39287061658763" lon="8.04457263106522"><ele>282.0</ele><time>2026-04-21T10:36:42.999Z</time></trkpt><trkpt lat="45.39288666208184" lon="8.044456086560952"><ele>283.0</ele><time>2026-04-21T10:36:43.999Z</time></trkpt><trkpt lat="45.39289758229515" lon="8.04436427925265"><ele>284.0</ele><time>2026-04-21T10:36:44.999Z</time></trkpt><trkpt lat="45.39290495883539" lon="8.044255288759752"><ele>285.0</ele><time>2026-04-21T10:36:46.999Z</time></trkpt><trkpt lat="45.392936287472025" lon="8.04416108587247"><ele>285.0</ele><time>2026-04-21T10:36:48.999Z</time></trkpt><trkpt lat="45.392984241091426" lon="8.044075414985842"><ele>285.0</ele><time>2026-04-21T10:36:50.999Z</time></trkpt><trkpt lat="45.39305302485952" lon="8.044028127023621"><ele>285.0</ele><time>2026-04-21T10:36:52.999Z</time></trkpt><trkpt lat="45.39317923533093" lon="8.044061793095226"><ele>285.0</ele><time>2026-04-21T10:36:54.999Z</time></trkpt><trkpt lat="45.39327336936906" lon="8.04408138765106"><ele>285.0</ele><time>2026-04-21T10:36:55.999Z</time></trkpt><trkpt lat="45.39336188994369" lon="8.044087832920155"><ele>280.8</ele><time>2026-04-21T10:36:56.999Z</time></trkpt><trkpt lat="45.39346707501361" lon="8.044100532475673"><ele>276.6</ele><time>2026-04-21T10:36:57.999Z</time></trkpt><trkpt lat="45.393571316401435" lon="8.044116383442306"><ele>272.4</ele><time>2026-04-21T10:36:58.999Z</time></trkpt><trkpt lat="45.393675746692715" lon="8.044133085410174"><ele>268.2</ele><time>2026-04-21T10:36:59.999Z</time></trkpt><trkpt lat="45.393789612068886" lon="8.044149977782528"><ele>264.0</ele><time>2026-04-21T10:37:00.999Z</time></trkpt><trkpt lat="45.393890620903925" lon="8.044170510808145"><ele>261.75</ele><time>2026-04-21T10:37:01.999Z</time></trkpt><trkpt lat="45.39400343847017" lon="8.044193497947445"><ele>259.5</ele><time>2026-04-21T10:37:02.999Z</time></trkpt><trkpt lat="45.39413446376785" lon="8.044221242326334"><ele>257.25</ele><time>2026-04-21T10:37:03.999Z</time></trkpt><trkpt lat="45.39428533126317" lon="8.044261004416327"><ele>255.0</ele><time>2026-04-21T10:37:04.999Z</time></trkpt><trkpt lat="45.39442867379721" lon="8.044293987944348"><ele>255.0</ele><time>2026-04-21T10:37:05.999Z</time></trkpt><trkpt lat="45.39455256272822" lon="8.044324420653803"><ele>255.0</ele><time>2026-04-21T10:37:06.999Z</time></trkpt><trkpt lat="45.394675575801955" lon="8.044351542638886"><ele>255.0</ele><time>2026-04-21T10:37:07.999Z</time></trkpt><trkpt lat="45.39480367978465" lon="8.044375473655702"><ele>255.0</ele><time>2026-04-21T10:37:08.999Z</time></trkpt><trkpt lat="45.394945569489906" lon="8.04441075376279"><ele>254.75</ele><time>2026-04-21T10:37:09.999Z</time></trkpt><trkpt lat="45.39508190646825" lon="8.044446443088416"><ele>254.5</ele><time>2026-04-21T10:37:10.999Z</time></trkpt><trkpt lat="45.39522067457131" lon="8.044485102933283"><ele>254.25</ele><time>2026-04-21T10:37:11.999Z</time></trkpt><trkpt lat="45.39534479095967" lon="8.044525253677373"><ele>254.0</ele><time>2026-04-21T10:37:12.999Z</time></trkpt><trkpt lat="45.39545413630743" lon="8.04456188917383"><ele>254.6</ele><time>2026-04-21T10:37:13.999Z</time></trkpt><trkpt lat="45.395533121622606" lon="8.044588708917736"><ele>255.2</ele><time>2026-04-21T10:37:14.999Z</time></trkpt><trkpt lat="45.39562593910987" lon="8.044612152782301"><ele>255.79999999999998</ele><time>2026-04-21T10:37:16.999Z</time></trkpt><trkpt lat="45.39566679009386" lon="8.044510686830796"><ele>256.4</ele><time>2026-04-21T10:37:19.999Z</time></trkpt><trkpt lat="45.395625006080444" lon="8.044342545420966"><ele>257.0</ele><time>2026-04-21T10:37:21.999Z</time></trkpt><trkpt lat="45.39559058491906" lon="8.04420749574349"><ele>256.2</ele><time>2026-04-21T10:37:23Z</time></trkpt><trkpt lat="45.39556438807025" lon="8.044068291042151"><ele>255.39999999999998</ele><time>2026-04-21T10:37:24Z</time></trkpt><trkpt lat="45.39554888703138" lon="8.043943624222946"><ele>254.60000000000002</ele><time>2026-04-21T10:37:25Z</time></trkpt><trkpt lat="45.3955301220067" lon="8.043826285532544"><ele>253.8</ele><time>2026-04-21T10:37:26Z</time></trkpt><trkpt lat="45.395483187743835" lon="8.043718947162356"><ele>253.0</ele><time>2026-04-21T10:37:27Z</time></trkpt><trkpt lat="45.395406863104064" lon="8.043606647853723"><ele>252.5</ele><time>2026-04-21T10:37:28Z</time></trkpt><trkpt lat="45.39531659276711" lon="8.043474551286018"><ele>252.0</ele><time>2026-04-21T10:37:29Z</time></trkpt><trkpt lat="45.395238793215526" lon="8.043311683980852"><ele>251.5</ele><time>2026-04-21T10:37:30Z</time></trkpt><trkpt lat="45.39516908726814" lon="8.04312247940104"><ele>251.0</ele><time>2026-04-21T10:37:31Z</time></trkpt><trkpt lat="45.395093857671945" lon="8.042919930208908"><ele>250.75</ele><time>2026-04-21T10:37:32Z</time></trkpt><trkpt lat="45.39502644496412" lon="8.042743202189397"><ele>250.5</ele><time>2026-04-21T10:37:33Z</time></trkpt><trkpt lat="45.39497055827531" lon="8.042586154389356"><ele>250.25</ele><time>2026-04-21T10:37:34Z</time></trkpt><trkpt lat="45.39491389743149" lon="8.042453582369347"><ele>250.0</ele><time>2026-04-21T10:37:35Z</time></trkpt><trkpt lat="45.394853400456846" lon="8.042288967543776"><ele>250.0</ele><time>2026-04-21T10:37:36Z</time></trkpt><trkpt lat="45.39479130915051" lon="8.042108596422304"><ele>250.0</ele><time>2026-04-21T10:37:37Z</time></trkpt><trkpt lat="45.39473378648957" lon="8.041935002805944"><ele>250.0</ele><time>2026-04-21T10:37:38Z</time></trkpt><trkpt lat="45.394681607916915" lon="8.041779271227876"><ele>250.0</ele><time>2026-04-21T10:37:39Z</time></trkpt><trkpt lat="45.39463023731038" lon="8.041629616101732"><ele>250.0</ele><time>2026-04-21T10:37:40Z</time></trkpt><trkpt lat="45.39458372146857" lon="8.041493474756914"><ele>250.0</ele><time>2026-04-21T10:37:41Z</time></trkpt><trkpt lat="45.39454751808569" lon="8.04136668211129"><ele>250.0</ele><time>2026-04-21T10:37:42Z</time></trkpt><trkpt lat="45.39451370506984" lon="8.041243508803431"><ele>250.0</ele><time>2026-04-21T10:37:43Z</time></trkpt><trkpt lat="45.39449348683991" lon="8.041114832678687"><ele>250.0</ele><time>2026-04-21T10:37:44Z</time></trkpt><trkpt lat="45.39449819966308" lon="8.040957053385581"><ele>249.33333333333331</ele><time>2026-04-21T10:37:45Z</time></trkpt><trkpt lat="45.39451643054325" lon="8.040764646649057"><ele>248.66666666666669</ele><time>2026-04-21T10:37:46Z</time></trkpt><trkpt lat="45.394539038837024" lon="8.040540101753178"><ele>248.0</ele><time>2026-04-21T10:37:47Z</time></trkpt><trkpt lat="45.39455787300978" lon="8.040306555245252"><ele>248.0</ele><time>2026-04-21T10:37:48Z</time></trkpt><trkpt lat="45.39457763047151" lon="8.04011265746124"><ele>248.0</ele><time>2026-04-21T10:37:49Z</time></trkpt><trkpt lat="45.39459989541438" lon="8.039942869587865"><ele>248.0</ele><time>2026-04-21T10:37:50Z</time></trkpt><trkpt lat="45.39462800408989" lon="8.039749292765254"><ele>248.0</ele><time>2026-04-21T10:37:51Z</time></trkpt><trkpt lat="45.394665133362125" lon="8.039556916433293"><ele>247.25</ele><time>2026-04-21T10:37:52Z</time></trkpt><trkpt lat="45.39470429650101" lon="8.03939337233433"><ele>246.5</ele><time>2026-04-21T10:37:53Z</time></trkpt><trkpt lat="45.3947674599113" lon="8.039246878695293"><ele>245.75</ele><time>2026-04-21T10:37:53.999Z</time></trkpt><trkpt lat="45.394807314061865" lon="8.039067928485276"><ele>245.0</ele><time>2026-04-21T10:37:54.999Z</time></trkpt><trkpt lat="45.39485097010145" lon="8.038864013768219"><ele>245.0</ele><time>2026-04-21T10:37:55.999Z</time></trkpt><trkpt lat="45.39489855768589" lon="8.038640819695665"><ele>245.0</ele><time>2026-04-21T10:37:56.999Z</time></trkpt><trkpt lat="45.39494796107069" lon="8.038405789007578"><ele>245.0</ele><time>2026-04-21T10:37:57.999Z</time></trkpt><trkpt lat="45.39499269841665" lon="8.038184936236302"><ele>244.75</ele><time>2026-04-21T10:37:58.999Z</time></trkpt><trkpt lat="45.3950301373963" lon="8.037993246969378"><ele>244.5</ele><time>2026-04-21T10:37:59.999Z</time></trkpt><trkpt lat="45.39506938497404" lon="8.03778501199129"><ele>244.25</ele><time>2026-04-21T10:38:00.999Z</time></trkpt><trkpt lat="45.395107987266364" lon="8.037572275878066"><ele>244.0</ele><time>2026-04-21T10:38:01.999Z</time></trkpt><trkpt lat="45.39514786225123" lon="8.037351375522693"><ele>245.0</ele><time>2026-04-21T10:38:02.999Z</time></trkpt><trkpt lat="45.395189149748525" lon="8.037122650103827"><ele>246.0</ele><time>2026-04-21T10:38:03.999Z</time></trkpt><trkpt lat="45.39523293211413" lon="8.036895086682499"><ele>247.0</ele><time>2026-04-21T10:38:04.999Z</time></trkpt><trkpt lat="45.395281758872805" lon="8.036663494299379"><ele>248.66666666666666</ele><time>2026-04-21T10:38:05.999Z</time></trkpt><trkpt lat="45.3953360788927" lon="8.036425589617975"><ele>250.33333333333331</ele><time>2026-04-21T10:38:06.999Z</time></trkpt><trkpt lat="45.39538733075119" lon="8.036181326361724"><ele>252.0</ele><time>2026-04-21T10:38:07.999Z</time></trkpt><trkpt lat="45.3954328116144" lon="8.03595138610251"><ele>252.66666666666669</ele><time>2026-04-21T10:38:08.999Z</time></trkpt><trkpt lat="45.39547391771856" lon="8.03574039233743"><ele>253.33333333333334</ele><time>2026-04-21T10:38:09.999Z</time></trkpt><trkpt lat="45.395518802489576" lon="8.035516480815584"><ele>254.0</ele><time>2026-04-21T10:38:10.999Z</time></trkpt><trkpt lat="45.395568028644796" lon="8.035286289501443"><ele>251.0</ele><time>2026-04-21T10:38:11.999Z</time></trkpt><trkpt lat="45.39561509500447" lon="8.035071193175094"><ele>248.0</ele><time>2026-04-21T10:38:12.999Z</time></trkpt><trkpt lat="45.395666344675874" lon="8.034841834294959"><ele>245.0</ele><time>2026-04-21T10:38:13.999Z</time></trkpt><trkpt lat="45.395719848016185" lon="8.034604290975413"><ele>245.0</ele><time>2026-04-21T10:38:14.999Z</time></trkpt><trkpt lat="45.395767038136434" lon="8.034391568764272"><ele>245.0</ele><time>2026-04-21T10:38:15.999Z</time></trkpt><trkpt lat="45.39579587178218" lon="8.034160016597099"><ele>245.0</ele><time>2026-04-21T10:38:16.999Z</time></trkpt><trkpt lat="45.395842656028876" lon="8.033930083514822"><ele>245.0</ele><time>2026-04-21T10:38:17.999Z</time></trkpt><trkpt lat="45.395882979928324" lon="8.033698367923543"><ele>245.0</ele><time>2026-04-21T10:38:18.999Z</time></trkpt><trkpt lat="45.395941526052205" lon="8.03347017475882"><ele>245.0</ele><time>2026-04-21T10:38:19.999Z</time></trkpt><trkpt lat="45.3959818652545" lon="8.033248600458558"><ele>245.75</ele><time>2026-04-21T10:38:20.999Z</time></trkpt><trkpt lat="45.396018901183325" lon="8.03304500952672"><ele>246.5</ele><time>2026-04-21T10:38:21.999Z</time></trkpt><trkpt lat="45.396054805443256" lon="8.032847269723018"><ele>247.25</ele><time>2026-04-21T10:38:22.999Z</time></trkpt><trkpt lat="45.3960879989898" lon="8.032664459021468"><ele>248.0</ele><time>2026-04-21T10:38:23.999Z</time></trkpt><trkpt lat="45.39612380061278" lon="8.032467284787446"><ele>248.66666666666669</ele><time>2026-04-21T10:38:24.999Z</time></trkpt><trkpt lat="45.39616596735065" lon="8.03223708452475"><ele>249.33333333333331</ele><time>2026-04-21T10:38:25.999Z</time></trkpt><trkpt lat="45.39620932867738" lon="8.03200121407126"><ele>250.0</ele><time>2026-04-21T10:38:26.999Z</time></trkpt><trkpt lat="45.39625365830098" lon="8.031760076200799"><ele>251.33333333333331</ele><time>2026-04-21T10:38:27.999Z</time></trkpt><trkpt lat="45.39630062287219" lon="8.031504605154966"><ele>252.66666666666669</ele><time>2026-04-21T10:38:28.999Z</time></trkpt><trkpt lat="45.396341479173266" lon="8.031282360970058"><ele>254.0</ele><time>2026-04-21T10:38:29.999Z</time></trkpt><trkpt lat="45.39638234110503" lon="8.0310600861322"><ele>249.0</ele><time>2026-04-21T10:38:30.999Z</time></trkpt><trkpt lat="45.396418396724414" lon="8.030823685864574"><ele>244.0</ele><time>2026-04-21T10:38:31.999Z</time></trkpt><trkpt lat="45.39645131293904" lon="8.030603405150416"><ele>239.0</ele><time>2026-04-21T10:38:32.999Z</time></trkpt><trkpt lat="45.39649125923122" lon="8.030376400675776"><ele>239.0</ele><time>2026-04-21T10:38:33.999Z</time></trkpt><trkpt lat="45.396526838798195" lon="8.030181069785533"><ele>239.0</ele><time>2026-04-21T10:38:34.999Z</time></trkpt><trkpt lat="45.39656326576263" lon="8.029978077899923"><ele>239.0</ele><time>2026-04-21T10:38:35.999Z</time></trkpt><trkpt lat="45.39660282186074" lon="8.029751296511728"><ele>240.66666666666669</ele><time>2026-04-21T10:38:36.999Z</time></trkpt><trkpt lat="45.39664496312598" lon="8.02951523643147"><ele>242.33333333333331</ele><time>2026-04-21T10:38:37.999Z</time></trkpt><trkpt lat="45.396683780709196" lon="8.029313200373563"><ele>244.0</ele><time>2026-04-21T10:38:38.999Z</time></trkpt><trkpt lat="45.39672622128517" lon="8.02911018293091"><ele>245.25</ele><time>2026-04-21T10:38:39.999Z</time></trkpt><trkpt lat="45.39676846794657" lon="8.028915453174276"><ele>246.5</ele><time>2026-04-21T10:38:40.999Z</time></trkpt><trkpt lat="45.3968138420393" lon="8.028735687784485"><ele>247.75</ele><time>2026-04-21T10:38:41.999Z</time></trkpt><trkpt lat="45.396860797040056" lon="8.028548470360615"><ele>249.0</ele><time>2026-04-21T10:38:42.999Z</time></trkpt><trkpt lat="45.39689671933344" lon="8.028370171958564"><ele>252.0</ele><time>2026-04-21T10:38:43.999Z</time></trkpt><trkpt lat="45.39695378652116" lon="8.028193350236778"><ele>255.0</ele><time>2026-04-21T10:38:44.999Z</time></trkpt><trkpt lat="45.39701404119401" lon="8.027992857419166"><ele>258.0</ele><time>2026-04-21T10:38:45.999Z</time></trkpt><trkpt lat="45.39707859647935" lon="8.027778312796693"><ele>258.0</ele><time>2026-04-21T10:38:46.999Z</time></trkpt><trkpt lat="45.397143395870245" lon="8.027574149599582"><ele>258.0</ele><time>2026-04-21T10:38:47.999Z</time></trkpt><trkpt lat="45.39721094650736" lon="8.027376045024052"><ele>258.0</ele><time>2026-04-21T10:38:48.999Z</time></trkpt><trkpt lat="45.39727375130858" lon="8.027186071266378"><ele>256.6666666666667</ele><time>2026-04-21T10:38:49.999Z</time></trkpt><trkpt lat="45.397341415268286" lon="8.026973250478264"><ele>255.33333333333334</ele><time>2026-04-21T10:38:50.999Z</time></trkpt><trkpt lat="45.39739532497843" lon="8.026768234198707"><ele>254.0</ele><time>2026-04-21T10:38:51.999Z</time></trkpt><trkpt lat="45.39745657648421" lon="8.026584972466821"><ele>254.0</ele><time>2026-04-21T10:38:52.999Z</time></trkpt><trkpt lat="45.397487930989776" lon="8.02641022615762"><ele>254.0</ele><time>2026-04-21T10:38:53.999Z</time></trkpt><trkpt lat="45.397537241434726" lon="8.026255813191721"><ele>254.0</ele><time>2026-04-21T10:38:54.999Z</time></trkpt><trkpt lat="45.397585794937605" lon="8.02611964466598"><ele>254.0</ele><time>2026-04-21T10:38:55.999Z</time></trkpt><trkpt lat="45.39765011692342" lon="8.025985314424211"><ele>254.0</ele><time>2026-04-21T10:38:56.999Z</time></trkpt><trkpt lat="45.39773993720325" lon="8.025852769382977"><ele>254.0</ele><time>2026-04-21T10:38:57.999Z</time></trkpt><trkpt lat="45.39785285840563" lon="8.025717630145017"><ele>254.0</ele><time>2026-04-21T10:38:58.999Z</time></trkpt><trkpt lat="45.39799301217561" lon="8.025566154264565"><ele>252.66666666666669</ele><time>2026-04-21T10:38:59.999Z</time></trkpt><trkpt lat="45.398156475360736" lon="8.025417206083711"><ele>251.33333333333331</ele><time>2026-04-21T10:39:00.999Z</time></trkpt><trkpt lat="45.398304243813996" lon="8.025236100242365"><ele>250.0</ele><time>2026-04-21T10:39:01.999Z</time></trkpt><trkpt lat="45.39843996153162" lon="8.025065307158311"><ele>249.0</ele><time>2026-04-21T10:39:02.999Z</time></trkpt><trkpt lat="45.398583309930714" lon="8.024884928654298"><ele>248.0</ele><time>2026-04-21T10:39:03.999Z</time></trkpt><trkpt lat="45.39870819964434" lon="8.024727779682268"><ele>247.0</ele><time>2026-04-21T10:39:04.999Z</time></trkpt><trkpt lat="45.398842040013776" lon="8.024563335199797"><ele>247.0</ele><time>2026-04-21T10:39:05.999Z</time></trkpt><trkpt lat="45.39897137093683" lon="8.024404277349356"><ele>247.0</ele><time>2026-04-21T10:39:06.999Z</time></trkpt><trkpt lat="45.39909226733441" lon="8.024249795069727"><ele>247.0</ele><time>2026-04-21T10:39:07.999Z</time></trkpt><trkpt lat="45.3992068350281" lon="8.024103062664192"><ele>246.5</ele><time>2026-04-21T10:39:08.999Z</time></trkpt><trkpt lat="45.3993080968543" lon="8.023958315234534"><ele>246.0</ele><time>2026-04-21T10:39:09.999Z</time></trkpt><trkpt lat="45.399426544202825" lon="8.02382661546925"><ele>245.5</ele><time>2026-04-21T10:39:10.999Z</time></trkpt><trkpt lat="45.39955127472458" lon="8.023707725907926"><ele>245.0</ele><time>2026-04-21T10:39:11.999Z</time></trkpt><trkpt lat="45.39967911125335" lon="8.023606175579715"><ele>245.0</ele><time>2026-04-21T10:39:12.999Z</time></trkpt><trkpt lat="45.399820338990885" lon="8.023514784368604"><ele>245.0</ele><time>2026-04-21T10:39:13.999Z</time></trkpt><trkpt lat="45.39997794088619" lon="8.023433085837212"><ele>245.0</ele><time>2026-04-21T10:39:14.999Z</time></trkpt><trkpt lat="45.400151845386574" lon="8.023356310553753"><ele>245.66666666666669</ele><time>2026-04-21T10:39:15.999Z</time></trkpt><trkpt lat="45.400308737470134" lon="8.023287698794062"><ele>246.33333333333331</ele><time>2026-04-21T10:39:16.999Z</time></trkpt><trkpt lat="45.400456586962605" lon="8.023223176718473"><ele>247.0</ele><time>2026-04-21T10:39:17.999Z</time></trkpt><trkpt lat="45.400590454204874" lon="8.023169028761703"><ele>247.0</ele><time>2026-04-21T10:39:18.999Z</time></trkpt><trkpt lat="45.40070467999768" lon="8.023115571121812"><ele>247.0</ele><time>2026-04-21T10:39:19.999Z</time></trkpt><trkpt lat="45.40079732947454" lon="8.023064804445362"><ele>247.0</ele><time>2026-04-21T10:39:20.999Z</time></trkpt><trkpt lat="45.40088693756123" lon="8.023004073799516"><ele>247.0</ele><time>2026-04-21T10:39:21.999Z</time></trkpt><trkpt lat="45.40098102366301" lon="8.022912051530831"><ele>247.0</ele><time>2026-04-21T10:39:22.999Z</time></trkpt><trkpt lat="45.40108755379457" lon="8.022790043594604"><ele>247.0</ele><time>2026-04-21T10:39:23.999Z</time></trkpt><trkpt lat="45.401211602818165" lon="8.0226575558429"><ele>247.0</ele><time>2026-04-21T10:39:24.999Z</time></trkpt><trkpt lat="45.40135913027075" lon="8.022569110874993"><ele>247.0</ele><time>2026-04-21T10:39:25.999Z</time></trkpt><trkpt lat="45.401491309094055" lon="8.022447005389633"><ele>248.39999999999998</ele><time>2026-04-21T10:39:26.999Z</time></trkpt><trkpt lat="45.40161215738541" lon="8.022354531150052"><ele>249.79999999999998</ele><time>2026-04-21T10:39:28Z</time></trkpt><trkpt lat="45.401713720025235" lon="8.02227208807854"><ele>251.2</ele><time>2026-04-21T10:39:29Z</time></trkpt><trkpt lat="45.40180127221574" lon="8.022207577343698"><ele>252.6</ele><time>2026-04-21T10:39:30Z</time></trkpt><trkpt lat="45.40188404408941" lon="8.022149263401142"><ele>254.0</ele><time>2026-04-21T10:39:31Z</time></trkpt><trkpt lat="45.4019632103078" lon="8.022093120437525"><ele>254.0</ele><time>2026-04-21T10:39:32Z</time></trkpt><trkpt lat="45.40205060246306" lon="8.022034179810174"><ele>253.99999999999997</ele><time>2026-04-21T10:39:33Z</time></trkpt><trkpt lat="45.402140855460964" lon="8.021989690574879"><ele>253.99999999999997</ele><time>2026-04-21T10:39:34Z</time></trkpt><trkpt lat="45.402239430819186" lon="8.021946652785253"><ele>254.0</ele><time>2026-04-21T10:39:35Z</time></trkpt><trkpt lat="45.402339985515255" lon="8.021915679657976"><ele>254.0</ele><time>2026-04-21T10:39:36Z</time></trkpt><trkpt lat="45.4024351006694" lon="8.021886687435108"><ele>252.79999999999998</ele><time>2026-04-21T10:39:37Z</time></trkpt><trkpt lat="45.402519210308405" lon="8.021859807248982"><ele>251.59999999999997</ele><time>2026-04-21T10:39:38Z</time></trkpt><trkpt lat="45.40260530735492" lon="8.021840900627598"><ele>250.4</ele><time>2026-04-21T10:39:39Z</time></trkpt><trkpt lat="45.402692330343086" lon="8.02181700573228"><ele>249.2</ele><time>2026-04-21T10:39:40Z</time></trkpt><trkpt lat="45.402789606035334" lon="8.021791135514697"><ele>248.0</ele><time>2026-04-21T10:39:41Z</time></trkpt><trkpt lat="45.40288689622408" lon="8.021767299719249"><ele>248.0</ele><time>2026-04-21T10:39:42Z</time></trkpt><trkpt lat="45.402980887003466" lon="8.0217417677088"><ele>248.0</ele><time>2026-04-21T10:39:43Z</time></trkpt><trkpt lat="45.40307820476859" lon="8.021711191868103"><ele>248.0</ele><time>2026-04-21T10:39:44Z</time></trkpt><trkpt lat="45.40319337714267" lon="8.021674439681524"><ele>248.0</ele><time>2026-04-21T10:39:45Z</time></trkpt><trkpt lat="45.40330869035167" lon="8.021631139358844"><ele>248.0</ele><time>2026-04-21T10:39:46Z</time></trkpt><trkpt lat="45.403425291498486" lon="8.0216103132591"><ele>248.25</ele><time>2026-04-21T10:39:47Z</time></trkpt><trkpt lat="45.40354478017258" lon="8.021546250077108"><ele>248.5</ele><time>2026-04-21T10:39:48Z</time></trkpt><trkpt lat="45.40367818828427" lon="8.021451150681884"><ele>248.75</ele><time>2026-04-21T10:39:49Z</time></trkpt><trkpt lat="45.40381127274158" lon="8.02132938460877"><ele>249.0</ele><time>2026-04-21T10:39:50Z</time></trkpt><trkpt lat="45.40396003410223" lon="8.021199661900289"><ele>249.0</ele><time>2026-04-21T10:39:51Z</time></trkpt><trkpt lat="45.40408768517411" lon="8.02109031808128"><ele>249.0</ele><time>2026-04-21T10:39:52Z</time></trkpt><trkpt lat="45.40419774242706" lon="8.020994098531496"><ele>249.0</ele><time>2026-04-21T10:39:52.999Z</time></trkpt><trkpt lat="45.40430380099598" lon="8.020906976334015"><ele>249.0</ele><time>2026-04-21T10:39:53.999Z</time></trkpt><trkpt lat="45.40441269086981" lon="8.0208296755378"><ele>249.6</ele><time>2026-04-21T10:39:54.999Z</time></trkpt><trkpt lat="45.40452445242144" lon="8.020756049534361"><ele>250.2</ele><time>2026-04-21T10:39:55.999Z</time></trkpt><trkpt lat="45.40462098231657" lon="8.020708262077505"><ele>250.79999999999998</ele><time>2026-04-21T10:39:56.999Z</time></trkpt><trkpt lat="45.40471670436777" lon="8.020668308561405"><ele>251.39999999999998</ele><time>2026-04-21T10:39:57.999Z</time></trkpt><trkpt lat="45.40480485045876" lon="8.020631517163052"><ele>252.0</ele><time>2026-04-21T10:39:58.999Z</time></trkpt><trkpt lat="45.404884637249786" lon="8.02059474902017"><ele>252.0</ele><time>2026-04-21T10:39:59.999Z</time></trkpt><trkpt lat="45.40495957024538" lon="8.020549738001222"><ele>252.0</ele><time>2026-04-21T10:40:00.999Z</time></trkpt><trkpt lat="45.40502932522514" lon="8.02050023825521"><ele>252.0</ele><time>2026-04-21T10:40:01.999Z</time></trkpt><trkpt lat="45.40510596251056" lon="8.020443296303057"><ele>252.0</ele><time>2026-04-21T10:40:02.999Z</time></trkpt><trkpt lat="45.40518229324106" lon="8.02038304274878"><ele>252.0</ele><time>2026-04-21T10:40:03.999Z</time></trkpt><trkpt lat="45.405270996182345" lon="8.020308886414266"><ele>252.0</ele><time>2026-04-21T10:40:04.999Z</time></trkpt><trkpt lat="45.4053616447021" lon="8.020230133661245"><ele>252.0</ele><time>2026-04-21T10:40:05.999Z</time></trkpt><trkpt lat="45.405439921052086" lon="8.020156851758976"><ele>252.0</ele><time>2026-04-21T10:40:06.999Z</time></trkpt><trkpt lat="45.405518817638786" lon="8.020082989359294"><ele>252.0</ele><time>2026-04-21T10:40:07.999Z</time></trkpt><trkpt lat="45.405591776749546" lon="8.020012268250825"><ele>252.0</ele><time>2026-04-21T10:40:08.999Z</time></trkpt><trkpt lat="45.405663546182865" lon="8.01993759781977"><ele>252.0</ele><time>2026-04-21T10:40:09.999Z</time></trkpt><trkpt lat="45.40573216391334" lon="8.019862652389754"><ele>253.39999999999998</ele><time>2026-04-21T10:40:10.999Z</time></trkpt><trkpt lat="45.40581363426656" lon="8.019773669268188"><ele>254.79999999999998</ele><time>2026-04-21T10:40:11.999Z</time></trkpt><trkpt lat="45.40589707061052" lon="8.019682538753408"><ele>256.2</ele><time>2026-04-21T10:40:12.999Z</time></trkpt><trkpt lat="45.405967941969024" lon="8.019607527267484"><ele>257.59999999999997</ele><time>2026-04-21T10:40:13.999Z</time></trkpt><trkpt lat="45.406055442873296" lon="8.019515118447377"><ele>259.0</ele><time>2026-04-21T10:40:14.999Z</time></trkpt><trkpt lat="45.4061524907764" lon="8.019398526047988"><ele>259.0</ele><time>2026-04-21T10:40:15.999Z</time></trkpt><trkpt lat="45.40625024446202" lon="8.019274854012968"><ele>259.0</ele><time>2026-04-21T10:40:16.999Z</time></trkpt><trkpt lat="45.4063474600797" lon="8.019139561290567"><ele>259.0</ele><time>2026-04-21T10:40:17.999Z</time></trkpt><trkpt lat="45.40642928980497" lon="8.019016105035611"><ele>259.0</ele><time>2026-04-21T10:40:18.999Z</time></trkpt><trkpt lat="45.40651895392118" lon="8.018880828794222"><ele>259.0</ele><time>2026-04-21T10:40:19.999Z</time></trkpt><trkpt lat="45.406599431988695" lon="8.01875941177665"><ele>259.0</ele><time>2026-04-21T10:40:20.999Z</time></trkpt><trkpt lat="45.406687537881666" lon="8.018629948876686"><ele>259.0</ele><time>2026-04-21T10:40:21.999Z</time></trkpt><trkpt lat="45.40678150110782" lon="8.018516113366305"><ele>259.0</ele><time>2026-04-21T10:40:22.999Z</time></trkpt><trkpt lat="45.40688175025774" lon="8.018412354779393"><ele>259.25</ele><time>2026-04-21T10:40:23.999Z</time></trkpt><trkpt lat="45.40698590226962" lon="8.018284639905865"><ele>259.5</ele><time>2026-04-21T10:40:24.999Z</time></trkpt><trkpt lat="45.40709933344085" lon="8.018184154491236"><ele>259.75</ele><time>2026-04-21T10:40:25.999Z</time></trkpt><trkpt lat="45.40719669384424" lon="8.018098310229693"><ele>260.0</ele><time>2026-04-21T10:40:26.999Z</time></trkpt><trkpt lat="45.40729870914113" lon="8.018009320571306"><ele>260.0</ele><time>2026-04-21T10:40:27.999Z</time></trkpt><trkpt lat="45.40738197775278" lon="8.017914545403126"><ele>260.0</ele><time>2026-04-21T10:40:28.999Z</time></trkpt><trkpt lat="45.40747016373309" lon="8.017844781116294"><ele>260.0</ele><time>2026-04-21T10:40:29.999Z</time></trkpt><trkpt lat="45.407583414560825" lon="8.017789345294494"><ele>260.0</ele><time>2026-04-21T10:40:30.999Z</time></trkpt><trkpt lat="45.40770323131923" lon="8.017752798235989"><ele>260.0</ele><time>2026-04-21T10:40:31.999Z</time></trkpt><trkpt lat="45.40782899956214" lon="8.017730821297938"><ele>260.0</ele><time>2026-04-21T10:40:32.999Z</time></trkpt><trkpt lat="45.407949781838916" lon="8.017730027041948"><ele>260.0</ele><time>2026-04-21T10:40:33.999Z</time></trkpt><trkpt lat="45.40808429474587" lon="8.01773741559362"><ele>260.0</ele><time>2026-04-21T10:40:34.999Z</time></trkpt><trkpt lat="45.408216198179105" lon="8.017748465327264"><ele>260.25</ele><time>2026-04-21T10:40:35.999Z</time></trkpt><trkpt lat="45.408360834756074" lon="8.017768155784989"><ele>260.5</ele><time>2026-04-21T10:40:36.999Z</time></trkpt><trkpt lat="45.408494916183095" lon="8.017819375336185"><ele>260.75</ele><time>2026-04-21T10:40:37.999Z</time></trkpt><trkpt lat="45.40862743857042" lon="8.017833577014114"><ele>261.0</ele><time>2026-04-21T10:40:38.999Z</time></trkpt><trkpt lat="45.40876686863821" lon="8.017860391464751"><ele>263.5</ele><time>2026-04-21T10:40:39.999Z</time></trkpt><trkpt lat="45.40889968202353" lon="8.017894588862118"><ele>266.0</ele><time>2026-04-21T10:40:40.999Z</time></trkpt><trkpt lat="45.40903507280922" lon="8.017932498450817"><ele>268.5</ele><time>2026-04-21T10:40:41.999Z</time></trkpt><trkpt lat="45.40916923113439" lon="8.017975662126545"><ele>271.0</ele><time>2026-04-21T10:40:42.999Z</time></trkpt><trkpt lat="45.40929397404048" lon="8.018032938994372"><ele>271.0</ele><time>2026-04-21T10:40:43.999Z</time></trkpt><trkpt lat="45.40941809281852" lon="8.018110967259123"><ele>271.0</ele><time>2026-04-21T10:40:44.999Z</time></trkpt><trkpt lat="45.40953912586171" lon="8.018210059664417"><ele>271.0</ele><time>2026-04-21T10:40:45.999Z</time></trkpt><trkpt lat="45.409651361358414" lon="8.018312978053704"><ele>271.0</ele><time>2026-04-21T10:40:46.999Z</time></trkpt><trkpt lat="45.409765307234224" lon="8.018420011033838"><ele>270.25</ele><time>2026-04-21T10:40:47.999Z</time></trkpt><trkpt lat="45.409873005743236" lon="8.018502458403741"><ele>269.5</ele><time>2026-04-21T10:40:48.999Z</time></trkpt><trkpt lat="45.40996936400165" lon="8.018580546824388"><ele>268.75</ele><time>2026-04-21T10:40:49.999Z</time></trkpt><trkpt lat="45.41007602211803" lon="8.018645964510021"><ele>268.0</ele><time>2026-04-21T10:40:50.999Z</time></trkpt><trkpt lat="45.410176647627985" lon="8.018689825850798"><ele>268.0</ele><time>2026-04-21T10:40:51.999Z</time></trkpt><trkpt lat="45.41028050049387" lon="8.018693741649724"><ele>268.0</ele><time>2026-04-21T10:40:52.999Z</time></trkpt><trkpt lat="45.41039251925028" lon="8.018641776716573"><ele>268.0</ele><time>2026-04-21T10:40:53.999Z</time></trkpt><trkpt lat="45.410530347586615" lon="8.018595662609199"><ele>268.0</ele><time>2026-04-21T10:40:54.999Z</time></trkpt><trkpt lat="45.410671428871666" lon="8.018540315111032"><ele>268.25</ele><time>2026-04-21T10:40:55.999Z</time></trkpt><trkpt lat="45.4107975627996" lon="8.018488272474837"><ele>268.5</ele><time>2026-04-21T10:40:56.999Z</time></trkpt><trkpt lat="45.410920071439456" lon="8.018430786484007"><ele>268.75</ele><time>2026-04-21T10:40:57.999Z</time></trkpt><trkpt lat="45.41103703201789" lon="8.018335197587591"><ele>269.0</ele><time>2026-04-21T10:40:58.999Z</time></trkpt><trkpt lat="45.41114980432222" lon="8.018259842250949"><ele>272.25</ele><time>2026-04-21T10:40:59.999Z</time></trkpt><trkpt lat="45.41126551469679" lon="8.018201450171661"><ele>275.5</ele><time>2026-04-21T10:41:00.999Z</time></trkpt><trkpt lat="45.41138310345808" lon="8.018131376195784"><ele>278.75</ele><time>2026-04-21T10:41:01.999Z</time></trkpt><trkpt lat="45.41150731721212" lon="8.018057098076879"><ele>282.0</ele><time>2026-04-21T10:41:02.999Z</time></trkpt><trkpt lat="45.41164415391557" lon="8.018016248123695"><ele>282.0</ele><time>2026-04-21T10:41:03.999Z</time></trkpt><trkpt lat="45.41178247924904" lon="8.018008112085024"><ele>282.0</ele><time>2026-04-21T10:41:04.999Z</time></trkpt><trkpt lat="45.41192162612871" lon="8.017983748518509"><ele>282.0</ele><time>2026-04-21T10:41:05.999Z</time></trkpt><trkpt lat="45.41207724774978" lon="8.01796636406971"><ele>282.0</ele><time>2026-04-21T10:41:06.999Z</time></trkpt><trkpt lat="45.41222655686854" lon="8.017950844324728"><ele>279.0</ele><time>2026-04-21T10:41:07.999Z</time></trkpt><trkpt lat="45.412365798206665" lon="8.017923441989463"><ele>276.0</ele><time>2026-04-21T10:41:08.999Z</time></trkpt><trkpt lat="45.41249911267973" lon="8.017883603079579"><ele>273.0</ele><time>2026-04-21T10:41:09.999Z</time></trkpt><trkpt lat="45.41261408231886" lon="8.017831952098156"><ele>270.0</ele><time>2026-04-21T10:41:10.999Z</time></trkpt><trkpt lat="45.41271034522169" lon="8.01777626306433"><ele>270.0</ele><time>2026-04-21T10:41:11.999Z</time></trkpt><trkpt lat="45.41280248017775" lon="8.017698377247342"><ele>270.0</ele><time>2026-04-21T10:41:12.999Z</time></trkpt><trkpt lat="45.4129022796001" lon="8.017588096278683"><ele>270.0</ele><time>2026-04-21T10:41:13.999Z</time></trkpt><trkpt lat="45.41301243000517" lon="8.017445907804088"><ele>270.0</ele><time>2026-04-21T10:41:14.999Z</time></trkpt><trkpt lat="45.4131243162686" lon="8.017286003896745"><ele>269.75</ele><time>2026-04-21T10:41:15.999Z</time></trkpt><trkpt lat="45.41321797705419" lon="8.017133266957917"><ele>269.5</ele><time>2026-04-21T10:41:16.999Z</time></trkpt><trkpt lat="45.41330493415802" lon="8.01698741135349"><ele>269.25</ele><time>2026-04-21T10:41:17.999Z</time></trkpt><trkpt lat="45.41338854281393" lon="8.016849314871425"><ele>269.0</ele><time>2026-04-21T10:41:18.999Z</time></trkpt><trkpt lat="45.41346566249752" lon="8.016729464856994"><ele>267.5</ele><time>2026-04-21T10:41:19.999Z</time></trkpt><trkpt lat="45.413561791867856" lon="8.0166038624332"><ele>266.0</ele><time>2026-04-21T10:41:20.999Z</time></trkpt><trkpt lat="45.4136598857396" lon="8.016473979771682"><ele>264.5</ele><time>2026-04-21T10:41:21.999Z</time></trkpt><trkpt lat="45.413763035416025" lon="8.016390901847764"><ele>263.0</ele><time>2026-04-21T10:41:22.999Z</time></trkpt><trkpt lat="45.41385151537461" lon="8.016299838565207"><ele>263.0</ele><time>2026-04-21T10:41:23.999Z</time></trkpt><trkpt lat="45.4139324768095" lon="8.016228479298885"><ele>263.0</ele><time>2026-04-21T10:41:24.999Z</time></trkpt><trkpt lat="45.41402296544577" lon="8.016161311016077"><ele>263.0</ele><time>2026-04-21T10:41:25.999Z</time></trkpt><trkpt lat="45.414144488970685" lon="8.016099838933847"><ele>263.0</ele><time>2026-04-21T10:41:26.999Z</time></trkpt><trkpt lat="45.41427735681389" lon="8.01605230903074"><ele>263.0</ele><time>2026-04-21T10:41:27.999Z</time></trkpt><trkpt lat="45.414407711816395" lon="8.015980314349568"><ele>263.0</ele><time>2026-04-21T10:41:28.999Z</time></trkpt><trkpt lat="45.41452955854456" lon="8.015930323179992"><ele>263.0</ele><time>2026-04-21T10:41:29.999Z</time></trkpt><trkpt lat="45.41464645009743" lon="8.015854088548236"><ele>263.0</ele><time>2026-04-21T10:41:30.999Z</time></trkpt><trkpt lat="45.414761015405766" lon="8.015738044492245"><ele>263.33333333333337</ele><time>2026-04-21T10:41:31.999Z</time></trkpt><trkpt lat="45.41485324525833" lon="8.015576787312579"><ele>263.6666666666667</ele><time>2026-04-21T10:41:32.999Z</time></trkpt><trkpt lat="45.41496989487437" lon="8.015423326884314"><ele>264.0</ele><time>2026-04-21T10:41:34Z</time></trkpt><trkpt lat="45.41506008951218" lon="8.015257530184654"><ele>264.0</ele><time>2026-04-21T10:41:35Z</time></trkpt><trkpt lat="45.41513864434747" lon="8.015099688880959"><ele>264.0</ele><time>2026-04-21T10:41:36Z</time></trkpt><trkpt lat="45.41521753533751" lon="8.01492995142405"><ele>264.0</ele><time>2026-04-21T10:41:37Z</time></trkpt><trkpt lat="45.41529439230188" lon="8.014745416280736"><ele>264.0</ele><time>2026-04-21T10:41:38Z</time></trkpt><trkpt lat="45.41536112484712" lon="8.01456860314337"><ele>264.75</ele><time>2026-04-21T10:41:39Z</time></trkpt><trkpt lat="45.4154246790055" lon="8.01440859617299"><ele>265.5</ele><time>2026-04-21T10:41:40Z</time></trkpt><trkpt lat="45.41549733072034" lon="8.014247659325108"><ele>266.25</ele><time>2026-04-21T10:41:41Z</time></trkpt><trkpt lat="45.415576530136384" lon="8.01407585447003"><ele>267.0</ele><time>2026-04-21T10:41:42Z</time></trkpt><trkpt lat="45.41564841238113" lon="8.013921025563404"><ele>264.75</ele><time>2026-04-21T10:41:43Z</time></trkpt><trkpt lat="45.41571745174645" lon="8.013771229476648"><ele>262.5</ele><time>2026-04-21T10:41:44Z</time></trkpt><trkpt lat="45.41578004950502" lon="8.013628675490127"><ele>260.25</ele><time>2026-04-21T10:41:45Z</time></trkpt><trkpt lat="45.415845531267095" lon="8.013479553537962"><ele>258.0</ele><time>2026-04-21T10:41:46Z</time></trkpt><trkpt lat="45.415907550576605" lon="8.013298995912214"><ele>258.0</ele><time>2026-04-21T10:41:47Z</time></trkpt><trkpt lat="45.41600834848343" lon="8.01311950846455"><ele>258.0</ele><time>2026-04-21T10:41:48Z</time></trkpt><trkpt lat="45.416113144212275" lon="8.012923416870136"><ele>258.0</ele><time>2026-04-21T10:41:49Z</time></trkpt><trkpt lat="45.41620943472982" lon="8.01274292440131"><ele>258.0</ele><time>2026-04-21T10:41:50Z</time></trkpt><trkpt lat="45.41631652574313" lon="8.012595355451005"><ele>258.0</ele><time>2026-04-21T10:41:51Z</time></trkpt><trkpt lat="45.416417870503174" lon="8.012420520737681"><ele>258.0</ele><time>2026-04-21T10:41:52Z</time></trkpt><trkpt lat="45.4165399131557" lon="8.01223832362455"><ele>256.3333333333333</ele><time>2026-04-21T10:41:53Z</time></trkpt><trkpt lat="45.41665219933358" lon="8.012041433196035"><ele>254.66666666666666</ele><time>2026-04-21T10:41:54Z</time></trkpt><trkpt lat="45.416751589694655" lon="8.01186270220738"><ele>253.0</ele><time>2026-04-21T10:41:55Z</time></trkpt><trkpt lat="45.416841770521216" lon="8.011696496919681"><ele>254.0</ele><time>2026-04-21T10:41:55.999Z</time></trkpt><trkpt lat="45.41693464396206" lon="8.011523715130384"><ele>255.0</ele><time>2026-04-21T10:41:56.999Z</time></trkpt><trkpt lat="45.41701440631781" lon="8.011337483622281"><ele>256.0</ele><time>2026-04-21T10:41:57.999Z</time></trkpt><trkpt lat="45.4171034188526" lon="8.011168571471659"><ele>254.66666666666666</ele><time>2026-04-21T10:41:58.999Z</time></trkpt><trkpt lat="45.417197088026995" lon="8.010989424176445"><ele>253.33333333333331</ele><time>2026-04-21T10:41:59.999Z</time></trkpt><trkpt lat="45.41729731831109" lon="8.010838417758238"><ele>252.0</ele><time>2026-04-21T10:42:00.999Z</time></trkpt><trkpt lat="45.417387404013404" lon="8.010665211997857"><ele>252.0</ele><time>2026-04-21T10:42:01.999Z</time></trkpt><trkpt lat="45.41747927075756" lon="8.0104880405696"><ele>252.0</ele><time>2026-04-21T10:42:02.999Z</time></trkpt><trkpt lat="45.41756867021175" lon="8.01031562710485"><ele>252.0</ele><time>2026-04-21T10:42:03.999Z</time></trkpt><trkpt lat="45.41764914018893" lon="8.010160884379932"><ele>252.0</ele><time>2026-04-21T10:42:04.999Z</time></trkpt><trkpt lat="45.41772778797706" lon="8.010012365399664"><ele>252.75</ele><time>2026-04-21T10:42:05.999Z</time></trkpt><trkpt lat="45.41781053932495" lon="8.009856979415025"><ele>253.5</ele><time>2026-04-21T10:42:06.999Z</time></trkpt><trkpt lat="45.41787804396313" lon="8.009682531817468"><ele>254.25</ele><time>2026-04-21T10:42:07.999Z</time></trkpt><trkpt lat="45.41796904100224" lon="8.009525996238876"><ele>255.0</ele><time>2026-04-21T10:42:08.999Z</time></trkpt><trkpt lat="45.41805088051941" lon="8.00934330683391"><ele>252.0</ele><time>2026-04-21T10:42:09.999Z</time></trkpt><trkpt lat="45.41813406286966" lon="8.009148860081208"><ele>249.0</ele><time>2026-04-21T10:42:10.999Z</time></trkpt><trkpt lat="45.41820548412918" lon="8.008923652709692"><ele>246.0</ele><time>2026-04-21T10:42:11.999Z</time></trkpt><trkpt lat="45.41828815041154" lon="8.008715774194245"><ele>246.0</ele><time>2026-04-21T10:42:12.999Z</time></trkpt><trkpt lat="45.41836364031324" lon="8.008509321590168"><ele>246.0</ele><time>2026-04-21T10:42:13.999Z</time></trkpt><trkpt lat="45.41843015143857" lon="8.008311294943518"><ele>246.0</ele><time>2026-04-21T10:42:14.999Z</time></trkpt><trkpt lat="45.41849179522968" lon="8.00813027848863"><ele>245.66666666666669</ele><time>2026-04-21T10:42:15.999Z</time></trkpt><trkpt lat="45.41857311660126" lon="8.007958919453612"><ele>245.33333333333334</ele><time>2026-04-21T10:42:16.999Z</time></trkpt><trkpt lat="45.41864553883236" lon="8.00776776039303"><ele>245.0</ele><time>2026-04-21T10:42:17.999Z</time></trkpt><trkpt lat="45.41872741439066" lon="8.007564715056692"><ele>243.66666666666669</ele><time>2026-04-21T10:42:18.999Z</time></trkpt><trkpt lat="45.4188211219501" lon="8.00735864598253"><ele>242.33333333333331</ele><time>2026-04-21T10:42:19.999Z</time></trkpt><trkpt lat="45.41892270758695" lon="8.007146955154854"><ele>241.0</ele><time>2026-04-21T10:42:20.999Z</time></trkpt><trkpt lat="45.419022338698575" lon="8.006933396572263"><ele>241.0</ele><time>2026-04-21T10:42:21.999Z</time></trkpt><trkpt lat="45.419111147391504" lon="8.006742431086275"><ele>241.0</ele><time>2026-04-21T10:42:22.999Z</time></trkpt><trkpt lat="45.419203573766495" lon="8.006543686541827"><ele>241.0</ele><time>2026-04-21T10:42:23.999Z</time></trkpt><trkpt lat="45.41929458687579" lon="8.006347449409988"><ele>240.66666666666666</ele><time>2026-04-21T10:42:24.999Z</time></trkpt><trkpt lat="45.41937832803615" lon="8.006163747380828"><ele>240.33333333333331</ele><time>2026-04-21T10:42:25.999Z</time></trkpt><trkpt lat="45.41946522375335" lon="8.00597103467909"><ele>240.0</ele><time>2026-04-21T10:42:26.999Z</time></trkpt><trkpt lat="45.41955516368516" lon="8.005769402096892"><ele>240.0</ele><time>2026-04-21T10:42:27.999Z</time></trkpt><trkpt lat="45.419642287255684" lon="8.005574083796828"><ele>240.0</ele><time>2026-04-21T10:42:28.999Z</time></trkpt><trkpt lat="45.41972368303444" lon="8.005392916992603"><ele>240.0</ele><time>2026-04-21T10:42:29.999Z</time></trkpt><trkpt lat="45.41980976570296" lon="8.005205723715173"><ele>239.5</ele><time>2026-04-21T10:42:30.999Z</time></trkpt><trkpt lat="45.41988995687696" lon="8.005031677810276"><ele>239.0</ele><time>2026-04-21T10:42:31.999Z</time></trkpt><trkpt lat="45.419972260983045" lon="8.004855813355537"><ele>238.5</ele><time>2026-04-21T10:42:32.999Z</time></trkpt><trkpt lat="45.420050313049664" lon="8.004693670152168"><ele>238.0</ele><time>2026-04-21T10:42:33.999Z</time></trkpt><trkpt lat="45.420132150863445" lon="8.00452722259159"><ele>238.0</ele><time>2026-04-21T10:42:34.999Z</time></trkpt><trkpt lat="45.420216173914035" lon="8.004384552601158"><ele>238.0</ele><time>2026-04-21T10:42:35.999Z</time></trkpt><trkpt lat="45.42032487560627" lon="8.004279065967877"><ele>238.0</ele><time>2026-04-21T10:42:36.999Z</time></trkpt><trkpt lat="45.42045870187183" lon="8.004179428094334"><ele>238.0</ele><time>2026-04-21T10:42:37.999Z</time></trkpt><trkpt lat="45.420575023738586" lon="8.004095894478327"><ele>238.0</ele><time>2026-04-21T10:42:38.999Z</time></trkpt><trkpt lat="45.42068267232928" lon="8.00400203238569"><ele>238.0</ele><time>2026-04-21T10:42:39.999Z</time></trkpt><trkpt lat="45.420772717101364" lon="8.003858924115713"><ele>238.0</ele><time>2026-04-21T10:42:40.999Z</time></trkpt><trkpt lat="45.42086741411957" lon="8.003701102009552"><ele>238.0</ele><time>2026-04-21T10:42:41.999Z</time></trkpt><trkpt lat="45.42093092357177" lon="8.003492245787871"><ele>238.33333333333331</ele><time>2026-04-21T10:42:42.999Z</time></trkpt><trkpt lat="45.42097186819714" lon="8.003250978492144"><ele>238.66666666666669</ele><time>2026-04-21T10:42:43.999Z</time></trkpt><trkpt lat="45.421007397616485" lon="8.003038912072181"><ele>239.0</ele><time>2026-04-21T10:42:44.999Z</time></trkpt><trkpt lat="45.42103914470289" lon="8.00284942198796"><ele>239.0</ele><time>2026-04-21T10:42:45.999Z</time></trkpt><trkpt lat="45.42106794904088" lon="8.002663439218097"><ele>239.0</ele><time>2026-04-21T10:42:46.999Z</time></trkpt><trkpt lat="45.421071254032526" lon="8.002455484667795"><ele>239.0</ele><time>2026-04-21T10:42:47.999Z</time></trkpt><trkpt lat="45.421082507029524" lon="8.002268462023373"><ele>239.0</ele><time>2026-04-21T10:42:48.999Z</time></trkpt><trkpt lat="45.42107363730514" lon="8.002107451613917"><ele>239.2</ele><time>2026-04-21T10:42:49.999Z</time></trkpt><trkpt lat="45.42107156475054" lon="8.001979992611178"><ele>239.39999999999998</ele><time>2026-04-21T10:42:50.999Z</time></trkpt><trkpt lat="45.42106994640458" lon="8.00188883928453"><ele>239.6</ele><time>2026-04-21T10:42:51.999Z</time></trkpt><trkpt lat="45.42104631526858" lon="8.001740369683912"><ele>239.8</ele><time>2026-04-21T10:42:53.999Z</time></trkpt><trkpt lat="45.42117064856451" lon="8.001609315619445"><ele>240.0</ele><time>2026-04-21T10:42:55.999Z</time></trkpt><trkpt lat="45.42127286598065" lon="8.001580543204541"><ele>239.25</ele><time>2026-04-21T10:42:56.999Z</time></trkpt><trkpt lat="45.42137442622035" lon="8.001494080937654"><ele>238.5</ele><time>2026-04-21T10:42:57.999Z</time></trkpt><trkpt lat="45.421484137314785" lon="8.001415267212078"><ele>237.75</ele><time>2026-04-21T10:42:58.999Z</time></trkpt><trkpt lat="45.42159996193351" lon="8.001314951055942"><ele>237.0</ele><time>2026-04-21T10:42:59.999Z</time></trkpt><trkpt lat="45.421715768816924" lon="8.00120409599636"><ele>237.0</ele><time>2026-04-21T10:43:00.999Z</time></trkpt><trkpt lat="45.421814612236325" lon="8.001096862568225"><ele>237.0</ele><time>2026-04-21T10:43:01.999Z</time></trkpt><trkpt lat="45.42190723963781" lon="8.000990477436085"><ele>237.0</ele><time>2026-04-21T10:43:02.999Z</time></trkpt><trkpt lat="45.42200233079811" lon="8.000889790018281"><ele>237.0</ele><time>2026-04-21T10:43:03.999Z</time></trkpt><trkpt lat="45.42210507534113" lon="8.000774157027704"><ele>236.5</ele><time>2026-04-21T10:43:04.999Z</time></trkpt><trkpt lat="45.42220648193701" lon="8.000653492326997"><ele>236.0</ele><time>2026-04-21T10:43:05.999Z</time></trkpt><trkpt lat="45.42231190991595" lon="8.000561602365137"><ele>235.5</ele><time>2026-04-21T10:43:06.999Z</time></trkpt><trkpt lat="45.42244554123664" lon="8.00051217931962"><ele>235.0</ele><time>2026-04-21T10:43:07.999Z</time></trkpt><trkpt lat="45.42257068264788" lon="8.00048897268028"><ele>235.0</ele><time>2026-04-21T10:43:08.999Z</time></trkpt><trkpt lat="45.42267791776591" lon="8.000445718434646"><ele>235.0</ele><time>2026-04-21T10:43:09.999Z</time></trkpt><trkpt lat="45.422759481238195" lon="8.000396820295698"><ele>235.0</ele><time>2026-04-21T10:43:10.999Z</time></trkpt><trkpt lat="45.42282262484625" lon="8.00035840321123"><ele>235.0</ele><time>2026-04-21T10:43:11.999Z</time></trkpt><trkpt lat="45.42291540100896" lon="8.000342700029103"><ele>235.0</ele><time>2026-04-21T10:43:13.999Z</time></trkpt><trkpt lat="45.42294603190315" lon="8.000550712069384"><ele>235.0</ele><time>2026-04-21T10:43:16.999Z</time></trkpt><trkpt lat="45.422880938999924" lon="8.000647229385978"><ele>235.0</ele><time>2026-04-21T10:43:17.999Z</time></trkpt><trkpt lat="45.4228454122888" lon="8.000792791687374"><ele>235.0</ele><time>2026-04-21T10:43:18.999Z</time></trkpt><trkpt lat="45.422808938857074" lon="8.000947304898572"><ele>235.0</ele><time>2026-04-21T10:43:19.999Z</time></trkpt><trkpt lat="45.42276933760624" lon="8.001117933322682"><ele>235.0</ele><time>2026-04-21T10:43:20.999Z</time></trkpt><trkpt lat="45.42272627431005" lon="8.001307314878023"><ele>235.0</ele><time>2026-04-21T10:43:21.999Z</time></trkpt><trkpt lat="45.422681581212" lon="8.001504781788269"><ele>235.0</ele><time>2026-04-21T10:43:22.999Z</time></trkpt><trkpt lat="45.42263835665078" lon="8.001695760096945"><ele>235.0</ele><time>2026-04-21T10:43:23.999Z</time></trkpt><trkpt lat="45.42259435790715" lon="8.001890158949195"><ele>235.0</ele><time>2026-04-21T10:43:24.999Z</time></trkpt><trkpt lat="45.42255182850066" lon="8.002076093188474"><ele>234.75</ele><time>2026-04-21T10:43:25.999Z</time></trkpt><trkpt lat="45.42250531098786" lon="8.002274897075278"><ele>234.5</ele><time>2026-04-21T10:43:26.999Z</time></trkpt><trkpt lat="45.42246300266747" lon="8.002455712396369"><ele>234.25</ele><time>2026-04-21T10:43:27.999Z</time></trkpt><trkpt lat="45.42241865408751" lon="8.002645246893124"><ele>234.0</ele><time>2026-04-21T10:43:28.999Z</time></trkpt><trkpt lat="45.42237764324077" lon="8.002820517075266"><ele>234.0</ele><time>2026-04-21T10:43:29.999Z</time></trkpt><trkpt lat="45.42234161510845" lon="8.002974492061236"><ele>234.0</ele><time>2026-04-21T10:43:30.999Z</time></trkpt><trkpt lat="45.42231169184069" lon="8.003109704031083"><ele>234.0</ele><time>2026-04-21T10:43:31.999Z</time></trkpt><trkpt lat="45.422287301398555" lon="8.003222009325514"><ele>234.0</ele><time>2026-04-21T10:43:32.999Z</time></trkpt><trkpt lat="45.42226080435483" lon="8.003328718031623"><ele>234.0</ele><time>2026-04-21T10:43:33.999Z</time></trkpt><trkpt lat="45.42223063997413" lon="8.003422465733246"><ele>234.0</ele><time>2026-04-21T10:43:34.999Z</time></trkpt><trkpt lat="45.42240548040308" lon="8.00365924499476"><ele>233.75</ele><time>2026-04-21T10:43:37Z</time></trkpt><trkpt lat="45.42248306520804" lon="8.003755515262137"><ele>233.5</ele><time>2026-04-21T10:43:38Z</time></trkpt><trkpt lat="45.42257053061879" lon="8.00386511607847"><ele>233.25</ele><time>2026-04-21T10:43:39Z</time></trkpt><trkpt lat="45.42264827310881" lon="8.003988333295684"><ele>233.0</ele><time>2026-04-21T10:43:40.001Z</time></trkpt><trkpt lat="45.422723343755266" lon="8.004137801835943"><ele>232.75</ele><time>2026-04-21T10:43:41.001Z</time></trkpt><trkpt lat="45.42279082713039" lon="8.00431401264454"><ele>232.5</ele><time>2026-04-21T10:43:42.001Z</time></trkpt><trkpt lat="45.42286011772461" lon="8.00451637635542"><ele>232.25</ele><time>2026-04-21T10:43:43.001Z</time></trkpt><trkpt lat="45.422910452050644" lon="8.004686616654146"><ele>232.0</ele><time>2026-04-21T10:43:44.001Z</time></trkpt><trkpt lat="45.42295789569146" lon="8.004856873859255"><ele>232.5</ele><time>2026-04-21T10:43:45.001Z</time></trkpt><trkpt lat="45.423012013239756" lon="8.005040891710516"><ele>233.0</ele><time>2026-04-21T10:43:46.001Z</time></trkpt><trkpt lat="45.423057046020325" lon="8.005228532812046"><ele>233.5</ele><time>2026-04-21T10:43:47.001Z</time></trkpt><trkpt lat="45.42309659040057" lon="8.005424227162441"><ele>234.0</ele><time>2026-04-21T10:43:48.001Z</time></trkpt><trkpt lat="45.42312492524302" lon="8.005622251361505"><ele>234.0</ele><time>2026-04-21T10:43:49.001Z</time></trkpt><trkpt lat="45.42315741564136" lon="8.005831832414575"><ele>234.0</ele><time>2026-04-21T10:43:50.001Z</time></trkpt><trkpt lat="45.423185163282724" lon="8.006028160945458"><ele>234.0</ele><time>2026-04-21T10:43:51.001Z</time></trkpt><trkpt lat="45.423211923957034" lon="8.006219965294548"><ele>234.0</ele><time>2026-04-21T10:43:52.001Z</time></trkpt><trkpt lat="45.42324145039353" lon="8.006400100147932"><ele>234.0</ele><time>2026-04-21T10:43:53.001Z</time></trkpt><trkpt lat="45.42327230104468" lon="8.006584900960094"><ele>234.0</ele><time>2026-04-21T10:43:54.001Z</time></trkpt><trkpt lat="45.42331254861825" lon="8.00677236694505"><ele>234.0</ele><time>2026-04-21T10:43:55.001Z</time></trkpt><trkpt lat="45.42336556777929" lon="8.006955360915427"><ele>234.0</ele><time>2026-04-21T10:43:56.001Z</time></trkpt><trkpt lat="45.42341760184353" lon="8.007124539184861"><ele>233.75</ele><time>2026-04-21T10:43:57.001Z</time></trkpt><trkpt lat="45.423456454337746" lon="8.007294472640206"><ele>233.5</ele><time>2026-04-21T10:43:58Z</time></trkpt><trkpt lat="45.42347813724175" lon="8.007485746304233"><ele>233.25</ele><time>2026-04-21T10:43:59Z</time></trkpt><trkpt lat="45.4234841130981" lon="8.007703558080095"><ele>233.0</ele><time>2026-04-21T10:44:00Z</time></trkpt><trkpt lat="45.423482492392324" lon="8.00794146858002"><ele>233.0</ele><time>2026-04-21T10:44:01Z</time></trkpt><trkpt lat="45.423482000111335" lon="8.008184194295708"><ele>233.0</ele><time>2026-04-21T10:44:02Z</time></trkpt><trkpt lat="45.423487731232726" lon="8.008408465953137"><ele>233.0</ele><time>2026-04-21T10:44:03Z</time></trkpt><trkpt lat="45.423488082971865" lon="8.008617779107144"><ele>233.0</ele><time>2026-04-21T10:44:04Z</time></trkpt><trkpt lat="45.423487719600466" lon="8.008823009544276"><ele>233.0</ele><time>2026-04-21T10:44:05Z</time></trkpt><trkpt lat="45.42348670906289" lon="8.009004367281783"><ele>233.0</ele><time>2026-04-21T10:44:06Z</time></trkpt><trkpt lat="45.423487110717716" lon="8.00917915002574"><ele>233.0</ele><time>2026-04-21T10:44:07Z</time></trkpt><trkpt lat="45.423489414720336" lon="8.009353556279509"><ele>233.00000000000003</ele><time>2026-04-21T10:44:08Z</time></trkpt><trkpt lat="45.42350728304833" lon="8.009506498970662"><ele>233.0</ele><time>2026-04-21T10:44:09Z</time></trkpt><trkpt lat="45.42353502467742" lon="8.009643226346295"><ele>233.0</ele><time>2026-04-21T10:44:10Z</time></trkpt><trkpt lat="45.42356846510632" lon="8.009763410562362"><ele>233.0</ele><time>2026-04-21T10:44:11Z</time></trkpt><trkpt lat="45.423596473672475" lon="8.009863512780145"><ele>233.00000000000003</ele><time>2026-04-21T10:44:12Z</time></trkpt><trkpt lat="45.4236195416561" lon="8.009949062918011"><ele>233.0</ele><time>2026-04-21T10:44:13Z</time></trkpt><trkpt lat="45.42365601691435" lon="8.010070570028846"><ele>233.0</ele><time>2026-04-21T10:44:15Z</time></trkpt><trkpt lat="45.423738218114416" lon="8.010119626936074"><ele>233.0</ele><time>2026-04-21T10:44:17Z</time></trkpt><trkpt lat="45.423815405380545" lon="8.01009159479219"><ele>233.0</ele><time>2026-04-21T10:44:18Z</time></trkpt><trkpt lat="45.42391288305659" lon="8.010011896223723"><ele>233.0</ele><time>2026-04-21T10:44:19Z</time></trkpt><trkpt lat="45.424013314034944" lon="8.009916120000408"><ele>233.0</ele><time>2026-04-21T10:44:20Z</time></trkpt><trkpt lat="45.42408295317549" lon="8.00982468949879"><ele>233.4</ele><time>2026-04-21T10:44:21Z</time></trkpt><trkpt lat="45.42413831616701" lon="8.009727036304088"><ele>233.8</ele><time>2026-04-21T10:44:22Z</time></trkpt><trkpt lat="45.42419267401286" lon="8.00965579638298"><ele>234.2</ele><time>2026-04-21T10:44:23Z</time></trkpt><trkpt lat="45.42428336799059" lon="8.009598236560707"><ele>234.6</ele><time>2026-04-21T10:44:24Z</time></trkpt><trkpt lat="45.42440625445403" lon="8.009551217354428"><ele>235.0</ele><time>2026-04-21T10:44:25Z</time></trkpt><trkpt lat="45.42453199538006" lon="8.009518434821972"><ele>235.0</ele><time>2026-04-21T10:44:26Z</time></trkpt><trkpt lat="45.42464212452541" lon="8.009493305402689"><ele>235.0</ele><time>2026-04-21T10:44:27Z</time></trkpt><trkpt lat="45.42476954304662" lon="8.009460544152237"><ele>235.0</ele><time>2026-04-21T10:44:28Z</time></trkpt><trkpt lat="45.424917758391494" lon="8.009430638735855"><ele>235.0</ele><time>2026-04-21T10:44:29Z</time></trkpt><trkpt lat="45.425051392273176" lon="8.009386747285436"><ele>234.25</ele><time>2026-04-21T10:44:30Z</time></trkpt><trkpt lat="45.42519796066599" lon="8.009345119827227"><ele>233.5</ele><time>2026-04-21T10:44:31Z</time></trkpt><trkpt lat="45.42533558440972" lon="8.009308536865628"><ele>232.75</ele><time>2026-04-21T10:44:32Z</time></trkpt><trkpt lat="45.42547029839068" lon="8.009273216390952"><ele>232.0</ele><time>2026-04-21T10:44:33Z</time></trkpt><trkpt lat="45.42560538661698" lon="8.009220130407048"><ele>232.0</ele><time>2026-04-21T10:44:34Z</time></trkpt><trkpt lat="45.425724517294874" lon="8.00916792450252"><ele>232.0</ele><time>2026-04-21T10:44:35Z</time></trkpt><trkpt lat="45.42583953041134" lon="8.00910658972153"><ele>232.0</ele><time>2026-04-21T10:44:36Z</time></trkpt><trkpt lat="45.42595662748431" lon="8.009048918212752"><ele>232.0</ele><time>2026-04-21T10:44:37Z</time></trkpt><trkpt lat="45.42607259488486" lon="8.008993168984619"><ele>232.5</ele><time>2026-04-21T10:44:38Z</time></trkpt><trkpt lat="45.426185921500775" lon="8.008939928360622"><ele>233.0</ele><time>2026-04-21T10:44:39Z</time></trkpt><trkpt lat="45.42630208322454" lon="8.00891434607529"><ele>233.5</ele><time>2026-04-21T10:44:40Z</time></trkpt><trkpt lat="45.426424620283456" lon="8.008926437793342"><ele>234.0</ele><time>2026-04-21T10:44:41Z</time></trkpt><trkpt lat="45.426559238121946" lon="8.008959086834242"><ele>234.0</ele><time>2026-04-21T10:44:42Z</time></trkpt><trkpt lat="45.42670992863342" lon="8.00899577623236"><ele>234.0</ele><time>2026-04-21T10:44:43Z</time></trkpt><trkpt lat="45.42686829336522" lon="8.009034571264666"><ele>234.0</ele><time>2026-04-21T10:44:44Z</time></trkpt><trkpt lat="45.42698980722997" lon="8.009059026735615"><ele>234.0</ele><time>2026-04-21T10:44:45Z</time></trkpt><trkpt lat="45.427093243406404" lon="8.009087990186725"><ele>233.75</ele><time>2026-04-21T10:44:46Z</time></trkpt><trkpt lat="45.42721246650929" lon="8.009111134557562"><ele>233.5</ele><time>2026-04-21T10:44:47Z</time></trkpt><trkpt lat="45.427339097030426" lon="8.009130259209234"><ele>233.25</ele><time>2026-04-21T10:44:48Z</time></trkpt><trkpt lat="45.42745570079498" lon="8.009147088116002"><ele>233.0</ele><time>2026-04-21T10:44:49Z</time></trkpt><trkpt lat="45.427573981056256" lon="8.009159612252095"><ele>232.75</ele><time>2026-04-21T10:44:50Z</time></trkpt><trkpt lat="45.42769676772524" lon="8.009178190314769"><ele>232.5</ele><time>2026-04-21T10:44:51Z</time></trkpt><trkpt lat="45.42781711192955" lon="8.009204188090532"><ele>232.25</ele><time>2026-04-21T10:44:52Z</time></trkpt><trkpt lat="45.42792691810921" lon="8.009231207987694"><ele>232.0</ele><time>2026-04-21T10:44:53Z</time></trkpt><trkpt lat="45.42803534955167" lon="8.009291766856823"><ele>232.5</ele><time>2026-04-21T10:44:54Z</time></trkpt><trkpt lat="45.428164275929866" lon="8.009367519848531"><ele>233.0</ele><time>2026-04-21T10:44:55Z</time></trkpt><trkpt lat="45.42830948187008" lon="8.009457598947531"><ele>233.5</ele><time>2026-04-21T10:44:56Z</time></trkpt><trkpt lat="45.428444841903" lon="8.009545920394066"><ele>234.0</ele><time>2026-04-21T10:44:57Z</time></trkpt><trkpt lat="45.428576469151466" lon="8.009637552156974"><ele>234.0</ele><time>2026-04-21T10:44:58Z</time></trkpt><trkpt lat="45.42871448423723" lon="8.00972618600734"><ele>234.0</ele><time>2026-04-21T10:44:59Z</time></trkpt><trkpt lat="45.42885094575664" lon="8.009798941882673"><ele>234.0</ele><time>2026-04-21T10:45:00Z</time></trkpt><trkpt lat="45.428991676792215" lon="8.009861769091223"><ele>234.0</ele><time>2026-04-21T10:45:01Z</time></trkpt><trkpt lat="45.42913455947852" lon="8.009911764834445"><ele>233.75</ele><time>2026-04-21T10:45:02Z</time></trkpt><trkpt lat="45.42927519774396" lon="8.009939133297774"><ele>233.5</ele><time>2026-04-21T10:45:03Z</time></trkpt><trkpt lat="45.429417341761166" lon="8.009951814834663"><ele>233.25</ele><time>2026-04-21T10:45:04Z</time></trkpt><trkpt lat="45.429574557226076" lon="8.009964212160403"><ele>233.0</ele><time>2026-04-21T10:45:05Z</time></trkpt><trkpt lat="45.429733031134084" lon="8.009981508077702"><ele>232.25</ele><time>2026-04-21T10:45:06Z</time></trkpt><trkpt lat="45.4298800246327" lon="8.00998423790174"><ele>231.5</ele><time>2026-04-21T10:45:07Z</time></trkpt><trkpt lat="45.43000979141943" lon="8.009975689042564"><ele>230.75</ele><time>2026-04-21T10:45:08Z</time></trkpt><trkpt lat="45.430136983804296" lon="8.009964396194592"><ele>230.0</ele><time>2026-04-21T10:45:09Z</time></trkpt><trkpt lat="45.43026693428702" lon="8.009931227637445"><ele>230.0</ele><time>2026-04-21T10:45:10Z</time></trkpt><trkpt lat="45.43038873766121" lon="8.009868525842244"><ele>230.0</ele><time>2026-04-21T10:45:11Z</time></trkpt><trkpt lat="45.43050499261594" lon="8.009762346715966"><ele>230.0</ele><time>2026-04-21T10:45:12Z</time></trkpt><trkpt lat="45.43061873390985" lon="8.009633818041854"><ele>230.0</ele><time>2026-04-21T10:45:13Z</time></trkpt><trkpt lat="45.430705790472764" lon="8.009504693773208"><ele>230.33333333333334</ele><time>2026-04-21T10:45:14Z</time></trkpt><trkpt lat="45.43077758879722" lon="8.009391143873687"><ele>230.66666666666669</ele><time>2026-04-21T10:45:15Z</time></trkpt><trkpt lat="45.43083845747527" lon="8.009307798034484"><ele>231.0</ele><time>2026-04-21T10:45:16Z</time></trkpt><trkpt lat="45.430895177127894" lon="8.009260784558059"><ele>231.33333333333331</ele><time>2026-04-21T10:45:17Z</time></trkpt><trkpt lat="45.430964724477285" lon="8.009242932132278"><ele>231.66666666666666</ele><time>2026-04-21T10:45:18Z</time></trkpt><trkpt lat="45.43103922655957" lon="8.00926614054769"><ele>232.0</ele><time>2026-04-21T10:45:19Z</time></trkpt><trkpt lat="45.43110061652836" lon="8.009302007553558"><ele>232.0</ele><time>2026-04-21T10:45:20Z</time></trkpt><trkpt lat="45.431155876687974" lon="8.00935787329953"><ele>232.0</ele><time>2026-04-21T10:45:21Z</time></trkpt><trkpt lat="45.43119797874559" lon="8.00945808347129"><ele>232.0</ele><time>2026-04-21T10:45:22Z</time></trkpt><trkpt lat="45.43123756565069" lon="8.00959740696931"><ele>232.0</ele><time>2026-04-21T10:45:23Z</time></trkpt><trkpt lat="45.43126837696534" lon="8.00970141992351"><ele>232.0</ele><time>2026-04-21T10:45:24Z</time></trkpt><trkpt lat="45.43139500746791" lon="8.009812256575563"><ele>232.0</ele><time>2026-04-21T10:45:26Z</time></trkpt><trkpt lat="45.43150349051904" lon="8.009947723510413"><ele>232.0</ele><time>2026-04-21T10:45:27Z</time></trkpt><trkpt lat="45.43157771176314" lon="8.010113728103361"><ele>232.0</ele><time>2026-04-21T10:45:28Z</time></trkpt><trkpt lat="45.43165644774368" lon="8.010263761833576"><ele>232.0</ele><time>2026-04-21T10:45:29Z</time></trkpt><trkpt lat="45.431741379302444" lon="8.01042073334646"><ele>232.0</ele><time>2026-04-21T10:45:30Z</time></trkpt><trkpt lat="45.43183924504257" lon="8.010589956668573"><ele>232.0</ele><time>2026-04-21T10:45:31Z</time></trkpt><trkpt lat="45.43192802943372" lon="8.010741532164149"><ele>232.0</ele><time>2026-04-21T10:45:32Z</time></trkpt><trkpt lat="45.43201293256823" lon="8.010900804227637"><ele>232.0</ele><time>2026-04-21T10:45:33Z</time></trkpt><trkpt lat="45.43210598942925" lon="8.011069988948103"><ele>232.0</ele><time>2026-04-21T10:45:34Z</time></trkpt><trkpt lat="45.43220584461019" lon="8.011251250356633"><ele>232.0</ele><time>2026-04-21T10:45:35Z</time></trkpt><trkpt lat="45.4323011175373" lon="8.011421022817444"><ele>232.0</ele><time>2026-04-21T10:45:36Z</time></trkpt><trkpt lat="45.43238123401848" lon="8.011566890809904"><ele>232.0</ele><time>2026-04-21T10:45:37Z</time></trkpt><trkpt lat="45.43244372098008" lon="8.01169319914519"><ele>232.0</ele><time>2026-04-21T10:45:37.999Z</time></trkpt><trkpt lat="45.43249832058558" lon="8.011821559805952"><ele>232.0</ele><time>2026-04-21T10:45:38.999Z</time></trkpt><trkpt lat="45.43257931505738" lon="8.011953799706726"><ele>232.0</ele><time>2026-04-21T10:45:39.999Z</time></trkpt><trkpt lat="45.432657126836126" lon="8.01208411459974"><ele>232.0</ele><time>2026-04-21T10:45:40.999Z</time></trkpt><trkpt lat="45.43271869126488" lon="8.012215936971092"><ele>232.0</ele><time>2026-04-21T10:45:41.999Z</time></trkpt><trkpt lat="45.43279721441958" lon="8.012363043171542"><ele>232.0</ele><time>2026-04-21T10:45:42.999Z</time></trkpt><trkpt lat="45.4328957911358" lon="8.012523318034011"><ele>232.0</ele><time>2026-04-21T10:45:43.999Z</time></trkpt><trkpt lat="45.432994648240275" lon="8.012702378148955"><ele>232.0</ele><time>2026-04-21T10:45:44.999Z</time></trkpt><trkpt lat="45.43308915774653" lon="8.012891857639943"><ele>232.0</ele><time>2026-04-21T10:45:46Z</time></trkpt><trkpt lat="45.43318897204214" lon="8.01308624562718"><ele>232.0</ele><time>2026-04-21T10:45:47Z</time></trkpt><trkpt lat="45.43330240794726" lon="8.013292020016047"><ele>232.0</ele><time>2026-04-21T10:45:48Z</time></trkpt><trkpt lat="45.43340357048908" lon="8.013470404413212"><ele>231.66666666666666</ele><time>2026-04-21T10:45:49Z</time></trkpt><trkpt lat="45.43350143315255" lon="8.0136547414583"><ele>231.33333333333331</ele><time>2026-04-21T10:45:50Z</time></trkpt><trkpt lat="45.43360580610428" lon="8.01384246048455"><ele>231.0</ele><time>2026-04-21T10:45:51Z</time></trkpt><trkpt lat="45.43370278192061" lon="8.014021269821994"><ele>231.25</ele><time>2026-04-21T10:45:52Z</time></trkpt><trkpt lat="45.43379377318342" lon="8.014191458828769"><ele>231.5</ele><time>2026-04-21T10:45:53Z</time></trkpt><trkpt lat="45.43389246770931" lon="8.014368413308958"><ele>231.75</ele><time>2026-04-21T10:45:54Z</time></trkpt><trkpt lat="45.43397563775836" lon="8.014522487320995"><ele>232.0</ele><time>2026-04-21T10:45:55Z</time></trkpt><trkpt lat="45.434059087118285" lon="8.014669697072222"><ele>232.0</ele><time>2026-04-21T10:45:56Z</time></trkpt><trkpt lat="45.43413468866791" lon="8.014802457725244"><ele>232.0</ele><time>2026-04-21T10:45:57Z</time></trkpt><trkpt lat="45.434205295748875" lon="8.014915653642094"><ele>232.0</ele><time>2026-04-21T10:45:58Z</time></trkpt><trkpt lat="45.434268181647" lon="8.015021381183166"><ele>232.0</ele><time>2026-04-21T10:45:59Z</time></trkpt><trkpt lat="45.434322616174626" lon="8.015116074625638"><ele>232.0</ele><time>2026-04-21T10:46:00Z</time></trkpt><trkpt lat="45.434367792855994" lon="8.015215679612998"><ele>232.0</ele><time>2026-04-21T10:46:01Z</time></trkpt><trkpt lat="45.43438679012525" lon="8.01534096942179"><ele>232.0</ele><time>2026-04-21T10:46:02Z</time></trkpt><trkpt lat="45.43437374895829" lon="8.0154914945593"><ele>232.0</ele><time>2026-04-21T10:46:03Z</time></trkpt><trkpt lat="45.43434159998616" lon="8.015682425626244"><ele>232.0</ele><time>2026-04-21T10:46:04Z</time></trkpt><trkpt lat="45.434304283457635" lon="8.015899453500767"><ele>231.66666666666666</ele><time>2026-04-21T10:46:05Z</time></trkpt><trkpt lat="45.4342556556046" lon="8.016139682348541"><ele>231.33333333333331</ele><time>2026-04-21T10:46:06Z</time></trkpt><trkpt lat="45.43421778832691" lon="8.016366817030905"><ele>231.0</ele><time>2026-04-21T10:46:07Z</time></trkpt><trkpt lat="45.434176961478286" lon="8.016567692351977"><ele>231.25</ele><time>2026-04-21T10:46:08Z</time></trkpt><trkpt lat="45.43414017930802" lon="8.016749424066242"><ele>231.5</ele><time>2026-04-21T10:46:09Z</time></trkpt><trkpt lat="45.43411153884165" lon="8.016958259958404"><ele>231.75</ele><time>2026-04-21T10:46:10Z</time></trkpt><trkpt lat="45.434075524056695" lon="8.017175283282382"><ele>232.0</ele><time>2026-04-21T10:46:11Z</time></trkpt><trkpt lat="45.43403437298056" lon="8.0173831957354"><ele>232.33333333333331</ele><time>2026-04-21T10:46:12Z</time></trkpt><trkpt lat="45.43398214700405" lon="8.01759394793848"><ele>232.66666666666669</ele><time>2026-04-21T10:46:13Z</time></trkpt><trkpt lat="45.43394375694854" lon="8.017819363293354"><ele>233.0</ele><time>2026-04-21T10:46:14Z</time></trkpt><trkpt lat="45.433903482648084" lon="8.018063466381689"><ele>233.0</ele><time>2026-04-21T10:46:15Z</time></trkpt><trkpt lat="45.43385581568004" lon="8.018322277036598"><ele>233.0</ele><time>2026-04-21T10:46:16Z</time></trkpt><trkpt lat="45.433817738874545" lon="8.018543825088415"><ele>233.0</ele><time>2026-04-21T10:46:17Z</time></trkpt><trkpt lat="45.4337825394153" lon="8.018761798249379"><ele>233.0</ele><time>2026-04-21T10:46:18Z</time></trkpt><trkpt lat="45.43374944778451" lon="8.01897808105603"><ele>233.0</ele><time>2026-04-21T10:46:19Z</time></trkpt><trkpt lat="45.4337163209591" lon="8.019168793969854"><ele>233.0</ele><time>2026-04-21T10:46:20Z</time></trkpt><trkpt lat="45.433707644763906" lon="8.019344043058393"><ele>233.0</ele><time>2026-04-21T10:46:21Z</time></trkpt><trkpt lat="45.43371261706974" lon="8.01950813007118"><ele>232.75</ele><time>2026-04-21T10:46:22Z</time></trkpt><trkpt lat="45.43372516162439" lon="8.019663651204356"><ele>232.5</ele><time>2026-04-21T10:46:23Z</time></trkpt><trkpt lat="45.43375947165889" lon="8.019824922552548"><ele>232.25</ele><time>2026-04-21T10:46:24Z</time></trkpt><trkpt lat="45.43380623521071" lon="8.019995865703574"><ele>232.0</ele><time>2026-04-21T10:46:25Z</time></trkpt><trkpt lat="45.43386054782536" lon="8.020177126265457"><ele>232.0</ele><time>2026-04-21T10:46:26Z</time></trkpt><trkpt lat="45.43392173879996" lon="8.020376963577883"><ele>232.0</ele><time>2026-04-21T10:46:27Z</time></trkpt><trkpt lat="45.43398406546428" lon="8.020567872906962"><ele>232.0</ele><time>2026-04-21T10:46:28Z</time></trkpt><trkpt lat="45.43403962220832" lon="8.020721302575154"><ele>232.0</ele><time>2026-04-21T10:46:29Z</time></trkpt><trkpt lat="45.43407811730913" lon="8.020856141437662"><ele>231.99999999999997</ele><time>2026-04-21T10:46:30Z</time></trkpt><trkpt lat="45.43410338494979" lon="8.02096580061945"><ele>232.0</ele><time>2026-04-21T10:46:31Z</time></trkpt><trkpt lat="45.43412719538963" lon="8.021055519975912"><ele>232.0</ele><time>2026-04-21T10:46:32Z</time></trkpt><trkpt lat="45.43416412127818" lon="8.021158848030309"><ele>232.0</ele><time>2026-04-21T10:46:34Z</time></trkpt><trkpt lat="45.434127320655925" lon="8.021246043622945"><ele>231.99999999999997</ele><time>2026-04-21T10:47:03Z</time></trkpt><trkpt lat="45.43408219164793" lon="8.021325328882979"><ele>232.0</ele><time>2026-04-21T10:47:04Z</time></trkpt><trkpt lat="45.434027087206516" lon="8.021432765962201"><ele>232.0</ele><time>2026-04-21T10:47:05Z</time></trkpt><trkpt lat="45.433967618779356" lon="8.0215576794228"><ele>232.0</ele><time>2026-04-21T10:47:06Z</time></trkpt><trkpt lat="45.43388988616269" lon="8.021707603660643"><ele>232.0</ele><time>2026-04-21T10:47:07Z</time></trkpt><trkpt lat="45.43381001723632" lon="8.0218661429407"><ele>232.0</ele><time>2026-04-21T10:47:08Z</time></trkpt><trkpt lat="45.433724493678376" lon="8.022043500533053"><ele>232.0</ele><time>2026-04-21T10:47:09Z</time></trkpt><trkpt lat="45.433634032765916" lon="8.022216330518862"><ele>232.0</ele><time>2026-04-21T10:47:10Z</time></trkpt><trkpt lat="45.43353878220062" lon="8.02240154655037"><ele>232.0</ele><time>2026-04-21T10:47:11Z</time></trkpt><trkpt lat="45.43345546236134" lon="8.022566185477714"><ele>232.66666666666666</ele><time>2026-04-21T10:47:12Z</time></trkpt><trkpt lat="45.433366928370624" lon="8.02274983259997"><ele>233.33333333333331</ele><time>2026-04-21T10:47:13Z</time></trkpt><trkpt lat="45.4332743259468" lon="8.022941607843997"><ele>234.0</ele><time>2026-04-21T10:47:14Z</time></trkpt><trkpt lat="45.43318904368839" lon="8.023117926705012"><ele>234.0</ele><time>2026-04-21T10:47:15Z</time></trkpt><trkpt lat="45.433098096489246" lon="8.023301717823053"><ele>234.0</ele><time>2026-04-21T10:47:16Z</time></trkpt><trkpt lat="45.43299759341678" lon="8.02348936572252"><ele>234.0</ele><time>2026-04-21T10:47:17Z</time></trkpt><trkpt lat="45.43290903722288" lon="8.023661526888006"><ele>233.75</ele><time>2026-04-21T10:47:18Z</time></trkpt><trkpt lat="45.43283007231233" lon="8.023820246141637"><ele>233.5</ele><time>2026-04-21T10:47:19Z</time></trkpt><trkpt lat="45.43274605298521" lon="8.023996816622413"><ele>233.25</ele><time>2026-04-21T10:47:20Z</time></trkpt><trkpt lat="45.43265707615528" lon="8.02418059352611"><ele>233.0</ele><time>2026-04-21T10:47:21Z</time></trkpt><trkpt lat="45.43256872621315" lon="8.024355284791357"><ele>233.0</ele><time>2026-04-21T10:47:22Z</time></trkpt><trkpt lat="45.43247940848871" lon="8.024528792096952"><ele>233.0</ele><time>2026-04-21T10:47:23Z</time></trkpt><trkpt lat="45.432386991348544" lon="8.02470450071899"><ele>233.0</ele><time>2026-04-21T10:47:24Z</time></trkpt><trkpt lat="45.43228791859771" lon="8.024874768548845"><ele>233.5</ele><time>2026-04-21T10:47:25Z</time></trkpt><trkpt lat="45.43218901373307" lon="8.02502451717129"><ele>234.0</ele><time>2026-04-21T10:47:26Z</time></trkpt><trkpt lat="45.43208299995462" lon="8.025168389695837"><ele>234.5</ele><time>2026-04-21T10:47:27Z</time></trkpt><trkpt lat="45.43197727385816" lon="8.025322980269884"><ele>235.0</ele><time>2026-04-21T10:47:28Z</time></trkpt><trkpt lat="45.431867141949695" lon="8.0254735317264"><ele>235.0</ele><time>2026-04-21T10:47:29Z</time></trkpt><trkpt lat="45.431758079547045" lon="8.025611573686385"><ele>235.0</ele><time>2026-04-21T10:47:30Z</time></trkpt><trkpt lat="45.43164899652795" lon="8.025749966709077"><ele>235.0</ele><time>2026-04-21T10:47:31Z</time></trkpt><trkpt lat="45.43153956012051" lon="8.025892792394263"><ele>235.0</ele><time>2026-04-21T10:47:32Z</time></trkpt><trkpt lat="45.4314327187494" lon="8.02603664500378"><ele>235.5</ele><time>2026-04-21T10:47:33Z</time></trkpt><trkpt lat="45.43133245232516" lon="8.026166566181143"><ele>236.0</ele><time>2026-04-21T10:47:34Z</time></trkpt><trkpt lat="45.4312269158332" lon="8.026306301962531"><ele>236.5</ele><time>2026-04-21T10:47:35Z</time></trkpt><trkpt lat="45.43113068707092" lon="8.02645432283213"><ele>237.0</ele><time>2026-04-21T10:47:36Z</time></trkpt><trkpt lat="45.43104533002801" lon="8.026616904757526"><ele>236.25</ele><time>2026-04-21T10:47:37Z</time></trkpt><trkpt lat="45.43097354213791" lon="8.02679596469369"><ele>235.5</ele><time>2026-04-21T10:47:38Z</time></trkpt><trkpt lat="45.43091317876059" lon="8.026978251609638"><ele>234.75</ele><time>2026-04-21T10:47:39Z</time></trkpt><trkpt lat="45.43086649891624" lon="8.02716505658606"><ele>234.0</ele><time>2026-04-21T10:47:40Z</time></trkpt><trkpt lat="45.43083304097875" lon="8.02735867409298"><ele>234.75</ele><time>2026-04-21T10:47:41Z</time></trkpt><trkpt lat="45.430813008284446" lon="8.027555143688657"><ele>235.5</ele><time>2026-04-21T10:47:42Z</time></trkpt><trkpt lat="45.43079987319577" lon="8.027750227226422"><ele>236.25</ele><time>2026-04-21T10:47:43Z</time></trkpt><trkpt lat="45.43079798826067" lon="8.027946790011324"><ele>237.0</ele><time>2026-04-21T10:47:44Z</time></trkpt><trkpt lat="45.430812984559815" lon="8.028143788980996"><ele>237.0</ele><time>2026-04-21T10:47:44.999Z</time></trkpt><trkpt lat="45.43083986984083" lon="8.02830084151817"><ele>237.0</ele><time>2026-04-21T10:47:45.999Z</time></trkpt><trkpt lat="45.4308600533754" lon="8.028408602323958"><ele>237.0</ele><time>2026-04-21T10:47:46.999Z</time></trkpt><trkpt lat="45.430879107686415" lon="8.028537685099774"><ele>237.0</ele><time>2026-04-21T10:47:48.999Z</time></trkpt><trkpt lat="45.430858702568294" lon="8.028625003590973"><ele>237.0</ele><time>2026-04-21T10:47:50.999Z</time></trkpt><trkpt lat="45.430758088083415" lon="8.02858225994532"><ele>236.0</ele><time>2026-04-21T10:47:52Z</time></trkpt><trkpt lat="45.4306666996679" lon="8.028624052811429"><ele>236.0</ele><time>2026-04-21T10:47:54Z</time></trkpt><trkpt lat="45.43060494892048" lon="8.028654451345565"><ele>236.0</ele><time>2026-04-21T10:47:56Z</time></trkpt><trkpt lat="45.4306108744514" lon="8.028799302235996"><ele>236.0</ele><time>2026-04-21T10:48:10Z</time></trkpt></trkseg><trkseg><trkpt lat="45.4417223885511" lon="8.053036183675525"><ele>430.99999999999994</ele><time>2026-04-21T12:21:09Z</time></trkpt><trkpt lat="45.44178468688863" lon="8.05294415579527"><ele>431.0</ele><time>2026-04-21T12:21:11Z</time></trkpt><trkpt lat="45.44182722894005" lon="8.05285975442874"><ele>431.0</ele><time>2026-04-21T12:21:12Z</time></trkpt><trkpt lat="45.441882607525336" lon="8.052765235448241"><ele>431.0</ele><time>2026-04-21T12:21:13Z</time></trkpt><trkpt lat="45.44193352065403" lon="8.05267835032339"><ele>430.99999999999994</ele><time>2026-04-21T12:21:14Z</time></trkpt><trkpt lat="45.441983629247495" lon="8.052621228995923"><ele>431.0</ele><time>2026-04-21T12:21:15Z</time></trkpt><trkpt lat="45.442078587458724" lon="8.052594119994522"><ele>431.3333333333333</ele><time>2026-04-21T12:21:17Z</time></trkpt><trkpt lat="45.442137912210256" lon="8.052628621132875"><ele>431.66666666666663</ele><time>2026-04-21T12:21:18Z</time></trkpt><trkpt lat="45.44221311720843" lon="8.052648517014484"><ele>432.0</ele><time>2026-04-21T12:21:19Z</time></trkpt><trkpt lat="45.44232913726292" lon="8.052604081177316"><ele>432.33333333333337</ele><time>2026-04-21T12:21:21Z</time></trkpt><trkpt lat="45.442377393457086" lon="8.052524517596687"><ele>432.6666666666667</ele><time>2026-04-21T12:21:22Z</time></trkpt><trkpt lat="45.442412505667704" lon="8.052403428010152"><ele>433.0</ele><time>2026-04-21T12:21:23Z</time></trkpt><trkpt lat="45.442456976899486" lon="8.052248001077096"><ele>434.79999999999995</ele><time>2026-04-21T12:21:24Z</time></trkpt><trkpt lat="45.44251367397089" lon="8.052078038065735"><ele>436.59999999999997</ele><time>2026-04-21T12:21:25Z</time></trkpt><trkpt lat="45.44256420787316" lon="8.051925770653844"><ele>438.40000000000003</ele><time>2026-04-21T12:21:26Z</time></trkpt><trkpt lat="45.44261032948219" lon="8.051806856421752"><ele>440.20000000000005</ele><time>2026-04-21T12:21:27Z</time></trkpt><trkpt lat="45.442655091378896" lon="8.051709434634974"><ele>442.0</ele><time>2026-04-21T12:21:28Z</time></trkpt><trkpt lat="45.442705331308154" lon="8.051629625227994"><ele>442.33333333333337</ele><time>2026-04-21T12:21:29Z</time></trkpt><trkpt lat="45.4427619649361" lon="8.051563590365692"><ele>442.6666666666667</ele><time>2026-04-21T12:21:30Z</time></trkpt><trkpt lat="45.442824961304034" lon="8.051518085425787"><ele>443.0</ele><time>2026-04-21T12:21:31Z</time></trkpt><trkpt lat="45.442898769101106" lon="8.051477026040978"><ele>443.33333333333337</ele><time>2026-04-21T12:21:32Z</time></trkpt><trkpt lat="45.44295575890486" lon="8.051427937634147"><ele>443.6666666666667</ele><time>2026-04-21T12:21:33Z</time></trkpt><trkpt lat="45.44300412451761" lon="8.05134389369046"><ele>444.0</ele><time>2026-04-21T12:21:34Z</time></trkpt><trkpt lat="45.443058338955105" lon="8.051238998008413"><ele>445.79999999999995</ele><time>2026-04-21T12:21:35Z</time></trkpt><trkpt lat="45.44311961751045" lon="8.051144991446261"><ele>447.59999999999997</ele><time>2026-04-21T12:21:36Z</time></trkpt><trkpt lat="45.44316366681762" lon="8.051038459400118"><ele>449.4</ele><time>2026-04-21T12:21:37Z</time></trkpt><trkpt lat="45.443192768118735" lon="8.050909220027151"><ele>451.2</ele><time>2026-04-21T12:21:38Z</time></trkpt><trkpt lat="45.44319616644919" lon="8.050758994025216"><ele>453.0</ele><time>2026-04-21T12:21:39Z</time></trkpt><trkpt lat="45.443219645156695" lon="8.050600412230127"><ele>453.0</ele><time>2026-04-21T12:21:40Z</time></trkpt><trkpt lat="45.443228367324444" lon="8.050458737643224"><ele>452.99999999999994</ele><time>2026-04-21T12:21:41Z</time></trkpt><trkpt lat="45.44322688318066" lon="8.050357157939077"><ele>452.99999999999994</ele><time>2026-04-21T12:21:42Z</time></trkpt><trkpt lat="45.44325549367744" lon="8.050255853116267"><ele>453.0</ele><time>2026-04-21T12:21:43Z</time></trkpt><trkpt lat="45.44331065129437" lon="8.050140009084247"><ele>453.0</ele><time>2026-04-21T12:21:44Z</time></trkpt><trkpt lat="45.443365417442934" lon="8.050012156512363"><ele>453.2</ele><time>2026-04-21T12:21:45Z</time></trkpt><trkpt lat="45.44340335042586" lon="8.049896080256081"><ele>453.4</ele><time>2026-04-21T12:21:46Z</time></trkpt><trkpt lat="45.44343019569191" lon="8.049779163029884"><ele>453.59999999999997</ele><time>2026-04-21T12:21:47Z</time></trkpt><trkpt lat="45.44344942454203" lon="8.04964263164906"><ele>453.79999999999995</ele><time>2026-04-21T12:21:48Z</time></trkpt><trkpt lat="45.44345378899872" lon="8.049489733150953"><ele>454.0</ele><time>2026-04-21T12:21:49Z</time></trkpt><trkpt lat="45.44345222655464" lon="8.049328873264026"><ele>454.0</ele><time>2026-04-21T12:21:50Z</time></trkpt><trkpt lat="45.44344167891447" lon="8.049188268497346"><ele>454.0</ele><time>2026-04-21T12:21:51Z</time></trkpt><trkpt lat="45.44344331671934" lon="8.04906407782579"><ele>454.0</ele><time>2026-04-21T12:21:52Z</time></trkpt><trkpt lat="45.44347338571662" lon="8.04896380313436"><ele>454.0</ele><time>2026-04-21T12:21:53Z</time></trkpt><trkpt lat="45.443518100464864" lon="8.048849529531356"><ele>454.0</ele><time>2026-04-21T12:21:54Z</time></trkpt><trkpt lat="45.44358153941781" lon="8.048731697866076"><ele>454.25</ele><time>2026-04-21T12:21:55Z</time></trkpt><trkpt lat="45.44367072156122" lon="8.048614878374163"><ele>454.5</ele><time>2026-04-21T12:21:56Z</time></trkpt><trkpt lat="45.44376289841304" lon="8.048496273504542"><ele>454.75</ele><time>2026-04-21T12:21:57Z</time></trkpt><trkpt lat="45.4438400230467" lon="8.048379464152863"><ele>455.0</ele><time>2026-04-21T12:21:58Z</time></trkpt><trkpt lat="45.44390166463429" lon="8.048274170153068"><ele>455.0</ele><time>2026-04-21T12:21:59Z</time></trkpt><trkpt lat="45.443955874890214" lon="8.048147359734443"><ele>455.0</ele><time>2026-04-21T12:22:00Z</time></trkpt><trkpt lat="45.444011561426706" lon="8.048006073951736"><ele>455.0</ele><time>2026-04-21T12:22:01Z</time></trkpt><trkpt lat="45.44405650271128" lon="8.047867760391231"><ele>455.0</ele><time>2026-04-21T12:22:02Z</time></trkpt><trkpt lat="45.444104716406216" lon="8.047732431183075"><ele>455.0</ele><time>2026-04-21T12:22:03Z</time></trkpt><trkpt lat="45.44416507493194" lon="8.047584020786973"><ele>453.8</ele><time>2026-04-21T12:22:04Z</time></trkpt><trkpt lat="45.44422175410111" lon="8.047445912455055"><ele>452.6</ele><time>2026-04-21T12:22:05Z</time></trkpt><trkpt lat="45.44426856272871" lon="8.047325083053126"><ele>451.4</ele><time>2026-04-21T12:22:06Z</time></trkpt><trkpt lat="45.444302490395174" lon="8.047213714901721"><ele>450.2</ele><time>2026-04-21T12:22:07Z</time></trkpt><trkpt lat="45.44432364364963" lon="8.047075735914799"><ele>449.0</ele><time>2026-04-21T12:22:08Z</time></trkpt><trkpt lat="45.44432360570919" lon="8.046902466956654"><ele>449.0</ele><time>2026-04-21T12:22:09Z</time></trkpt><trkpt lat="45.444310985862735" lon="8.04671938123576"><ele>449.0</ele><time>2026-04-21T12:22:10Z</time></trkpt><trkpt lat="45.44429920913652" lon="8.046553309194424"><ele>449.0</ele><time>2026-04-21T12:22:11Z</time></trkpt><trkpt lat="45.444305500687854" lon="8.046401577146652"><ele>449.0</ele><time>2026-04-21T12:22:12Z</time></trkpt><trkpt lat="45.44433088341102" lon="8.046266973628294"><ele>448.0</ele><time>2026-04-21T12:22:13Z</time></trkpt><trkpt lat="45.44438791431311" lon="8.046132128216588"><ele>447.0</ele><time>2026-04-21T12:22:14Z</time></trkpt><trkpt lat="45.44444058590746" lon="8.045973007586008"><ele>446.0</ele><time>2026-04-21T12:22:15Z</time></trkpt><trkpt lat="45.44452982000251" lon="8.045805123963339"><ele>445.0</ele><time>2026-04-21T12:22:16Z</time></trkpt><trkpt lat="45.44460221102086" lon="8.045739999345471"><ele>446.2</ele><time>2026-04-21T12:22:17Z</time></trkpt><trkpt lat="45.44466839344084" lon="8.045679373208362"><ele>447.4</ele><time>2026-04-21T12:22:18Z</time></trkpt><trkpt lat="45.444765439126996" lon="8.045640376718316"><ele>448.6</ele><time>2026-04-21T12:22:19Z</time></trkpt><trkpt lat="45.44489042987556" lon="8.045615118232345"><ele>449.8</ele><time>2026-04-21T12:22:20Z</time></trkpt><trkpt lat="45.44502619281312" lon="8.045602290811615"><ele>451.0</ele><time>2026-04-21T12:22:21Z</time></trkpt><trkpt lat="45.44515519166202" lon="8.045587471714969"><ele>451.0</ele><time>2026-04-21T12:22:22Z</time></trkpt><trkpt lat="45.4452625441625" lon="8.045568902210242"><ele>451.0</ele><time>2026-04-21T12:22:23Z</time></trkpt><trkpt lat="45.44535381115399" lon="8.045553446012175"><ele>451.0</ele><time>2026-04-21T12:22:24Z</time></trkpt><trkpt lat="45.44543377574715" lon="8.04553765375361"><ele>451.0</ele><time>2026-04-21T12:22:25Z</time></trkpt><trkpt lat="45.44550866302502" lon="8.045515631353565"><ele>451.0</ele><time>2026-04-21T12:22:26Z</time></trkpt><trkpt lat="45.44559520535989" lon="8.045455851154788"><ele>451.00000000000006</ele><time>2026-04-21T12:22:26.999Z</time></trkpt><trkpt lat="45.44566316790697" lon="8.045365475521383"><ele>451.0</ele><time>2026-04-21T12:22:27.999Z</time></trkpt><trkpt lat="45.44572806625953" lon="8.045255377089584"><ele>451.0</ele><time>2026-04-21T12:22:28.999Z</time></trkpt><trkpt lat="45.445775319797676" lon="8.045150710584553"><ele>451.0</ele><time>2026-04-21T12:22:29.999Z</time></trkpt><trkpt lat="45.44580251562806" lon="8.045057795494957"><ele>451.00000000000006</ele><time>2026-04-21T12:22:30.999Z</time></trkpt><trkpt lat="45.44585360210199" lon="8.044972241212353"><ele>451.0</ele><time>2026-04-21T12:22:33.999Z</time></trkpt><trkpt lat="45.44589538571362" lon="8.045040378319428"><ele>451.0</ele><time>2026-04-21T12:22:37.999Z</time></trkpt><trkpt lat="45.445958622488995" lon="8.0451489297644"><ele>451.0</ele><time>2026-04-21T12:22:41.999Z</time></trkpt><trkpt lat="45.446076296455516" lon="8.0451810963991"><ele>451.0</ele><time>2026-04-21T12:22:43.999Z</time></trkpt><trkpt lat="45.44618324967148" lon="8.045161386228925"><ele>451.0</ele><time>2026-04-21T12:22:44.999Z</time></trkpt><trkpt lat="45.44629484925652" lon="8.04512376633538"><ele>451.0</ele><time>2026-04-21T12:22:45.999Z</time></trkpt><trkpt lat="45.44640249528296" lon="8.045101178815587"><ele>449.50000000000006</ele><time>2026-04-21T12:22:46.999Z</time></trkpt><trkpt lat="45.44650197493749" lon="8.04508020507048"><ele>448.0</ele><time>2026-04-21T12:22:47.999Z</time></trkpt><trkpt lat="45.44658505993202" lon="8.045049004368325"><ele>446.5</ele><time>2026-04-21T12:22:48.999Z</time></trkpt><trkpt lat="45.446658318128435" lon="8.045047252792855"><ele>445.0</ele><time>2026-04-21T12:22:49.999Z</time></trkpt><trkpt lat="45.44673610086651" lon="8.045045915156267"><ele>443.50000000000006</ele><time>2026-04-21T12:22:50.999Z</time></trkpt><trkpt lat="45.44681014955084" lon="8.04501734791389"><ele>442.0</ele><time>2026-04-21T12:22:51.999Z</time></trkpt><trkpt lat="45.44688212924135" lon="8.04497039600371"><ele>443.0</ele><time>2026-04-21T12:22:52.999Z</time></trkpt><trkpt lat="45.446957589050726" lon="8.044912308208865"><ele>444.00000000000006</ele><time>2026-04-21T12:22:53.999Z</time></trkpt><trkpt lat="45.4470316898045" lon="8.0448521445673"><ele>445.00000000000006</ele><time>2026-04-21T12:22:54.999Z</time></trkpt><trkpt lat="45.44711799161214" lon="8.044784919723929"><ele>446.0</ele><time>2026-04-21T12:22:55.999Z</time></trkpt><trkpt lat="45.44721792601641" lon="8.044719432213997"><ele>447.0</ele><time>2026-04-21T12:22:56.999Z</time></trkpt><trkpt lat="45.44733378979242" lon="8.044689452664487"><ele>443.5</ele><time>2026-04-21T12:22:57.999Z</time></trkpt><trkpt lat="45.44746842933971" lon="8.04466721030692"><ele>440.0</ele><time>2026-04-21T12:22:58.999Z</time></trkpt><trkpt lat="45.44761092855714" lon="8.04465832390432"><ele>436.5</ele><time>2026-04-21T12:22:59.999Z</time></trkpt><trkpt lat="45.447741393318815" lon="8.044652988468536"><ele>433.0</ele><time>2026-04-21T12:23:00.999Z</time></trkpt><trkpt lat="45.44787809628056" lon="8.044651226574814"><ele>433.0</ele><time>2026-04-21T12:23:01.999Z</time></trkpt><trkpt lat="45.448015050867184" lon="8.044654352929461"><ele>433.0</ele><time>2026-04-21T12:23:02.999Z</time></trkpt><trkpt lat="45.44813456341567" lon="8.044658557520535"><ele>433.0</ele><time>2026-04-21T12:23:03.999Z</time></trkpt><trkpt lat="45.448244423436684" lon="8.044635576161456"><ele>433.0</ele><time>2026-04-21T12:23:04.999Z</time></trkpt><trkpt lat="45.44834589002724" lon="8.044593777206929"><ele>433.00000000000006</ele><time>2026-04-21T12:23:05.999Z</time></trkpt><trkpt lat="45.4484269076109" lon="8.044546790492337"><ele>433.0</ele><time>2026-04-21T12:23:06.999Z</time></trkpt><trkpt lat="45.44849541945299" lon="8.044517888560618"><ele>433.0</ele><time>2026-04-21T12:23:08.999Z</time></trkpt><trkpt lat="45.44850307671216" lon="8.04461630899853"><ele>433.0</ele><time>2026-04-21T12:23:10.999Z</time></trkpt><trkpt lat="45.44848426652181" lon="8.044706292010595"><ele>433.00000000000006</ele><time>2026-04-21T12:23:11.999Z</time></trkpt><trkpt lat="45.448461935906195" lon="8.044827051501537"><ele>433.0</ele><time>2026-04-21T12:23:13Z</time></trkpt><trkpt lat="45.44844744167611" lon="8.044974645877593"><ele>432.79999999999995</ele><time>2026-04-21T12:23:14Z</time></trkpt><trkpt lat="45.44843667670491" lon="8.045116610521584"><ele>432.59999999999997</ele><time>2026-04-21T12:23:15Z</time></trkpt><trkpt lat="45.44842371171109" lon="8.045239483073306"><ele>432.40000000000003</ele><time>2026-04-21T12:23:16Z</time></trkpt><trkpt lat="45.448414039836905" lon="8.045393267043284"><ele>432.20000000000005</ele><time>2026-04-21T12:23:17Z</time></trkpt><trkpt lat="45.44841092262128" lon="8.04557625399667"><ele>432.0</ele><time>2026-04-21T12:23:18Z</time></trkpt><trkpt lat="45.448416673364996" lon="8.045756102362501"><ele>431.75</ele><time>2026-04-21T12:23:19Z</time></trkpt><trkpt lat="45.448432150470865" lon="8.04592233413295"><ele>431.5</ele><time>2026-04-21T12:23:20Z</time></trkpt><trkpt lat="45.44845656219109" lon="8.046075327814828"><ele>431.25</ele><time>2026-04-21T12:23:21Z</time></trkpt><trkpt lat="45.44850152762425" lon="8.0462387054099"><ele>431.0</ele><time>2026-04-21T12:23:22Z</time></trkpt><trkpt lat="45.448567862597486" lon="8.046411786563464"><ele>431.0</ele><time>2026-04-21T12:23:23Z</time></trkpt><trkpt lat="45.44863818397186" lon="8.04658617902865"><ele>431.0</ele><time>2026-04-21T12:23:24Z</time></trkpt><trkpt lat="45.44869929215751" lon="8.046749066695607"><ele>431.0</ele><time>2026-04-21T12:23:25Z</time></trkpt><trkpt lat="45.44875416387934" lon="8.046920373737164"><ele>431.0</ele><time>2026-04-21T12:23:26Z</time></trkpt><trkpt lat="45.448795570365526" lon="8.04709442823439"><ele>433.25</ele><time>2026-04-21T12:23:27Z</time></trkpt><trkpt lat="45.448817620293845" lon="8.047272671616478"><ele>435.5</ele><time>2026-04-21T12:23:28Z</time></trkpt><trkpt lat="45.448832204453986" lon="8.047459881590344"><ele>437.75</ele><time>2026-04-21T12:23:29Z</time></trkpt><trkpt lat="45.448846308018254" lon="8.04764055547748"><ele>440.0</ele><time>2026-04-21T12:23:30Z</time></trkpt><trkpt lat="45.44885998121923" lon="8.04780763148785"><ele>440.0</ele><time>2026-04-21T12:23:31Z</time></trkpt><trkpt lat="45.448875912137474" lon="8.047972573721434"><ele>440.0</ele><time>2026-04-21T12:23:32Z</time></trkpt><trkpt lat="45.44888792480327" lon="8.048149692059784"><ele>440.0</ele><time>2026-04-21T12:23:33Z</time></trkpt><trkpt lat="45.44888780465688" lon="8.048319534909659"><ele>440.0</ele><time>2026-04-21T12:23:34Z</time></trkpt><trkpt lat="45.44887604517501" lon="8.048500585116424"><ele>441.0</ele><time>2026-04-21T12:23:35Z</time></trkpt><trkpt lat="45.44886248555544" lon="8.048704399188132"><ele>442.0</ele><time>2026-04-21T12:23:36Z</time></trkpt><trkpt lat="45.448853289276855" lon="8.048907064486464"><ele>443.0</ele><time>2026-04-21T12:23:37Z</time></trkpt><trkpt lat="45.44883431076723" lon="8.049114544938327"><ele>444.0</ele><time>2026-04-21T12:23:38Z</time></trkpt><trkpt lat="45.4488010710929" lon="8.049297616244298"><ele>442.75</ele><time>2026-04-21T12:23:39Z</time></trkpt><trkpt lat="45.44875411784391" lon="8.049461179071292"><ele>441.5</ele><time>2026-04-21T12:23:40Z</time></trkpt><trkpt lat="45.44873681652934" lon="8.04964907646562"><ele>440.25</ele><time>2026-04-21T12:23:41Z</time></trkpt><trkpt lat="45.448735772823255" lon="8.049829915663024"><ele>439.0</ele><time>2026-04-21T12:23:42Z</time></trkpt><trkpt lat="45.4487363568502" lon="8.049983320866083"><ele>438.83333333333337</ele><time>2026-04-21T12:23:43Z</time></trkpt><trkpt lat="45.44873639743554" lon="8.050122618454425"><ele>438.6666666666667</ele><time>2026-04-21T12:23:44Z</time></trkpt><trkpt lat="45.448734177911504" lon="8.05024239198303"><ele>438.5</ele><time>2026-04-21T12:23:45Z</time></trkpt><trkpt lat="45.448731003186616" lon="8.050353360975416"><ele>438.33333333333337</ele><time>2026-04-21T12:23:46Z</time></trkpt><trkpt lat="45.44871183070845" lon="8.050483467721316"><ele>438.1666666666667</ele><time>2026-04-21T12:23:48Z</time></trkpt><trkpt lat="45.448686146614854" lon="8.050589188063965"><ele>438.0</ele><time>2026-04-21T12:23:52Z</time></trkpt><trkpt lat="45.44868053949329" lon="8.050700846233948"><ele>438.0</ele><time>2026-04-21T12:23:54Z</time></trkpt><trkpt lat="45.44876216324278" lon="8.050714337558746"><ele>438.0</ele><time>2026-04-21T12:23:57Z</time></trkpt><trkpt lat="45.44884752662649" lon="8.050687801027516"><ele>438.0</ele><time>2026-04-21T12:23:59Z</time></trkpt><trkpt lat="45.44891288345712" lon="8.050547344541696"><ele>438.0</ele><time>2026-04-21T12:24:01Z</time></trkpt><trkpt lat="45.44895014105899" lon="8.05042699322626"><ele>438.0</ele><time>2026-04-21T12:24:03Z</time></trkpt><trkpt lat="45.44896319803496" lon="8.05033432293044"><ele>438.0</ele><time>2026-04-21T12:24:04Z</time></trkpt><trkpt lat="45.44899538567681" lon="8.050202925212494"><ele>440.4</ele><time>2026-04-21T12:24:06Z</time></trkpt><trkpt lat="45.449030775381445" lon="8.050060060786372"><ele>442.79999999999995</ele><time>2026-04-21T12:24:08Z</time></trkpt><trkpt lat="45.44908242708961" lon="8.049932960719858"><ele>445.2</ele><time>2026-04-21T12:24:10Z</time></trkpt><trkpt lat="45.44916177561854" lon="8.049856197014467"><ele>447.6</ele><time>2026-04-21T12:24:12Z</time></trkpt><trkpt lat="45.44925059777502" lon="8.049854954473137"><ele>450.0</ele><time>2026-04-21T12:24:14Z</time></trkpt><trkpt lat="45.449323925660586" lon="8.049834331078522"><ele>450.2</ele><time>2026-04-21T12:24:16Z</time></trkpt><trkpt lat="45.449393427423345" lon="8.04980792375964"><ele>450.4</ele><time>2026-04-21T12:24:17Z</time></trkpt><trkpt lat="45.44946701771634" lon="8.049711230039781"><ele>450.6</ele><time>2026-04-21T12:24:20Z</time></trkpt><trkpt lat="45.44948587144469" lon="8.04960505445038"><ele>450.8</ele><time>2026-04-21T12:24:22Z</time></trkpt><trkpt lat="45.44951681651334" lon="8.049445570012095"><ele>451.0</ele><time>2026-04-21T12:25:02.999Z</time></trkpt><trkpt lat="45.44953727687012" lon="8.04932770000746"><ele>451.0</ele><time>2026-04-21T12:25:03.999Z</time></trkpt><trkpt lat="45.4495551890165" lon="8.049181025792826"><ele>451.0</ele><time>2026-04-21T12:25:04.999Z</time></trkpt><trkpt lat="45.44961982620977" lon="8.049022811235703"><ele>451.0</ele><time>2026-04-21T12:25:05.999Z</time></trkpt><trkpt lat="45.44965720174538" lon="8.048837614320881"><ele>451.0</ele><time>2026-04-21T12:25:06.999Z</time></trkpt><trkpt lat="45.449698849303196" lon="8.04861916742008"><ele>452.33333333333337</ele><time>2026-04-21T12:25:07.999Z</time></trkpt><trkpt lat="45.44973129600768" lon="8.048387858969338"><ele>453.66666666666663</ele><time>2026-04-21T12:25:08.999Z</time></trkpt><trkpt lat="45.449756432509744" lon="8.04813702551087"><ele>455.0</ele><time>2026-04-21T12:25:09.999Z</time></trkpt><trkpt lat="45.44977247674802" lon="8.047924490508759"><ele>455.0</ele><time>2026-04-21T12:25:10.999Z</time></trkpt><trkpt lat="45.44974715816882" lon="8.047703765360623"><ele>455.0</ele><time>2026-04-21T12:25:11.999Z</time></trkpt><trkpt lat="45.44975740312996" lon="8.047480457935423"><ele>455.0</ele><time>2026-04-21T12:25:12.999Z</time></trkpt><trkpt lat="45.449774923086125" lon="8.047293039029006"><ele>455.0</ele><time>2026-04-21T12:25:13.999Z</time></trkpt><trkpt lat="45.4498234151239" lon="8.047139069311758"><ele>454.5</ele><time>2026-04-21T12:25:14.999Z</time></trkpt><trkpt lat="45.449874026312905" lon="8.046985251674961"><ele>454.0</ele><time>2026-04-21T12:25:15.999Z</time></trkpt><trkpt lat="45.4499024450349" lon="8.046839459898111"><ele>453.5</ele><time>2026-04-21T12:25:16.999Z</time></trkpt><trkpt lat="45.44993809439886" lon="8.046691061871792"><ele>453.0</ele><time>2026-04-21T12:25:17.999Z</time></trkpt><trkpt lat="45.449961281594206" lon="8.04650392307995"><ele>452.66666666666663</ele><time>2026-04-21T12:25:19Z</time></trkpt><trkpt lat="45.449976918314306" lon="8.046290567972257"><ele>452.3333333333333</ele><time>2026-04-21T12:25:20Z</time></trkpt><trkpt lat="45.45002407497801" lon="8.04606898778077"><ele>452.0</ele><time>2026-04-21T12:25:21Z</time></trkpt><trkpt lat="45.45003902337327" lon="8.045844805458266"><ele>451.0</ele><time>2026-04-21T12:25:22Z</time></trkpt><trkpt lat="45.45006427573741" lon="8.04560225800068"><ele>450.0</ele><time>2026-04-21T12:25:23Z</time></trkpt><trkpt lat="45.45007200076612" lon="8.045340963470736"><ele>449.0</ele><time>2026-04-21T12:25:24Z</time></trkpt><trkpt lat="45.45007428547906" lon="8.045072171857482"><ele>448.3333333333333</ele><time>2026-04-21T12:25:25Z</time></trkpt><trkpt lat="45.45008295839537" lon="8.044829806007586"><ele>447.66666666666663</ele><time>2026-04-21T12:25:26Z</time></trkpt><trkpt lat="45.45010138351972" lon="8.044614653296463"><ele>447.0</ele><time>2026-04-21T12:25:27Z</time></trkpt><trkpt lat="45.45013619318624" lon="8.044387554366761"><ele>447.0</ele><time>2026-04-21T12:25:28Z</time></trkpt><trkpt lat="45.450175321901995" lon="8.044180782416793"><ele>447.0</ele><time>2026-04-21T12:25:29Z</time></trkpt><trkpt lat="45.45023333760888" lon="8.04399029146325"><ele>447.0</ele><time>2026-04-21T12:25:30Z</time></trkpt><trkpt lat="45.450269682990104" lon="8.04376767007472"><ele>446.33333333333337</ele><time>2026-04-21T12:25:31Z</time></trkpt><trkpt lat="45.45027964709703" lon="8.043516037995733"><ele>445.6666666666667</ele><time>2026-04-21T12:25:32Z</time></trkpt><trkpt lat="45.45031029810993" lon="8.043272651568346"><ele>445.0</ele><time>2026-04-21T12:25:33Z</time></trkpt><trkpt lat="45.45032238983861" lon="8.04306780488341"><ele>444.75</ele><time>2026-04-21T12:25:34Z</time></trkpt><trkpt lat="45.45033313734239" lon="8.042875158207151"><ele>444.5</ele><time>2026-04-21T12:25:35Z</time></trkpt><trkpt lat="45.45034156815242" lon="8.042696289825525"><ele>444.25</ele><time>2026-04-21T12:25:36Z</time></trkpt><trkpt lat="45.450346472196195" lon="8.04253069077756"><ele>444.0</ele><time>2026-04-21T12:25:37Z</time></trkpt><trkpt lat="45.45036657210986" lon="8.04234380043615"><ele>443.75</ele><time>2026-04-21T12:25:38Z</time></trkpt><trkpt lat="45.450392478672626" lon="8.042141589221039"><ele>443.5</ele><time>2026-04-21T12:25:39Z</time></trkpt><trkpt lat="45.45041490775149" lon="8.041967839442009"><ele>443.25</ele><time>2026-04-21T12:25:40Z</time></trkpt><trkpt lat="45.450439101722985" lon="8.04180849019267"><ele>443.0</ele><time>2026-04-21T12:25:41Z</time></trkpt><trkpt lat="45.45046961017133" lon="8.041665944883867"><ele>446.75</ele><time>2026-04-21T12:25:42Z</time></trkpt><trkpt lat="45.450494746516945" lon="8.041546637909665"><ele>450.5</ele><time>2026-04-21T12:25:43Z</time></trkpt><trkpt lat="45.45052467661217" lon="8.041390300924075"><ele>454.25</ele><time>2026-04-21T12:25:45Z</time></trkpt><trkpt lat="45.45054953314432" lon="8.041280809489518"><ele>458.0</ele><time>2026-04-21T12:25:47Z</time></trkpt><trkpt lat="45.45067551163778" lon="8.04146278745472"><ele>458.0</ele><time>2026-04-21T12:25:52Z</time></trkpt><trkpt lat="45.450743021290876" lon="8.041573028858656"><ele>457.99999999999994</ele><time>2026-04-21T12:25:53Z</time></trkpt><trkpt lat="45.45082245351668" lon="8.041693337925897"><ele>457.99999999999994</ele><time>2026-04-21T12:25:54Z</time></trkpt><trkpt lat="45.450901140364095" lon="8.041781022116494"><ele>458.0</ele><time>2026-04-21T12:25:55Z</time></trkpt><trkpt lat="45.45098867647182" lon="8.041857555225867"><ele>458.0</ele><time>2026-04-21T12:25:56Z</time></trkpt><trkpt lat="45.451055845627415" lon="8.041919330283992"><ele>458.59999999999997</ele><time>2026-04-21T12:25:57Z</time></trkpt><trkpt lat="45.45109828028128" lon="8.041999919759082"><ele>459.19999999999993</ele><time>2026-04-21T12:25:58Z</time></trkpt><trkpt lat="45.45112830786754" lon="8.042160495040992"><ele>459.8</ele><time>2026-04-21T12:26:00Z</time></trkpt><trkpt lat="45.451119257057556" lon="8.042334998710283"><ele>460.4</ele><time>2026-04-21T12:26:02Z</time></trkpt><trkpt lat="45.451105030857114" lon="8.042450007103989"><ele>461.0</ele><time>2026-04-21T12:26:03Z</time></trkpt><trkpt lat="45.45108767319279" lon="8.042559838753569"><ele>461.0</ele><time>2026-04-21T12:26:04Z</time></trkpt><trkpt lat="45.4510765181794" lon="8.042684057198736"><ele>461.0</ele><time>2026-04-21T12:26:05Z</time></trkpt><trkpt lat="45.45107536117752" lon="8.042832052417102"><ele>461.0</ele><time>2026-04-21T12:26:06Z</time></trkpt><trkpt lat="45.451081606469806" lon="8.042976954867864"><ele>461.0</ele><time>2026-04-21T12:26:07Z</time></trkpt><trkpt lat="45.45108604253907" lon="8.043104796572297"><ele>461.0</ele><time>2026-04-21T12:26:08Z</time></trkpt><trkpt lat="45.4510915359919" lon="8.04322266275551"><ele>460.8333333333333</ele><time>2026-04-21T12:26:09Z</time></trkpt><trkpt lat="45.4510999020972" lon="8.043338439600145"><ele>460.66666666666663</ele><time>2026-04-21T12:26:10Z</time></trkpt><trkpt lat="45.45110760172659" lon="8.043453556975058"><ele>460.5</ele><time>2026-04-21T12:26:11Z</time></trkpt><trkpt lat="45.451114181934166" lon="8.043596260302229"><ele>460.33333333333337</ele><time>2026-04-21T12:26:12Z</time></trkpt><trkpt lat="45.45111952974686" lon="8.043712994220575"><ele>460.1666666666667</ele><time>2026-04-21T12:26:13Z</time></trkpt><trkpt lat="45.451118794203936" lon="8.043804965201382"><ele>460.0</ele><time>2026-04-21T12:26:14Z</time></trkpt><trkpt lat="45.45113302709688" lon="8.043951129380783"><ele>460.00000000000006</ele><time>2026-04-21T12:26:16Z</time></trkpt><trkpt lat="45.4511567198824" lon="8.04411188777612"><ele>460.0</ele><time>2026-04-21T12:26:18Z</time></trkpt><trkpt lat="45.45117560645353" lon="8.044214656009995"><ele>460.0</ele><time>2026-04-21T12:26:19Z</time></trkpt><trkpt lat="45.45121625565089" lon="8.044298258834461"><ele>460.0</ele><time>2026-04-21T12:26:20Z</time></trkpt><trkpt lat="45.451254964030355" lon="8.044407493784803"><ele>460.00000000000006</ele><time>2026-04-21T12:26:21Z</time></trkpt><trkpt lat="45.45127845845919" lon="8.04452477660531"><ele>460.0</ele><time>2026-04-21T12:26:22Z</time></trkpt><trkpt lat="45.451328106100625" lon="8.044622734150215"><ele>459.50000000000006</ele><time>2026-04-21T12:26:23Z</time></trkpt><trkpt lat="45.451355245125136" lon="8.044739708422295"><ele>459.0</ele><time>2026-04-21T12:26:24Z</time></trkpt><trkpt lat="45.45140205686781" lon="8.04484064214248"><ele>458.5</ele><time>2026-04-21T12:26:25Z</time></trkpt><trkpt lat="45.4514462967222" lon="8.0449406329983"><ele>458.0</ele><time>2026-04-21T12:26:26Z</time></trkpt><trkpt lat="45.451497049424844" lon="8.045040649250367"><ele>457.50000000000006</ele><time>2026-04-21T12:26:27Z</time></trkpt><trkpt lat="45.45153712295633" lon="8.045159077434723"><ele>457.0</ele><time>2026-04-21T12:26:28Z</time></trkpt><trkpt lat="45.451566842843164" lon="8.045293189837484"><ele>457.0</ele><time>2026-04-21T12:26:29Z</time></trkpt><trkpt lat="45.45160847531786" lon="8.045406106017762"><ele>457.00000000000006</ele><time>2026-04-21T12:26:30Z</time></trkpt><trkpt lat="45.45164337645908" lon="8.045506902680277"><ele>457.00000000000006</ele><time>2026-04-21T12:26:31Z</time></trkpt><trkpt lat="45.45169851986187" lon="8.045626153754435"><ele>457.0</ele><time>2026-04-21T12:26:32Z</time></trkpt><trkpt lat="45.45175982700919" lon="8.045742724296922"><ele>457.0</ele><time>2026-04-21T12:26:33Z</time></trkpt><trkpt lat="45.45182415508844" lon="8.045841446434816"><ele>457.20000000000005</ele><time>2026-04-21T12:26:34Z</time></trkpt><trkpt lat="45.45188213060901" lon="8.045928480688808"><ele>457.40000000000003</ele><time>2026-04-21T12:26:34.999Z</time></trkpt><trkpt lat="45.45195175471359" lon="8.046009082656896"><ele>457.59999999999997</ele><time>2026-04-21T12:26:35.999Z</time></trkpt><trkpt lat="45.45202480612098" lon="8.046112219184286"><ele>457.79999999999995</ele><time>2026-04-21T12:26:36.999Z</time></trkpt><trkpt lat="45.45211420478885" lon="8.04622483799623"><ele>458.0</ele><time>2026-04-21T12:26:37.999Z</time></trkpt><trkpt lat="45.45220193823447" lon="8.046366082013758"><ele>456.2</ele><time>2026-04-21T12:26:38.999Z</time></trkpt><trkpt lat="45.452281419517796" lon="8.046479576924328"><ele>454.4</ele><time>2026-04-21T12:26:39.999Z</time></trkpt><trkpt lat="45.45234252140978" lon="8.046586621941557"><ele>452.59999999999997</ele><time>2026-04-21T12:26:40.999Z</time></trkpt><trkpt lat="45.45240543964007" lon="8.046708043391275"><ele>450.79999999999995</ele><time>2026-04-21T12:26:41.999Z</time></trkpt><trkpt lat="45.45245645265059" lon="8.046821721177585"><ele>449.0</ele><time>2026-04-21T12:26:42.999Z</time></trkpt><trkpt lat="45.452518985395805" lon="8.04692746866362"><ele>448.99999999999994</ele><time>2026-04-21T12:26:43.999Z</time></trkpt><trkpt lat="45.45257265938417" lon="8.047032768360072"><ele>449.0</ele><time>2026-04-21T12:26:44.999Z</time></trkpt><trkpt lat="45.45261032496684" lon="8.047158987321964"><ele>449.0</ele><time>2026-04-21T12:26:45.999Z</time></trkpt><trkpt lat="45.4526598564709" lon="8.04726088375078"><ele>449.0</ele><time>2026-04-21T12:26:46.999Z</time></trkpt><trkpt lat="45.4526942216321" lon="8.047378280810186"><ele>448.99999999999994</ele><time>2026-04-21T12:26:48.999Z</time></trkpt><trkpt lat="45.452715969783" lon="8.047490142029888"><ele>449.0</ele><time>2026-04-21T12:28:28Z</time></trkpt><trkpt lat="45.452698877404316" lon="8.047578695541615"><ele>448.99999999999994</ele><time>2026-04-21T12:28:30Z</time></trkpt><trkpt lat="45.45268097847839" lon="8.04769901957357"><ele>449.0</ele><time>2026-04-21T12:28:33Z</time></trkpt><trkpt lat="45.452598170917064" lon="8.047762571546924"><ele>449.0</ele><time>2026-04-21T12:28:36Z</time></trkpt><trkpt lat="45.45251929903448" lon="8.047833923680193"><ele>449.0</ele><time>2026-04-21T12:28:38Z</time></trkpt><trkpt lat="45.452458031788964" lon="8.047895775116269"><ele>448.99999999999994</ele><time>2026-04-21T12:28:40Z</time></trkpt><trkpt lat="45.45240013354405" lon="8.04793215946084"><ele>449.0</ele><time>2026-04-21T12:28:42Z</time></trkpt><trkpt lat="45.452338095350186" lon="8.047968263581586"><ele>448.99999999999994</ele><time>2026-04-21T12:28:45Z</time></trkpt><trkpt lat="45.452262555387954" lon="8.048035998707386"><ele>449.0</ele><time>2026-04-21T12:28:48Z</time></trkpt><trkpt lat="45.45220750390852" lon="8.048111571356626"><ele>449.0</ele><time>2026-04-21T12:28:58.999Z</time></trkpt><trkpt lat="45.45213257799615" lon="8.048115683546387"><ele>449.0</ele><time>2026-04-21T12:29:06.999Z</time></trkpt><trkpt lat="45.45206717901814" lon="8.048201428810406"><ele>448.99999999999994</ele><time>2026-04-21T12:29:09.999Z</time></trkpt><trkpt lat="45.45206403130063" lon="8.04831988323017"><ele>449.0</ele><time>2026-04-21T12:29:11.999Z</time></trkpt><trkpt lat="45.45204103351731" lon="8.048416492797138"><ele>451.2</ele><time>2026-04-21T12:29:13.999Z</time></trkpt><trkpt lat="45.45194350928674" lon="8.04846802535258"><ele>453.4</ele><time>2026-04-21T12:29:16.999Z</time></trkpt><trkpt lat="45.45185660624782" lon="8.048483107167943"><ele>455.6</ele><time>2026-04-21T12:29:18.999Z</time></trkpt><trkpt lat="45.45177611158424" lon="8.048498871479152"><ele>457.8</ele><time>2026-04-21T12:29:20.999Z</time></trkpt><trkpt lat="45.451694561534715" lon="8.048523497368585"><ele>460.0</ele><time>2026-04-21T12:29:22.999Z</time></trkpt><trkpt lat="45.45158880907481" lon="8.048520482394864"><ele>460.00000000000006</ele><time>2026-04-21T12:29:24.999Z</time></trkpt><trkpt lat="45.45151216034908" lon="8.048546366398464"><ele>460.0</ele><time>2026-04-21T12:29:26.999Z</time></trkpt><trkpt lat="45.45145028760808" lon="8.048620920161694"><ele>460.0</ele><time>2026-04-21T12:29:27.999Z</time></trkpt><trkpt lat="45.451397281457126" lon="8.048694694550935"><ele>460.0</ele><time>2026-04-21T12:29:29.999Z</time></trkpt><trkpt lat="45.451339013469" lon="8.048759776984289"><ele>460.00000000000006</ele><time>2026-04-21T12:29:33Z</time></trkpt><trkpt lat="45.45127671434745" lon="8.048802034614914"><ele>460.0</ele><time>2026-04-21T12:29:36Z</time></trkpt><trkpt lat="45.45117718679143" lon="8.048854079449088"><ele>461.0</ele><time>2026-04-21T12:29:39Z</time></trkpt><trkpt lat="45.45108555100199" lon="8.048899120762286"><ele>462.0</ele><time>2026-04-21T12:29:41Z</time></trkpt><trkpt lat="45.45102056198903" lon="8.048934104237581"><ele>463.0</ele><time>2026-04-21T12:29:43Z</time></trkpt><trkpt lat="45.45096759847615" lon="8.049016764661921"><ele>464.0</ele><time>2026-04-21T12:30:57.999Z</time></trkpt><trkpt lat="45.45088197045477" lon="8.049060041082447"><ele>465.0</ele><time>2026-04-21T12:30:59.999Z</time></trkpt><trkpt lat="45.450762263515784" lon="8.049131728933963"><ele>465.2</ele><time>2026-04-21T12:31:01.999Z</time></trkpt><trkpt lat="45.45064755668769" lon="8.049177216569358"><ele>465.4</ele><time>2026-04-21T12:31:03.999Z</time></trkpt><trkpt lat="45.45054602495529" lon="8.049247925063295"><ele>465.6</ele><time>2026-04-21T12:31:05.999Z</time></trkpt><trkpt lat="45.450517592228145" lon="8.049380165466028"><ele>465.8</ele><time>2026-04-21T12:31:07.999Z</time></trkpt><trkpt lat="45.45050338212187" lon="8.049493420280724"><ele>466.0</ele><time>2026-04-21T12:31:08.999Z</time></trkpt><trkpt lat="45.450478912706714" lon="8.049669905596025"><ele>466.0</ele><time>2026-04-21T12:31:10.999Z</time></trkpt><trkpt lat="45.450505322494685" lon="8.049824829222338"><ele>466.0</ele><time>2026-04-21T12:31:12.999Z</time></trkpt><trkpt lat="45.45052451558872" lon="8.049966942008323"><ele>466.0</ele><time>2026-04-21T12:31:14.999Z</time></trkpt><trkpt lat="45.45054761076182" lon="8.05008267991035"><ele>466.0</ele><time>2026-04-21T12:31:16.999Z</time></trkpt><trkpt lat="45.4506119619031" lon="8.050201626995909"><ele>466.0</ele><time>2026-04-21T12:31:18.999Z</time></trkpt><trkpt lat="45.45065558132725" lon="8.05032890903258"><ele>465.0</ele><time>2026-04-21T12:31:20.999Z</time></trkpt><trkpt lat="45.45068718166538" lon="8.050455885031706"><ele>464.0</ele><time>2026-04-21T12:31:22.999Z</time></trkpt><trkpt lat="45.450716199528664" lon="8.050541505460046"><ele>463.0</ele><time>2026-04-21T12:31:24.999Z</time></trkpt><trkpt lat="45.45075734650674" lon="8.050701152712044"><ele>462.0</ele><time>2026-04-21T12:31:26.999Z</time></trkpt><trkpt lat="45.45078755885384" lon="8.050841735788724"><ele>461.0</ele><time>2026-04-21T12:31:28.999Z</time></trkpt><trkpt lat="45.450810670562504" lon="8.050949783463075"><ele>460.99999999999994</ele><time>2026-04-21T12:31:30.999Z</time></trkpt><trkpt lat="45.45084989984623" lon="8.051034159476268"><ele>461.0</ele><time>2026-04-21T12:31:32.999Z</time></trkpt><trkpt lat="45.45087221275529" lon="8.051124105515818"><ele>461.0</ele><time>2026-04-21T12:31:34.999Z</time></trkpt><trkpt lat="45.450881851351475" lon="8.051250801138567"><ele>461.0</ele><time>2026-04-21T12:31:37Z</time></trkpt><trkpt lat="45.45087696668855" lon="8.051412428720589"><ele>460.99999999999994</ele><time>2026-04-21T12:31:39Z</time></trkpt><trkpt lat="45.45086367691919" lon="8.05155668734535"><ele>461.0</ele><time>2026-04-21T12:31:41Z</time></trkpt><trkpt lat="45.450891539340866" lon="8.051726867477472"><ele>461.66666666666663</ele><time>2026-04-21T12:31:43Z</time></trkpt><trkpt lat="45.450909933280705" lon="8.051817079324872"><ele>462.3333333333333</ele><time>2026-04-21T12:31:44Z</time></trkpt><trkpt lat="45.4509123090131" lon="8.051971805667614"><ele>463.0</ele><time>2026-04-21T12:31:46Z</time></trkpt><trkpt lat="45.45090320807345" lon="8.052061389681684"><ele>463.66666666666663</ele><time>2026-04-21T12:31:47Z</time></trkpt><trkpt lat="45.45089609629283" lon="8.052215920969463"><ele>464.3333333333333</ele><time>2026-04-21T12:31:49Z</time></trkpt><trkpt lat="45.450884751748745" lon="8.052330996605049"><ele>465.0</ele><time>2026-04-21T12:31:51Z</time></trkpt><trkpt lat="45.45087088771741" lon="8.05246573862816"><ele>465.0</ele><time>2026-04-21T12:31:53Z</time></trkpt><trkpt lat="45.45085831047326" lon="8.052570634698956"><ele>465.0</ele><time>2026-04-21T12:31:55Z</time></trkpt><trkpt lat="45.45086981037353" lon="8.052724178503071"><ele>465.0</ele><time>2026-04-21T12:31:58Z</time></trkpt><trkpt lat="45.45087373645478" lon="8.052815988777883"><ele>465.0</ele><time>2026-04-21T12:32:00Z</time></trkpt><trkpt lat="45.45092407203307" lon="8.052902087912566"><ele>465.0</ele><time>2026-04-21T12:32:03Z</time></trkpt><trkpt lat="45.450997695543045" lon="8.052930235147526"><ele>465.0</ele><time>2026-04-21T12:32:06Z</time></trkpt><trkpt lat="45.45107060867468" lon="8.052915773730255"><ele>465.0</ele><time>2026-04-21T12:32:15Z</time></trkpt><trkpt lat="45.45113063157433" lon="8.052945474386167"><ele>465.0</ele><time>2026-04-21T12:32:18Z</time></trkpt><trkpt lat="45.45118788714883" lon="8.05298451497478"><ele>465.0</ele><time>2026-04-21T12:32:24Z</time></trkpt><trkpt lat="45.45124522567204" lon="8.053030093506804"><ele>465.0</ele><time>2026-04-21T12:32:37Z</time></trkpt><trkpt lat="45.45129993036582" lon="8.053090459534513"><ele>465.0</ele><time>2026-04-21T12:32:51.999Z</time></trkpt><trkpt lat="45.45135110333481" lon="8.053193871273928"><ele>465.0</ele><time>2026-04-21T12:42:06Z</time></trkpt><trkpt lat="45.451369193995724" lon="8.053329831911858"><ele>465.0</ele><time>2026-04-21T12:42:09Z</time></trkpt><trkpt lat="45.45135259795843" lon="8.053425906473352"><ele>464.1666666666667</ele><time>2026-04-21T12:42:11Z</time></trkpt><trkpt lat="45.451339577168035" lon="8.053530592932422"><ele>463.33333333333337</ele><time>2026-04-21T12:42:13Z</time></trkpt><trkpt lat="45.45134895677839" lon="8.053670233174111"><ele>462.5</ele><time>2026-04-21T12:42:15Z</time></trkpt><trkpt lat="45.45138820096444" lon="8.053798270790827"><ele>461.6666666666667</ele><time>2026-04-21T12:42:17Z</time></trkpt><trkpt lat="45.451422408908165" lon="8.053905386246266"><ele>460.83333333333337</ele><time>2026-04-21T12:42:19Z</time></trkpt><trkpt lat="45.45140413224907" lon="8.054023491500905"><ele>460.0</ele><time>2026-04-21T12:42:21Z</time></trkpt><trkpt lat="45.451368465627134" lon="8.054139448704989"><ele>460.0</ele><time>2026-04-21T12:42:23Z</time></trkpt><trkpt lat="45.45133619476967" lon="8.054293818551658"><ele>460.0</ele><time>2026-04-21T12:42:25Z</time></trkpt><trkpt lat="45.45132139049484" lon="8.054394626596247"><ele>460.0</ele><time>2026-04-21T12:42:27Z</time></trkpt><trkpt lat="45.45132580652813" lon="8.05448617874928"><ele>460.0</ele><time>2026-04-21T12:42:28Z</time></trkpt><trkpt lat="45.4513085486639" lon="8.05462384853129"><ele>460.0</ele><time>2026-04-21T12:42:30Z</time></trkpt><trkpt lat="45.45129104034031" lon="8.054796088087294"><ele>460.83333333333337</ele><time>2026-04-21T12:42:32Z</time></trkpt><trkpt lat="45.45126624304032" lon="8.054924211219099"><ele>461.6666666666667</ele><time>2026-04-21T12:42:34Z</time></trkpt><trkpt lat="45.45124035907101" lon="8.055023776287307"><ele>462.5</ele><time>2026-04-21T12:42:36Z</time></trkpt><trkpt lat="45.45121695876501" lon="8.055138979749719"><ele>463.33333333333337</ele><time>2026-04-21T12:42:38Z</time></trkpt><trkpt lat="45.45116518380868" lon="8.055217962303214"><ele>464.1666666666667</ele><time>2026-04-21T12:42:40Z</time></trkpt><trkpt lat="45.45111270971205" lon="8.05528008416194"><ele>465.0</ele><time>2026-04-21T12:42:42Z</time></trkpt><trkpt lat="45.45110940999936" lon="8.055418061112082"><ele>465.6666666666667</ele><time>2026-04-21T12:42:45Z</time></trkpt><trkpt lat="45.45108581148248" lon="8.05551404874534"><ele>466.33333333333337</ele><time>2026-04-21T12:42:48Z</time></trkpt><trkpt lat="45.45117036858496" lon="8.055549122760349"><ele>467.0</ele><time>2026-04-21T12:43:50.999Z</time></trkpt><trkpt lat="45.451204263057306" lon="8.055627004046285"><ele>467.6666666666667</ele><time>2026-04-21T12:44:01.999Z</time></trkpt><trkpt lat="45.45117706459384" lon="8.055723266530073"><ele>468.33333333333337</ele><time>2026-04-21T12:44:09.999Z</time></trkpt><trkpt lat="45.45116844361955" lon="8.055824804454778"><ele>469.0</ele><time>2026-04-21T12:44:14Z</time></trkpt><trkpt lat="45.45115360936" lon="8.055943640888367"><ele>469.00000000000006</ele><time>2026-04-21T12:48:07.999Z</time></trkpt><trkpt lat="45.45106634833566" lon="8.056008546058552"><ele>469.0</ele><time>2026-04-21T12:48:10.999Z</time></trkpt><trkpt lat="45.45099999801423" lon="8.056137313092187"><ele>469.0</ele><time>2026-04-21T12:48:12.999Z</time></trkpt><trkpt lat="45.45097894159259" lon="8.056230502683745"><ele>469.0</ele><time>2026-04-21T12:48:13.999Z</time></trkpt><trkpt lat="45.45095471777918" lon="8.056325233331963"><ele>469.00000000000006</ele><time>2026-04-21T12:48:14.999Z</time></trkpt><trkpt lat="45.450927686589466" lon="8.056415967028673"><ele>469.0</ele><time>2026-04-21T12:48:15.999Z</time></trkpt><trkpt lat="45.45085945591232" lon="8.056526898404082"><ele>469.00000000000006</ele><time>2026-04-21T12:48:17.999Z</time></trkpt><trkpt lat="45.450807091994626" lon="8.056665465046077"><ele>469.0</ele><time>2026-04-21T12:48:19.999Z</time></trkpt><trkpt lat="45.450819316736485" lon="8.056799295816504"><ele>469.0</ele><time>2026-04-21T12:48:21.999Z</time></trkpt><trkpt lat="45.45081575554935" lon="8.056898390792119"><ele>469.0</ele><time>2026-04-21T12:48:24Z</time></trkpt><trkpt lat="45.45074364001151" lon="8.056967733450804"><ele>469.00000000000006</ele><time>2026-04-21T12:48:27Z</time></trkpt><trkpt lat="45.450667692585526" lon="8.056986761283374"><ele>469.0</ele><time>2026-04-21T12:48:29Z</time></trkpt><trkpt lat="45.450597866966454" lon="8.056915688321581"><ele>469.0</ele><time>2026-04-21T12:48:31Z</time></trkpt><trkpt lat="45.45051305923161" lon="8.056820959911397"><ele>469.0</ele><time>2026-04-21T12:48:33Z</time></trkpt><trkpt lat="45.45044572616916" lon="8.056767007770409"><ele>469.0</ele><time>2026-04-21T12:48:35Z</time></trkpt><trkpt lat="45.450380758533925" lon="8.056813669550596"><ele>469.0</ele><time>2026-04-21T12:48:38Z</time></trkpt><trkpt lat="45.450391051332254" lon="8.056946539496078"><ele>469.0</ele><time>2026-04-21T12:48:40Z</time></trkpt><trkpt lat="45.45042373521632" lon="8.057091465741165"><ele>469.4</ele><time>2026-04-21T12:48:42Z</time></trkpt><trkpt lat="45.45041979867232" lon="8.057223832632936"><ele>469.79999999999995</ele><time>2026-04-21T12:48:45Z</time></trkpt><trkpt lat="45.45037619738747" lon="8.05739076960048"><ele>470.20000000000005</ele><time>2026-04-21T12:48:47Z</time></trkpt><trkpt lat="45.45035333178098" lon="8.057512280992839"><ele>470.6</ele><time>2026-04-21T12:48:49Z</time></trkpt><trkpt lat="45.450317414236736" lon="8.057590138569367"><ele>471.0</ele><time>2026-04-21T12:48:51Z</time></trkpt><trkpt lat="45.45027919666658" lon="8.057697209241866"><ele>471.6666666666667</ele><time>2026-04-21T12:48:53Z</time></trkpt><trkpt lat="45.450215027116634" lon="8.057762538733428"><ele>472.33333333333337</ele><time>2026-04-21T12:48:55Z</time></trkpt><trkpt lat="45.450158554913706" lon="8.05782455998951"><ele>473.0</ele><time>2026-04-21T12:48:57Z</time></trkpt><trkpt lat="45.45010218812271" lon="8.0578950739238"><ele>473.6666666666667</ele><time>2026-04-21T12:48:59Z</time></trkpt><trkpt lat="45.45004054426253" lon="8.057966834255621"><ele>474.33333333333337</ele><time>2026-04-21T12:49:01Z</time></trkpt><trkpt lat="45.44996817272074" lon="8.058063901655473"><ele>475.0</ele><time>2026-04-21T12:49:03Z</time></trkpt><trkpt lat="45.44990941692897" lon="8.058120699643675"><ele>475.0</ele><time>2026-04-21T12:49:04.999Z</time></trkpt><trkpt lat="45.449860479048766" lon="8.058193636675654"><ele>475.0</ele><time>2026-04-21T12:49:06.999Z</time></trkpt><trkpt lat="45.44979425215294" lon="8.058277099951749"><ele>475.0</ele><time>2026-04-21T12:49:08.999Z</time></trkpt><trkpt lat="45.449741773898715" lon="8.058338831233733"><ele>475.0</ele><time>2026-04-21T12:49:11.999Z</time></trkpt><trkpt lat="45.4495748090631" lon="8.058608618280752"><ele>474.50000000000006</ele><time>2026-04-21T12:49:12.999Z</time></trkpt><trkpt lat="45.44951114215841" lon="8.058706515856313"><ele>474.0</ele><time>2026-04-21T12:49:15.999Z</time></trkpt><trkpt lat="45.4494514210628" lon="8.058804608512556"><ele>473.5</ele><time>2026-04-21T12:49:18.999Z</time></trkpt><trkpt lat="45.44941485242717" lon="8.05887912486812"><ele>473.0</ele><time>2026-04-21T12:49:20.999Z</time></trkpt><trkpt lat="45.44938252158071" lon="8.05901154541932"><ele>472.50000000000006</ele><time>2026-04-21T12:49:30.999Z</time></trkpt><trkpt lat="45.44934775355095" lon="8.059103846265645"><ele>472.0</ele><time>2026-04-21T12:49:33.999Z</time></trkpt><trkpt lat="45.449334735210755" lon="8.059238343650911"><ele>474.0</ele><time>2026-04-21T12:49:37.999Z</time></trkpt><trkpt lat="45.44934048862651" lon="8.05935069566258"><ele>476.00000000000006</ele><time>2026-04-21T12:49:39.999Z</time></trkpt><trkpt lat="45.44933359424107" lon="8.059446284474067"><ele>478.00000000000006</ele><time>2026-04-21T12:49:41.999Z</time></trkpt><trkpt lat="45.44929994731844" lon="8.059573093204536"><ele>480.0</ele><time>2026-04-21T12:49:43.999Z</time></trkpt><trkpt lat="45.44922372565108" lon="8.05962819699098"><ele>482.0</ele><time>2026-04-21T12:49:45.999Z</time></trkpt><trkpt lat="45.4491203401415" lon="8.059730499707278"><ele>481.99999999999994</ele><time>2026-04-21T12:49:47.999Z</time></trkpt><trkpt lat="45.449080809836225" lon="8.059812267825702"><ele>482.0</ele><time>2026-04-21T12:49:48.999Z</time></trkpt><trkpt lat="45.44903435191897" lon="8.059886458249563"><ele>482.0</ele><time>2026-04-21T12:49:49.999Z</time></trkpt><trkpt lat="45.448961098649114" lon="8.060012393612613"><ele>482.0</ele><time>2026-04-21T12:49:51.999Z</time></trkpt><trkpt lat="45.44893506694285" lon="8.060103379282868"><ele>481.99999999999994</ele><time>2026-04-21T12:49:52.999Z</time></trkpt><trkpt lat="45.44890609066473" lon="8.060203279327542"><ele>482.0</ele><time>2026-04-21T12:49:53.999Z</time></trkpt><trkpt lat="45.448868020681886" lon="8.06028045687871"><ele>481.99999999999994</ele><time>2026-04-21T12:49:54.999Z</time></trkpt><trkpt lat="45.448816816702724" lon="8.060354626896203"><ele>482.0</ele><time>2026-04-21T12:49:55.999Z</time></trkpt><trkpt lat="45.448764404893375" lon="8.060513713151089"><ele>482.0</ele><time>2026-04-21T12:49:57.999Z</time></trkpt><trkpt lat="45.44876440934994" lon="8.060610052358502"><ele>482.0</ele><time>2026-04-21T12:49:58.999Z</time></trkpt><trkpt lat="45.4486888482007" lon="8.060729329171131"><ele>481.99999999999994</ele><time>2026-04-21T12:50:00.999Z</time></trkpt><trkpt lat="45.44863973577023" lon="8.060801111892859"><ele>482.0</ele><time>2026-04-21T12:50:03.999Z</time></trkpt><trkpt lat="45.448628425847545" lon="8.060909618354025"><ele>480.66666666666663</ele><time>2026-04-21T12:50:05.999Z</time></trkpt><trkpt lat="45.44859861010591" lon="8.060998996425742"><ele>479.3333333333333</ele><time>2026-04-21T12:50:07.999Z</time></trkpt><trkpt lat="45.44856741093175" lon="8.061113947848165"><ele>478.0</ele><time>2026-04-21T12:50:09.999Z</time></trkpt><trkpt lat="45.44852781569173" lon="8.061215813339764"><ele>476.66666666666663</ele><time>2026-04-21T12:50:12.999Z</time></trkpt><trkpt lat="45.44851570834055" lon="8.061315302862004"><ele>475.3333333333333</ele><time>2026-04-21T12:50:14.999Z</time></trkpt><trkpt lat="45.44851404370951" lon="8.061434490636199"><ele>474.0</ele><time>2026-04-21T12:50:16.999Z</time></trkpt><trkpt lat="45.44848260111318" lon="8.061513874818512"><ele>474.0</ele><time>2026-04-21T12:50:18.999Z</time></trkpt><trkpt lat="45.448429392322275" lon="8.061574541395595"><ele>474.0</ele><time>2026-04-21T12:50:21.999Z</time></trkpt><trkpt lat="45.448396340111756" lon="8.06166332948469"><ele>474.0</ele><time>2026-04-21T12:50:23.999Z</time></trkpt><trkpt lat="45.44836168842566" lon="8.061797555355433"><ele>474.0</ele><time>2026-04-21T12:50:25.999Z</time></trkpt><trkpt lat="45.448347708332406" lon="8.061941596680814"><ele>474.0</ele><time>2026-04-21T12:50:27.999Z</time></trkpt><trkpt lat="45.448295151828574" lon="8.062012156634797"><ele>474.0</ele><time>2026-04-21T12:50:30Z</time></trkpt><trkpt lat="45.44826742422233" lon="8.06215428292695"><ele>473.3333333333333</ele><time>2026-04-21T12:50:33Z</time></trkpt><trkpt lat="45.44823035596708" lon="8.062269602919978"><ele>472.66666666666663</ele><time>2026-04-21T12:50:35Z</time></trkpt><trkpt lat="45.44819509093201" lon="8.062358688399316"><ele>472.0</ele><time>2026-04-21T12:50:39Z</time></trkpt><trkpt lat="45.44815239064006" lon="8.062435738078625"><ele>471.3333333333333</ele><time>2026-04-21T12:50:41Z</time></trkpt><trkpt lat="45.44814239632094" lon="8.0625246068184"><ele>470.66666666666663</ele><time>2026-04-21T12:50:43Z</time></trkpt><trkpt lat="45.44815942566055" lon="8.06265822153143"><ele>470.0</ele><time>2026-04-21T12:50:45Z</time></trkpt><trkpt lat="45.44813818698356" lon="8.06275523665799"><ele>469.2</ele><time>2026-04-21T12:50:47Z</time></trkpt><trkpt lat="45.44811479103482" lon="8.06284178864941"><ele>468.4</ele><time>2026-04-21T12:50:49Z</time></trkpt><trkpt lat="45.448115244024486" lon="8.062986361213857"><ele>467.6</ele><time>2026-04-21T12:50:52Z</time></trkpt><trkpt lat="45.44813919332283" lon="8.063124060960572"><ele>466.8</ele><time>2026-04-21T12:50:54Z</time></trkpt><trkpt lat="45.448096629373815" lon="8.06324546059597"><ele>466.0</ele><time>2026-04-21T12:50:56Z</time></trkpt><trkpt lat="45.448090695190885" lon="8.063384977650767"><ele>465.00000000000006</ele><time>2026-04-21T12:50:58Z</time></trkpt><trkpt lat="45.44808534367438" lon="8.06348529746155"><ele>464.0</ele><time>2026-04-21T12:51:00Z</time></trkpt><trkpt lat="45.448045092913794" lon="8.063592939715301"><ele>463.0</ele><time>2026-04-21T12:53:09.999Z</time></trkpt><trkpt lat="45.44797742658834" lon="8.06364381297855"><ele>462.0</ele><time>2026-04-21T12:53:11.999Z</time></trkpt><trkpt lat="45.447891958065476" lon="8.063667644813936"><ele>461.00000000000006</ele><time>2026-04-21T12:53:14.999Z</time></trkpt><trkpt lat="45.44784865125629" lon="8.063751077387183"><ele>460.0</ele><time>2026-04-21T12:53:17.999Z</time></trkpt><trkpt lat="45.447822049829384" lon="8.063856445588508"><ele>459.99999999999994</ele><time>2026-04-21T12:53:19.999Z</time></trkpt><trkpt lat="45.447793337794415" lon="8.06394156347229"><ele>460.0</ele><time>2026-04-21T12:53:21.999Z</time></trkpt><trkpt lat="45.447704369175916" lon="8.06393438492451"><ele>459.99999999999994</ele><time>2026-04-21T12:53:25.999Z</time></trkpt><trkpt lat="45.44764625770895" lon="8.063873388608439"><ele>459.99999999999994</ele><time>2026-04-21T12:53:26.999Z</time></trkpt><trkpt lat="45.44758821340337" lon="8.063826351150638"><ele>460.0</ele><time>2026-04-21T12:53:27.999Z</time></trkpt><trkpt lat="45.44752633727586" lon="8.063791263283091"><ele>459.99999999999994</ele><time>2026-04-21T12:53:28.999Z</time></trkpt><trkpt lat="45.44745371311908" lon="8.063756322909244"><ele>459.99999999999994</ele><time>2026-04-21T12:53:29.999Z</time></trkpt><trkpt lat="45.447360672712634" lon="8.063681152035883"><ele>459.99999999999994</ele><time>2026-04-21T12:53:31.999Z</time></trkpt><trkpt lat="45.447299836020726" lon="8.063625927066624"><ele>460.0</ele><time>2026-04-21T12:53:33.999Z</time></trkpt><trkpt lat="45.447234092031984" lon="8.063586908054816"><ele>459.99999999999994</ele><time>2026-04-21T12:53:35.999Z</time></trkpt><trkpt lat="45.447171032704254" lon="8.063545549071879"><ele>459.99999999999994</ele><time>2026-04-21T12:53:37.999Z</time></trkpt><trkpt lat="45.44709416512586" lon="8.063516610300578"><ele>460.0</ele><time>2026-04-21T12:53:39.999Z</time></trkpt><trkpt lat="45.44702807521098" lon="8.063485660613114"><ele>459.99999999999994</ele><time>2026-04-21T12:53:41.999Z</time></trkpt><trkpt lat="45.44700059506827" lon="8.063380791700206"><ele>459.99999999999994</ele><time>2026-04-21T12:53:44.999Z</time></trkpt><trkpt lat="45.4470521640493" lon="8.063215576822792"><ele>459.50000000000006</ele><time>2026-04-21T12:53:46.999Z</time></trkpt><trkpt lat="45.447081947375715" lon="8.063082985966616"><ele>459.0</ele><time>2026-04-21T12:53:47.999Z</time></trkpt><trkpt lat="45.44711642051375" lon="8.062972666756904"><ele>458.5</ele><time>2026-04-21T12:53:48.999Z</time></trkpt><trkpt lat="45.44713237773484" lon="8.062885431696731"><ele>458.0</ele><time>2026-04-21T12:53:49.999Z</time></trkpt><trkpt lat="45.447150444770564" lon="8.062794341326992"><ele>457.50000000000006</ele><time>2026-04-21T12:53:50.999Z</time></trkpt><trkpt lat="45.44717997739815" lon="8.062700406850142"><ele>457.0</ele><time>2026-04-21T12:53:51.999Z</time></trkpt><trkpt lat="45.447212665517135" lon="8.062600805792728"><ele>457.00000000000006</ele><time>2026-04-21T12:53:52.999Z</time></trkpt><trkpt lat="45.44723803317046" lon="8.062495186552527"><ele>457.0</ele><time>2026-04-21T12:53:53.999Z</time></trkpt><trkpt lat="45.44727516988948" lon="8.062390589241256"><ele>457.0</ele><time>2026-04-21T12:53:54.999Z</time></trkpt><trkpt lat="45.447303487953505" lon="8.062292232172586"><ele>457.0</ele><time>2026-04-21T12:53:55.999Z</time></trkpt><trkpt lat="45.447331955344914" lon="8.062198335287185"><ele>457.00000000000006</ele><time>2026-04-21T12:53:56.999Z</time></trkpt><trkpt lat="45.447362754512405" lon="8.062103810414087"><ele>457.0</ele><time>2026-04-21T12:53:57.999Z</time></trkpt><trkpt lat="45.44739065958983" lon="8.062003427237736"><ele>456.83333333333337</ele><time>2026-04-21T12:53:58.999Z</time></trkpt><trkpt lat="45.447418531448335" lon="8.061899223743211"><ele>456.6666666666667</ele><time>2026-04-21T12:53:59.999Z</time></trkpt><trkpt lat="45.44742332707526" lon="8.061770997879027"><ele>456.5</ele><time>2026-04-21T12:54:01.999Z</time></trkpt><trkpt lat="45.447362672580674" lon="8.061690169370337"><ele>456.33333333333337</ele><time>2026-04-21T12:54:04.999Z</time></trkpt><trkpt lat="45.44727894473175" lon="8.061684951560856"><ele>456.1666666666667</ele><time>2026-04-21T12:54:06.999Z</time></trkpt><trkpt lat="45.447170175142816" lon="8.061647820885915"><ele>456.0</ele><time>2026-04-21T12:54:08.999Z</time></trkpt><trkpt lat="45.44708642907109" lon="8.061559168027006"><ele>455.4</ele><time>2026-04-21T12:54:10.999Z</time></trkpt><trkpt lat="45.44696772168077" lon="8.061503378073368"><ele>454.8</ele><time>2026-04-21T12:54:12.999Z</time></trkpt><trkpt lat="45.446876367813935" lon="8.061458985512473"><ele>454.19999999999993</ele><time>2026-04-21T12:54:14.999Z</time></trkpt><trkpt lat="45.44679910438161" lon="8.061525624078415"><ele>453.59999999999997</ele><time>2026-04-21T12:54:17.999Z</time></trkpt><trkpt lat="45.44677178736652" lon="8.061631299046137"><ele>453.0</ele><time>2026-04-21T12:54:18.999Z</time></trkpt><trkpt lat="45.4467571224867" lon="8.061753631574387"><ele>453.0</ele><time>2026-04-21T12:54:19.999Z</time></trkpt><trkpt lat="45.44671371066193" lon="8.061884984989018"><ele>452.99999999999994</ele><time>2026-04-21T12:54:21.999Z</time></trkpt><trkpt lat="45.44667126152672" lon="8.062063387492357"><ele>452.99999999999994</ele><time>2026-04-21T12:54:23.999Z</time></trkpt><trkpt lat="45.4466545416434" lon="8.062181838267257"><ele>453.0</ele><time>2026-04-21T12:54:24.999Z</time></trkpt><trkpt lat="45.44663609020554" lon="8.062312238681777"><ele>453.0</ele><time>2026-04-21T12:54:25.999Z</time></trkpt><trkpt lat="45.44661073249944" lon="8.062458090646937"><ele>453.0</ele><time>2026-04-21T12:54:26.999Z</time></trkpt><trkpt lat="45.446593310760925" lon="8.062611330281625"><ele>452.99999999999994</ele><time>2026-04-21T12:54:27.999Z</time></trkpt><trkpt lat="45.446564816012646" lon="8.062733580050795"><ele>452.99999999999994</ele><time>2026-04-21T12:54:28.999Z</time></trkpt><trkpt lat="45.44654579594406" lon="8.062857633384018"><ele>453.0</ele><time>2026-04-21T12:54:29.999Z</time></trkpt><trkpt lat="45.44651659698538" lon="8.062988863257264"><ele>453.0</ele><time>2026-04-21T12:54:30.999Z</time></trkpt><trkpt lat="45.44648933826094" lon="8.063121158986936"><ele>453.0</ele><time>2026-04-21T12:54:31.999Z</time></trkpt><trkpt lat="45.44645868676531" lon="8.063269485887693"><ele>452.99999999999994</ele><time>2026-04-21T12:54:32.999Z</time></trkpt><trkpt lat="45.446427731907775" lon="8.063416203689354"><ele>452.99999999999994</ele><time>2026-04-21T12:54:33.999Z</time></trkpt><trkpt lat="45.44640125906634" lon="8.063554525812494"><ele>453.0</ele><time>2026-04-21T12:54:34.999Z</time></trkpt><trkpt lat="45.44637663031027" lon="8.06369890705194"><ele>453.0</ele><time>2026-04-21T12:54:35.999Z</time></trkpt><trkpt lat="45.4463588643326" lon="8.063860105099648"><ele>453.2</ele><time>2026-04-21T12:54:36.999Z</time></trkpt><trkpt lat="45.44635976421632" lon="8.06402836136055"><ele>453.4</ele><time>2026-04-21T12:54:37.999Z</time></trkpt><trkpt lat="45.44636877299612" lon="8.064181226205966"><ele>453.59999999999997</ele><time>2026-04-21T12:54:38.999Z</time></trkpt><trkpt lat="45.446371460563896" lon="8.064323567305498"><ele>453.79999999999995</ele><time>2026-04-21T12:54:39.999Z</time></trkpt><trkpt lat="45.4463734008884" lon="8.064485161351563"><ele>454.0</ele><time>2026-04-21T12:54:40.999Z</time></trkpt><trkpt lat="45.446376181685665" lon="8.064661293222045"><ele>454.0</ele><time>2026-04-21T12:54:42Z</time></trkpt><trkpt lat="45.44637488461195" lon="8.064833320799943"><ele>454.0</ele><time>2026-04-21T12:54:43Z</time></trkpt><trkpt lat="45.4463687136097" lon="8.064992365893549"><ele>454.0</ele><time>2026-04-21T12:54:44Z</time></trkpt><trkpt lat="45.44635293811924" lon="8.06514103233249"><ele>454.0</ele><time>2026-04-21T12:54:45Z</time></trkpt><trkpt lat="45.44633746802931" lon="8.065295731584941"><ele>454.0</ele><time>2026-04-21T12:54:46Z</time></trkpt><trkpt lat="45.44632769644178" lon="8.065464491214348"><ele>454.0</ele><time>2026-04-21T12:54:47Z</time></trkpt><trkpt lat="45.44631416903294" lon="8.065639994421623"><ele>454.0</ele><time>2026-04-21T12:54:48Z</time></trkpt><trkpt lat="45.44630699711011" lon="8.065824471718239"><ele>454.0</ele><time>2026-04-21T12:54:49Z</time></trkpt><trkpt lat="45.44632738904832" lon="8.066014923372926"><ele>454.0</ele><time>2026-04-21T12:54:50Z</time></trkpt><trkpt lat="45.44635349537499" lon="8.06620539328637"><ele>452.75</ele><time>2026-04-21T12:54:51Z</time></trkpt><trkpt lat="45.446377182990574" lon="8.066383152518439"><ele>451.5</ele><time>2026-04-21T12:54:52Z</time></trkpt><trkpt lat="45.44638139258252" lon="8.066558584663243"><ele>450.25</ele><time>2026-04-21T12:54:53Z</time></trkpt><trkpt lat="45.44641448390662" lon="8.066718803450982"><ele>449.0</ele><time>2026-04-21T12:54:54Z</time></trkpt><trkpt lat="45.44642903147844" lon="8.066876205323277"><ele>446.5</ele><time>2026-04-21T12:54:55Z</time></trkpt><trkpt lat="45.44644885080481" lon="8.067041785245408"><ele>444.0</ele><time>2026-04-21T12:54:56Z</time></trkpt><trkpt lat="45.44646977549136" lon="8.067215450665985"><ele>441.5</ele><time>2026-04-21T12:54:57Z</time></trkpt><trkpt lat="45.44650222322724" lon="8.06738907210327"><ele>439.0</ele><time>2026-04-21T12:54:58Z</time></trkpt><trkpt lat="45.44654444073348" lon="8.067568955427923"><ele>436.0</ele><time>2026-04-21T12:54:59Z</time></trkpt><trkpt lat="45.44658206148548" lon="8.067744062341442"><ele>433.0</ele><time>2026-04-21T12:55:00Z</time></trkpt><trkpt lat="45.44661551073957" lon="8.067908242554314"><ele>430.0</ele><time>2026-04-21T12:55:01Z</time></trkpt><trkpt lat="45.446645178546795" lon="8.068065170382106"><ele>427.0</ele><time>2026-04-21T12:55:02Z</time></trkpt><trkpt lat="45.446673297934424" lon="8.06821625954998"><ele>426.40000000000003</ele><time>2026-04-21T12:55:03Z</time></trkpt><trkpt lat="45.44669075273996" lon="8.068367344823939"><ele>425.80000000000007</ele><time>2026-04-21T12:55:04Z</time></trkpt><trkpt lat="45.44670623789473" lon="8.068540804547881"><ele>425.2</ele><time>2026-04-21T12:55:05Z</time></trkpt><trkpt lat="45.44670036351132" lon="8.068693781515492"><ele>424.6</ele><time>2026-04-21T12:55:06Z</time></trkpt><trkpt lat="45.446670569433145" lon="8.068798495210162"><ele>424.0</ele><time>2026-04-21T12:55:07Z</time></trkpt><trkpt lat="45.44665760863468" lon="8.068904909784136"><ele>424.0</ele><time>2026-04-21T12:55:09Z</time></trkpt><trkpt lat="45.446618869542995" lon="8.068993551986383"><ele>424.0</ele><time>2026-04-21T12:55:13Z</time></trkpt><trkpt lat="45.44660768056939" lon="8.069103492555492"><ele>424.0</ele><time>2026-04-21T12:55:17Z</time></trkpt><trkpt lat="45.44646214538694" lon="8.069051954328016"><ele>424.0</ele><time>2026-04-21T12:55:17.999Z</time></trkpt><trkpt lat="45.446384953368366" lon="8.069045526843901"><ele>424.0</ele><time>2026-04-21T12:55:20.999Z</time></trkpt><trkpt lat="45.44629972061803" lon="8.069060027028456"><ele>423.6666666666667</ele><time>2026-04-21T12:55:23.999Z</time></trkpt><trkpt lat="45.4461994106401" lon="8.069117808661368"><ele>423.33333333333337</ele><time>2026-04-21T12:55:26.999Z</time></trkpt><trkpt lat="45.446126427867945" lon="8.069131663107719"><ele>423.0</ele><time>2026-04-21T12:55:28.999Z</time></trkpt><trkpt lat="45.4460632843797" lon="8.069197303226073"><ele>422.66666666666663</ele><time>2026-04-21T12:55:30.999Z</time></trkpt><trkpt lat="45.44598243487767" lon="8.069258437280935"><ele>422.3333333333333</ele><time>2026-04-21T12:55:32.999Z</time></trkpt><trkpt lat="45.44591046025811" lon="8.069314902754254"><ele>422.0</ele><time>2026-04-21T12:55:34.999Z</time></trkpt><trkpt lat="45.445825661008456" lon="8.069361411699738"><ele>421.99999999999994</ele><time>2026-04-21T12:55:36.999Z</time></trkpt><trkpt lat="45.4457686047942" lon="8.069428096547167"><ele>422.0</ele><time>2026-04-21T12:55:37.999Z</time></trkpt><trkpt lat="45.445702718348954" lon="8.069479944174711"><ele>422.0</ele><time>2026-04-21T12:55:38.999Z</time></trkpt><trkpt lat="45.44560733829695" lon="8.069611931968259"><ele>422.0</ele><time>2026-04-21T12:55:40.999Z</time></trkpt><trkpt lat="45.44556874180808" lon="8.06969210381519"><ele>421.99999999999994</ele><time>2026-04-21T12:55:41.999Z</time></trkpt><trkpt lat="45.44552613393712" lon="8.069763468998488"><ele>422.0</ele><time>2026-04-21T12:55:42.999Z</time></trkpt><trkpt lat="45.44549356240758" lon="8.069849717916348"><ele>421.40000000000003</ele><time>2026-04-21T12:55:43.999Z</time></trkpt><trkpt lat="45.44545558469991" lon="8.069946937075342"><ele>420.8</ele><time>2026-04-21T12:55:44.999Z</time></trkpt><trkpt lat="45.44541030955823" lon="8.070015938934722"><ele>420.2</ele><time>2026-04-21T12:55:45.999Z</time></trkpt><trkpt lat="45.44536748387801" lon="8.070147777973855"><ele>419.6</ele><time>2026-04-21T12:55:47.999Z</time></trkpt><trkpt lat="45.44536564178728" lon="8.070362819748077"><ele>419.0</ele><time>2026-04-21T12:55:49.999Z</time></trkpt><trkpt lat="45.445366199635814" lon="8.070513239827413"><ele>419.0</ele><time>2026-04-21T12:55:50.999Z</time></trkpt><trkpt lat="45.44537704454758" lon="8.070648977725758"><ele>419.0</ele><time>2026-04-21T12:55:51.999Z</time></trkpt><trkpt lat="45.445387213881624" lon="8.07078339044185"><ele>419.0</ele><time>2026-04-21T12:55:52.999Z</time></trkpt><trkpt lat="45.44539177228943" lon="8.070940003905504"><ele>419.0</ele><time>2026-04-21T12:55:53.999Z</time></trkpt><trkpt lat="45.44539964847136" lon="8.071100989211013"><ele>419.0</ele><time>2026-04-21T12:55:54.999Z</time></trkpt><trkpt lat="45.44540626890706" lon="8.07124658317004"><ele>419.16666666666663</ele><time>2026-04-21T12:55:55.999Z</time></trkpt><trkpt lat="45.44539993084941" lon="8.071363651253238"><ele>419.3333333333333</ele><time>2026-04-21T12:55:56.999Z</time></trkpt><trkpt lat="45.445390473471" lon="8.071461237156607"><ele>419.5</ele><time>2026-04-21T12:55:57.999Z</time></trkpt><trkpt lat="45.445401078903465" lon="8.071561471913418"><ele>419.66666666666663</ele><time>2026-04-21T12:55:58.999Z</time></trkpt><trkpt lat="45.445411907779324" lon="8.071661222437864"><ele>419.8333333333333</ele><time>2026-04-21T12:55:59.999Z</time></trkpt><trkpt lat="45.445426518560815" lon="8.07176500520233"><ele>420.0</ele><time>2026-04-21T12:56:00.999Z</time></trkpt><trkpt lat="45.44542698376216" lon="8.071958551856085"><ele>420.5</ele><time>2026-04-21T12:56:02.999Z</time></trkpt><trkpt lat="45.445406216847175" lon="8.072115717908185"><ele>421.0</ele><time>2026-04-21T12:56:04.999Z</time></trkpt><trkpt lat="45.44538299290203" lon="8.072213822578084"><ele>421.5</ele><time>2026-04-21T12:56:06.999Z</time></trkpt><trkpt lat="45.445360829701094" lon="8.072360566894185"><ele>422.0</ele><time>2026-04-21T12:56:08.999Z</time></trkpt><trkpt lat="45.445349311785684" lon="8.072451656532978"><ele>422.5</ele><time>2026-04-21T12:56:09.999Z</time></trkpt><trkpt lat="45.445334725473344" lon="8.07256494008111"><ele>423.0</ele><time>2026-04-21T12:56:10.999Z</time></trkpt><trkpt lat="45.44530011490791" lon="8.072665726759315"><ele>423.0</ele><time>2026-04-21T12:56:11.999Z</time></trkpt><trkpt lat="45.445258659140194" lon="8.072774388456507"><ele>423.0</ele><time>2026-04-21T12:56:12.999Z</time></trkpt><trkpt lat="45.445224785350405" lon="8.0728512184514"><ele>423.0</ele><time>2026-04-21T12:56:13.999Z</time></trkpt><trkpt lat="45.44519622313407" lon="8.072995246582904"><ele>423.0</ele><time>2026-04-21T12:56:15.999Z</time></trkpt><trkpt lat="45.44518042099492" lon="8.073091146539639"><ele>423.0</ele><time>2026-04-21T12:56:16.999Z</time></trkpt><trkpt lat="45.445117145395976" lon="8.073222838163744"><ele>423.0</ele><time>2026-04-21T12:56:18.999Z</time></trkpt><trkpt lat="45.44506189405246" lon="8.073350229099317"><ele>422.57142857142856</ele><time>2026-04-21T12:56:20.999Z</time></trkpt><trkpt lat="45.44501094529627" lon="8.073421161626325"><ele>422.14285714285717</ele><time>2026-04-21T12:56:27.999Z</time></trkpt><trkpt lat="45.4449511024118" lon="8.07347420656062"><ele>421.7142857142857</ele><time>2026-04-21T12:56:30.999Z</time></trkpt><trkpt lat="45.444885414219435" lon="8.073527311896873"><ele>421.2857142857143</ele><time>2026-04-21T12:56:33.999Z</time></trkpt><trkpt lat="45.44483455778361" lon="8.073594532607236"><ele>420.8571428571429</ele><time>2026-04-21T12:56:35.999Z</time></trkpt><trkpt lat="45.44477182385938" lon="8.073635099554858"><ele>420.42857142857144</ele><time>2026-04-21T12:56:37.999Z</time></trkpt><trkpt lat="45.44470574196285" lon="8.073696427633232"><ele>420.0</ele><time>2026-04-21T12:56:39.999Z</time></trkpt><trkpt lat="45.44464156481566" lon="8.073747265466015"><ele>418.4</ele><time>2026-04-21T12:56:41.999Z</time></trkpt><trkpt lat="45.44456168885543" lon="8.073789349088567"><ele>416.8</ele><time>2026-04-21T12:56:43.999Z</time></trkpt><trkpt lat="45.44446067211227" lon="8.0738149565141"><ele>415.20000000000005</ele><time>2026-04-21T12:56:46.999Z</time></trkpt><trkpt lat="45.444358144244895" lon="8.073831628747358"><ele>413.6</ele><time>2026-04-21T12:56:49Z</time></trkpt><trkpt lat="45.44428380688262" lon="8.073860761593224"><ele>412.0</ele><time>2026-04-21T12:56:51Z</time></trkpt><trkpt lat="45.44417374007232" lon="8.07389096587032"><ele>412.0</ele><time>2026-04-21T12:56:53Z</time></trkpt><trkpt lat="45.44406618228574" lon="8.073922461781326"><ele>412.0</ele><time>2026-04-21T12:56:55Z</time></trkpt><trkpt lat="45.44400263846083" lon="8.073935857780917"><ele>412.0</ele><time>2026-04-21T12:56:56Z</time></trkpt><trkpt lat="45.44387387118173" lon="8.073933845940367"><ele>412.0</ele><time>2026-04-21T12:56:58Z</time></trkpt><trkpt lat="45.44375534398978" lon="8.073933190446178"><ele>412.0</ele><time>2026-04-21T12:57:00Z</time></trkpt><trkpt lat="45.44364541272703" lon="8.073909271065771"><ele>410.83333333333337</ele><time>2026-04-21T12:57:02Z</time></trkpt><trkpt lat="45.443534926109145" lon="8.073882940053002"><ele>409.6666666666667</ele><time>2026-04-21T12:57:04Z</time></trkpt><trkpt lat="45.443472548086426" lon="8.073869905056831"><ele>408.5</ele><time>2026-04-21T12:57:05Z</time></trkpt><trkpt lat="45.44338563715321" lon="8.073860136791223"><ele>407.33333333333337</ele><time>2026-04-21T12:57:06Z</time></trkpt><trkpt lat="45.44331135622173" lon="8.073856391768928"><ele>406.1666666666667</ele><time>2026-04-21T12:57:07Z</time></trkpt><trkpt lat="45.44321377383624" lon="8.073832480285127"><ele>405.0</ele><time>2026-04-21T12:57:09Z</time></trkpt><trkpt lat="45.44315218519674" lon="8.073853621609565"><ele>405.0</ele><time>2026-04-21T12:58:07.999Z</time></trkpt><trkpt lat="45.44311130479674" lon="8.073768143043047"><ele>405.0</ele><time>2026-04-21T12:58:12.999Z</time></trkpt><trkpt lat="45.443020744857876" lon="8.073735050123014"><ele>405.0</ele><time>2026-04-21T12:58:15.999Z</time></trkpt><trkpt lat="45.44294614473333" lon="8.07369339644957"><ele>405.0</ele><time>2026-04-21T12:58:18.999Z</time></trkpt><trkpt lat="45.44290030638335" lon="8.073783020961594"><ele>405.0</ele><time>2026-04-21T12:58:21.999Z</time></trkpt><trkpt lat="45.44277797639021" lon="8.073849832217766"><ele>404.3333333333333</ele><time>2026-04-21T12:58:24.999Z</time></trkpt><trkpt lat="45.44269287866234" lon="8.073919150228575"><ele>403.66666666666663</ele><time>2026-04-21T12:58:25.999Z</time></trkpt><trkpt lat="45.442629106488845" lon="8.074004185595458"><ele>403.0</ele><time>2026-04-21T12:58:26.999Z</time></trkpt><trkpt lat="45.44257863917957" lon="8.074087410058528"><ele>402.3333333333333</ele><time>2026-04-21T12:58:27.999Z</time></trkpt><trkpt lat="45.44253979478223" lon="8.074160186544862"><ele>401.66666666666663</ele><time>2026-04-21T12:58:28.999Z</time></trkpt><trkpt lat="45.44247784046282" lon="8.074231243336499"><ele>401.0</ele><time>2026-04-21T12:58:29.999Z</time></trkpt><trkpt lat="45.44239490732154" lon="8.074285886620311"><ele>400.8333333333333</ele><time>2026-04-21T12:58:30.999Z</time></trkpt><trkpt lat="45.44231638357226" lon="8.074350188798729"><ele>400.66666666666663</ele><time>2026-04-21T12:58:31.999Z</time></trkpt><trkpt lat="45.442255384803744" lon="8.07438642805932"><ele>400.5</ele><time>2026-04-21T12:58:32.999Z</time></trkpt><trkpt lat="45.44218776688831" lon="8.07439749983072"><ele>400.33333333333337</ele><time>2026-04-21T12:58:33.999Z</time></trkpt><trkpt lat="45.44208085687921" lon="8.07442433402133"><ele>400.1666666666667</ele><time>2026-04-21T12:58:35.999Z</time></trkpt><trkpt lat="45.44201246794944" lon="8.07440899429982"><ele>400.0</ele><time>2026-04-21T12:58:36.999Z</time></trkpt><trkpt lat="45.44192271686101" lon="8.074370009465012"><ele>400.6</ele><time>2026-04-21T12:58:37.999Z</time></trkpt><trkpt lat="45.44181231268123" lon="8.074316919800372"><ele>401.2</ele><time>2026-04-21T12:58:38.999Z</time></trkpt><trkpt lat="45.441707421842295" lon="8.074254613276844"><ele>401.79999999999995</ele><time>2026-04-21T12:58:39.999Z</time></trkpt><trkpt lat="45.44163503385174" lon="8.074210692214889"><ele>402.4</ele><time>2026-04-21T12:58:40.999Z</time></trkpt><trkpt lat="45.441558991900685" lon="8.074187001729682"><ele>403.0</ele><time>2026-04-21T12:58:42.999Z</time></trkpt><trkpt lat="45.44153935240124" lon="8.074084265182252"><ele>403.83333333333337</ele><time>2026-04-21T12:58:48.999Z</time></trkpt><trkpt lat="45.44159245489478" lon="8.074011320156794"><ele>404.6666666666667</ele><time>2026-04-21T12:58:50.999Z</time></trkpt><trkpt lat="45.441634760315075" lon="8.073922919429384"><ele>405.5</ele><time>2026-04-21T12:58:55Z</time></trkpt><trkpt lat="45.441673291727426" lon="8.073823459534847"><ele>406.33333333333337</ele><time>2026-04-21T12:58:59Z</time></trkpt><trkpt lat="45.44173697768483" lon="8.073751881057516"><ele>407.1666666666667</ele><time>2026-04-21T12:59:01Z</time></trkpt><trkpt lat="45.44181608077516" lon="8.073688968200035"><ele>408.0</ele><time>2026-04-21T13:01:01Z</time></trkpt><trkpt lat="45.441869273934905" lon="8.073612642706449"><ele>408.0</ele><time>2026-04-21T13:01:03Z</time></trkpt><trkpt lat="45.441947478694544" lon="8.073478879712551"><ele>408.0</ele><time>2026-04-21T13:01:05Z</time></trkpt><trkpt lat="45.441998467549446" lon="8.073413498161615"><ele>408.0</ele><time>2026-04-21T13:01:06Z</time></trkpt><trkpt lat="45.44205053495832" lon="8.07331741775342"><ele>408.0</ele><time>2026-04-21T13:01:07Z</time></trkpt><trkpt lat="45.442093925344786" lon="8.073235774358695"><ele>408.0</ele><time>2026-04-21T13:01:08Z</time></trkpt><trkpt lat="45.44219132323628" lon="8.073101372653783"><ele>407.0</ele><time>2026-04-21T13:01:10Z</time></trkpt><trkpt lat="45.44222392749679" lon="8.073023712610306"><ele>406.0</ele><time>2026-04-21T13:01:11Z</time></trkpt><trkpt lat="45.44224244906198" lon="8.072921070167117"><ele>405.0</ele><time>2026-04-21T13:01:12Z</time></trkpt><trkpt lat="45.4422644993521" lon="8.072810234866708"><ele>404.0</ele><time>2026-04-21T13:01:13Z</time></trkpt><trkpt lat="45.44230052915344" lon="8.072699303671646"><ele>403.0</ele><time>2026-04-21T13:01:14Z</time></trkpt><trkpt lat="45.44233592763545" lon="8.072588782350616"><ele>402.0</ele><time>2026-04-21T13:01:15Z</time></trkpt><trkpt lat="45.4423686855886" lon="8.072473624831447"><ele>402.1666666666667</ele><time>2026-04-21T13:01:16Z</time></trkpt><trkpt lat="45.4423953038807" lon="8.072385580577482"><ele>402.33333333333337</ele><time>2026-04-21T13:01:17Z</time></trkpt><trkpt lat="45.442412374363165" lon="8.072206893679708"><ele>402.5</ele><time>2026-04-21T13:01:19Z</time></trkpt><trkpt lat="45.44240267513015" lon="8.072101115758638"><ele>402.6666666666667</ele><time>2026-04-21T13:01:20Z</time></trkpt><trkpt lat="45.44238166156274" lon="8.071984218850162"><ele>402.83333333333337</ele><time>2026-04-21T13:01:21Z</time></trkpt><trkpt lat="45.44235599053199" lon="8.071852808542403"><ele>403.0</ele><time>2026-04-21T13:01:22Z</time></trkpt><trkpt lat="45.442347820256536" lon="8.071724801254511"><ele>403.2</ele><time>2026-04-21T13:01:23Z</time></trkpt><trkpt lat="45.44235069233193" lon="8.071579752159982"><ele>403.4</ele><time>2026-04-21T13:01:24Z</time></trkpt><trkpt lat="45.44236639913131" lon="8.071440480407663"><ele>403.59999999999997</ele><time>2026-04-21T13:01:24.999Z</time></trkpt><trkpt lat="45.44238119464061" lon="8.071285580607949"><ele>403.79999999999995</ele><time>2026-04-21T13:01:25.999Z</time></trkpt><trkpt lat="45.44237639719349" lon="8.071142518132678"><ele>404.0</ele><time>2026-04-21T13:01:26.999Z</time></trkpt><trkpt lat="45.442364114474344" lon="8.071011552711282"><ele>403.99999999999994</ele><time>2026-04-21T13:01:27.999Z</time></trkpt><trkpt lat="45.4423558106577" lon="8.070904482810588"><ele>404.0</ele><time>2026-04-21T13:01:28.999Z</time></trkpt><trkpt lat="45.442347977326655" lon="8.07078719577725"><ele>404.0</ele><time>2026-04-21T13:01:29.999Z</time></trkpt><trkpt lat="45.442347064699604" lon="8.070676320805651"><ele>404.0</ele><time>2026-04-21T13:01:30.999Z</time></trkpt><trkpt lat="45.44236730930512" lon="8.070539307230666"><ele>403.99999999999994</ele><time>2026-04-21T13:01:31.999Z</time></trkpt><trkpt lat="45.442389508491445" lon="8.07041082536913"><ele>404.0</ele><time>2026-04-21T13:01:32.999Z</time></trkpt><trkpt lat="45.442404954391314" lon="8.070274308911996"><ele>404.4</ele><time>2026-04-21T13:01:33.999Z</time></trkpt><trkpt lat="45.442398426042445" lon="8.070157273916905"><ele>404.79999999999995</ele><time>2026-04-21T13:01:34.999Z</time></trkpt><trkpt lat="45.44239509758094" lon="8.06999506645182"><ele>405.20000000000005</ele><time>2026-04-21T13:01:36.999Z</time></trkpt><trkpt lat="45.44240627170774" lon="8.069905578911767"><ele>405.6</ele><time>2026-04-21T13:01:37.999Z</time></trkpt><trkpt lat="45.44245732439122" lon="8.06973718478777"><ele>406.0</ele><time>2026-04-21T13:01:39.999Z</time></trkpt><trkpt lat="45.442486193222415" lon="8.069656438345103"><ele>406.6666666666667</ele><time>2026-04-21T13:01:40.999Z</time></trkpt><trkpt lat="45.44254157700456" lon="8.06956793350381"><ele>407.33333333333337</ele><time>2026-04-21T13:01:41.999Z</time></trkpt><trkpt lat="45.44260976109701" lon="8.069490005710264"><ele>408.0</ele><time>2026-04-21T13:01:42.999Z</time></trkpt><trkpt lat="45.442674938962725" lon="8.069430117719824"><ele>408.66666666666663</ele><time>2026-04-21T13:01:43.999Z</time></trkpt><trkpt lat="45.44276248304477" lon="8.069377190785305"><ele>409.3333333333333</ele><time>2026-04-21T13:01:44.999Z</time></trkpt><trkpt lat="45.442834283311385" lon="8.069307695656168"><ele>410.0</ele><time>2026-04-21T13:01:45.999Z</time></trkpt><trkpt lat="45.44291008310586" lon="8.069223397736135"><ele>409.49999999999994</ele><time>2026-04-21T13:01:46.999Z</time></trkpt><trkpt lat="45.442974609540315" lon="8.069144643746837"><ele>409.0</ele><time>2026-04-21T13:01:47.999Z</time></trkpt><trkpt lat="45.44302767553338" lon="8.069086658721943"><ele>408.5</ele><time>2026-04-21T13:01:48.999Z</time></trkpt><trkpt lat="45.44311746567186" lon="8.068968133641297"><ele>408.0</ele><time>2026-04-21T13:01:50.999Z</time></trkpt><trkpt lat="45.44315392230899" lon="8.068888419723596"><ele>407.49999999999994</ele><time>2026-04-21T13:01:51.999Z</time></trkpt><trkpt lat="45.443178933987284" lon="8.068776324978836"><ele>407.0</ele><time>2026-04-21T13:01:52.999Z</time></trkpt><trkpt lat="45.44320247328991" lon="8.068691959601216"><ele>406.99999999999994</ele><time>2026-04-21T13:01:53.999Z</time></trkpt><trkpt lat="45.44324419390871" lon="8.0686157424682"><ele>407.0</ele><time>2026-04-21T13:01:55.999Z</time></trkpt><trkpt lat="45.44329755171676" lon="8.068555590061488"><ele>407.0</ele><time>2026-04-21T13:01:58.999Z</time></trkpt><trkpt lat="45.44337124329451" lon="8.068539613387621"><ele>407.0</ele><time>2026-04-21T13:02:00.999Z</time></trkpt><trkpt lat="45.44348948914095" lon="8.06852461848972"><ele>406.99999999999994</ele><time>2026-04-21T13:02:02.999Z</time></trkpt><trkpt lat="45.44357763232843" lon="8.06852440100779"><ele>407.0</ele><time>2026-04-21T13:02:04.999Z</time></trkpt><trkpt lat="45.44365508789887" lon="8.0685244458774"><ele>406.99999999999994</ele><time>2026-04-21T13:02:07.999Z</time></trkpt><trkpt lat="45.44371974766185" lon="8.068477830778335"><ele>407.0</ele><time>2026-04-21T13:02:09.999Z</time></trkpt><trkpt lat="45.44378170927456" lon="8.068424359104949"><ele>407.0</ele><time>2026-04-21T13:02:10.999Z</time></trkpt><trkpt lat="45.443879123868626" lon="8.068355324556029"><ele>407.0</ele><time>2026-04-21T13:02:12.999Z</time></trkpt><trkpt lat="45.4439011209408" lon="8.068262460784041"><ele>406.99999999999994</ele><time>2026-04-21T13:02:15.999Z</time></trkpt><trkpt lat="45.44382570005855" lon="8.068154602174763"><ele>407.0</ele><time>2026-04-21T13:02:17.999Z</time></trkpt><trkpt lat="45.44376054307535" lon="8.068087652514578"><ele>407.6</ele><time>2026-04-21T13:02:20.999Z</time></trkpt><trkpt lat="45.443696785705704" lon="8.068002960976463"><ele>408.20000000000005</ele><time>2026-04-21T13:02:56.999Z</time></trkpt><trkpt lat="45.44366838802961" lon="8.067893076384793"><ele>408.8</ele><time>2026-04-21T13:02:58.999Z</time></trkpt><trkpt lat="45.443665275552846" lon="8.067752075073274"><ele>409.4</ele><time>2026-04-21T13:03:00.999Z</time></trkpt><trkpt lat="45.44365169597188" lon="8.067617968136455"><ele>410.0</ele><time>2026-04-21T13:03:02.999Z</time></trkpt><trkpt lat="45.44367598962072" lon="8.067429335508246"><ele>410.3333333333333</ele><time>2026-04-21T13:03:04.999Z</time></trkpt><trkpt lat="45.44369026930634" lon="8.067309459369463"><ele>410.66666666666663</ele><time>2026-04-21T13:03:06Z</time></trkpt><trkpt lat="45.44369472630417" lon="8.067206897324994"><ele>411.0</ele><time>2026-04-21T13:03:07Z</time></trkpt><trkpt lat="45.44370923678097" lon="8.067101353981089"><ele>411.33333333333337</ele><time>2026-04-21T13:03:08Z</time></trkpt><trkpt lat="45.44371709887699" lon="8.066971637710184"><ele>411.6666666666667</ele><time>2026-04-21T13:03:09Z</time></trkpt><trkpt lat="45.44371834901772" lon="8.066838685844376"><ele>412.0</ele><time>2026-04-21T13:03:10Z</time></trkpt><trkpt lat="45.44371340563219" lon="8.0667347112056"><ele>413.0</ele><time>2026-04-21T13:03:11Z</time></trkpt><trkpt lat="45.44372495290174" lon="8.066544321061247"><ele>414.0</ele><time>2026-04-21T13:03:13Z</time></trkpt><trkpt lat="45.44375431325503" lon="8.066416775588067"><ele>415.0</ele><time>2026-04-21T13:03:14Z</time></trkpt><trkpt lat="45.44378699053568" lon="8.066251789023074"><ele>416.0</ele><time>2026-04-21T13:03:15Z</time></trkpt><trkpt lat="45.44382480934528" lon="8.06608367229821"><ele>416.6</ele><time>2026-04-21T13:03:16Z</time></trkpt><trkpt lat="45.44385909589096" lon="8.065962206651264"><ele>417.20000000000005</ele><time>2026-04-21T13:03:17Z</time></trkpt><trkpt lat="45.44387773623163" lon="8.065842477882287"><ele>417.79999999999995</ele><time>2026-04-21T13:03:18Z</time></trkpt><trkpt lat="45.44389286287749" lon="8.065724683729682"><ele>418.4</ele><time>2026-04-21T13:03:19Z</time></trkpt><trkpt lat="45.44390975956109" lon="8.065600275240861"><ele>419.0</ele><time>2026-04-21T13:03:20Z</time></trkpt><trkpt lat="45.44394408949577" lon="8.065464060467999"><ele>419.6</ele><time>2026-04-21T13:03:21Z</time></trkpt><trkpt lat="45.44398127209307" lon="8.065331715397765"><ele>420.2</ele><time>2026-04-21T13:03:22Z</time></trkpt><trkpt lat="45.444013966422396" lon="8.065234383871632"><ele>420.8</ele><time>2026-04-21T13:03:23Z</time></trkpt><trkpt lat="45.44405358630663" lon="8.065139301794376"><ele>421.40000000000003</ele><time>2026-04-21T13:03:24Z</time></trkpt><trkpt lat="45.444087864458666" lon="8.064960708018123"><ele>422.0</ele><time>2026-04-21T13:03:25.999Z</time></trkpt><trkpt lat="45.444101770053706" lon="8.064858001440966"><ele>421.99999999999994</ele><time>2026-04-21T13:03:26.999Z</time></trkpt><trkpt lat="45.444123316688255" lon="8.064773263066945"><ele>422.0</ele><time>2026-04-21T13:03:27.999Z</time></trkpt><trkpt lat="45.44417022929035" lon="8.064645687431545"><ele>422.0</ele><time>2026-04-21T13:03:29.999Z</time></trkpt><trkpt lat="45.444216817497534" lon="8.06446785260051"><ele>422.0</ele><time>2026-04-21T13:03:31.999Z</time></trkpt><trkpt lat="45.44422603441703" lon="8.064362915199045"><ele>421.99999999999994</ele><time>2026-04-21T13:03:32.999Z</time></trkpt><trkpt lat="45.44424051240143" lon="8.064257812373077"><ele>422.0</ele><time>2026-04-21T13:03:33.999Z</time></trkpt><trkpt lat="45.444268692043345" lon="8.064141012760652"><ele>422.16666666666663</ele><time>2026-04-21T13:03:34.999Z</time></trkpt><trkpt lat="45.44430232906422" lon="8.064002292545972"><ele>422.3333333333333</ele><time>2026-04-21T13:03:35.999Z</time></trkpt><trkpt lat="45.444331912805964" lon="8.063867437079235"><ele>422.5</ele><time>2026-04-21T13:03:36.999Z</time></trkpt><trkpt lat="45.44436613876353" lon="8.063738181233196"><ele>422.66666666666663</ele><time>2026-04-21T13:03:37.999Z</time></trkpt><trkpt lat="45.44439778766316" lon="8.06362842951962"><ele>422.8333333333333</ele><time>2026-04-21T13:03:38.999Z</time></trkpt><trkpt lat="45.44440641093867" lon="8.063533771849878"><ele>423.0</ele><time>2026-04-21T13:03:39.999Z</time></trkpt><trkpt lat="45.444474148061516" lon="8.063388497172754"><ele>423.1666666666667</ele><time>2026-04-21T13:03:41.999Z</time></trkpt><trkpt lat="45.444517245287784" lon="8.063235331796145"><ele>423.33333333333337</ele><time>2026-04-21T13:03:43.999Z</time></trkpt><trkpt lat="45.444556801762616" lon="8.063161414036111"><ele>423.5</ele><time>2026-04-21T13:03:44.999Z</time></trkpt><trkpt lat="45.444599138925525" lon="8.063068138311426"><ele>423.6666666666667</ele><time>2026-04-21T13:03:45.999Z</time></trkpt><trkpt lat="45.444654973849865" lon="8.062989402736731"><ele>423.83333333333337</ele><time>2026-04-21T13:03:46.999Z</time></trkpt><trkpt lat="45.44469856696854" lon="8.06288546446216"><ele>424.0</ele><time>2026-04-21T13:03:47.999Z</time></trkpt><trkpt lat="45.44472872013326" lon="8.062758793364953"><ele>425.6</ele><time>2026-04-21T13:03:48.999Z</time></trkpt><trkpt lat="45.44474341743421" lon="8.062654057954687"><ele>427.2</ele><time>2026-04-21T13:03:49.999Z</time></trkpt><trkpt lat="45.444771364507524" lon="8.062458256254967"><ele>428.80000000000007</ele><time>2026-04-21T13:03:51.999Z</time></trkpt><trkpt lat="45.44478259216972" lon="8.062310117270716"><ele>430.40000000000003</ele><time>2026-04-21T13:03:52.999Z</time></trkpt><trkpt lat="45.44480321505505" lon="8.062183478695216"><ele>432.0</ele><time>2026-04-21T13:03:53.999Z</time></trkpt><trkpt lat="45.44484275259756" lon="8.06206684235356"><ele>432.0</ele><time>2026-04-21T13:03:54.999Z</time></trkpt><trkpt lat="45.44486420149016" lon="8.061976076406914"><ele>432.0</ele><time>2026-04-21T13:03:55.999Z</time></trkpt><trkpt lat="45.444858957856574" lon="8.061855546535574"><ele>432.0</ele><time>2026-04-21T13:03:56.999Z</time></trkpt><trkpt lat="45.44486213330094" lon="8.0617015175773"><ele>432.0</ele><time>2026-04-21T13:03:57.999Z</time></trkpt><trkpt lat="45.44488927696223" lon="8.061572584914389"><ele>432.0</ele><time>2026-04-21T13:03:58.999Z</time></trkpt><trkpt lat="45.444901684963185" lon="8.061457670888215"><ele>432.0</ele><time>2026-04-21T13:03:59.999Z</time></trkpt><trkpt lat="45.44490868462051" lon="8.061348278534302"><ele>431.8333333333333</ele><time>2026-04-21T13:04:00.999Z</time></trkpt><trkpt lat="45.44491978653741" lon="8.06125701373714"><ele>431.66666666666663</ele><time>2026-04-21T13:04:01.999Z</time></trkpt><trkpt lat="45.44493873098242" lon="8.061160278399752"><ele>431.5</ele><time>2026-04-21T13:04:02.999Z</time></trkpt><trkpt lat="45.444966962110016" lon="8.06104567207365"><ele>431.3333333333333</ele><time>2026-04-21T13:04:03.999Z</time></trkpt><trkpt lat="45.444998989507994" lon="8.060935933118143"><ele>431.16666666666663</ele><time>2026-04-21T13:04:04.999Z</time></trkpt><trkpt lat="45.445037209813954" lon="8.0608052305674"><ele>431.0</ele><time>2026-04-21T13:04:05.999Z</time></trkpt><trkpt lat="45.44507486422594" lon="8.06066919674112"><ele>430.0</ele><time>2026-04-21T13:04:06.999Z</time></trkpt><trkpt lat="45.4451155762811" lon="8.060560179678163"><ele>429.0</ele><time>2026-04-21T13:04:07.999Z</time></trkpt><trkpt lat="45.445147738955136" lon="8.060457277932848"><ele>428.0</ele><time>2026-04-21T13:04:08.999Z</time></trkpt><trkpt lat="45.44519250736817" lon="8.06033128543428"><ele>427.0</ele><time>2026-04-21T13:04:09.999Z</time></trkpt><trkpt lat="45.44524299877274" lon="8.060199971750684"><ele>426.0</ele><time>2026-04-21T13:04:10.999Z</time></trkpt><trkpt lat="45.445288220858174" lon="8.060078750483758"><ele>425.4</ele><time>2026-04-21T13:04:11.999Z</time></trkpt><trkpt lat="45.44531782465806" lon="8.059934233295145"><ele>424.8</ele><time>2026-04-21T13:04:12.999Z</time></trkpt><trkpt lat="45.44536011548399" lon="8.059808770510937"><ele>424.2</ele><time>2026-04-21T13:04:13.999Z</time></trkpt><trkpt lat="45.44540113019618" lon="8.05967248961186"><ele>423.59999999999997</ele><time>2026-04-21T13:04:14.999Z</time></trkpt><trkpt lat="45.4454720046734" lon="8.059529908100068"><ele>423.0</ele><time>2026-04-21T13:04:15.999Z</time></trkpt><trkpt lat="45.44552724293262" lon="8.059384613025658"><ele>425.2</ele><time>2026-04-21T13:04:16.999Z</time></trkpt><trkpt lat="45.44557670730453" lon="8.059262519996313"><ele>427.4</ele><time>2026-04-21T13:04:17.999Z</time></trkpt><trkpt lat="45.445622768124665" lon="8.059125828521923"><ele>429.59999999999997</ele><time>2026-04-21T13:04:18.999Z</time></trkpt><trkpt lat="45.44565972039796" lon="8.058995214833342"><ele>431.79999999999995</ele><time>2026-04-21T13:04:19.999Z</time></trkpt><trkpt lat="45.44570580622752" lon="8.058876344048368"><ele>434.0</ele><time>2026-04-21T13:04:20.999Z</time></trkpt><trkpt lat="45.44575071452036" lon="8.058743273783472"><ele>434.0</ele><time>2026-04-21T13:04:21.999Z</time></trkpt><trkpt lat="45.445792885558504" lon="8.058593139935093"><ele>434.0</ele><time>2026-04-21T13:04:22.999Z</time></trkpt><trkpt lat="45.44583445905405" lon="8.05845081589643"><ele>434.0</ele><time>2026-04-21T13:04:23.999Z</time></trkpt><trkpt lat="45.445871205787086" lon="8.058324963282342"><ele>434.0</ele><time>2026-04-21T13:04:24.999Z</time></trkpt><trkpt lat="45.4459099485085" lon="8.058174820436383"><ele>434.0</ele><time>2026-04-21T13:04:25.999Z</time></trkpt><trkpt lat="45.445950885098966" lon="8.058023853568"><ele>434.49999999999994</ele><time>2026-04-21T13:04:26.999Z</time></trkpt><trkpt lat="45.44599735708871" lon="8.05790037153954"><ele>435.0</ele><time>2026-04-21T13:04:27.999Z</time></trkpt><trkpt lat="45.446036784654055" lon="8.05777359223883"><ele>435.5</ele><time>2026-04-21T13:04:28.999Z</time></trkpt><trkpt lat="45.44606818951585" lon="8.057662043229733"><ele>436.0</ele><time>2026-04-21T13:04:29.999Z</time></trkpt><trkpt lat="45.44609729887187" lon="8.057557487410115"><ele>436.49999999999994</ele><time>2026-04-21T13:04:30.999Z</time></trkpt><trkpt lat="45.44612258704681" lon="8.057464390230903"><ele>437.0</ele><time>2026-04-21T13:04:31.999Z</time></trkpt><trkpt lat="45.44614921367536" lon="8.057365156864067"><ele>437.20000000000005</ele><time>2026-04-21T13:04:32.999Z</time></trkpt><trkpt lat="45.446192192232026" lon="8.057250007872204"><ele>437.40000000000003</ele><time>2026-04-21T13:04:33.999Z</time></trkpt><trkpt lat="45.44624710356561" lon="8.057109794376927"><ele>437.59999999999997</ele><time>2026-04-21T13:04:34.999Z</time></trkpt><trkpt lat="45.44631595459687" lon="8.056977490894734"><ele>437.79999999999995</ele><time>2026-04-21T13:04:35.999Z</time></trkpt><trkpt lat="45.44635995925312" lon="8.05683955599653"><ele>438.0</ele><time>2026-04-21T13:04:36.999Z</time></trkpt><trkpt lat="45.446404345018216" lon="8.056710381541324"><ele>438.79999999999995</ele><time>2026-04-21T13:04:37.999Z</time></trkpt><trkpt lat="45.446466816537956" lon="8.056579320675782"><ele>439.59999999999997</ele><time>2026-04-21T13:04:38.999Z</time></trkpt><trkpt lat="45.4465302953643" lon="8.056444594436108"><ele>440.40000000000003</ele><time>2026-04-21T13:04:39.999Z</time></trkpt><trkpt lat="45.44657998918756" lon="8.056311694982895"><ele>441.20000000000005</ele><time>2026-04-21T13:04:40.999Z</time></trkpt><trkpt lat="45.44661409368718" lon="8.056187972002553"><ele>442.0</ele><time>2026-04-21T13:04:41.999Z</time></trkpt><trkpt lat="45.44665026341446" lon="8.056051993464951"><ele>442.0</ele><time>2026-04-21T13:04:42.999Z</time></trkpt><trkpt lat="45.44670583858514" lon="8.055876982521747"><ele>442.0</ele><time>2026-04-21T13:04:43.999Z</time></trkpt><trkpt lat="45.44676016902612" lon="8.05567252738541"><ele>442.0</ele><time>2026-04-21T13:04:44.999Z</time></trkpt><trkpt lat="45.44680891858578" lon="8.055507712080594"><ele>442.0</ele><time>2026-04-21T13:04:45.999Z</time></trkpt><trkpt lat="45.446851641290564" lon="8.055348929479063"><ele>440.25</ele><time>2026-04-21T13:04:46.999Z</time></trkpt><trkpt lat="45.44691260345216" lon="8.055162702044404"><ele>438.5</ele><time>2026-04-21T13:04:47.999Z</time></trkpt><trkpt lat="45.446980564599535" lon="8.055011175406081"><ele>436.75</ele><time>2026-04-21T13:04:48.999Z</time></trkpt><trkpt lat="45.44704670087822" lon="8.054885607917434"><ele>435.0</ele><time>2026-04-21T13:04:49.999Z</time></trkpt><trkpt lat="45.447113734073" lon="8.054754565778873"><ele>436.2</ele><time>2026-04-21T13:04:50.999Z</time></trkpt><trkpt lat="45.44720337188397" lon="8.054634713395094"><ele>437.4</ele><time>2026-04-21T13:04:51.999Z</time></trkpt><trkpt lat="45.4472956452861" lon="8.054517746433051"><ele>438.6</ele><time>2026-04-21T13:04:52.999Z</time></trkpt><trkpt lat="45.44738485824872" lon="8.054434395910294"><ele>439.8</ele><time>2026-04-21T13:04:53.999Z</time></trkpt><trkpt lat="45.447455238312166" lon="8.05435020032411"><ele>441.0</ele><time>2026-04-21T13:04:54.999Z</time></trkpt><trkpt lat="45.44749992766604" lon="8.054234058992602"><ele>439.8</ele><time>2026-04-21T13:04:55.999Z</time></trkpt><trkpt lat="45.44754372798224" lon="8.054101920307858"><ele>438.6</ele><time>2026-04-21T13:04:56.999Z</time></trkpt><trkpt lat="45.447598171712606" lon="8.05396842913856"><ele>437.4</ele><time>2026-04-21T13:04:57.999Z</time></trkpt><trkpt lat="45.44765610620199" lon="8.05385919741757"><ele>436.2</ele><time>2026-04-21T13:04:58.999Z</time></trkpt><trkpt lat="45.44772711426501" lon="8.053723380252826"><ele>435.0</ele><time>2026-04-21T13:04:59.999Z</time></trkpt><trkpt lat="45.44779062172608" lon="8.053563931638312"><ele>435.0</ele><time>2026-04-21T13:05:00.999Z</time></trkpt><trkpt lat="45.44784572753594" lon="8.053410047325594"><ele>435.0</ele><time>2026-04-21T13:05:01.999Z</time></trkpt><trkpt lat="45.44789141527579" lon="8.053275909043574"><ele>435.0</ele><time>2026-04-21T13:05:02.999Z</time></trkpt><trkpt lat="45.447921881309405" lon="8.053147073507121"><ele>435.0</ele><time>2026-04-21T13:05:03.999Z</time></trkpt><trkpt lat="45.44794404244834" lon="8.052996307133643"><ele>435.0</ele><time>2026-04-21T13:05:04.999Z</time></trkpt><trkpt lat="45.44796465077525" lon="8.052836977494652"><ele>436.0</ele><time>2026-04-21T13:05:05.999Z</time></trkpt><trkpt lat="45.447990303562925" lon="8.052696680019265"><ele>437.0</ele><time>2026-04-21T13:05:06.999Z</time></trkpt><trkpt lat="45.44802572737344" lon="8.052552476784378"><ele>438.0</ele><time>2026-04-21T13:05:07.999Z</time></trkpt><trkpt lat="45.448082447683866" lon="8.052399831490844"><ele>439.0</ele><time>2026-04-21T13:05:08.999Z</time></trkpt><trkpt lat="45.44816365323513" lon="8.05224109979669"><ele>439.0</ele><time>2026-04-21T13:05:09.999Z</time></trkpt><trkpt lat="45.44823307203446" lon="8.052099746065132"><ele>439.0</ele><time>2026-04-21T13:05:10.998Z</time></trkpt><trkpt lat="45.44827664137447" lon="8.051964560498517"><ele>439.0</ele><time>2026-04-21T13:05:12Z</time></trkpt><trkpt lat="45.44829538632975" lon="8.051813335078561"><ele>439.0</ele><time>2026-04-21T13:05:13Z</time></trkpt><trkpt lat="45.44829938622173" lon="8.051654132504876"><ele>439.0</ele><time>2026-04-21T13:05:14Z</time></trkpt><trkpt lat="45.44831313842325" lon="8.051491806846261"><ele>438.5</ele><time>2026-04-21T13:05:15Z</time></trkpt><trkpt lat="45.44833984316624" lon="8.051305420822647"><ele>438.0</ele><time>2026-04-21T13:05:16Z</time></trkpt><trkpt lat="45.44837084990832" lon="8.051118560378043"><ele>437.5</ele><time>2026-04-21T13:05:17Z</time></trkpt><trkpt lat="45.44840871512548" lon="8.050960641633669"><ele>437.0</ele><time>2026-04-21T13:05:18Z</time></trkpt><trkpt lat="45.44846002266786" lon="8.05079936436204"><ele>437.20000000000005</ele><time>2026-04-21T13:05:19Z</time></trkpt><trkpt lat="45.44851079355939" lon="8.05068264573805"><ele>437.40000000000003</ele><time>2026-04-21T13:05:20Z</time></trkpt><trkpt lat="45.44859694908121" lon="8.05059201972136"><ele>437.59999999999997</ele><time>2026-04-21T13:05:22Z</time></trkpt><trkpt lat="45.44869362073182" lon="8.050531364842291"><ele>437.79999999999995</ele><time>2026-04-21T13:05:24Z</time></trkpt><trkpt lat="45.44870720435411" lon="8.050442846312999"><ele>438.0</ele><time>2026-04-21T13:05:25Z</time></trkpt><trkpt lat="45.44871412650676" lon="8.050324948021162"><ele>438.0</ele><time>2026-04-21T13:05:26Z</time></trkpt><trkpt lat="45.44871831272118" lon="8.050233221852503"><ele>438.0</ele><time>2026-04-21T13:05:27Z</time></trkpt><trkpt lat="45.44871226026936" lon="8.050098889033649"><ele>438.0</ele><time>2026-04-21T13:05:52.999Z</time></trkpt><trkpt lat="45.44871517326996" lon="8.049951236646589"><ele>438.0</ele><time>2026-04-21T13:05:54.999Z</time></trkpt><trkpt lat="45.44871769364844" lon="8.04983376304454"><ele>438.0</ele><time>2026-04-21T13:05:55.999Z</time></trkpt><trkpt lat="45.44872345243743" lon="8.049689530509516"><ele>438.0</ele><time>2026-04-21T13:05:56.999Z</time></trkpt><trkpt lat="45.44873686836612" lon="8.049512259796664"><ele>438.25</ele><time>2026-04-21T13:05:57.999Z</time></trkpt><trkpt lat="45.448751456084636" lon="8.04932036050301"><ele>438.5</ele><time>2026-04-21T13:05:58.999Z</time></trkpt><trkpt lat="45.44877738953408" lon="8.049157038279446"><ele>438.75</ele><time>2026-04-21T13:05:59.999Z</time></trkpt><trkpt lat="45.448808350729486" lon="8.048985506222614"><ele>439.0</ele><time>2026-04-21T13:06:00.999Z</time></trkpt><trkpt lat="45.448839126412096" lon="8.048793564362057"><ele>439.25</ele><time>2026-04-21T13:06:01.999Z</time></trkpt><trkpt lat="45.44885203635294" lon="8.04859169852233"><ele>439.5</ele><time>2026-04-21T13:06:02.999Z</time></trkpt><trkpt lat="45.44885543808124" lon="8.048401603202056"><ele>439.75</ele><time>2026-04-21T13:06:03.999Z</time></trkpt><trkpt lat="45.44886485896859" lon="8.048213785744888"><ele>440.0</ele><time>2026-04-21T13:06:04.999Z</time></trkpt><trkpt lat="45.44886109489682" lon="8.048030001578068"><ele>440.0</ele><time>2026-04-21T13:06:05.999Z</time></trkpt><trkpt lat="45.4488416570232" lon="8.04783074254726"><ele>440.0</ele><time>2026-04-21T13:06:06.999Z</time></trkpt><trkpt lat="45.448824163768776" lon="8.047642765557669"><ele>440.0</ele><time>2026-04-21T13:06:07.999Z</time></trkpt><trkpt lat="45.448808974903415" lon="8.047487103099254"><ele>440.0</ele><time>2026-04-21T13:06:08.999Z</time></trkpt><trkpt lat="45.44879028261069" lon="8.047352180119288"><ele>438.2</ele><time>2026-04-21T13:06:09.999Z</time></trkpt><trkpt lat="45.448777652967976" lon="8.047228080787942"><ele>436.4</ele><time>2026-04-21T13:06:10.999Z</time></trkpt><trkpt lat="45.44876166088893" lon="8.047075899169805"><ele>434.6</ele><time>2026-04-21T13:06:11.999Z</time></trkpt><trkpt lat="45.448737750828265" lon="8.04691501109477"><ele>432.8</ele><time>2026-04-21T13:06:12.999Z</time></trkpt><trkpt lat="45.44869847374835" lon="8.046762343655661"><ele>431.0</ele><time>2026-04-21T13:06:13.999Z</time></trkpt><trkpt lat="45.44863263812497" lon="8.04659698288269"><ele>431.0</ele><time>2026-04-21T13:06:14.999Z</time></trkpt><trkpt lat="45.44855604866634" lon="8.046403790110972"><ele>431.0</ele><time>2026-04-21T13:06:15.999Z</time></trkpt><trkpt lat="45.44849327459404" lon="8.04623693799471"><ele>431.0</ele><time>2026-04-21T13:06:16.999Z</time></trkpt><trkpt lat="45.448448422568134" lon="8.046092637246804"><ele>431.0</ele><time>2026-04-21T13:06:17.999Z</time></trkpt><trkpt lat="45.44841298755552" lon="8.045937927531794"><ele>431.25</ele><time>2026-04-21T13:06:18.999Z</time></trkpt><trkpt lat="45.44839508960268" lon="8.045770308201524"><ele>431.5</ele><time>2026-04-21T13:06:19.999Z</time></trkpt><trkpt lat="45.44839150317412" lon="8.045585356025427"><ele>431.75</ele><time>2026-04-21T13:06:20.999Z</time></trkpt><trkpt lat="45.448398443023315" lon="8.045372752445966"><ele>432.0</ele><time>2026-04-21T13:06:21.999Z</time></trkpt><trkpt lat="45.44840812600289" lon="8.045165164553415"><ele>432.0</ele><time>2026-04-21T13:06:22.999Z</time></trkpt><trkpt lat="45.44842267588606" lon="8.04499613753654"><ele>432.00000000000006</ele><time>2026-04-21T13:06:23.999Z</time></trkpt><trkpt lat="45.44843965872642" lon="8.044851895697374"><ele>432.00000000000006</ele><time>2026-04-21T13:06:24.999Z</time></trkpt><trkpt lat="45.448456043033694" lon="8.044722069747056"><ele>432.0</ele><time>2026-04-21T13:06:25.999Z</time></trkpt><trkpt lat="45.44847284455377" lon="8.04460279986294"><ele>432.0</ele><time>2026-04-21T13:06:26.999Z</time></trkpt><trkpt lat="45.448499023267914" lon="8.04449191114187"><ele>432.20000000000005</ele><time>2026-04-21T13:06:27.999Z</time></trkpt><trkpt lat="45.448554475184814" lon="8.04439736450334"><ele>432.40000000000003</ele><time>2026-04-21T13:06:28.999Z</time></trkpt><trkpt lat="45.44864782027038" lon="8.04433272037569"><ele>432.59999999999997</ele><time>2026-04-21T13:06:29.999Z</time></trkpt><trkpt lat="45.448752264763975" lon="8.044263371218568"><ele>432.79999999999995</ele><time>2026-04-21T13:06:30.999Z</time></trkpt><trkpt lat="45.44883157809623" lon="8.04419062461869"><ele>433.0</ele><time>2026-04-21T13:06:31.999Z</time></trkpt><trkpt lat="45.44889697439249" lon="8.044127078251414"><ele>433.25</ele><time>2026-04-21T13:06:32.999Z</time></trkpt><trkpt lat="45.4489659357983" lon="8.044059264936708"><ele>433.5</ele><time>2026-04-21T13:06:33.999Z</time></trkpt><trkpt lat="45.449062552998114" lon="8.043950305372574"><ele>433.75</ele><time>2026-04-21T13:06:34.999Z</time></trkpt><trkpt lat="45.44917585184159" lon="8.043806468895433"><ele>434.0</ele><time>2026-04-21T13:06:35.999Z</time></trkpt><trkpt lat="45.44928860640073" lon="8.043675788278163"><ele>434.0</ele><time>2026-04-21T13:06:36.999Z</time></trkpt><trkpt lat="45.44938481760952" lon="8.043536608905583"><ele>434.0</ele><time>2026-04-21T13:06:37.999Z</time></trkpt><trkpt lat="45.44946435823372" lon="8.04340407084432"><ele>434.0</ele><time>2026-04-21T13:06:38.999Z</time></trkpt><trkpt lat="45.44952360724071" lon="8.0432469297505"><ele>434.0</ele><time>2026-04-21T13:06:39.999Z</time></trkpt><trkpt lat="45.449562922060636" lon="8.043058190202752"><ele>434.0</ele><time>2026-04-21T13:06:40.999Z</time></trkpt><trkpt lat="45.44959094401894" lon="8.042867238537417"><ele>434.0</ele><time>2026-04-21T13:06:41.999Z</time></trkpt><trkpt lat="45.44961272560122" lon="8.042700778068596"><ele>434.0</ele><time>2026-04-21T13:06:42.999Z</time></trkpt><trkpt lat="45.44963000685793" lon="8.042543998821488"><ele>434.0</ele><time>2026-04-21T13:06:43.999Z</time></trkpt><trkpt lat="45.44964294640137" lon="8.042400555558853"><ele>436.25</ele><time>2026-04-21T13:06:44.999Z</time></trkpt><trkpt lat="45.44965333432406" lon="8.0422565173829"><ele>438.5</ele><time>2026-04-21T13:06:45.999Z</time></trkpt><trkpt lat="45.44966365934073" lon="8.042092608406575"><ele>440.75</ele><time>2026-04-21T13:06:46.999Z</time></trkpt><trkpt lat="45.44967285447944" lon="8.041895448679814"><ele>443.0</ele><time>2026-04-21T13:06:47.999Z</time></trkpt><trkpt lat="45.44968007363268" lon="8.04169649113362"><ele>442.75</ele><time>2026-04-21T13:06:48.999Z</time></trkpt><trkpt lat="45.44968373035296" lon="8.041522774591995"><ele>442.5</ele><time>2026-04-21T13:06:49.999Z</time></trkpt><trkpt lat="45.449686333185205" lon="8.041346386010972"><ele>442.25</ele><time>2026-04-21T13:06:50.999Z</time></trkpt><trkpt lat="45.44968808917496" lon="8.041154994430535"><ele>442.0</ele><time>2026-04-21T13:06:51.999Z</time></trkpt><trkpt lat="45.44968882661713" lon="8.040969122827075"><ele>442.5</ele><time>2026-04-21T13:06:52.999Z</time></trkpt><trkpt lat="45.449689805735666" lon="8.040797277060172"><ele>443.0</ele><time>2026-04-21T13:06:53.999Z</time></trkpt><trkpt lat="45.449690839484916" lon="8.04061584301176"><ele>443.5</ele><time>2026-04-21T13:06:54.999Z</time></trkpt><trkpt lat="45.449691778238694" lon="8.040451081634785"><ele>444.0</ele><time>2026-04-21T13:06:55.999Z</time></trkpt><trkpt lat="45.44969265113815" lon="8.040297878130223"><ele>444.0</ele><time>2026-04-21T13:06:56.999Z</time></trkpt><trkpt lat="45.44969341323605" lon="8.040134329394766"><ele>444.0</ele><time>2026-04-21T13:06:58Z</time></trkpt><trkpt lat="45.44969367862883" lon="8.039973076766337"><ele>444.0</ele><time>2026-04-21T13:06:59Z</time></trkpt><trkpt lat="45.44969393045027" lon="8.039820069772935"><ele>444.0</ele><time>2026-04-21T13:07:00Z</time></trkpt><trkpt lat="45.449694186878226" lon="8.039664263906223"><ele>444.0</ele><time>2026-04-21T13:07:01Z</time></trkpt><trkpt lat="45.449695250351" lon="8.039506092170026"><ele>444.0</ele><time>2026-04-21T13:07:02Z</time></trkpt><trkpt lat="45.44969729402414" lon="8.03936779007814"><ele>444.0</ele><time>2026-04-21T13:07:03Z</time></trkpt><trkpt lat="45.44970435854721" lon="8.039238121829797"><ele>444.0</ele><time>2026-04-21T13:07:04Z</time></trkpt><trkpt lat="45.44971420656682" lon="8.039137961304595"><ele>444.0</ele><time>2026-04-21T13:07:05Z</time></trkpt><trkpt lat="45.44974063592063" lon="8.039028795585413"><ele>444.0</ele><time>2026-04-21T13:07:07Z</time></trkpt><trkpt lat="45.449746003405224" lon="8.038908323189103"><ele>444.0</ele><time>2026-04-21T13:09:24.001Z</time></trkpt><trkpt lat="45.44984793292802" lon="8.038904368409439"><ele>444.0</ele><time>2026-04-21T13:09:27.001Z</time></trkpt><trkpt lat="45.4498946305702" lon="8.038967490807588"><ele>444.0</ele><time>2026-04-21T13:09:28.001Z</time></trkpt><trkpt lat="45.449946278199214" lon="8.039062663700806"><ele>444.0</ele><time>2026-04-21T13:09:29.001Z</time></trkpt><trkpt lat="45.449998258909254" lon="8.03917334159744"><ele>444.0</ele><time>2026-04-21T13:09:30.001Z</time></trkpt><trkpt lat="45.45005641603658" lon="8.039302529364457"><ele>444.0</ele><time>2026-04-21T13:09:31.001Z</time></trkpt><trkpt lat="45.45011082467269" lon="8.039432507587664"><ele>444.0</ele><time>2026-04-21T13:09:32.001Z</time></trkpt><trkpt lat="45.45016165546463" lon="8.03956338060441"><ele>444.0</ele><time>2026-04-21T13:09:33.001Z</time></trkpt><trkpt lat="45.450214066773" lon="8.039706309867446"><ele>444.0</ele><time>2026-04-21T13:09:34.001Z</time></trkpt><trkpt lat="45.45026511849565" lon="8.039849567180704"><ele>444.0</ele><time>2026-04-21T13:09:35.001Z</time></trkpt><trkpt lat="45.450305781898614" lon="8.039991813986111"><ele>444.0</ele><time>2026-04-21T13:09:36.001Z</time></trkpt><trkpt lat="45.45034346031507" lon="8.040134740442362"><ele>444.0</ele><time>2026-04-21T13:09:37.001Z</time></trkpt><trkpt lat="45.45037977577636" lon="8.040269688281908"><ele>444.0</ele><time>2026-04-21T13:09:38.001Z</time></trkpt><trkpt lat="45.450425252301955" lon="8.040395733281528"><ele>444.0</ele><time>2026-04-21T13:09:39Z</time></trkpt><trkpt lat="45.45048070293198" lon="8.040499772647816"><ele>444.0</ele><time>2026-04-21T13:09:40Z</time></trkpt><trkpt lat="45.45054845253476" lon="8.04057284280314"><ele>444.0</ele><time>2026-04-21T13:09:41Z</time></trkpt><trkpt lat="45.45061186303907" lon="8.040618313764973"><ele>444.0</ele><time>2026-04-21T13:09:42Z</time></trkpt><trkpt lat="45.4506920436272" lon="8.040718704146535"><ele>446.3333333333333</ele><time>2026-04-21T13:09:44Z</time></trkpt><trkpt lat="45.45069973277342" lon="8.040815864423271"><ele>448.66666666666663</ele><time>2026-04-21T13:09:45Z</time></trkpt><trkpt lat="45.45068107352298" lon="8.04091052655002"><ele>451.0</ele><time>2026-04-21T13:09:46Z</time></trkpt><trkpt lat="45.45061686557507" lon="8.04097232378351"><ele>453.3333333333333</ele><time>2026-04-21T13:09:47Z</time></trkpt><trkpt lat="45.45058863318167" lon="8.041077804349161"><ele>455.66666666666663</ele><time>2026-04-21T13:09:48Z</time></trkpt><trkpt lat="45.45054396124618" lon="8.041188255136618"><ele>458.0</ele><time>2026-04-21T13:09:49Z</time></trkpt><trkpt lat="45.45051111537329" lon="8.041315896114915"><ele>458.0</ele><time>2026-04-21T13:09:50Z</time></trkpt><trkpt lat="45.45048969020973" lon="8.04146279387983"><ele>458.0</ele><time>2026-04-21T13:09:51Z</time></trkpt><trkpt lat="45.45044215047651" lon="8.041632465894693"><ele>458.0</ele><time>2026-04-21T13:09:52Z</time></trkpt><trkpt lat="45.450406199996976" lon="8.041800488236657"><ele>458.0</ele><time>2026-04-21T13:09:53Z</time></trkpt><trkpt lat="45.45038324494671" lon="8.041951243671539"><ele>454.5</ele><time>2026-04-21T13:09:54Z</time></trkpt><trkpt lat="45.45036234785942" lon="8.042112670774339"><ele>451.0</ele><time>2026-04-21T13:09:55Z</time></trkpt><trkpt lat="45.45034072769513" lon="8.04228142496167"><ele>447.5</ele><time>2026-04-21T13:09:56Z</time></trkpt><trkpt lat="45.450319976069146" lon="8.042454959520377"><ele>444.0</ele><time>2026-04-21T13:09:57Z</time></trkpt><trkpt lat="45.45031840898889" lon="8.042647156919362"><ele>444.0</ele><time>2026-04-21T13:09:58Z</time></trkpt><trkpt lat="45.450308549223536" lon="8.042837485137813"><ele>444.0</ele><time>2026-04-21T13:09:59Z</time></trkpt><trkpt lat="45.45030602548061" lon="8.043021693553024"><ele>444.0</ele><time>2026-04-21T13:10:00Z</time></trkpt><trkpt lat="45.45030302608368" lon="8.043189062814475"><ele>444.0</ele><time>2026-04-21T13:10:01Z</time></trkpt><trkpt lat="45.45029479606646" lon="8.04335437921014"><ele>444.25</ele><time>2026-04-21T13:10:02Z</time></trkpt><trkpt lat="45.45028305335761" lon="8.043526380337296"><ele>444.5</ele><time>2026-04-21T13:10:03Z</time></trkpt><trkpt lat="45.45026551919165" lon="8.043701671879726"><ele>444.75</ele><time>2026-04-21T13:10:04Z</time></trkpt><trkpt lat="45.45024104014294" lon="8.043865669267642"><ele>445.0</ele><time>2026-04-21T13:10:05Z</time></trkpt><trkpt lat="45.45021452836703" lon="8.044007683294009"><ele>445.4</ele><time>2026-04-21T13:10:06Z</time></trkpt><trkpt lat="45.450192724120726" lon="8.044142621086925"><ele>445.8</ele><time>2026-04-21T13:10:07Z</time></trkpt><trkpt lat="45.45016759797886" lon="8.044269911188172"><ele>446.20000000000005</ele><time>2026-04-21T13:10:08Z</time></trkpt><trkpt lat="45.45014206234483" lon="8.04442011924642"><ele>446.6</ele><time>2026-04-21T13:10:09Z</time></trkpt><trkpt lat="45.450114724789415" lon="8.044606962429572"><ele>447.0</ele><time>2026-04-21T13:10:10Z</time></trkpt><trkpt lat="45.45009254404435" lon="8.044821627140506"><ele>447.5</ele><time>2026-04-21T13:10:11Z</time></trkpt><trkpt lat="45.45007900945085" lon="8.045012406804535"><ele>448.0</ele><time>2026-04-21T13:10:12Z</time></trkpt><trkpt lat="45.45007250183845" lon="8.045200451677696"><ele>448.5</ele><time>2026-04-21T13:10:13Z</time></trkpt><trkpt lat="45.45006811007849" lon="8.045395616707918"><ele>449.0</ele><time>2026-04-21T13:10:14Z</time></trkpt><trkpt lat="45.45006605911152" lon="8.045570576015189"><ele>449.0</ele><time>2026-04-21T13:10:15Z</time></trkpt><trkpt lat="45.45006035761069" lon="8.045745574716351"><ele>449.0</ele><time>2026-04-21T13:10:16Z</time></trkpt><trkpt lat="45.45001182764289" lon="8.045920609353864"><ele>449.0</ele><time>2026-04-21T13:10:17Z</time></trkpt><trkpt lat="45.44998496614662" lon="8.046106647143079"><ele>449.0</ele><time>2026-04-21T13:10:18Z</time></trkpt><trkpt lat="45.449959395553684" lon="8.046293866680912"><ele>449.75</ele><time>2026-04-21T13:10:19Z</time></trkpt><trkpt lat="45.44993781966913" lon="8.046481622714262"><ele>450.5</ele><time>2026-04-21T13:10:20Z</time></trkpt><trkpt lat="45.44993336649154" lon="8.046654590197038"><ele>451.25</ele><time>2026-04-21T13:10:21Z</time></trkpt><trkpt lat="45.44988635291302" lon="8.0468269949078"><ele>452.0</ele><time>2026-04-21T13:10:22Z</time></trkpt><trkpt lat="45.44983591527402" lon="8.046990542993754"><ele>452.25</ele><time>2026-04-21T13:10:23Z</time></trkpt><trkpt lat="45.44979680723479" lon="8.047152775046326"><ele>452.5</ele><time>2026-04-21T13:10:24Z</time></trkpt><trkpt lat="45.44975144266102" lon="8.047330718596745"><ele>452.75</ele><time>2026-04-21T13:10:25Z</time></trkpt><trkpt lat="45.44973455371828" lon="8.047536041433561"><ele>453.0</ele><time>2026-04-21T13:10:26Z</time></trkpt><trkpt lat="45.449741243131314" lon="8.047739433843235"><ele>453.5</ele><time>2026-04-21T13:10:27Z</time></trkpt><trkpt lat="45.4497506539874" lon="8.047917495871273"><ele>454.0</ele><time>2026-04-21T13:10:28Z</time></trkpt><trkpt lat="45.44974155601813" lon="8.048105460142951"><ele>454.5</ele><time>2026-04-21T13:10:29Z</time></trkpt><trkpt lat="45.44970931993875" lon="8.048268755910831"><ele>455.0</ele><time>2026-04-21T13:10:30Z</time></trkpt><trkpt lat="45.44970544720207" lon="8.048446249513956"><ele>455.75</ele><time>2026-04-21T13:10:31Z</time></trkpt><trkpt lat="45.449678013760526" lon="8.048627107572237"><ele>456.5</ele><time>2026-04-21T13:10:32Z</time></trkpt><trkpt lat="45.44963092062872" lon="8.04879841416822"><ele>457.25</ele><time>2026-04-21T13:10:33Z</time></trkpt><trkpt lat="45.449597190802805" lon="8.048960584523893"><ele>458.0</ele><time>2026-04-21T13:10:34Z</time></trkpt><trkpt lat="45.44957898104157" lon="8.04913664295994"><ele>456.59999999999997</ele><time>2026-04-21T13:10:35Z</time></trkpt><trkpt lat="45.44955082062634" lon="8.049290418271063"><ele>455.19999999999993</ele><time>2026-04-21T13:10:36Z</time></trkpt><trkpt lat="45.44952356712373" lon="8.049424286410604"><ele>453.8</ele><time>2026-04-21T13:10:37Z</time></trkpt><trkpt lat="45.449503094113965" lon="8.049547018291557"><ele>452.4</ele><time>2026-04-21T13:10:38Z</time></trkpt><trkpt lat="45.44946834445591" lon="8.049627225525567"><ele>451.0</ele><time>2026-04-21T13:10:39Z</time></trkpt><trkpt lat="45.449449108798746" lon="8.049758058122267"><ele>451.0</ele><time>2026-04-21T13:10:41Z</time></trkpt><trkpt lat="45.44939668953798" lon="8.049904575843392"><ele>451.0</ele><time>2026-04-21T13:10:43Z</time></trkpt><trkpt lat="45.449341962403295" lon="8.050045486160888"><ele>451.0</ele><time>2026-04-21T13:10:45Z</time></trkpt><trkpt lat="45.449286915310225" lon="8.050161281640635"><ele>451.0</ele><time>2026-04-21T13:10:47Z</time></trkpt><trkpt lat="45.44926111800021" lon="8.050251901095962"><ele>451.0</ele><time>2026-04-21T13:10:49Z</time></trkpt><trkpt lat="45.44930358116845" lon="8.05042436744519"><ele>451.00000000000006</ele><time>2026-04-21T13:10:51Z</time></trkpt><trkpt lat="45.44930552415639" lon="8.0505264539496"><ele>451.0</ele><time>2026-04-21T13:10:53Z</time></trkpt><trkpt lat="45.449293217059044" lon="8.050657467768454"><ele>451.0</ele><time>2026-04-21T13:10:55Z</time></trkpt><trkpt lat="45.44922968357441" lon="8.05074537175001"><ele>451.0</ele><time>2026-04-21T13:10:58Z</time></trkpt><trkpt lat="45.44923830145999" lon="8.050886370428726"><ele>451.00000000000006</ele><time>2026-04-21T13:11:01Z</time></trkpt><trkpt lat="45.44922923834284" lon="8.0509867465604"><ele>451.0</ele><time>2026-04-21T13:11:04Z</time></trkpt><trkpt lat="45.44922489506292" lon="8.051085807044545"><ele>451.00000000000006</ele><time>2026-04-21T13:11:07Z</time></trkpt><trkpt lat="45.44921171398219" lon="8.05118779589911"><ele>451.0</ele><time>2026-04-21T13:11:09Z</time></trkpt><trkpt lat="45.44918543121283" lon="8.051311756925879"><ele>451.0</ele><time>2026-04-21T13:11:13Z</time></trkpt><trkpt lat="45.44920511894616" lon="8.051405048109032"><ele>451.0</ele><time>2026-04-21T13:11:17Z</time></trkpt><trkpt lat="45.44917665017175" lon="8.051493980033953"><ele>451.00000000000006</ele><time>2026-04-21T13:11:19Z</time></trkpt><trkpt lat="45.449130328261724" lon="8.051602272841658"><ele>451.0</ele><time>2026-04-21T13:11:21.999Z</time></trkpt><trkpt lat="45.44907408196424" lon="8.051692570169548"><ele>451.8</ele><time>2026-04-21T13:11:24.999Z</time></trkpt><trkpt lat="45.44903950885124" lon="8.051801102945003"><ele>452.6</ele><time>2026-04-21T13:11:26.999Z</time></trkpt><trkpt lat="45.449031072173476" lon="8.051948335511039"><ele>453.4</ele><time>2026-04-21T13:11:27.999Z</time></trkpt><trkpt lat="45.448992802809514" lon="8.052097562684791"><ele>454.2</ele><time>2026-04-21T13:11:30Z</time></trkpt><trkpt lat="45.448954280030584" lon="8.05222782947769"><ele>455.0</ele><time>2026-04-21T13:11:32Z</time></trkpt><trkpt lat="45.44893938329829" lon="8.052333984478471"><ele>454.99999999999994</ele><time>2026-04-21T13:11:34Z</time></trkpt><trkpt lat="45.44896217785852" lon="8.052423145470412"><ele>455.0</ele><time>2026-04-21T13:11:36Z</time></trkpt><trkpt lat="45.44891559937701" lon="8.052517751658094"><ele>455.0</ele><time>2026-04-21T13:11:39Z</time></trkpt><trkpt lat="45.448876511651356" lon="8.052626365231676"><ele>455.0</ele><time>2026-04-21T13:11:42Z</time></trkpt><trkpt lat="45.44884472350922" lon="8.052756572065684"><ele>454.99999999999994</ele><time>2026-04-21T13:11:45Z</time></trkpt><trkpt lat="45.44878516260385" lon="8.052869937687914"><ele>455.0</ele><time>2026-04-21T13:11:47Z</time></trkpt><trkpt lat="45.448732245805104" lon="8.053017467974058"><ele>455.0</ele><time>2026-04-21T13:11:49Z</time></trkpt><trkpt lat="45.44867494418803" lon="8.053160977294777"><ele>455.0</ele><time>2026-04-21T13:11:51Z</time></trkpt><trkpt lat="45.44864369649382" lon="8.053244070867859"><ele>455.0</ele><time>2026-04-21T13:11:52Z</time></trkpt><trkpt lat="45.44860721380828" lon="8.053385425382984"><ele>455.0</ele><time>2026-04-21T13:11:54Z</time></trkpt><trkpt lat="45.44854741713482" lon="8.053455988272825"><ele>455.0</ele><time>2026-04-21T13:11:56Z</time></trkpt><trkpt lat="45.44851687474803" lon="8.053602975135922"><ele>455.0</ele><time>2026-04-21T13:11:59Z</time></trkpt><trkpt lat="45.44845368672193" lon="8.053670227830494"><ele>455.0</ele><time>2026-04-21T13:12:02Z</time></trkpt><trkpt lat="45.44842680503081" lon="8.053770785039704"><ele>455.0</ele><time>2026-04-21T13:12:04Z</time></trkpt><trkpt lat="45.44843177037616" lon="8.053926292518826"><ele>455.0</ele><time>2026-04-21T13:12:07Z</time></trkpt><trkpt lat="45.448418078000664" lon="8.054090622234012"><ele>455.0</ele><time>2026-04-21T13:12:09Z</time></trkpt><trkpt lat="45.44836428646065" lon="8.05417745793495"><ele>455.8333333333333</ele><time>2026-04-21T13:12:11Z</time></trkpt><trkpt lat="45.44830762504185" lon="8.054239065983367"><ele>456.66666666666663</ele><time>2026-04-21T13:12:13Z</time></trkpt><trkpt lat="45.448262540018995" lon="8.054392834370613"><ele>457.5</ele><time>2026-04-21T13:12:15Z</time></trkpt><trkpt lat="45.44823179435726" lon="8.054472605531666"><ele>458.33333333333337</ele><time>2026-04-21T13:12:16Z</time></trkpt><trkpt lat="45.448185096875704" lon="8.054579895054056"><ele>459.1666666666667</ele><time>2026-04-21T13:12:19Z</time></trkpt><trkpt lat="45.44813446548896" lon="8.054645425346166"><ele>460.0</ele><time>2026-04-21T13:12:24Z</time></trkpt><trkpt lat="45.44810232979284" lon="8.054741892346076"><ele>460.00000000000006</ele><time>2026-04-21T13:12:43Z</time></trkpt><trkpt lat="45.44806595938636" lon="8.054841291701313"><ele>460.0</ele><time>2026-04-21T13:12:47Z</time></trkpt><trkpt lat="45.447989324391045" lon="8.05494467575968"><ele>460.0</ele><time>2026-04-21T13:12:49Z</time></trkpt><trkpt lat="45.44792809815094" lon="8.055048898040939"><ele>460.0</ele><time>2026-04-21T13:12:51Z</time></trkpt><trkpt lat="45.44786411911965" lon="8.055125944759363"><ele>460.00000000000006</ele><time>2026-04-21T13:12:53Z</time></trkpt><trkpt lat="45.447809965668824" lon="8.055205874845678"><ele>460.0</ele><time>2026-04-21T13:12:56Z</time></trkpt><trkpt lat="45.44778661353805" lon="8.055291934436925"><ele>460.6666666666667</ele><time>2026-04-21T13:12:59Z</time></trkpt><trkpt lat="45.44775333255684" lon="8.055403830304192"><ele>461.33333333333337</ele><time>2026-04-21T13:13:03Z</time></trkpt><trkpt lat="45.447694344930724" lon="8.055496239032838"><ele>462.0</ele><time>2026-04-21T13:13:05Z</time></trkpt><trkpt lat="45.44767685153976" lon="8.055624861180048"><ele>462.66666666666663</ele><time>2026-04-21T13:13:08Z</time></trkpt><trkpt lat="45.44763844159595" lon="8.055722697034836"><ele>463.3333333333333</ele><time>2026-04-21T13:13:11Z</time></trkpt><trkpt lat="45.44758835898961" lon="8.055844731878711"><ele>464.0</ele><time>2026-04-21T13:13:13Z</time></trkpt><trkpt lat="45.44756859616425" lon="8.055938125488861"><ele>463.99999999999994</ele><time>2026-04-21T13:13:16Z</time></trkpt><trkpt lat="45.447507443717434" lon="8.056014978850232"><ele>464.0</ele><time>2026-04-21T13:13:19Z</time></trkpt><trkpt lat="45.44746366489549" lon="8.056113636644103"><ele>464.0</ele><time>2026-04-21T13:13:22Z</time></trkpt><trkpt lat="45.44744302151135" lon="8.05623195930173"><ele>464.0</ele><time>2026-04-21T13:13:25Z</time></trkpt><trkpt lat="45.44744249104441" lon="8.056362185181525"><ele>463.99999999999994</ele><time>2026-04-21T13:13:27Z</time></trkpt><trkpt lat="45.447417822755966" lon="8.056470242488354"><ele>464.0</ele><time>2026-04-21T13:13:29.999Z</time></trkpt><trkpt lat="45.447384992812424" lon="8.056572314604283"><ele>464.66666666666663</ele><time>2026-04-21T13:13:32.999Z</time></trkpt><trkpt lat="45.44735996678126" lon="8.05666709916368"><ele>465.3333333333333</ele><time>2026-04-21T13:13:34.999Z</time></trkpt><trkpt lat="45.44731844713612" lon="8.056747047560494"><ele>466.0</ele><time>2026-04-21T13:13:37Z</time></trkpt><trkpt lat="45.447253690920384" lon="8.056905424980863"><ele>466.66666666666663</ele><time>2026-04-21T13:13:39Z</time></trkpt><trkpt lat="45.44722158523267" lon="8.057011712815296"><ele>467.3333333333333</ele><time>2026-04-21T13:13:42Z</time></trkpt><trkpt lat="45.4471742647128" lon="8.057093953084795"><ele>468.0</ele><time>2026-04-21T13:13:44Z</time></trkpt><trkpt lat="45.44715097274059" lon="8.057187814966252"><ele>465.79999999999995</ele><time>2026-04-21T13:13:48Z</time></trkpt><trkpt lat="45.447120617094825" lon="8.057302827376423"><ele>463.59999999999997</ele><time>2026-04-21T13:13:50Z</time></trkpt><trkpt lat="45.44706739129047" lon="8.057418558046974"><ele>461.40000000000003</ele><time>2026-04-21T13:13:52Z</time></trkpt><trkpt lat="45.44703621880614" lon="8.057515140781843"><ele>459.20000000000005</ele><time>2026-04-21T13:13:54Z</time></trkpt><trkpt lat="45.446965518543195" lon="8.05764310932618"><ele>457.0</ele><time>2026-04-21T13:13:56Z</time></trkpt><trkpt lat="45.44693470553242" lon="8.05779610227432"><ele>457.00000000000006</ele><time>2026-04-21T13:13:58Z</time></trkpt><trkpt lat="45.446886008768416" lon="8.057873295267132"><ele>457.0</ele><time>2026-04-21T13:14:01Z</time></trkpt><trkpt lat="45.44685828936747" lon="8.057985392903694"><ele>457.0</ele><time>2026-04-21T13:14:03Z</time></trkpt><trkpt lat="45.44683183819964" lon="8.058091190629597"><ele>457.0</ele><time>2026-04-21T13:14:07Z</time></trkpt><trkpt lat="45.44679331781574" lon="8.058198450491606"><ele>457.00000000000006</ele><time>2026-04-21T13:14:11Z</time></trkpt><trkpt lat="45.44677758648053" lon="8.058351898720186"><ele>457.0</ele><time>2026-04-21T13:14:13Z</time></trkpt><trkpt lat="45.446765013659885" lon="8.058444975248133"><ele>457.83333333333337</ele><time>2026-04-21T13:14:15Z</time></trkpt><trkpt lat="45.44676135094034" lon="8.058535080198055"><ele>458.6666666666667</ele><time>2026-04-21T13:14:23Z</time></trkpt><trkpt lat="45.44671576246914" lon="8.058650741659354"><ele>459.5</ele><time>2026-04-21T13:14:27Z</time></trkpt><trkpt lat="45.44669517843708" lon="8.058742785690969"><ele>460.33333333333337</ele><time>2026-04-21T13:14:28Z</time></trkpt><trkpt lat="45.44666899552311" lon="8.05885694056241"><ele>461.1666666666667</ele><time>2026-04-21T13:14:30Z</time></trkpt><trkpt lat="45.44664035335645" lon="8.058993904818982"><ele>462.0</ele><time>2026-04-21T13:14:33Z</time></trkpt><trkpt lat="45.446606955907505" lon="8.059127166036884"><ele>462.5</ele><time>2026-04-21T13:14:35Z</time></trkpt><trkpt lat="45.44655749259738" lon="8.059248018266919"><ele>463.0</ele><time>2026-04-21T13:14:37Z</time></trkpt><trkpt lat="45.44653752013058" lon="8.059342219356754"><ele>463.5</ele><time>2026-04-21T13:14:40Z</time></trkpt><trkpt lat="45.44649488045241" lon="8.059410387540757"><ele>464.0</ele><time>2026-04-21T13:14:44Z</time></trkpt><trkpt lat="45.446501448043875" lon="8.059503436769635"><ele>464.5</ele><time>2026-04-21T13:14:48Z</time></trkpt><trkpt lat="45.44647646248196" lon="8.059615535182058"><ele>465.0</ele><time>2026-04-21T13:14:51Z</time></trkpt><trkpt lat="45.44641383244682" lon="8.059720641946788"><ele>465.0</ele><time>2026-04-21T13:14:53Z</time></trkpt><trkpt lat="45.44637888837661" lon="8.059803034246515"><ele>465.0</ele><time>2026-04-21T13:14:57Z</time></trkpt><trkpt lat="45.44634952004497" lon="8.0598847427391"><ele>465.0</ele><time>2026-04-21T13:15:00Z</time></trkpt><trkpt lat="45.446340787713964" lon="8.059983127814524"><ele>465.0</ele><time>2026-04-21T13:16:10Z</time></trkpt><trkpt lat="45.4462667383987" lon="8.060089857933006"><ele>465.0</ele><time>2026-04-21T13:16:14Z</time></trkpt><trkpt lat="45.44622662058277" lon="8.060162755365322"><ele>465.0</ele><time>2026-04-21T13:16:18Z</time></trkpt><trkpt lat="45.44620317889422" lon="8.060274397115709"><ele>463.3333333333333</ele><time>2026-04-21T13:16:24Z</time></trkpt><trkpt lat="45.446190011499134" lon="8.060405655556005"><ele>461.66666666666663</ele><time>2026-04-21T13:16:27Z</time></trkpt><trkpt lat="45.44615724667796" lon="8.060515931704131"><ele>460.0</ele><time>2026-04-21T13:16:29Z</time></trkpt><trkpt lat="45.44612801270153" lon="8.060640220268816"><ele>458.3333333333333</ele><time>2026-04-21T13:16:31Z</time></trkpt><trkpt lat="45.44609336479521" lon="8.060739522502583"><ele>456.66666666666663</ele><time>2026-04-21T13:16:34Z</time></trkpt><trkpt lat="45.44608119587935" lon="8.06085808457344"><ele>455.0</ele><time>2026-04-21T13:16:36Z</time></trkpt><trkpt lat="45.44603599111968" lon="8.061023604951423"><ele>455.0</ele><time>2026-04-21T13:16:38Z</time></trkpt><trkpt lat="45.44603163956128" lon="8.061114972854439"><ele>455.0</ele><time>2026-04-21T13:16:40Z</time></trkpt><trkpt lat="45.44599601775138" lon="8.061235249793766"><ele>455.0</ele><time>2026-04-21T13:16:43Z</time></trkpt><trkpt lat="45.44596619280827" lon="8.061380853971198"><ele>455.0</ele><time>2026-04-21T13:16:46Z</time></trkpt><trkpt lat="45.44595892067488" lon="8.061525971104608"><ele>455.0</ele><time>2026-04-21T13:16:48Z</time></trkpt><trkpt lat="45.4459264186351" lon="8.061638300052037"><ele>454.99999999999994</ele><time>2026-04-21T13:16:50Z</time></trkpt><trkpt lat="45.445895478440036" lon="8.061760000512509"><ele>455.0</ele><time>2026-04-21T13:16:52Z</time></trkpt><trkpt lat="45.44590497604805" lon="8.061864406064315"><ele>455.0</ele><time>2026-04-21T13:16:54Z</time></trkpt><trkpt lat="45.445861228731566" lon="8.061956141780994"><ele>455.0</ele><time>2026-04-21T13:16:56Z</time></trkpt><trkpt lat="45.44582256904339" lon="8.062079661219801"><ele>454.99999999999994</ele><time>2026-04-21T13:16:58Z</time></trkpt><trkpt lat="45.445795967021795" lon="8.062173692669335"><ele>455.0</ele><time>2026-04-21T13:17:00Z</time></trkpt><trkpt lat="45.445771706822654" lon="8.062264421716154"><ele>454.99999999999994</ele><time>2026-04-21T13:17:02Z</time></trkpt><trkpt lat="45.44571910631266" lon="8.06237937051787"><ele>455.0</ele><time>2026-04-21T13:17:05Z</time></trkpt><trkpt lat="45.44571681722997" lon="8.062476738447"><ele>455.0</ele><time>2026-04-21T13:17:08Z</time></trkpt><trkpt lat="45.44568507412425" lon="8.062554831873799"><ele>455.0</ele><time>2026-04-21T13:17:11Z</time></trkpt><trkpt lat="45.44568261455386" lon="8.06265005191468"><ele>454.99999999999994</ele><time>2026-04-21T13:17:14Z</time></trkpt><trkpt lat="45.445662205653974" lon="8.062755788586895"><ele>455.0</ele><time>2026-04-21T13:17:17Z</time></trkpt><trkpt lat="45.44563926919804" lon="8.062868798106834"><ele>455.3333333333333</ele><time>2026-04-21T13:17:19Z</time></trkpt><trkpt lat="45.44556233586416" lon="8.062934194745077"><ele>455.66666666666663</ele><time>2026-04-21T13:17:22Z</time></trkpt><trkpt lat="45.445484902363376" lon="8.063007813222667"><ele>456.0</ele><time>2026-04-21T13:17:25Z</time></trkpt><trkpt lat="45.4454516882662" lon="8.063124987867656"><ele>456.33333333333337</ele><time>2026-04-21T13:17:27Z</time></trkpt><trkpt lat="45.44545743184954" lon="8.063248838243528"><ele>456.6666666666667</ele><time>2026-04-21T13:17:28.999Z</time></trkpt><trkpt lat="45.445452031525825" lon="8.063368566108709"><ele>457.0</ele><time>2026-04-21T13:17:30.999Z</time></trkpt><trkpt lat="45.44544508556695" lon="8.06349165818651"><ele>456.8571428571429</ele><time>2026-04-21T13:17:32.999Z</time></trkpt><trkpt lat="45.44546851893003" lon="8.063576990949194"><ele>456.7142857142857</ele><time>2026-04-21T13:17:37.999Z</time></trkpt><trkpt lat="45.44551015075874" lon="8.063677421538733"><ele>456.57142857142856</ele><time>2026-04-21T13:22:49Z</time></trkpt><trkpt lat="45.44549525095641" lon="8.06358546322729"><ele>456.42857142857144</ele><time>2026-04-21T13:24:16Z</time></trkpt><trkpt lat="45.4454532995949" lon="8.06365756684577"><ele>456.2857142857142</ele><time>2026-04-21T13:25:54.999Z</time></trkpt><trkpt lat="45.445445073028864" lon="8.063757014609441"><ele>456.1428571428571</ele><time>2026-04-21T13:26:00.999Z</time></trkpt><trkpt lat="45.44546619102695" lon="8.06385402426431"><ele>456.0</ele><time>2026-04-21T13:26:04.999Z</time></trkpt><trkpt lat="45.445447869485335" lon="8.063955353202065"><ele>453.71428571428567</ele><time>2026-04-21T13:26:06.999Z</time></trkpt><trkpt lat="45.445431407442854" lon="8.064052149512452"><ele>451.4285714285714</ele><time>2026-04-21T13:26:10Z</time></trkpt><trkpt lat="45.445417387788495" lon="8.064143481119093"><ele>449.1428571428571</ele><time>2026-04-21T13:26:14Z</time></trkpt><trkpt lat="45.44538863287539" lon="8.064231195404991"><ele>446.85714285714283</ele><time>2026-04-21T13:26:26Z</time></trkpt><trkpt lat="45.44534194250157" lon="8.064301755964168"><ele>444.57142857142856</ele><time>2026-04-21T13:26:31Z</time></trkpt><trkpt lat="45.44535883708303" lon="8.064388820616628"><ele>442.2857142857142</ele><time>2026-04-21T13:26:37Z</time></trkpt><trkpt lat="45.44540445659495" lon="8.06447892143217"><ele>440.0</ele><time>2026-04-21T13:26:40Z</time></trkpt><trkpt lat="45.44545801568456" lon="8.064611065605476"><ele>440.6</ele><time>2026-04-21T13:26:42Z</time></trkpt><trkpt lat="45.445479229869214" lon="8.064732666736855"><ele>441.2</ele><time>2026-04-21T13:26:44Z</time></trkpt><trkpt lat="45.44547564795702" lon="8.064850979484927"><ele>441.79999999999995</ele><time>2026-04-21T13:26:47Z</time></trkpt><trkpt lat="45.44545130443097" lon="8.06495328943518"><ele>442.4</ele><time>2026-04-21T13:26:49Z</time></trkpt><trkpt lat="45.44536347625925" lon="8.065014257886878"><ele>443.0</ele><time>2026-04-21T13:26:52Z</time></trkpt><trkpt lat="45.445276404838665" lon="8.06511656778325"><ele>442.99999999999994</ele><time>2026-04-21T13:26:54Z</time></trkpt><trkpt lat="45.44524626973869" lon="8.065208150630399"><ele>443.0</ele><time>2026-04-21T13:26:58Z</time></trkpt><trkpt lat="45.44521351235545" lon="8.065314378481"><ele>443.0</ele><time>2026-04-21T13:27:00Z</time></trkpt><trkpt lat="45.44525577491787" lon="8.065423378291852"><ele>443.0</ele><time>2026-04-21T13:27:03Z</time></trkpt><trkpt lat="45.445288139067316" lon="8.06550669962461"><ele>442.99999999999994</ele><time>2026-04-21T13:27:05Z</time></trkpt><trkpt lat="45.445328614468146" lon="8.065614846061653"><ele>443.0</ele><time>2026-04-21T13:27:08Z</time></trkpt><trkpt lat="45.44537162091461" lon="8.065688971871204"><ele>442.49999999999994</ele><time>2026-04-21T13:27:11Z</time></trkpt><trkpt lat="45.445408653230466" lon="8.065794495254519"><ele>442.0</ele><time>2026-04-21T13:27:14Z</time></trkpt><trkpt lat="45.44539940350237" lon="8.065913439874896"><ele>441.5</ele><time>2026-04-21T13:27:16Z</time></trkpt><trkpt lat="45.44542511752249" lon="8.066006995619775"><ele>441.0</ele><time>2026-04-21T13:27:22Z</time></trkpt><trkpt lat="45.44544490613585" lon="8.066097424606316"><ele>440.49999999999994</ele><time>2026-04-21T13:27:25Z</time></trkpt><trkpt lat="45.44548492390199" lon="8.066202479099168"><ele>440.0</ele><time>2026-04-21T13:27:28Z</time></trkpt><trkpt lat="45.4454698084558" lon="8.066326706272795"><ele>439.99999999999994</ele><time>2026-04-21T13:27:31Z</time></trkpt><trkpt lat="45.44545778978381" lon="8.066429278508313"><ele>440.0</ele><time>2026-04-21T13:27:34Z</time></trkpt><trkpt lat="45.44539278980572" lon="8.066482629404245"><ele>440.0</ele><time>2026-04-21T13:27:36Z</time></trkpt><trkpt lat="45.4453639174475" lon="8.066594936598966"><ele>440.0</ele><time>2026-04-21T13:27:40Z</time></trkpt><trkpt lat="45.44534858719452" lon="8.066681975403599"><ele>439.99999999999994</ele><time>2026-04-21T13:27:44.999Z</time></trkpt><trkpt lat="45.44536468264529" lon="8.066786842922454"><ele>440.0</ele><time>2026-04-21T13:28:06.999Z</time></trkpt><trkpt lat="45.44540011398018" lon="8.066904566275532"><ele>438.8333333333333</ele><time>2026-04-21T13:28:09.999Z</time></trkpt><trkpt lat="45.44540194402167" lon="8.067023385587035"><ele>437.66666666666663</ele><time>2026-04-21T13:28:12.999Z</time></trkpt><trkpt lat="45.445398889030805" lon="8.067113083236265"><ele>436.5</ele><time>2026-04-21T13:28:16Z</time></trkpt><trkpt lat="45.44541716399789" lon="8.067234305427654"><ele>435.33333333333337</ele><time>2026-04-21T13:28:18Z</time></trkpt><trkpt lat="45.44541460513702" lon="8.067367675580147"><ele>434.1666666666667</ele><time>2026-04-21T13:28:20Z</time></trkpt><trkpt lat="45.445404401278935" lon="8.067486748346338"><ele>433.0</ele><time>2026-04-21T13:28:23Z</time></trkpt><trkpt lat="45.44538657113706" lon="8.067620370129333"><ele>433.00000000000006</ele><time>2026-04-21T13:28:25Z</time></trkpt><trkpt lat="45.44544931566093" lon="8.067732905749585"><ele>433.0</ele><time>2026-04-21T13:28:28Z</time></trkpt><trkpt lat="45.445463289781635" lon="8.067844106078272"><ele>433.0</ele><time>2026-04-21T13:28:30Z</time></trkpt><trkpt lat="45.44548997076607" lon="8.06793302178133"><ele>433.0</ele><time>2026-04-21T13:28:33Z</time></trkpt><trkpt lat="45.445461184603666" lon="8.0680243355645"><ele>433.00000000000006</ele><time>2026-04-21T13:28:35Z</time></trkpt><trkpt lat="45.445405572749515" lon="8.06808412780357"><ele>433.0</ele><time>2026-04-21T13:28:37Z</time></trkpt><trkpt lat="45.44537259135618" lon="8.068165467698448"><ele>433.00000000000006</ele><time>2026-04-21T13:28:40Z</time></trkpt><trkpt lat="45.445311414648614" lon="8.0682633742011"><ele>433.0</ele><time>2026-04-21T13:28:43Z</time></trkpt><trkpt lat="45.445263834739585" lon="8.068323952402974"><ele>433.0</ele><time>2026-04-21T13:28:45Z</time></trkpt><trkpt lat="45.445204668636194" lon="8.068368055883111"><ele>433.0</ele><time>2026-04-21T13:28:48Z</time></trkpt><trkpt lat="45.44513808924643" lon="8.068471876172199"><ele>433.00000000000006</ele><time>2026-04-21T13:28:51Z</time></trkpt><trkpt lat="45.445132380978876" lon="8.06856165200895"><ele>433.0</ele><time>2026-04-21T13:28:53Z</time></trkpt><trkpt lat="45.44511105810489" lon="8.068682948478774"><ele>432.4285714285714</ele><time>2026-04-21T13:28:55Z</time></trkpt><trkpt lat="45.4451003527674" lon="8.068775234596025"><ele>431.85714285714283</ele><time>2026-04-21T13:28:57Z</time></trkpt><trkpt lat="45.44508465463032" lon="8.068881853337926"><ele>431.2857142857143</ele><time>2026-04-21T13:29:00Z</time></trkpt><trkpt lat="45.44505951303531" lon="8.068989095137534"><ele>430.71428571428567</ele><time>2026-04-21T13:29:04Z</time></trkpt><trkpt lat="45.445035687251355" lon="8.069079947279095"><ele>430.14285714285717</ele><time>2026-04-21T13:29:08Z</time></trkpt><trkpt lat="45.44501211531054" lon="8.069174534993536"><ele>429.57142857142856</ele><time>2026-04-21T13:29:11Z</time></trkpt><trkpt lat="45.44500789141972" lon="8.069266916844471"><ele>429.0</ele><time>2026-04-21T13:29:13Z</time></trkpt><trkpt lat="45.445006643874486" lon="8.069358700312948"><ele>428.0</ele><time>2026-04-21T13:29:15Z</time></trkpt><trkpt lat="45.445025453008505" lon="8.069473622184237"><ele>427.0</ele><time>2026-04-21T13:29:17Z</time></trkpt><trkpt lat="45.445018094954115" lon="8.069596241330137"><ele>426.0</ele><time>2026-04-21T13:29:19Z</time></trkpt><trkpt lat="45.44503037412396" lon="8.06968480308596"><ele>425.0</ele><time>2026-04-21T13:29:22Z</time></trkpt><trkpt lat="45.44500253396723" lon="8.0698124849079"><ele>424.0</ele><time>2026-04-21T13:29:29Z</time></trkpt><trkpt lat="45.44498944396494" lon="8.069960050658002"><ele>423.0</ele><time>2026-04-21T13:29:32Z</time></trkpt><trkpt lat="45.44500257522631" lon="8.070056875976693"><ele>422.3333333333333</ele><time>2026-04-21T13:29:34Z</time></trkpt><trkpt lat="45.44499778371344" lon="8.070154061839144"><ele>421.66666666666663</ele><time>2026-04-21T13:29:37Z</time></trkpt><trkpt lat="45.445016361001755" lon="8.070267342808643"><ele>421.0</ele><time>2026-04-21T13:29:39Z</time></trkpt><trkpt lat="45.44501038099192" lon="8.070418607862763"><ele>420.3333333333333</ele><time>2026-04-21T13:29:41Z</time></trkpt><trkpt lat="45.44502863341154" lon="8.070518858388642"><ele>419.66666666666663</ele><time>2026-04-21T13:29:43Z</time></trkpt><trkpt lat="45.44504899057744" lon="8.070615385588564"><ele>419.0</ele><time>2026-04-21T13:29:46Z</time></trkpt><trkpt lat="45.445037249068676" lon="8.070709231683862"><ele>419.16666666666663</ele><time>2026-04-21T13:29:48Z</time></trkpt><trkpt lat="45.44504913902246" lon="8.070856391618728"><ele>419.3333333333333</ele><time>2026-04-21T13:29:51Z</time></trkpt><trkpt lat="45.44502398087275" lon="8.070960438428619"><ele>419.5</ele><time>2026-04-21T13:29:53Z</time></trkpt><trkpt lat="45.4450111922679" lon="8.071083133368473"><ele>419.66666666666663</ele><time>2026-04-21T13:29:55Z</time></trkpt><trkpt lat="45.4450290633395" lon="8.071182156913752"><ele>419.8333333333333</ele><time>2026-04-21T13:29:56.999Z</time></trkpt><trkpt lat="45.44500634169627" lon="8.071306453993696"><ele>420.0</ele><time>2026-04-21T13:29:58.999Z</time></trkpt><trkpt lat="45.44499852329139" lon="8.071430294128499"><ele>420.0</ele><time>2026-04-21T13:30:00.999Z</time></trkpt><trkpt lat="45.44497563146674" lon="8.071529130082817"><ele>420.0</ele><time>2026-04-21T13:30:03.999Z</time></trkpt><trkpt lat="45.44495005861281" lon="8.071642747103667"><ele>420.0</ele><time>2026-04-21T13:30:07.999Z</time></trkpt><trkpt lat="45.44497085242926" lon="8.071731169121865"><ele>420.0</ele><time>2026-04-21T13:30:09.999Z</time></trkpt><trkpt lat="45.444975526969245" lon="8.071837214418863"><ele>420.0</ele><time>2026-04-21T13:30:11.999Z</time></trkpt><trkpt lat="45.44496033735083" lon="8.071931657209099"><ele>420.0</ele><time>2026-04-21T13:30:13.999Z</time></trkpt><trkpt lat="45.44496728064162" lon="8.072031318432495"><ele>420.0</ele><time>2026-04-21T13:30:16.999Z</time></trkpt><trkpt lat="45.44497198136906" lon="8.072126143753941"><ele>420.42857142857144</ele><time>2026-04-21T13:30:19.999Z</time></trkpt><trkpt lat="45.444986928406465" lon="8.072217040717428"><ele>420.8571428571429</ele><time>2026-04-21T13:30:23Z</time></trkpt><trkpt lat="45.444959931532075" lon="8.072305499407552"><ele>421.2857142857143</ele><time>2026-04-21T13:30:26Z</time></trkpt><trkpt lat="45.44494526808331" lon="8.072403105493384"><ele>421.7142857142857</ele><time>2026-04-21T13:30:30Z</time></trkpt><trkpt lat="45.44496727497818" lon="8.072499642500482"><ele>422.14285714285717</ele><time>2026-04-21T13:30:33Z</time></trkpt><trkpt lat="45.44497641892019" lon="8.072594498058978"><ele>422.57142857142856</ele><time>2026-04-21T13:30:35Z</time></trkpt><trkpt lat="45.44498013071041" lon="8.072704539902757"><ele>423.0</ele><time>2026-04-21T13:30:39Z</time></trkpt><trkpt lat="45.44497033430747" lon="8.072822158551881"><ele>423.0</ele><time>2026-04-21T13:30:43Z</time></trkpt><trkpt lat="45.44496242060537" lon="8.07294589890183"><ele>423.0</ele><time>2026-04-21T13:30:46Z</time></trkpt><trkpt lat="45.444982325894" lon="8.073036300478504"><ele>423.0</ele><time>2026-04-21T13:30:48Z</time></trkpt><trkpt lat="45.44495446011685" lon="8.073126344337672"><ele>423.0</ele><time>2026-04-21T13:30:52Z</time></trkpt><trkpt lat="45.444973002966734" lon="8.073225196148254"><ele>423.0</ele><time>2026-04-21T13:31:24Z</time></trkpt><trkpt lat="45.44500207015987" lon="8.073321560149845"><ele>423.0</ele><time>2026-04-21T13:31:29Z</time></trkpt><trkpt lat="45.44506540386398" lon="8.073332706091952"><ele>423.0</ele><time>2026-04-21T13:31:39Z</time></trkpt><trkpt lat="45.4450927351821" lon="8.073241414297184"><ele>423.0</ele><time>2026-04-21T13:31:58Z</time></trkpt><trkpt lat="45.44512242963368" lon="8.07313693997847"><ele>423.0</ele><time>2026-04-21T13:32:01Z</time></trkpt><trkpt lat="45.44518753572076" lon="8.072994312971055"><ele>423.0</ele><time>2026-04-21T13:32:02.999Z</time></trkpt><trkpt lat="45.445222003834644" lon="8.072838929403577"><ele>423.0</ele><time>2026-04-21T13:32:04.999Z</time></trkpt><trkpt lat="45.44526165634094" lon="8.07276245242881"><ele>423.0</ele><time>2026-04-21T13:32:05.999Z</time></trkpt><trkpt lat="45.44528961700198" lon="8.072675383259506"><ele>423.0</ele><time>2026-04-21T13:32:06.999Z</time></trkpt><trkpt lat="45.44532700257892" lon="8.072558182826441"><ele>423.0</ele><time>2026-04-21T13:32:07.999Z</time></trkpt><trkpt lat="45.44535166138059" lon="8.072457276112093"><ele>423.0</ele><time>2026-04-21T13:32:08.999Z</time></trkpt><trkpt lat="45.44536443747557" lon="8.072366802713308"><ele>423.0</ele><time>2026-04-21T13:32:09.999Z</time></trkpt><trkpt lat="45.445362582324705" lon="8.072264155273881"><ele>423.0</ele><time>2026-04-21T13:32:10.999Z</time></trkpt><trkpt lat="45.44539826307876" lon="8.072108325687724"><ele>423.0</ele><time>2026-04-21T13:32:12.999Z</time></trkpt><trkpt lat="45.44541215279813" lon="8.071955213297013"><ele>423.0</ele><time>2026-04-21T13:32:14.999Z</time></trkpt><trkpt lat="45.445442054168346" lon="8.071828621883567"><ele>421.4</ele><time>2026-04-21T13:32:16.999Z</time></trkpt><trkpt lat="45.445466315778035" lon="8.07169843058308"><ele>419.79999999999995</ele><time>2026-04-21T13:32:18.999Z</time></trkpt><trkpt lat="45.44546534629228" lon="8.071556722980755"><ele>418.2</ele><time>2026-04-21T13:32:20.999Z</time></trkpt><trkpt lat="45.44551898977414" lon="8.071456281006041"><ele>416.6</ele><time>2026-04-21T13:32:22.999Z</time></trkpt><trkpt lat="45.44558222684164" lon="8.071481374587494"><ele>415.0</ele><time>2026-04-21T13:32:24.999Z</time></trkpt><trkpt lat="45.44560420779171" lon="8.071647589536642"><ele>414.8</ele><time>2026-04-21T13:32:26.999Z</time></trkpt><trkpt lat="45.44561700871573" lon="8.07175324571919"><ele>414.6</ele><time>2026-04-21T13:32:28Z</time></trkpt><trkpt lat="45.44564949171299" lon="8.071896717367633"><ele>414.4</ele><time>2026-04-21T13:32:30Z</time></trkpt><trkpt lat="45.445679942819766" lon="8.072078794565703"><ele>414.2</ele><time>2026-04-21T13:32:32Z</time></trkpt><trkpt lat="45.44570213712169" lon="8.072184951519716"><ele>414.0</ele><time>2026-04-21T13:32:33Z</time></trkpt><trkpt lat="45.44569264772776" lon="8.0722896481703"><ele>414.0</ele><time>2026-04-21T13:32:35Z</time></trkpt><trkpt lat="45.4457558690032" lon="8.07236019942498"><ele>414.0</ele><time>2026-04-21T13:32:38Z</time></trkpt><trkpt lat="45.44584388086902" lon="8.07226281832452"><ele>414.0</ele><time>2026-04-21T13:32:40Z</time></trkpt><trkpt lat="45.44590086743847" lon="8.072187888779503"><ele>414.0</ele><time>2026-04-21T13:32:41Z</time></trkpt><trkpt lat="45.44597491406672" lon="8.072144453264308"><ele>414.0</ele><time>2026-04-21T13:32:42Z</time></trkpt><trkpt lat="45.446049200414684" lon="8.072137014203546"><ele>414.0</ele><time>2026-04-21T13:32:43Z</time></trkpt><trkpt lat="45.446146729187674" lon="8.072139835287059"><ele>414.0</ele><time>2026-04-21T13:32:45Z</time></trkpt><trkpt lat="45.446262542443435" lon="8.072113790031787"><ele>414.0</ele><time>2026-04-21T13:32:47Z</time></trkpt><trkpt lat="45.44636890922331" lon="8.072036126878992"><ele>414.0</ele><time>2026-04-21T13:32:49Z</time></trkpt><trkpt lat="45.44640717165043" lon="8.071933660428577"><ele>414.0</ele><time>2026-04-21T13:32:50Z</time></trkpt><trkpt lat="45.44640507769882" lon="8.071798115171894"><ele>414.0</ele><time>2026-04-21T13:32:51Z</time></trkpt><trkpt lat="45.44636419024083" lon="8.071664123570713"><ele>414.25</ele><time>2026-04-21T13:32:52Z</time></trkpt><trkpt lat="45.44629835565984" lon="8.071535634925985"><ele>414.5</ele><time>2026-04-21T13:32:53Z</time></trkpt><trkpt lat="45.44622415937269" lon="8.071381378169688"><ele>414.75</ele><time>2026-04-21T13:32:54Z</time></trkpt><trkpt lat="45.44616984595698" lon="8.071222114831643"><ele>415.0</ele><time>2026-04-21T13:32:55Z</time></trkpt><trkpt lat="45.44612644707024" lon="8.071063422475262"><ele>415.0</ele><time>2026-04-21T13:32:56Z</time></trkpt><trkpt lat="45.44609415349217" lon="8.07091280692992"><ele>415.0</ele><time>2026-04-21T13:32:57Z</time></trkpt><trkpt lat="45.446071681003566" lon="8.070747480247592"><ele>415.0</ele><time>2026-04-21T13:32:58Z</time></trkpt><trkpt lat="45.44607462227374" lon="8.070573420153533"><ele>415.0</ele><time>2026-04-21T13:32:59Z</time></trkpt><trkpt lat="45.44611407783179" lon="8.070412638387067"><ele>415.5</ele><time>2026-04-21T13:33:00Z</time></trkpt><trkpt lat="45.446186600185776" lon="8.070265946021722"><ele>416.0</ele><time>2026-04-21T13:33:01Z</time></trkpt><trkpt lat="45.44629893625728" lon="8.070136192248771"><ele>416.5</ele><time>2026-04-21T13:33:02Z</time></trkpt><trkpt lat="45.446361059308906" lon="8.06999253863426"><ele>417.0</ele><time>2026-04-21T13:33:03Z</time></trkpt><trkpt lat="45.446429101787224" lon="8.069860971142353"><ele>418.0</ele><time>2026-04-21T13:33:04Z</time></trkpt><trkpt lat="45.446490201498364" lon="8.069717002287769"><ele>419.0</ele><time>2026-04-21T13:33:05Z</time></trkpt><trkpt lat="45.44654538895991" lon="8.069563037091504"><ele>420.0</ele><time>2026-04-21T13:33:06Z</time></trkpt><trkpt lat="45.4465874448472" lon="8.069408723592701"><ele>421.0</ele><time>2026-04-21T13:33:07Z</time></trkpt><trkpt lat="45.446628319947415" lon="8.069247188891262"><ele>421.6</ele><time>2026-04-21T13:33:08Z</time></trkpt><trkpt lat="45.44665798620877" lon="8.069070681573725"><ele>422.20000000000005</ele><time>2026-04-21T13:33:09Z</time></trkpt><trkpt lat="45.44668097164402" lon="8.068913850285188"><ele>422.79999999999995</ele><time>2026-04-21T13:33:10Z</time></trkpt><trkpt lat="45.44669489879994" lon="8.068776381054944"><ele>423.4</ele><time>2026-04-21T13:33:11Z</time></trkpt><trkpt lat="45.44672345847453" lon="8.068636585169916"><ele>424.0</ele><time>2026-04-21T13:33:12Z</time></trkpt><trkpt lat="45.44672678650211" lon="8.06849739114477"><ele>424.00000000000006</ele><time>2026-04-21T13:33:13Z</time></trkpt><trkpt lat="45.446719632903715" lon="8.06840081980618"><ele>424.0</ele><time>2026-04-21T13:33:14Z</time></trkpt><trkpt lat="45.44670210679017" lon="8.068265786655767"><ele>424.0</ele><time>2026-04-21T13:33:16Z</time></trkpt><trkpt lat="45.44666766715609" lon="8.068172264498488"><ele>424.0</ele><time>2026-04-21T13:34:19.999Z</time></trkpt><trkpt lat="45.4466819778683" lon="8.068074557275867"><ele>424.00000000000006</ele><time>2026-04-21T13:34:21.999Z</time></trkpt><trkpt lat="45.446718309512555" lon="8.067984767852014"><ele>424.0</ele><time>2026-04-21T13:34:24.999Z</time></trkpt><trkpt lat="45.44671141279796" lon="8.06788151847663"><ele>424.50000000000006</ele><time>2026-04-21T13:34:26.999Z</time></trkpt><trkpt lat="45.44671448830569" lon="8.067738220627923"><ele>425.0</ele><time>2026-04-21T13:34:29.999Z</time></trkpt><trkpt lat="45.446709244781935" lon="8.067630952670498"><ele>425.5</ele><time>2026-04-21T13:34:31.999Z</time></trkpt><trkpt lat="45.446697458026954" lon="8.06753862230355"><ele>426.0</ele><time>2026-04-21T13:34:34Z</time></trkpt><trkpt lat="45.44670959095627" lon="8.067424046015383"><ele>426.50000000000006</ele><time>2026-04-21T13:34:37Z</time></trkpt><trkpt lat="45.446716089467756" lon="8.067331453439532"><ele>427.0</ele><time>2026-04-21T13:34:40Z</time></trkpt><trkpt lat="45.446702332906185" lon="8.067203771505959"><ele>429.00000000000006</ele><time>2026-04-21T13:34:43Z</time></trkpt><trkpt lat="45.44671622592321" lon="8.067083762106426"><ele>431.0</ele><time>2026-04-21T13:34:46Z</time></trkpt><trkpt lat="45.44674415719535" lon="8.066956446877699"><ele>433.0</ele><time>2026-04-21T13:34:49Z</time></trkpt><trkpt lat="45.44678998601452" lon="8.066851383881465"><ele>435.0</ele><time>2026-04-21T13:34:52Z</time></trkpt><trkpt lat="45.44681179581035" lon="8.066734496725331"><ele>437.00000000000006</ele><time>2026-04-21T13:34:54Z</time></trkpt><trkpt lat="45.446797214308404" lon="8.066632243814455"><ele>439.0</ele><time>2026-04-21T13:34:57Z</time></trkpt><trkpt lat="45.446820594173694" lon="8.066534665306644"><ele>441.0</ele><time>2026-04-21T13:34:59Z</time></trkpt><trkpt lat="45.44688129199128" lon="8.066463800876633"><ele>443.0</ele><time>2026-04-21T13:35:02Z</time></trkpt><trkpt lat="45.44692945134028" lon="8.06635625557878"><ele>445.0</ele><time>2026-04-21T13:35:04Z</time></trkpt><trkpt lat="45.44696667094072" lon="8.066220205101413"><ele>447.0</ele><time>2026-04-21T13:35:06Z</time></trkpt><trkpt lat="45.44698681108758" lon="8.0661268141907"><ele>449.0</ele><time>2026-04-21T13:35:07Z</time></trkpt><trkpt lat="45.447019198090665" lon="8.065957402760182"><ele>449.0</ele><time>2026-04-21T13:35:09Z</time></trkpt><trkpt lat="45.44703934016184" lon="8.065806531842176"><ele>449.0</ele><time>2026-04-21T13:35:11Z</time></trkpt><trkpt lat="45.44706877644006" lon="8.065641907270651"><ele>449.0</ele><time>2026-04-21T13:35:13Z</time></trkpt><trkpt lat="45.447082270580545" lon="8.065527117715552"><ele>449.0</ele><time>2026-04-21T13:35:14Z</time></trkpt><trkpt lat="45.44711319387665" lon="8.065408054656883"><ele>449.0</ele><time>2026-04-21T13:35:15Z</time></trkpt><trkpt lat="45.44714059657358" lon="8.065253554953282"><ele>450.99999999999994</ele><time>2026-04-21T13:35:17Z</time></trkpt><trkpt lat="45.44717589948635" lon="8.065162671425155"><ele>453.0</ele><time>2026-04-21T13:35:18Z</time></trkpt><trkpt lat="45.44722477737694" lon="8.065071599246428"><ele>455.0</ele><time>2026-04-21T13:35:19Z</time></trkpt><trkpt lat="45.447264011108345" lon="8.06498407631397"><ele>457.0</ele><time>2026-04-21T13:35:20Z</time></trkpt><trkpt lat="45.447301189900095" lon="8.064909761715823"><ele>458.99999999999994</ele><time>2026-04-21T13:35:21Z</time></trkpt><trkpt lat="45.44735910833331" lon="8.064840732501382"><ele>461.0</ele><time>2026-04-21T13:35:22Z</time></trkpt><trkpt lat="45.44743364556852" lon="8.06477017571335"><ele>460.99999999999994</ele><time>2026-04-21T13:35:23Z</time></trkpt><trkpt lat="45.447530285375024" lon="8.064694458286986"><ele>461.0</ele><time>2026-04-21T13:35:24Z</time></trkpt><trkpt lat="45.447610357061585" lon="8.06463325389295"><ele>461.0</ele><time>2026-04-21T13:35:25Z</time></trkpt><trkpt lat="45.4476729293918" lon="8.06457719624147"><ele>461.0</ele><time>2026-04-21T13:35:26Z</time></trkpt><trkpt lat="45.447738226810834" lon="8.06450987590902"><ele>460.99999999999994</ele><time>2026-04-21T13:35:27Z</time></trkpt><trkpt lat="45.44780375059065" lon="8.064445109681186"><ele>461.0</ele><time>2026-04-21T13:35:28Z</time></trkpt><trkpt lat="45.44786153322618" lon="8.06438740078802"><ele>460.99999999999994</ele><time>2026-04-21T13:35:29Z</time></trkpt><trkpt lat="45.447894966522306" lon="8.064285961918547"><ele>461.0</ele><time>2026-04-21T13:35:30Z</time></trkpt><trkpt lat="45.44791530057781" lon="8.064194199207284"><ele>461.0</ele><time>2026-04-21T13:35:31Z</time></trkpt><trkpt lat="45.44795334225607" lon="8.064057622301886"><ele>461.0</ele><time>2026-04-21T13:35:33Z</time></trkpt><trkpt lat="45.44803667603706" lon="8.06398834912195"><ele>460.99999999999994</ele><time>2026-04-21T13:36:30.999Z</time></trkpt><trkpt lat="45.44809022864659" lon="8.063870088885071"><ele>461.0</ele><time>2026-04-21T13:36:32.999Z</time></trkpt><trkpt lat="45.448128464725784" lon="8.063740883533846"><ele>460.8</ele><time>2026-04-21T13:36:34.999Z</time></trkpt><trkpt lat="45.44814351580263" lon="8.0636523513249"><ele>460.6</ele><time>2026-04-21T13:36:35.999Z</time></trkpt><trkpt lat="45.44817973405978" lon="8.063519115016755"><ele>460.4</ele><time>2026-04-21T13:36:37.999Z</time></trkpt><trkpt lat="45.44825394455934" lon="8.063402538927168"><ele>460.2</ele><time>2026-04-21T13:36:40Z</time></trkpt><trkpt lat="45.44834023364152" lon="8.063286525082601"><ele>460.0</ele><time>2026-04-21T13:36:42Z</time></trkpt><trkpt lat="45.448391526121476" lon="8.063197801322902"><ele>461.2</ele><time>2026-04-21T13:36:43Z</time></trkpt><trkpt lat="45.44845648330873" lon="8.063062330015805"><ele>462.4</ele><time>2026-04-21T13:36:45Z</time></trkpt><trkpt lat="45.44849229731148" lon="8.062924559253409"><ele>463.6</ele><time>2026-04-21T13:36:47Z</time></trkpt><trkpt lat="45.4485621182082" lon="8.062796153534835"><ele>464.8</ele><time>2026-04-21T13:36:49Z</time></trkpt><trkpt lat="45.44861193886417" lon="8.062732923468783"><ele>466.0</ele><time>2026-04-21T13:36:50Z</time></trkpt><trkpt lat="45.448698611174855" lon="8.062592407671742"><ele>466.0</ele><time>2026-04-21T13:36:52Z</time></trkpt><trkpt lat="45.448741950704374" lon="8.062510214022467"><ele>466.0</ele><time>2026-04-21T13:36:53Z</time></trkpt><trkpt lat="45.44877765454481" lon="8.062433756306739"><ele>466.0</ele><time>2026-04-21T13:36:54Z</time></trkpt><trkpt lat="45.44881898648922" lon="8.062337698231303"><ele>466.0</ele><time>2026-04-21T13:36:55Z</time></trkpt><trkpt lat="45.4488457068242" lon="8.062229515850419"><ele>466.0</ele><time>2026-04-21T13:36:56Z</time></trkpt><trkpt lat="45.44886791372243" lon="8.062145333191303"><ele>466.0</ele><time>2026-04-21T13:36:57Z</time></trkpt><trkpt lat="45.44888370635616" lon="8.062058262582296"><ele>466.0</ele><time>2026-04-21T13:36:58Z</time></trkpt><trkpt lat="45.44894704430901" lon="8.061915751533153"><ele>467.00000000000006</ele><time>2026-04-21T13:37:00Z</time></trkpt><trkpt lat="45.44903303299508" lon="8.061822237305075"><ele>468.0</ele><time>2026-04-21T13:37:02Z</time></trkpt><trkpt lat="45.44909673048273" lon="8.061781044585224"><ele>469.0</ele><time>2026-04-21T13:37:03Z</time></trkpt><trkpt lat="45.449161828195486" lon="8.06173194725408"><ele>470.0</ele><time>2026-04-21T13:37:04Z</time></trkpt><trkpt lat="45.449222098543025" lon="8.06168188853278"><ele>471.00000000000006</ele><time>2026-04-21T13:37:05Z</time></trkpt><trkpt lat="45.449288678399554" lon="8.061627736900938"><ele>472.0</ele><time>2026-04-21T13:37:06Z</time></trkpt><trkpt lat="45.449341341147345" lon="8.061556831851092"><ele>472.00000000000006</ele><time>2026-04-21T13:37:07Z</time></trkpt><trkpt lat="45.44939711048434" lon="8.061510209773436"><ele>472.0</ele><time>2026-04-21T13:37:08Z</time></trkpt><trkpt lat="45.449452309751024" lon="8.061444107715632"><ele>472.0</ele><time>2026-04-21T13:37:09Z</time></trkpt><trkpt lat="45.44949811846614" lon="8.061363434829092"><ele>472.0</ele><time>2026-04-21T13:37:10Z</time></trkpt><trkpt lat="45.449542792171364" lon="8.061263614239206"><ele>472.00000000000006</ele><time>2026-04-21T13:37:11Z</time></trkpt><trkpt lat="45.44960521596096" lon="8.061139685552185"><ele>472.0</ele><time>2026-04-21T13:37:13Z</time></trkpt><trkpt lat="45.449710867426575" lon="8.061066864994574"><ele>470.00000000000006</ele><time>2026-04-21T13:37:15Z</time></trkpt><trkpt lat="45.4497675789725" lon="8.060974570347698"><ele>468.0</ele><time>2026-04-21T13:37:16Z</time></trkpt><trkpt lat="45.449842865386366" lon="8.060846176709296"><ele>466.0</ele><time>2026-04-21T13:37:17Z</time></trkpt><trkpt lat="45.449919522069166" lon="8.060743496574034"><ele>464.0</ele><time>2026-04-21T13:37:18Z</time></trkpt><trkpt lat="45.44997950857144" lon="8.060701229236276"><ele>462.00000000000006</ele><time>2026-04-21T13:37:19Z</time></trkpt><trkpt lat="45.45003996104215" lon="8.060660739095276"><ele>460.0</ele><time>2026-04-21T13:37:20Z</time></trkpt><trkpt lat="45.45010210396738" lon="8.060535774090951"><ele>460.00000000000006</ele><time>2026-04-21T13:37:22Z</time></trkpt><trkpt lat="45.45012330192009" lon="8.06044851275297"><ele>460.0</ele><time>2026-04-21T13:37:24Z</time></trkpt><trkpt lat="45.45016056541391" lon="8.060339021297771"><ele>460.0</ele><time>2026-04-21T13:37:26Z</time></trkpt><trkpt lat="45.450206917101916" lon="8.060247107664022"><ele>460.0</ele><time>2026-04-21T13:37:29Z</time></trkpt><trkpt lat="45.450260241734206" lon="8.060081749172026"><ele>460.00000000000006</ele><time>2026-04-21T13:37:32Z</time></trkpt><trkpt lat="45.45025914651152" lon="8.059967329683339"><ele>460.0</ele><time>2026-04-21T13:37:34Z</time></trkpt><trkpt lat="45.450229296157616" lon="8.05980495815639"><ele>461.6666666666667</ele><time>2026-04-21T13:37:36Z</time></trkpt><trkpt lat="45.450256621212965" lon="8.059674909658373"><ele>463.33333333333337</ele><time>2026-04-21T13:37:38Z</time></trkpt><trkpt lat="45.45026704144232" lon="8.059585452711426"><ele>465.0</ele><time>2026-04-21T13:37:39Z</time></trkpt><trkpt lat="45.45028211459091" lon="8.059461895813323"><ele>466.66666666666663</ele><time>2026-04-21T13:37:40Z</time></trkpt><trkpt lat="45.45028843701382" lon="8.059331217346449"><ele>468.3333333333333</ele><time>2026-04-21T13:37:41Z</time></trkpt><trkpt lat="45.450285006478225" lon="8.059200849550857"><ele>470.0</ele><time>2026-04-21T13:37:42Z</time></trkpt><trkpt lat="45.45029736401412" lon="8.05909947280543"><ele>471.16666666666663</ele><time>2026-04-21T13:37:43Z</time></trkpt><trkpt lat="45.45032975012923" lon="8.059017214406023"><ele>472.3333333333333</ele><time>2026-04-21T13:37:44Z</time></trkpt><trkpt lat="45.45040057086855" lon="8.05888056159777"><ele>473.5</ele><time>2026-04-21T13:37:46Z</time></trkpt><trkpt lat="45.45044118080604" lon="8.058780508255087"><ele>474.66666666666663</ele><time>2026-04-21T13:37:48Z</time></trkpt><trkpt lat="45.45048766452585" lon="8.058707173395828"><ele>475.8333333333333</ele><time>2026-04-21T13:37:50Z</time></trkpt><trkpt lat="45.45055047741856" lon="8.058619185548643"><ele>477.0</ele><time>2026-04-21T13:37:53Z</time></trkpt><trkpt lat="45.45061133968923" lon="8.05850829171282"><ele>474.6</ele><time>2026-04-21T13:37:58Z</time></trkpt><trkpt lat="45.450659824034624" lon="8.058442624229025"><ele>472.20000000000005</ele><time>2026-04-21T13:37:59Z</time></trkpt><trkpt lat="45.45071476094596" lon="8.05826982736128"><ele>469.8</ele><time>2026-04-21T13:38:01Z</time></trkpt><trkpt lat="45.45075021104511" lon="8.058164838172088"><ele>467.4</ele><time>2026-04-21T13:38:02Z</time></trkpt><trkpt lat="45.450791551468036" lon="8.058043540968194"><ele>465.0</ele><time>2026-04-21T13:38:03Z</time></trkpt><trkpt lat="45.45082823434305" lon="8.057933787418834"><ele>465.0</ele><time>2026-04-21T13:38:03.999Z</time></trkpt><trkpt lat="45.450867146999784" lon="8.057822586075838"><ele>465.0</ele><time>2026-04-21T13:38:04.999Z</time></trkpt><trkpt lat="45.45088647431304" lon="8.0577008970995"><ele>465.0</ele><time>2026-04-21T13:38:05.999Z</time></trkpt><trkpt lat="45.450928430576944" lon="8.057605271188628"><ele>465.0</ele><time>2026-04-21T13:38:06.999Z</time></trkpt><trkpt lat="45.4509583307896" lon="8.057513330850115"><ele>465.0</ele><time>2026-04-21T13:38:07.999Z</time></trkpt><trkpt lat="45.45106801421119" lon="8.05729523540305"><ele>465.8</ele><time>2026-04-21T13:38:09.999Z</time></trkpt><trkpt lat="45.451134690224016" lon="8.057243906094326"><ele>466.6</ele><time>2026-04-21T13:38:10.999Z</time></trkpt><trkpt lat="45.45124528478273" lon="8.057169285275206"><ele>467.4</ele><time>2026-04-21T13:38:11.999Z</time></trkpt><trkpt lat="45.45131108625271" lon="8.057065468959589"><ele>468.2</ele><time>2026-04-21T13:38:12.999Z</time></trkpt><trkpt lat="45.45139483111602" lon="8.05692438746228"><ele>469.0</ele><time>2026-04-21T13:38:13.999Z</time></trkpt><trkpt lat="45.45144736833099" lon="8.056859359871849"><ele>467.00000000000006</ele><time>2026-04-21T13:38:15.999Z</time></trkpt><trkpt lat="45.45147314240131" lon="8.056674567358268"><ele>465.0</ele><time>2026-04-21T13:38:17.999Z</time></trkpt><trkpt lat="45.451476673168344" lon="8.056548551236954"><ele>463.0</ele><time>2026-04-21T13:38:18.999Z</time></trkpt><trkpt lat="45.45148012522085" lon="8.056458935737101"><ele>461.0</ele><time>2026-04-21T13:38:19.999Z</time></trkpt><trkpt lat="45.45149739960418" lon="8.056371771721647"><ele>459.00000000000006</ele><time>2026-04-21T13:38:20.999Z</time></trkpt><trkpt lat="45.451498112507615" lon="8.056226098944483"><ele>457.0</ele><time>2026-04-21T13:38:23.999Z</time></trkpt><trkpt lat="45.45146853458046" lon="8.056144143591233"><ele>457.0</ele><time>2026-04-21T13:38:24.999Z</time></trkpt><trkpt lat="45.45140532754424" lon="8.056073441970826"><ele>457.00000000000006</ele><time>2026-04-21T13:38:25.999Z</time></trkpt><trkpt lat="45.45132761561952" lon="8.05598355117731"><ele>457.00000000000006</ele><time>2026-04-21T13:38:26.999Z</time></trkpt><trkpt lat="45.451278915902485" lon="8.055909153805688"><ele>457.0</ele><time>2026-04-21T13:38:27.999Z</time></trkpt><trkpt lat="45.45128777206847" lon="8.055780442979417"><ele>457.0</ele><time>2026-04-21T13:38:30.999Z</time></trkpt><trkpt lat="45.45136588406744" lon="8.055673522420799"><ele>456.83333333333337</ele><time>2026-04-21T13:38:32.999Z</time></trkpt><trkpt lat="45.451418177827186" lon="8.055616102424594"><ele>456.6666666666667</ele><time>2026-04-21T13:38:33.999Z</time></trkpt><trkpt lat="45.45148784628228" lon="8.05552487933956"><ele>456.5</ele><time>2026-04-21T13:38:35.999Z</time></trkpt><trkpt lat="45.45151835665822" lon="8.055423519486146"><ele>456.33333333333337</ele><time>2026-04-21T13:38:36.999Z</time></trkpt><trkpt lat="45.45154571476025" lon="8.055327790381783"><ele>456.1666666666667</ele><time>2026-04-21T13:38:37.999Z</time></trkpt><trkpt lat="45.45159751696386" lon="8.055214955120606"><ele>456.0</ele><time>2026-04-21T13:38:38.999Z</time></trkpt><trkpt lat="45.45168450001445" lon="8.05509366275113"><ele>456.0</ele><time>2026-04-21T13:38:39.999Z</time></trkpt><trkpt lat="45.45174234653242" lon="8.05497414272222"><ele>456.0</ele><time>2026-04-21T13:38:40.999Z</time></trkpt><trkpt lat="45.45178056115439" lon="8.054889594838206"><ele>456.0</ele><time>2026-04-21T13:38:41.999Z</time></trkpt><trkpt lat="45.45181819379924" lon="8.054814823585957"><ele>456.0</ele><time>2026-04-21T13:38:42.999Z</time></trkpt><trkpt lat="45.451847130186344" lon="8.054650203203122"><ele>456.0</ele><time>2026-04-21T13:38:45Z</time></trkpt><trkpt lat="45.451867686466805" lon="8.05455695637527"><ele>456.0</ele><time>2026-04-21T13:38:46Z</time></trkpt><trkpt lat="45.45187466571884" lon="8.054350583031495"><ele>456.3333333333333</ele><time>2026-04-21T13:38:48Z</time></trkpt><trkpt lat="45.45188762903623" lon="8.054227428352641"><ele>456.66666666666663</ele><time>2026-04-21T13:38:49Z</time></trkpt><trkpt lat="45.451898764095596" lon="8.054099710587858"><ele>457.0</ele><time>2026-04-21T13:38:50Z</time></trkpt><trkpt lat="45.45189198137622" lon="8.05398034365801"><ele>457.3333333333333</ele><time>2026-04-21T13:38:51Z</time></trkpt><trkpt lat="45.45187349941576" lon="8.053880840445338"><ele>457.66666666666663</ele><time>2026-04-21T13:38:52Z</time></trkpt><trkpt lat="45.45186345613964" lon="8.053790923213153"><ele>458.0</ele><time>2026-04-21T13:38:53Z</time></trkpt><trkpt lat="45.45185104432444" lon="8.053618372952327"><ele>458.0</ele><time>2026-04-21T13:38:55Z</time></trkpt><trkpt lat="45.45181977928709" lon="8.053487875136698"><ele>457.99999999999994</ele><time>2026-04-21T13:38:57Z</time></trkpt><trkpt lat="45.45181726624167" lon="8.0533580590685"><ele>457.99999999999994</ele><time>2026-04-21T13:38:59Z</time></trkpt><trkpt lat="45.45182184166374" lon="8.053229553761597"><ele>458.0</ele><time>2026-04-21T13:39:01Z</time></trkpt><trkpt lat="45.45180700411229" lon="8.0530544303025"><ele>458.0</ele><time>2026-04-21T13:39:03Z</time></trkpt><trkpt lat="45.451783070378234" lon="8.052920224491332"><ele>456.0</ele><time>2026-04-21T13:39:05Z</time></trkpt><trkpt lat="45.451701658992995" lon="8.052762963768112"><ele>454.0</ele><time>2026-04-21T13:39:07Z</time></trkpt><trkpt lat="45.45165422385228" lon="8.052687247355953"><ele>452.0</ele><time>2026-04-21T13:39:08Z</time></trkpt><trkpt lat="45.45162521674795" lon="8.052531417436645"><ele>450.0</ele><time>2026-04-21T13:39:10Z</time></trkpt><trkpt lat="45.45163754121766" lon="8.05233827474992"><ele>449.3333333333333</ele><time>2026-04-21T13:39:12Z</time></trkpt><trkpt lat="45.45161204228988" lon="8.052239687045633"><ele>448.66666666666663</ele><time>2026-04-21T13:39:13Z</time></trkpt><trkpt lat="45.45159126438514" lon="8.052134068525252"><ele>448.0</ele><time>2026-04-21T13:39:14Z</time></trkpt><trkpt lat="45.45154674196295" lon="8.05201149621119"><ele>447.3333333333333</ele><time>2026-04-21T13:39:15Z</time></trkpt><trkpt lat="45.451519065124145" lon="8.05188780740073"><ele>446.66666666666663</ele><time>2026-04-21T13:39:16Z</time></trkpt><trkpt lat="45.45150398794731" lon="8.051751941805044"><ele>446.0</ele><time>2026-04-21T13:39:17Z</time></trkpt><trkpt lat="45.451496895875444" lon="8.051599682529835"><ele>445.8</ele><time>2026-04-21T13:39:18Z</time></trkpt><trkpt lat="45.451484329101355" lon="8.05145857778087"><ele>445.6</ele><time>2026-04-21T13:39:19Z</time></trkpt><trkpt lat="45.45145460625011" lon="8.051329941862946"><ele>445.4</ele><time>2026-04-21T13:39:20Z</time></trkpt><trkpt lat="45.451463535502064" lon="8.051181743464907"><ele>445.2</ele><time>2026-04-21T13:39:22Z</time></trkpt><trkpt lat="45.45147331347904" lon="8.051063756843147"><ele>445.0</ele><time>2026-04-21T13:39:23Z</time></trkpt><trkpt lat="45.45148413560033" lon="8.050956955385555"><ele>445.00000000000006</ele><time>2026-04-21T13:39:24Z</time></trkpt><trkpt lat="45.45149877322668" lon="8.050853353331755"><ele>445.0</ele><time>2026-04-21T13:39:25Z</time></trkpt><trkpt lat="45.45154805933038" lon="8.05071884884501"><ele>445.0</ele><time>2026-04-21T13:39:26Z</time></trkpt><trkpt lat="45.45157671178102" lon="8.050607459998858"><ele>445.0</ele><time>2026-04-21T13:39:27Z</time></trkpt><trkpt lat="45.4515999383128" lon="8.050502490684469"><ele>445.00000000000006</ele><time>2026-04-21T13:39:28Z</time></trkpt><trkpt lat="45.45165894503437" lon="8.050399307259957"><ele>445.0</ele><time>2026-04-21T13:39:30Z</time></trkpt><trkpt lat="45.45170420899212" lon="8.050299143350841"><ele>444.83333333333337</ele><time>2026-04-21T13:39:32Z</time></trkpt><trkpt lat="45.451714446119865" lon="8.050193269133548"><ele>444.6666666666667</ele><time>2026-04-21T13:39:34Z</time></trkpt><trkpt lat="45.451651540340784" lon="8.050089271641577"><ele>444.5</ele><time>2026-04-21T13:39:36Z</time></trkpt><trkpt lat="45.45161963229286" lon="8.049979259884447"><ele>444.33333333333337</ele><time>2026-04-21T13:39:38Z</time></trkpt><trkpt lat="45.45164553651829" lon="8.049896930645936"><ele>444.1666666666667</ele><time>2026-04-21T13:39:39Z</time></trkpt><trkpt lat="45.45168874207741" lon="8.049820211993826"><ele>444.0</ele><time>2026-04-21T13:39:40Z</time></trkpt><trkpt lat="45.451771297376894" lon="8.049766497527072"><ele>443.79999999999995</ele><time>2026-04-21T13:39:42Z</time></trkpt><trkpt lat="45.45188319955826" lon="8.049783183459544"><ele>443.59999999999997</ele><time>2026-04-21T13:39:44Z</time></trkpt><trkpt lat="45.45196190462738" lon="8.049787312946533"><ele>443.4</ele><time>2026-04-21T13:39:45Z</time></trkpt><trkpt lat="45.45207626624511" lon="8.04976023725498"><ele>443.2</ele><time>2026-04-21T13:39:47Z</time></trkpt><trkpt lat="45.45215056752624" lon="8.049723635043167"><ele>443.0</ele><time>2026-04-21T13:39:48Z</time></trkpt><trkpt lat="45.452227089220315" lon="8.04965524279837"><ele>443.0</ele><time>2026-04-21T13:39:49Z</time></trkpt><trkpt lat="45.45228999448352" lon="8.049580491669397"><ele>442.99999999999994</ele><time>2026-04-21T13:39:50Z</time></trkpt><trkpt lat="45.452362892251074" lon="8.049500598425439"><ele>442.99999999999994</ele><time>2026-04-21T13:39:51Z</time></trkpt><trkpt lat="45.45243822423132" lon="8.04941203913583"><ele>443.0</ele><time>2026-04-21T13:39:52Z</time></trkpt><trkpt lat="45.4525068258703" lon="8.049322793376922"><ele>443.0</ele><time>2026-04-21T13:39:53Z</time></trkpt><trkpt lat="45.45257242839529" lon="8.049225977807021"><ele>443.0</ele><time>2026-04-21T13:39:54Z</time></trkpt><trkpt lat="45.45264908261808" lon="8.049125833224075"><ele>442.99999999999994</ele><time>2026-04-21T13:39:55Z</time></trkpt><trkpt lat="45.45271200906267" lon="8.049055453720563"><ele>442.99999999999994</ele><time>2026-04-21T13:39:55.999Z</time></trkpt><trkpt lat="45.452768727974814" lon="8.048921245844673"><ele>443.0</ele><time>2026-04-21T13:39:57.999Z</time></trkpt><trkpt lat="45.45275352058688" lon="8.0488058150065"><ele>443.0</ele><time>2026-04-21T13:39:59.999Z</time></trkpt><trkpt lat="45.45268130404757" lon="8.048670437076836"><ele>443.99999999999994</ele><time>2026-04-21T13:40:01.999Z</time></trkpt><trkpt lat="45.45266855941799" lon="8.048579478144834"><ele>445.0</ele><time>2026-04-21T13:40:02.999Z</time></trkpt><trkpt lat="45.45267615644038" lon="8.048479479124737"><ele>446.0</ele><time>2026-04-21T13:40:03.999Z</time></trkpt><trkpt lat="45.452693098050666" lon="8.048385490855598"><ele>447.0</ele><time>2026-04-21T13:40:04.999Z</time></trkpt><trkpt lat="45.45270642334971" lon="8.048294589561976"><ele>447.99999999999994</ele><time>2026-04-21T13:40:05.999Z</time></trkpt><trkpt lat="45.45269532920609" lon="8.04818529009852"><ele>449.0</ele><time>2026-04-21T13:40:06.999Z</time></trkpt><trkpt lat="45.45270379284241" lon="8.047996670514983"><ele>449.0</ele><time>2026-04-21T13:40:08.999Z</time></trkpt><trkpt lat="45.45276241614459" lon="8.04784414841666"><ele>449.0</ele><time>2026-04-21T13:40:10.999Z</time></trkpt><trkpt lat="45.45278643422818" lon="8.047693287970857"><ele>449.0</ele><time>2026-04-21T13:40:12.999Z</time></trkpt><trkpt lat="45.45274657069614" lon="8.047536939567095"><ele>449.0</ele><time>2026-04-21T13:40:14.999Z</time></trkpt><trkpt lat="45.452704959286585" lon="8.047444857782711"><ele>449.0</ele><time>2026-04-21T13:40:15.999Z</time></trkpt><trkpt lat="45.452672971665784" lon="8.04734828586465"><ele>448.99999999999994</ele><time>2026-04-21T13:40:16.999Z</time></trkpt><trkpt lat="45.45262542446725" lon="8.047237740505361"><ele>449.0</ele><time>2026-04-21T13:40:17.999Z</time></trkpt><trkpt lat="45.45259371044853" lon="8.047140886126774"><ele>449.0</ele><time>2026-04-21T13:40:18.999Z</time></trkpt><trkpt lat="45.45256297866129" lon="8.047055721592434"><ele>449.0</ele><time>2026-04-21T13:40:19.999Z</time></trkpt><trkpt lat="45.45252475229534" lon="8.046977837286443"><ele>448.99999999999994</ele><time>2026-04-21T13:40:20.999Z</time></trkpt><trkpt lat="45.45245731149539" lon="8.046867867985572"><ele>449.0</ele><time>2026-04-21T13:40:22.999Z</time></trkpt><trkpt lat="45.45241037616641" lon="8.046771693978329"><ele>448.99999999999994</ele><time>2026-04-21T13:40:23.999Z</time></trkpt><trkpt lat="45.45237161424794" lon="8.046682388525252"><ele>449.0</ele><time>2026-04-21T13:40:24.999Z</time></trkpt><trkpt lat="45.45232963300742" lon="8.046601461241062"><ele>449.0</ele><time>2026-04-21T13:40:25.999Z</time></trkpt><trkpt lat="45.45227765655052" lon="8.04650368755347"><ele>449.0</ele><time>2026-04-21T13:40:26.999Z</time></trkpt><trkpt lat="45.45221115547818" lon="8.04639105145093"><ele>448.99999999999994</ele><time>2026-04-21T13:40:27.999Z</time></trkpt><trkpt lat="45.45213544479054" lon="8.046266309272804"><ele>449.0</ele><time>2026-04-21T13:40:28.999Z</time></trkpt><trkpt lat="45.452051503363535" lon="8.046140942526208"><ele>450.6</ele><time>2026-04-21T13:40:29.999Z</time></trkpt><trkpt lat="45.45198351820866" lon="8.046042086373156"><ele>452.2</ele><time>2026-04-21T13:40:30.999Z</time></trkpt><trkpt lat="45.45190121650214" lon="8.045943315088477"><ele>453.80000000000007</ele><time>2026-04-21T13:40:31.999Z</time></trkpt><trkpt lat="45.45183287143275" lon="8.045855273100596"><ele>455.40000000000003</ele><time>2026-04-21T13:40:32.999Z</time></trkpt><trkpt lat="45.45176645185188" lon="8.04574587043533"><ele>457.0</ele><time>2026-04-21T13:40:33.999Z</time></trkpt><trkpt lat="45.451691260683305" lon="8.045593026638754"><ele>457.0</ele><time>2026-04-21T13:40:34.999Z</time></trkpt><trkpt lat="45.45163183137404" lon="8.045463453124526"><ele>457.0</ele><time>2026-04-21T13:40:35.999Z</time></trkpt><trkpt lat="45.45158189268312" lon="8.045325323253897"><ele>457.0</ele><time>2026-04-21T13:40:36.999Z</time></trkpt><trkpt lat="45.45153597736749" lon="8.045164690729147"><ele>457.0</ele><time>2026-04-21T13:40:37.999Z</time></trkpt><trkpt lat="45.4514891244324" lon="8.04501455094781"><ele>456.40000000000003</ele><time>2026-04-21T13:40:38.999Z</time></trkpt><trkpt lat="45.451443009158304" lon="8.044898333906028"><ele>455.80000000000007</ele><time>2026-04-21T13:40:39.999Z</time></trkpt><trkpt lat="45.45138883642115" lon="8.044776896516298"><ele>455.2</ele><time>2026-04-21T13:40:40.999Z</time></trkpt><trkpt lat="45.45133234426001" lon="8.044661746608677"><ele>454.6</ele><time>2026-04-21T13:40:41.999Z</time></trkpt><trkpt lat="45.451295771849644" lon="8.044538406799028"><ele>454.0</ele><time>2026-04-21T13:40:42.999Z</time></trkpt><trkpt lat="45.45126260464292" lon="8.04441472620113"><ele>455.00000000000006</ele><time>2026-04-21T13:40:43.999Z</time></trkpt><trkpt lat="45.45122300077452" lon="8.044299383544873"><ele>456.0</ele><time>2026-04-21T13:40:44.999Z</time></trkpt><trkpt lat="45.451195315398714" lon="8.044180985557299"><ele>457.0</ele><time>2026-04-21T13:40:45.999Z</time></trkpt><trkpt lat="45.45116983911986" lon="8.044095268822032"><ele>458.0</ele><time>2026-04-21T13:40:46.999Z</time></trkpt><trkpt lat="45.45114178449068" lon="8.043940569308612"><ele>459.00000000000006</ele><time>2026-04-21T13:40:48.999Z</time></trkpt><trkpt lat="45.4511383474251" lon="8.04384537317433"><ele>460.0</ele><time>2026-04-21T13:40:50Z</time></trkpt><trkpt lat="45.451131279027386" lon="8.043750108506845"><ele>460.0</ele><time>2026-04-21T13:40:51Z</time></trkpt><trkpt lat="45.45112090960456" lon="8.043636986111748"><ele>460.0</ele><time>2026-04-21T13:40:52Z</time></trkpt><trkpt lat="45.451107933056555" lon="8.043507331591217"><ele>460.0</ele><time>2026-04-21T13:40:53Z</time></trkpt><trkpt lat="45.45110721729446" lon="8.043356259847581"><ele>460.0</ele><time>2026-04-21T13:40:54Z</time></trkpt><trkpt lat="45.45110056518608" lon="8.043189283105546"><ele>460.0</ele><time>2026-04-21T13:40:55Z</time></trkpt><trkpt lat="45.45107992227475" lon="8.043027686741153"><ele>460.2</ele><time>2026-04-21T13:40:56Z</time></trkpt><trkpt lat="45.45106022447778" lon="8.042891775077804"><ele>460.4</ele><time>2026-04-21T13:40:57Z</time></trkpt><trkpt lat="45.45105281047597" lon="8.042763284801481"><ele>460.6</ele><time>2026-04-21T13:40:58Z</time></trkpt><trkpt lat="45.45106421885648" lon="8.042626010234672"><ele>460.8</ele><time>2026-04-21T13:40:59Z</time></trkpt><trkpt lat="45.45108452855622" lon="8.042477838856577"><ele>461.0</ele><time>2026-04-21T13:41:00Z</time></trkpt><trkpt lat="45.45110040830614" lon="8.042358602742276"><ele>461.20000000000005</ele><time>2026-04-21T13:41:01Z</time></trkpt><trkpt lat="45.45110894373791" lon="8.042238168055095"><ele>461.40000000000003</ele><time>2026-04-21T13:41:02Z</time></trkpt><trkpt lat="45.4511038017916" lon="8.042061507866876"><ele>461.6</ele><time>2026-04-21T13:41:04Z</time></trkpt><trkpt lat="45.45106638644395" lon="8.041955975769207"><ele>461.8</ele><time>2026-04-21T13:41:05Z</time></trkpt><trkpt lat="45.45100676590947" lon="8.041875198423565"><ele>462.0</ele><time>2026-04-21T13:41:06Z</time></trkpt><trkpt lat="45.450906845231266" lon="8.041793007179553"><ele>462.0</ele><time>2026-04-21T13:41:07Z</time></trkpt><trkpt lat="45.45080718105991" lon="8.041699940594787"><ele>462.00000000000006</ele><time>2026-04-21T13:41:08Z</time></trkpt><trkpt lat="45.450731750857294" lon="8.041598991081262"><ele>462.00000000000006</ele><time>2026-04-21T13:41:09Z</time></trkpt><trkpt lat="45.450669129597635" lon="8.041487531342723"><ele>462.0</ele><time>2026-04-21T13:41:10Z</time></trkpt><trkpt lat="45.45060483998929" lon="8.04136626617102"><ele>462.0</ele><time>2026-04-21T13:41:11Z</time></trkpt><trkpt lat="45.45055851131129" lon="8.04127683128289"><ele>462.0</ele><time>2026-04-21T13:41:12Z</time></trkpt><trkpt lat="45.45055046008139" lon="8.041161820783865"><ele>462.0</ele><time>2026-04-21T13:41:14Z</time></trkpt><trkpt lat="45.450609589551" lon="8.041013139540947"><ele>462.0</ele><time>2026-04-21T13:41:16Z</time></trkpt><trkpt lat="45.450654297492655" lon="8.040934305283063"><ele>462.0</ele><time>2026-04-21T13:41:17Z</time></trkpt><trkpt lat="45.45068853709067" lon="8.040856968381085"><ele>462.0</ele><time>2026-04-21T13:41:18Z</time></trkpt><trkpt lat="45.45070251293134" lon="8.040731878373823"><ele>462.0</ele><time>2026-04-21T13:41:20Z</time></trkpt><trkpt lat="45.450647609676366" lon="8.040623626872794"><ele>462.0</ele><time>2026-04-21T13:41:22Z</time></trkpt><trkpt lat="45.45058218902274" lon="8.04054318337575"><ele>462.00000000000006</ele><time>2026-04-21T13:41:23Z</time></trkpt><trkpt lat="45.45050742298567" lon="8.040456395676925"><ele>462.00000000000006</ele><time>2026-04-21T13:41:24Z</time></trkpt><trkpt lat="45.45044578515311" lon="8.040367644704766"><ele>462.0</ele><time>2026-04-21T13:41:25Z</time></trkpt><trkpt lat="45.450384612118896" lon="8.040229411521686"><ele>462.0</ele><time>2026-04-21T13:41:26Z</time></trkpt><trkpt lat="45.4503301402076" lon="8.04005058426945"><ele>457.5</ele><time>2026-04-21T13:41:27Z</time></trkpt><trkpt lat="45.450283533823935" lon="8.03986333148023"><ele>453.0</ele><time>2026-04-21T13:41:28Z</time></trkpt><trkpt lat="45.45023725588794" lon="8.039701438024805"><ele>448.5</ele><time>2026-04-21T13:41:29Z</time></trkpt><trkpt lat="45.45018421810178" lon="8.039554355561759"><ele>444.0</ele><time>2026-04-21T13:41:30Z</time></trkpt><trkpt lat="45.45012982316165" lon="8.039410492631678"><ele>444.0</ele><time>2026-04-21T13:41:31Z</time></trkpt><trkpt lat="45.45007713837735" lon="8.039272374260378"><ele>444.0</ele><time>2026-04-21T13:41:32Z</time></trkpt><trkpt lat="45.45001690716258" lon="8.039144943847754"><ele>444.0</ele><time>2026-04-21T13:41:33Z</time></trkpt><trkpt lat="45.44996268955499" lon="8.039036124161846"><ele>444.0</ele><time>2026-04-21T13:41:34Z</time></trkpt><trkpt lat="45.44991776867245" lon="8.038958256127485"><ele>444.0</ele><time>2026-04-21T13:41:35Z</time></trkpt><trkpt lat="45.44985282823572" lon="8.038876603125985"><ele>444.0</ele><time>2026-04-21T13:41:37Z</time></trkpt><trkpt lat="45.449806977170006" lon="8.038810627110827"><ele>444.0</ele><time>2026-04-21T13:41:42Z</time></trkpt><trkpt lat="45.44973646104444" lon="8.038828008771967"><ele>444.0</ele><time>2026-04-21T13:41:44Z</time></trkpt><trkpt lat="45.4497326818097" lon="8.038932087799196"><ele>444.0</ele><time>2026-04-21T13:41:46Z</time></trkpt><trkpt lat="45.449802490672525" lon="8.039006500630947"><ele>444.0</ele><time>2026-04-21T13:41:49Z</time></trkpt><trkpt lat="45.449736857747865" lon="8.038994421827466"><ele>444.0</ele><time>2026-04-21T13:42:22.999Z</time></trkpt><trkpt lat="45.44966997157995" lon="8.038975080498169"><ele>444.0</ele><time>2026-04-21T13:42:28.999Z</time></trkpt><trkpt lat="45.449730093590865" lon="8.03891276501317"><ele>444.0</ele><time>2026-04-21T13:44:51.029Z</time></trkpt><trkpt lat="45.44964189599185" lon="8.03895522729241"><ele>444.0</ele><time>2026-04-21T13:45:19.012Z</time></trkpt><trkpt lat="45.44973988604288" lon="8.038907818791017"><ele>444.0</ele><time>2026-04-21T13:46:32.016Z</time></trkpt><trkpt lat="45.449686736885866" lon="8.03897888130113"><ele>444.0</ele><time>2026-04-21T13:46:42Z</time></trkpt><trkpt lat="45.44975131751578" lon="8.038984638100144"><ele>444.0</ele><time>2026-04-21T14:11:49Z</time></trkpt><trkpt lat="45.449819410387654" lon="8.039031823199716"><ele>444.0</ele><time>2026-04-21T14:13:00Z</time></trkpt><trkpt lat="45.44976441945137" lon="8.039095017535013"><ele>444.0</ele><time>2026-04-21T14:13:04Z</time></trkpt><trkpt lat="45.449701341294244" lon="8.039075329010469"><ele>444.0</ele><time>2026-04-21T14:13:30Z</time></trkpt><trkpt lat="45.449668905639506" lon="8.039204070266628"><ele>444.0</ele><time>2026-04-21T14:13:32Z</time></trkpt><trkpt lat="45.449671120828945" lon="8.03939800695557"><ele>444.0</ele><time>2026-04-21T14:13:34Z</time></trkpt><trkpt lat="45.44967040113695" lon="8.039490765459988"><ele>444.0</ele><time>2026-04-21T14:13:35Z</time></trkpt><trkpt lat="45.44966879847227" lon="8.039583157964417"><ele>444.0</ele><time>2026-04-21T14:13:36Z</time></trkpt><trkpt lat="45.44967046113284" lon="8.039682545252788"><ele>444.0</ele><time>2026-04-21T14:13:37Z</time></trkpt><trkpt lat="45.44966664154608" lon="8.039785520105639"><ele>444.0</ele><time>2026-04-21T14:13:38Z</time></trkpt><trkpt lat="45.44966568119041" lon="8.03989894546407"><ele>444.0</ele><time>2026-04-21T14:13:39Z</time></trkpt><trkpt lat="45.449665235489235" lon="8.040038116215964"><ele>444.0</ele><time>2026-04-21T14:13:40Z</time></trkpt><trkpt lat="45.449666787285715" lon="8.04016378244207"><ele>444.0</ele><time>2026-04-21T14:13:41Z</time></trkpt><trkpt lat="45.44966769064555" lon="8.040266916525548"><ele>444.0</ele><time>2026-04-21T14:13:42Z</time></trkpt><trkpt lat="45.44966828506173" lon="8.040364975964076"><ele>444.0</ele><time>2026-04-21T14:13:43Z</time></trkpt><trkpt lat="45.44966744011241" lon="8.040500957950629"><ele>444.0</ele><time>2026-04-21T14:13:44Z</time></trkpt><trkpt lat="45.44966798777375" lon="8.040653378030289"><ele>444.0</ele><time>2026-04-21T14:13:45Z</time></trkpt><trkpt lat="45.44967140073345" lon="8.040778742572531"><ele>444.0</ele><time>2026-04-21T14:13:46Z</time></trkpt><trkpt lat="45.449675572804914" lon="8.040882962567634"><ele>444.0</ele><time>2026-04-21T14:13:47Z</time></trkpt><trkpt lat="45.44967143970867" lon="8.040998801722496"><ele>444.0</ele><time>2026-04-21T14:13:48Z</time></trkpt><trkpt lat="45.44966706344816" lon="8.04114930138606"><ele>443.79999999999995</ele><time>2026-04-21T14:13:49Z</time></trkpt><trkpt lat="45.44966251158666" lon="8.041310696934225"><ele>443.59999999999997</ele><time>2026-04-21T14:13:50Z</time></trkpt><trkpt lat="45.44966563447678" lon="8.041459832315342"><ele>443.4</ele><time>2026-04-21T14:13:51Z</time></trkpt><trkpt lat="45.44966502380526" lon="8.041602027516435"><ele>443.2</ele><time>2026-04-21T14:13:52Z</time></trkpt><trkpt lat="45.449658164696174" lon="8.041733980122618"><ele>443.0</ele><time>2026-04-21T14:13:53Z</time></trkpt><trkpt lat="45.449653920949935" lon="8.041880054792856"><ele>443.0</ele><time>2026-04-21T14:13:54Z</time></trkpt><trkpt lat="45.44964759604987" lon="8.042037098980193"><ele>442.99999999999994</ele><time>2026-04-21T14:13:55.001Z</time></trkpt><trkpt lat="45.449634935883154" lon="8.04218177744024"><ele>442.99999999999994</ele><time>2026-04-21T14:13:56.001Z</time></trkpt><trkpt lat="45.449622324725404" lon="8.042326442673756"><ele>443.0</ele><time>2026-04-21T14:13:57.001Z</time></trkpt><trkpt lat="45.449615675906486" lon="8.042475061551134"><ele>443.0</ele><time>2026-04-21T14:13:58.001Z</time></trkpt><trkpt lat="45.449601652936764" lon="8.042615260282162"><ele>441.2</ele><time>2026-04-21T14:13:59.001Z</time></trkpt><trkpt lat="45.44958200176521" lon="8.042760110159069"><ele>439.4</ele><time>2026-04-21T14:14:00.001Z</time></trkpt><trkpt lat="45.44956432314147" lon="8.042904262055702"><ele>437.59999999999997</ele><time>2026-04-21T14:14:01.001Z</time></trkpt><trkpt lat="45.44954326965575" lon="8.04304933647503"><ele>435.79999999999995</ele><time>2026-04-21T14:14:02.001Z</time></trkpt><trkpt lat="45.44950385935367" lon="8.043180230121928"><ele>434.0</ele><time>2026-04-21T14:14:03.001Z</time></trkpt><trkpt lat="45.44946565395134" lon="8.043304432159262"><ele>434.0</ele><time>2026-04-21T14:14:04.001Z</time></trkpt><trkpt lat="45.44942140604362" lon="8.043451232856972"><ele>434.0</ele><time>2026-04-21T14:14:05.001Z</time></trkpt><trkpt lat="45.449332457051824" lon="8.043544857809513"><ele>434.0</ele><time>2026-04-21T14:14:06.001Z</time></trkpt><trkpt lat="45.44926406162468" lon="8.043643798762208"><ele>434.0</ele><time>2026-04-21T14:14:07.001Z</time></trkpt><trkpt lat="45.44920312098268" lon="8.043731955575455"><ele>434.0</ele><time>2026-04-21T14:14:08.001Z</time></trkpt><trkpt lat="45.449145720610204" lon="8.04381315026168"><ele>434.0</ele><time>2026-04-21T14:14:09.001Z</time></trkpt><trkpt lat="45.449090748286636" lon="8.043890468047039"><ele>434.0</ele><time>2026-04-21T14:14:10.001Z</time></trkpt><trkpt lat="45.44903679583478" lon="8.043962280944015"><ele>434.0</ele><time>2026-04-21T14:14:11.001Z</time></trkpt><trkpt lat="45.448976520751664" lon="8.04402750176848"><ele>434.0</ele><time>2026-04-21T14:14:12.001Z</time></trkpt><trkpt lat="45.448916735331984" lon="8.0440871460019"><ele>434.0</ele><time>2026-04-21T14:14:13.001Z</time></trkpt><trkpt lat="45.44886065292101" lon="8.044138727289889"><ele>434.0</ele><time>2026-04-21T14:14:14.001Z</time></trkpt><trkpt lat="45.44880755299144" lon="8.04418762022322"><ele>434.0</ele><time>2026-04-21T14:14:15.001Z</time></trkpt><trkpt lat="45.44874977088555" lon="8.044244888106107"><ele>433.8333333333333</ele><time>2026-04-21T14:14:16.001Z</time></trkpt><trkpt lat="45.44869617989938" lon="8.04429718582122"><ele>433.66666666666663</ele><time>2026-04-21T14:14:17.001Z</time></trkpt><trkpt lat="45.448618089472255" lon="8.044371057074045"><ele>433.5</ele><time>2026-04-21T14:14:19.001Z</time></trkpt><trkpt lat="45.44854349113008" lon="8.044434875689474"><ele>433.33333333333337</ele><time>2026-04-21T14:14:21.001Z</time></trkpt><trkpt lat="45.44847633826981" lon="8.044478864577504"><ele>433.1666666666667</ele><time>2026-04-21T14:14:23.001Z</time></trkpt><trkpt lat="45.448419017067614" lon="8.044536669449167"><ele>433.0</ele><time>2026-04-21T14:14:27Z</time></trkpt><trkpt lat="45.448364135293716" lon="8.04458432079128"><ele>432.6666666666667</ele><time>2026-04-21T14:14:33Z</time></trkpt><trkpt lat="45.44844378533942" lon="8.045078491331873"><ele>432.33333333333337</ele><time>2026-04-21T14:14:59Z</time></trkpt><trkpt lat="45.44843042051118" lon="8.04519043638698"><ele>432.0</ele><time>2026-04-21T14:15:02Z</time></trkpt><trkpt lat="45.44841493124668" lon="8.045389540753158"><ele>432.0</ele><time>2026-04-21T14:15:04Z</time></trkpt><trkpt lat="45.44841255299559" lon="8.04551628455628"><ele>432.00000000000006</ele><time>2026-04-21T14:15:05Z</time></trkpt><trkpt lat="45.448414702924985" lon="8.045670034195235"><ele>432.00000000000006</ele><time>2026-04-21T14:15:06Z</time></trkpt><trkpt lat="45.448421594880166" lon="8.045814760301385"><ele>432.0</ele><time>2026-04-21T14:15:07Z</time></trkpt><trkpt lat="45.44843132966777" lon="8.045950901740149"><ele>432.0</ele><time>2026-04-21T14:15:08Z</time></trkpt><trkpt lat="45.448451608583945" lon="8.046065695383154"><ele>431.8</ele><time>2026-04-21T14:15:09Z</time></trkpt><trkpt lat="45.44848384384274" lon="8.046193005059045"><ele>431.6</ele><time>2026-04-21T14:15:10Z</time></trkpt><trkpt lat="45.44853961000337" lon="8.046346464103745"><ele>431.40000000000003</ele><time>2026-04-21T14:15:11Z</time></trkpt><trkpt lat="45.448597349567336" lon="8.046490747258895"><ele>431.20000000000005</ele><time>2026-04-21T14:15:12Z</time></trkpt><trkpt lat="45.44865718449296" lon="8.046631435798087"><ele>431.0</ele><time>2026-04-21T14:15:13Z</time></trkpt><trkpt lat="45.44870763996344" lon="8.04676295230572"><ele>430.75</ele><time>2026-04-21T14:15:14Z</time></trkpt><trkpt lat="45.44875470897903" lon="8.04691111000742"><ele>430.5</ele><time>2026-04-21T14:15:15Z</time></trkpt><trkpt lat="45.44878988848376" lon="8.047063857355075"><ele>430.25</ele><time>2026-04-21T14:15:16Z</time></trkpt><trkpt lat="45.44881721926269" lon="8.04722008024193"><ele>430.0</ele><time>2026-04-21T14:15:17Z</time></trkpt><trkpt lat="45.448830753671054" lon="8.04738556199894"><ele>432.5</ele><time>2026-04-21T14:15:18Z</time></trkpt><trkpt lat="45.4488373681431" lon="8.04757644561442"><ele>435.0</ele><time>2026-04-21T14:15:19Z</time></trkpt><trkpt lat="45.44885567086682" lon="8.047767345012888"><ele>437.5</ele><time>2026-04-21T14:15:20Z</time></trkpt><trkpt lat="45.448869112060876" lon="8.04793061543835"><ele>440.0</ele><time>2026-04-21T14:15:21Z</time></trkpt><trkpt lat="45.4488776096987" lon="8.048095326631687"><ele>440.0</ele><time>2026-04-21T14:15:22Z</time></trkpt><trkpt lat="45.44887860403867" lon="8.04826865356703"><ele>440.0</ele><time>2026-04-21T14:15:23Z</time></trkpt><trkpt lat="45.44887408286802" lon="8.048452953465421"><ele>440.0</ele><time>2026-04-21T14:15:24Z</time></trkpt><trkpt lat="45.44886220275543" lon="8.04864818308128"><ele>440.0</ele><time>2026-04-21T14:15:25Z</time></trkpt><trkpt lat="45.448850750090536" lon="8.048843624523375"><ele>439.75</ele><time>2026-04-21T14:15:26Z</time></trkpt><trkpt lat="45.4488362613474" lon="8.04903148273569"><ele>439.5</ele><time>2026-04-21T14:15:27Z</time></trkpt><trkpt lat="45.4488136673534" lon="8.049198931747059"><ele>439.25</ele><time>2026-04-21T14:15:28Z</time></trkpt><trkpt lat="45.44878071498397" lon="8.049352559802168"><ele>439.0</ele><time>2026-04-21T14:15:29Z</time></trkpt><trkpt lat="45.448748247668824" lon="8.04949728923577"><ele>439.0</ele><time>2026-04-21T14:15:30Z</time></trkpt><trkpt lat="45.44873916847374" lon="8.049661404268619"><ele>439.0</ele><time>2026-04-21T14:15:31Z</time></trkpt><trkpt lat="45.448737787961754" lon="8.049851669531074"><ele>439.0</ele><time>2026-04-21T14:15:32Z</time></trkpt><trkpt lat="45.448732504382946" lon="8.050039868020434"><ele>439.0</ele><time>2026-04-21T14:15:33Z</time></trkpt><trkpt lat="45.44873118787574" lon="8.0501896440727"><ele>438.83333333333337</ele><time>2026-04-21T14:15:34Z</time></trkpt><trkpt lat="45.44873000170915" lon="8.050318220664877"><ele>438.6666666666667</ele><time>2026-04-21T14:15:35Z</time></trkpt><trkpt lat="45.44872453495485" lon="8.05043069999723"><ele>438.5</ele><time>2026-04-21T14:15:36Z</time></trkpt><trkpt lat="45.44870902950318" lon="8.050528613928828"><ele>438.33333333333337</ele><time>2026-04-21T14:15:37Z</time></trkpt><trkpt lat="45.44868063563541" lon="8.05061106805753"><ele>438.1666666666667</ele><time>2026-04-21T14:15:38Z</time></trkpt><trkpt lat="45.44858567351358" lon="8.050682181961843"><ele>438.0</ele><time>2026-04-21T14:15:40Z</time></trkpt><trkpt lat="45.44850540206936" lon="8.050680493888184"><ele>438.0</ele><time>2026-04-21T14:15:41Z</time></trkpt><trkpt lat="45.448427326492926" lon="8.050678168804563"><ele>438.0</ele><time>2026-04-21T14:15:42Z</time></trkpt><trkpt lat="45.4483613808785" lon="8.050701541284853"><ele>438.0</ele><time>2026-04-21T14:15:43Z</time></trkpt><trkpt lat="45.44830721979328" lon="8.050775626261595"><ele>438.0</ele><time>2026-04-21T14:15:44Z</time></trkpt><trkpt lat="45.44824789359708" lon="8.050878098939066"><ele>438.0</ele><time>2026-04-21T14:15:45Z</time></trkpt><trkpt lat="45.44817212909671" lon="8.050984785428923"><ele>438.0</ele><time>2026-04-21T14:15:46Z</time></trkpt><trkpt lat="45.44807147586748" lon="8.05109518942132"><ele>437.75</ele><time>2026-04-21T14:15:47Z</time></trkpt><trkpt lat="45.447963374758025" lon="8.051178494500517"><ele>437.5</ele><time>2026-04-21T14:15:48Z</time></trkpt><trkpt lat="45.447844025971456" lon="8.051242166464174"><ele>437.25</ele><time>2026-04-21T14:15:49Z</time></trkpt><trkpt lat="45.44772949952436" lon="8.051291726311186"><ele>437.0</ele><time>2026-04-21T14:15:50Z</time></trkpt><trkpt lat="45.44761365660832" lon="8.051330359094345"><ele>437.5</ele><time>2026-04-21T14:15:51Z</time></trkpt><trkpt lat="45.44748702322475" lon="8.051355157475989"><ele>438.0</ele><time>2026-04-21T14:15:52Z</time></trkpt><trkpt lat="45.447357364493996" lon="8.05137768604911"><ele>438.5</ele><time>2026-04-21T14:15:53Z</time></trkpt><trkpt lat="45.44724783571856" lon="8.051394846701351"><ele>439.0</ele><time>2026-04-21T14:15:54Z</time></trkpt><trkpt lat="45.44715058044253" lon="8.051408937126592"><ele>439.79999999999995</ele><time>2026-04-21T14:15:55Z</time></trkpt><trkpt lat="45.44707285919934" lon="8.051426725629275"><ele>440.59999999999997</ele><time>2026-04-21T14:15:56Z</time></trkpt><trkpt lat="45.447013576954504" lon="8.051473131391386"><ele>441.4</ele><time>2026-04-21T14:15:57Z</time></trkpt><trkpt lat="45.44694798781462" lon="8.051551180194085"><ele>442.2</ele><time>2026-04-21T14:15:58Z</time></trkpt><trkpt lat="45.446863674757005" lon="8.051656171660373"><ele>443.0</ele><time>2026-04-21T14:15:59Z</time></trkpt><trkpt lat="45.44677798619083" lon="8.05175772250823"><ele>440.75</ele><time>2026-04-21T14:16:00Z</time></trkpt><trkpt lat="45.44668902348571" lon="8.051869513249816"><ele>438.5</ele><time>2026-04-21T14:16:01.001Z</time></trkpt><trkpt lat="45.44660441965636" lon="8.051973545750412"><ele>436.25</ele><time>2026-04-21T14:16:02.001Z</time></trkpt><trkpt lat="45.446516678981986" lon="8.05208015055827"><ele>434.0</ele><time>2026-04-21T14:16:03.001Z</time></trkpt><trkpt lat="45.44643046903309" lon="8.052193644963628"><ele>434.0</ele><time>2026-04-21T14:16:04.001Z</time></trkpt><trkpt lat="45.44635777926359" lon="8.05231423602671"><ele>434.0</ele><time>2026-04-21T14:16:05.001Z</time></trkpt><trkpt lat="45.44630216344867" lon="8.052444900764561"><ele>434.0</ele><time>2026-04-21T14:16:06.001Z</time></trkpt><trkpt lat="45.44625911898498" lon="8.05256783844279"><ele>434.0</ele><time>2026-04-21T14:16:07.001Z</time></trkpt><trkpt lat="45.44618801089372" lon="8.052660628735431"><ele>434.0</ele><time>2026-04-21T14:16:08.001Z</time></trkpt><trkpt lat="45.446115620898475" lon="8.052767601806195"><ele>433.4</ele><time>2026-04-21T14:16:09.001Z</time></trkpt><trkpt lat="45.44604240561801" lon="8.05284694596061"><ele>432.79999999999995</ele><time>2026-04-21T14:16:10.001Z</time></trkpt><trkpt lat="45.445979756250544" lon="8.052921295439774"><ele>432.20000000000005</ele><time>2026-04-21T14:16:11.001Z</time></trkpt><trkpt lat="45.44592729709381" lon="8.05298908676102"><ele>431.6</ele><time>2026-04-21T14:16:12.001Z</time></trkpt><trkpt lat="45.44587989884771" lon="8.053115410654062"><ele>431.0</ele><time>2026-04-21T14:16:14.001Z</time></trkpt><trkpt lat="45.445870147533476" lon="8.053276258319181"><ele>431.8333333333333</ele><time>2026-04-21T14:16:16.001Z</time></trkpt><trkpt lat="45.44588442765365" lon="8.053452910948797"><ele>432.66666666666663</ele><time>2026-04-21T14:16:18.001Z</time></trkpt><trkpt lat="45.44588444037649" lon="8.053559107057108"><ele>433.5</ele><time>2026-04-21T14:16:19.001Z</time></trkpt><trkpt lat="45.44587427342106" lon="8.053661369955504"><ele>434.33333333333337</ele><time>2026-04-21T14:16:20.001Z</time></trkpt><trkpt lat="45.44587133689896" lon="8.053763872429888"><ele>435.1666666666667</ele><time>2026-04-21T14:16:21.001Z</time></trkpt><trkpt lat="45.445874019751514" lon="8.053878677200666"><ele>436.0</ele><time>2026-04-21T14:16:22.001Z</time></trkpt><trkpt lat="45.44589196181237" lon="8.053993846757677"><ele>437.20000000000005</ele><time>2026-04-21T14:16:23.001Z</time></trkpt><trkpt lat="45.4459028191064" lon="8.054175848317476"><ele>438.40000000000003</ele><time>2026-04-21T14:16:25.001Z</time></trkpt><trkpt lat="45.44587884919643" lon="8.054277255984466"><ele>439.6</ele><time>2026-04-21T14:16:26.001Z</time></trkpt><trkpt lat="45.445853015720246" lon="8.054396622705319"><ele>440.8</ele><time>2026-04-21T14:16:27.001Z</time></trkpt><trkpt lat="45.445846253810544" lon="8.054520474789557"><ele>442.0</ele><time>2026-04-21T14:16:28.001Z</time></trkpt><trkpt lat="45.4458551239842" lon="8.054648172787141"><ele>442.0</ele><time>2026-04-21T14:16:29.001Z</time></trkpt><trkpt lat="45.44587783883115" lon="8.054777931681297"><ele>442.00000000000006</ele><time>2026-04-21T14:16:30.001Z</time></trkpt><trkpt lat="45.445890976922016" lon="8.054882576007117"><ele>442.00000000000006</ele><time>2026-04-21T14:16:31.001Z</time></trkpt><trkpt lat="45.445849297391455" lon="8.05505533202516"><ele>442.0</ele><time>2026-04-21T14:16:33.001Z</time></trkpt><trkpt lat="45.44580183450839" lon="8.055153311739065"><ele>442.0</ele><time>2026-04-21T14:16:34.001Z</time></trkpt><trkpt lat="45.44574094788451" lon="8.055236622958514"><ele>442.0</ele><time>2026-04-21T14:16:35Z</time></trkpt><trkpt lat="45.44570816806593" lon="8.055320984143362"><ele>442.00000000000006</ele><time>2026-04-21T14:16:36Z</time></trkpt><trkpt lat="45.445689798708266" lon="8.05545081669406"><ele>442.00000000000006</ele><time>2026-04-21T14:16:37Z</time></trkpt><trkpt lat="45.44566370720469" lon="8.055620852812716"><ele>442.0</ele><time>2026-04-21T14:16:38Z</time></trkpt><trkpt lat="45.44563377065273" lon="8.055775972466638"><ele>442.0</ele><time>2026-04-21T14:16:39Z</time></trkpt><trkpt lat="45.445612410022804" lon="8.05589151263709"><ele>441.83333333333337</ele><time>2026-04-21T14:16:40Z</time></trkpt><trkpt lat="45.44559221460289" lon="8.055994868959557"><ele>441.6666666666667</ele><time>2026-04-21T14:16:41Z</time></trkpt><trkpt lat="45.44557869902284" lon="8.056095535564488"><ele>441.5</ele><time>2026-04-21T14:16:42Z</time></trkpt><trkpt lat="45.44556159942596" lon="8.05625245077971"><ele>441.33333333333337</ele><time>2026-04-21T14:16:44Z</time></trkpt><trkpt lat="45.44552725072714" lon="8.056373140552678"><ele>441.1666666666667</ele><time>2026-04-21T14:16:46Z</time></trkpt><trkpt lat="45.44548406958745" lon="8.056450430970186"><ele>441.0</ele><time>2026-04-21T14:16:47Z</time></trkpt><trkpt lat="45.445417314276526" lon="8.056512371049399"><ele>442.0</ele><time>2026-04-21T14:16:48Z</time></trkpt><trkpt lat="45.44533729254268" lon="8.056568290317866"><ele>443.0</ele><time>2026-04-21T14:16:49Z</time></trkpt><trkpt lat="45.44526247444137" lon="8.056643334939608"><ele>444.0</ele><time>2026-04-21T14:16:50Z</time></trkpt><trkpt lat="45.4452011959055" lon="8.056694966454462"><ele>445.0</ele><time>2026-04-21T14:16:51Z</time></trkpt><trkpt lat="45.445137394141895" lon="8.05671205824661"><ele>446.0</ele><time>2026-04-21T14:16:52Z</time></trkpt><trkpt lat="45.44505626108612" lon="8.056729694710471"><ele>447.0</ele><time>2026-04-21T14:16:53Z</time></trkpt><trkpt lat="45.44496348013218" lon="8.056744979850722"><ele>447.0</ele><time>2026-04-21T14:16:54Z</time></trkpt><trkpt lat="45.44485289886867" lon="8.056772821496796"><ele>447.00000000000006</ele><time>2026-04-21T14:16:55Z</time></trkpt><trkpt lat="45.444752961010614" lon="8.056781927164701"><ele>447.00000000000006</ele><time>2026-04-21T14:16:56Z</time></trkpt><trkpt lat="45.44468376687473" lon="8.056799742668712"><ele>447.0</ele><time>2026-04-21T14:16:57Z</time></trkpt><trkpt lat="45.44459286362597" lon="8.05684275584071"><ele>447.0</ele><time>2026-04-21T14:16:59Z</time></trkpt><trkpt lat="45.444524076587456" lon="8.05696919850462"><ele>447.3333333333333</ele><time>2026-04-21T14:17:01Z</time></trkpt><trkpt lat="45.44449301310814" lon="8.057084776014676"><ele>447.66666666666663</ele><time>2026-04-21T14:17:02Z</time></trkpt><trkpt lat="45.44445608108296" lon="8.057195081932393"><ele>448.0</ele><time>2026-04-21T14:17:03Z</time></trkpt><trkpt lat="45.444410313014195" lon="8.05728124202017"><ele>448.3333333333333</ele><time>2026-04-21T14:17:04Z</time></trkpt><trkpt lat="45.44434792549733" lon="8.057356640654856"><ele>448.66666666666663</ele><time>2026-04-21T14:17:05Z</time></trkpt><trkpt lat="45.444298866733355" lon="8.057419045417905"><ele>449.0</ele><time>2026-04-21T14:17:06Z</time></trkpt><trkpt lat="45.44424589933024" lon="8.057522011060996"><ele>446.6</ele><time>2026-04-21T14:17:08Z</time></trkpt><trkpt lat="45.44419808376874" lon="8.057659363490059"><ele>444.2</ele><time>2026-04-21T14:17:10Z</time></trkpt><trkpt lat="45.44419002631873" lon="8.057765310847048"><ele>441.80000000000007</ele><time>2026-04-21T14:17:11Z</time></trkpt><trkpt lat="45.444175822431646" lon="8.05790917228017"><ele>439.40000000000003</ele><time>2026-04-21T14:17:12Z</time></trkpt><trkpt lat="45.44415463279968" lon="8.0580344452308"><ele>437.0</ele><time>2026-04-21T14:17:13Z</time></trkpt><trkpt lat="45.44411054542809" lon="8.058140560872127"><ele>436.99999999999994</ele><time>2026-04-21T14:17:14Z</time></trkpt><trkpt lat="45.44406671160873" lon="8.058236461386487"><ele>437.0</ele><time>2026-04-21T14:17:15Z</time></trkpt><trkpt lat="45.44403334460416" lon="8.05834146359472"><ele>437.0</ele><time>2026-04-21T14:17:16Z</time></trkpt><trkpt lat="45.44399433669012" lon="8.05844002309284"><ele>437.0</ele><time>2026-04-21T14:17:17Z</time></trkpt><trkpt lat="45.44394197692094" lon="8.058545237856913"><ele>436.99999999999994</ele><time>2026-04-21T14:17:18Z</time></trkpt><trkpt lat="45.443897389157264" lon="8.0586343823593"><ele>437.0</ele><time>2026-04-21T14:17:19Z</time></trkpt><trkpt lat="45.443824786000484" lon="8.058734444181852"><ele>436.40000000000003</ele><time>2026-04-21T14:17:20Z</time></trkpt><trkpt lat="45.44372291429162" lon="8.058856258925983"><ele>435.80000000000007</ele><time>2026-04-21T14:17:21Z</time></trkpt><trkpt lat="45.44364124145929" lon="8.058971968078795"><ele>435.2</ele><time>2026-04-21T14:17:22Z</time></trkpt><trkpt lat="45.443573297841105" lon="8.059069598433073"><ele>434.6</ele><time>2026-04-21T14:17:23Z</time></trkpt><trkpt lat="45.44351549618926" lon="8.059144935140605"><ele>434.0</ele><time>2026-04-21T14:17:24Z</time></trkpt><trkpt lat="45.443454495722676" lon="8.059227866046301"><ele>433.99999999999994</ele><time>2026-04-21T14:17:25Z</time></trkpt><trkpt lat="45.44340391750076" lon="8.059315512434743"><ele>434.0</ele><time>2026-04-21T14:17:26Z</time></trkpt><trkpt lat="45.443333566504755" lon="8.059352581885246"><ele>434.0</ele><time>2026-04-21T14:17:27Z</time></trkpt><trkpt lat="45.44325813346548" lon="8.059369878981741"><ele>434.0</ele><time>2026-04-21T14:17:28Z</time></trkpt><trkpt lat="45.4431710594795" lon="8.059374550209311"><ele>433.99999999999994</ele><time>2026-04-21T14:17:29Z</time></trkpt><trkpt lat="45.44307324644299" lon="8.059371421404908"><ele>434.0</ele><time>2026-04-21T14:17:30Z</time></trkpt><trkpt lat="45.44296608252877" lon="8.059415995168358"><ele>434.79999999999995</ele><time>2026-04-21T14:17:31Z</time></trkpt><trkpt lat="45.44289371971249" lon="8.059442097505615"><ele>435.59999999999997</ele><time>2026-04-21T14:17:32Z</time></trkpt><trkpt lat="45.44281569821294" lon="8.059462620797772"><ele>436.4</ele><time>2026-04-21T14:17:33Z</time></trkpt><trkpt lat="45.44271266361432" lon="8.05945466498035"><ele>437.2</ele><time>2026-04-21T14:17:34Z</time></trkpt><trkpt lat="45.44259903197378" lon="8.059429691125626"><ele>438.0</ele><time>2026-04-21T14:17:35Z</time></trkpt><trkpt lat="45.44250211290365" lon="8.059394420301132"><ele>438.0</ele><time>2026-04-21T14:17:36Z</time></trkpt><trkpt lat="45.44241083490764" lon="8.059337744915826"><ele>438.0</ele><time>2026-04-21T14:17:37Z</time></trkpt><trkpt lat="45.44233025816252" lon="8.059277580005128"><ele>438.0</ele><time>2026-04-21T14:17:38Z</time></trkpt><trkpt lat="45.44226763859942" lon="8.059235434102705"><ele>438.0</ele><time>2026-04-21T14:17:39Z</time></trkpt><trkpt lat="45.442190151731225" lon="8.059238010547956"><ele>438.0</ele><time>2026-04-21T14:17:41Z</time></trkpt><trkpt lat="45.44214514319609" lon="8.059305269802453"><ele>438.0</ele><time>2026-04-21T14:17:42Z</time></trkpt><trkpt lat="45.44202019775125" lon="8.059466190345772"><ele>437.79999999999995</ele><time>2026-04-21T14:17:44Z</time></trkpt><trkpt lat="45.4419469607861" lon="8.059556807871985"><ele>437.59999999999997</ele><time>2026-04-21T14:17:45Z</time></trkpt><trkpt lat="45.441870797522505" lon="8.059670903606023"><ele>437.40000000000003</ele><time>2026-04-21T14:17:46Z</time></trkpt><trkpt lat="45.441797241015216" lon="8.05978598394239"><ele>437.20000000000005</ele><time>2026-04-21T14:17:47Z</time></trkpt><trkpt lat="45.4417338312352" lon="8.05988435760065"><ele>437.0</ele><time>2026-04-21T14:17:48Z</time></trkpt><trkpt lat="45.441676266694465" lon="8.059992681927818"><ele>437.0</ele><time>2026-04-21T14:17:49Z</time></trkpt><trkpt lat="45.44162643296171" lon="8.060088886229737"><ele>437.00000000000006</ele><time>2026-04-21T14:17:50Z</time></trkpt><trkpt lat="45.441570184990425" lon="8.060168473522877"><ele>437.00000000000006</ele><time>2026-04-21T14:17:51Z</time></trkpt><trkpt lat="45.441511204371295" lon="8.060227962378882"><ele>437.0</ele><time>2026-04-21T14:17:52Z</time></trkpt><trkpt lat="45.44145494780369" lon="8.060339159318653"><ele>437.0</ele><time>2026-04-21T14:17:53Z</time></trkpt><trkpt lat="45.44138350505362" lon="8.060476381956393"><ele>437.0</ele><time>2026-04-21T14:17:54Z</time></trkpt><trkpt lat="45.44130001261443" lon="8.060615056513114"><ele>437.00000000000006</ele><time>2026-04-21T14:17:55Z</time></trkpt><trkpt lat="45.44121437598685" lon="8.060748906204987"><ele>437.00000000000006</ele><time>2026-04-21T14:17:56Z</time></trkpt><trkpt lat="45.44114938691574" lon="8.060855121141644"><ele>437.0</ele><time>2026-04-21T14:17:57Z</time></trkpt><trkpt lat="45.44111031588922" lon="8.060950109475426"><ele>437.0</ele><time>2026-04-21T14:17:58Z</time></trkpt><trkpt lat="45.44106898761331" lon="8.061061111577732"><ele>437.20000000000005</ele><time>2026-04-21T14:18:00Z</time></trkpt><trkpt lat="45.44104548863516" lon="8.061153505970575"><ele>437.40000000000003</ele><time>2026-04-21T14:18:05Z</time></trkpt><trkpt lat="45.44102810119113" lon="8.061319996362114"><ele>437.59999999999997</ele><time>2026-04-21T14:18:07.001Z</time></trkpt><trkpt lat="45.441031738718095" lon="8.061431163681414"><ele>437.79999999999995</ele><time>2026-04-21T14:18:08.001Z</time></trkpt><trkpt lat="45.44104883035981" lon="8.06164856983816"><ele>438.0</ele><time>2026-04-21T14:18:10.001Z</time></trkpt><trkpt lat="45.4410626221845" lon="8.061776705028423"><ele>437.0</ele><time>2026-04-21T14:18:11.001Z</time></trkpt><trkpt lat="45.44107246700337" lon="8.06187731690067"><ele>435.99999999999994</ele><time>2026-04-21T14:18:12.001Z</time></trkpt><trkpt lat="45.4410843700724" lon="8.061971518700277"><ele>434.99999999999994</ele><time>2026-04-21T14:18:13.001Z</time></trkpt><trkpt lat="45.44111187837772" lon="8.062124658759203"><ele>434.0</ele><time>2026-04-21T14:18:15.001Z</time></trkpt><trkpt lat="45.441158952338775" lon="8.062280937465207"><ele>433.0</ele><time>2026-04-21T14:18:17.001Z</time></trkpt><trkpt lat="45.44122215339883" lon="8.062448551816125"><ele>433.0</ele><time>2026-04-21T14:18:19.001Z</time></trkpt><trkpt lat="45.441248241050886" lon="8.06261310882625"><ele>432.99999999999994</ele><time>2026-04-21T14:18:21.001Z</time></trkpt><trkpt lat="45.44128152490064" lon="8.062716292904147"><ele>432.99999999999994</ele><time>2026-04-21T14:18:22.001Z</time></trkpt><trkpt lat="45.441296592990696" lon="8.062829062712318"><ele>433.0</ele><time>2026-04-21T14:18:23.001Z</time></trkpt><trkpt lat="45.44130387887081" lon="8.06298632810545"><ele>433.0</ele><time>2026-04-21T14:18:25.001Z</time></trkpt><trkpt lat="45.44134872276193" lon="8.063147086391387"><ele>431.83333333333337</ele><time>2026-04-21T14:18:27.001Z</time></trkpt><trkpt lat="45.44138004337337" lon="8.063262806900852"><ele>430.6666666666667</ele><time>2026-04-21T14:18:28.001Z</time></trkpt><trkpt lat="45.441407303190346" lon="8.063373497943596"><ele>429.5</ele><time>2026-04-21T14:18:29.001Z</time></trkpt><trkpt lat="45.441423312105755" lon="8.063473765997944"><ele>428.33333333333337</ele><time>2026-04-21T14:18:30.001Z</time></trkpt><trkpt lat="45.44145987600134" lon="8.063588465513147"><ele>427.1666666666667</ele><time>2026-04-21T14:18:31.001Z</time></trkpt><trkpt lat="45.4414874762157" lon="8.063692562077406"><ele>426.0</ele><time>2026-04-21T14:18:32.001Z</time></trkpt><trkpt lat="45.441504173411005" lon="8.063783715441547"><ele>425.8</ele><time>2026-04-21T14:18:33.001Z</time></trkpt><trkpt lat="45.441510499456314" lon="8.063969802515883"><ele>425.6</ele><time>2026-04-21T14:18:35.001Z</time></trkpt><trkpt lat="45.44149317190638" lon="8.064078531686837"><ele>425.4</ele><time>2026-04-21T14:18:36.001Z</time></trkpt><trkpt lat="45.44146714531574" lon="8.064187722321941"><ele>425.2</ele><time>2026-04-21T14:18:37.001Z</time></trkpt><trkpt lat="45.441434904935434" lon="8.064301710578981"><ele>425.0</ele><time>2026-04-21T14:18:38.001Z</time></trkpt><trkpt lat="45.44138868807036" lon="8.064423068880117"><ele>424.8</ele><time>2026-04-21T14:18:39.001Z</time></trkpt><trkpt lat="45.44134719060515" lon="8.06454429787639"><ele>424.6</ele><time>2026-04-21T14:18:40.001Z</time></trkpt><trkpt lat="45.44129545608645" lon="8.064667913538205"><ele>424.4</ele><time>2026-04-21T14:18:41Z</time></trkpt><trkpt lat="45.44123613077257" lon="8.064785618990083"><ele>424.2</ele><time>2026-04-21T14:18:42Z</time></trkpt><trkpt lat="45.44118928918612" lon="8.064869521450145"><ele>424.0</ele><time>2026-04-21T14:18:43Z</time></trkpt><trkpt lat="45.44114538525069" lon="8.064999827314839"><ele>426.6666666666667</ele><time>2026-04-21T14:18:45Z</time></trkpt><trkpt lat="45.44114812497927" lon="8.065112540894816"><ele>429.33333333333337</ele><time>2026-04-21T14:18:46Z</time></trkpt><trkpt lat="45.44113443439429" lon="8.065236189059206"><ele>432.0</ele><time>2026-04-21T14:18:47Z</time></trkpt><trkpt lat="45.441130049985794" lon="8.065358427117093"><ele>434.66666666666663</ele><time>2026-04-21T14:18:48Z</time></trkpt><trkpt lat="45.44112988760342" lon="8.065458094461764"><ele>437.3333333333333</ele><time>2026-04-21T14:18:49Z</time></trkpt><trkpt lat="45.441136704577865" lon="8.06561238761744"><ele>440.0</ele><time>2026-04-21T14:18:51Z</time></trkpt><trkpt lat="45.44111357114317" lon="8.065701392838507"><ele>438.99999999999994</ele><time>2026-04-21T14:18:52Z</time></trkpt><trkpt lat="45.441083119849054" lon="8.065811902076815"><ele>438.0</ele><time>2026-04-21T14:18:53Z</time></trkpt><trkpt lat="45.4410451148865" lon="8.065916855402152"><ele>437.0</ele><time>2026-04-21T14:18:54Z</time></trkpt><trkpt lat="45.44100901661695" lon="8.066000992027538"><ele>436.0</ele><time>2026-04-21T14:18:55Z</time></trkpt><trkpt lat="45.440940166284726" lon="8.066148465429078"><ele>434.99999999999994</ele><time>2026-04-21T14:18:57Z</time></trkpt><trkpt lat="45.44088931153898" lon="8.066210173051024"><ele>434.0</ele><time>2026-04-21T14:18:58Z</time></trkpt><trkpt lat="45.44082763017267" lon="8.06627289155027"><ele>433.99999999999994</ele><time>2026-04-21T14:18:59Z</time></trkpt><trkpt lat="45.440754335560584" lon="8.066340602097775"><ele>434.0</ele><time>2026-04-21T14:19:00Z</time></trkpt><trkpt lat="45.44069727336742" lon="8.066431123659404"><ele>434.0</ele><time>2026-04-21T14:19:01Z</time></trkpt><trkpt lat="45.440642558942656" lon="8.066551765512065"><ele>434.0</ele><time>2026-04-21T14:19:02Z</time></trkpt><trkpt lat="45.4405880825292" lon="8.066668664412992"><ele>433.99999999999994</ele><time>2026-04-21T14:19:03Z</time></trkpt><trkpt lat="45.44054827634947" lon="8.066761649626569"><ele>434.0</ele><time>2026-04-21T14:19:04Z</time></trkpt><trkpt lat="45.44050959309461" lon="8.066840741705718"><ele>433.14285714285717</ele><time>2026-04-21T14:19:05Z</time></trkpt><trkpt lat="45.44049233311534" lon="8.06692940698375"><ele>432.2857142857143</ele><time>2026-04-21T14:19:06Z</time></trkpt><trkpt lat="45.44046262644429" lon="8.067036597182817"><ele>431.42857142857144</ele><time>2026-04-21T14:19:07Z</time></trkpt><trkpt lat="45.44041804278421" lon="8.06713997102403"><ele>430.57142857142856</ele><time>2026-04-21T14:19:08Z</time></trkpt><trkpt lat="45.4403783501549" lon="8.067222683295567"><ele>429.7142857142857</ele><time>2026-04-21T14:19:09Z</time></trkpt><trkpt lat="45.44034002413575" lon="8.067298293955963"><ele>428.8571428571429</ele><time>2026-04-21T14:19:10Z</time></trkpt><trkpt lat="45.44029824739304" lon="8.06736555294889"><ele>428.0</ele><time>2026-04-21T14:19:11Z</time></trkpt><trkpt lat="45.440208846130915" lon="8.067470452920155"><ele>427.2</ele><time>2026-04-21T14:19:13Z</time></trkpt><trkpt lat="45.44008476063969" lon="8.067549854761563"><ele>426.4</ele><time>2026-04-21T14:19:15Z</time></trkpt><trkpt lat="45.440017898239745" lon="8.067593322100048"><ele>425.59999999999997</ele><time>2026-04-21T14:19:16Z</time></trkpt><trkpt lat="45.43990776946374" lon="8.067637201149651"><ele>424.79999999999995</ele><time>2026-04-21T14:19:18Z</time></trkpt><trkpt lat="45.439823086999404" lon="8.067633763635289"><ele>424.0</ele><time>2026-04-21T14:19:21Z</time></trkpt><trkpt lat="45.43972824842115" lon="8.067513592854619"><ele>423.6</ele><time>2026-04-21T14:19:23Z</time></trkpt><trkpt lat="45.439678274288966" lon="8.067432680478847"><ele>423.2</ele><time>2026-04-21T14:19:24Z</time></trkpt><trkpt lat="45.4396292007341" lon="8.067357039893196"><ele>422.8</ele><time>2026-04-21T14:19:25Z</time></trkpt><trkpt lat="45.43955229149746" lon="8.067212888707326"><ele>422.40000000000003</ele><time>2026-04-21T14:19:27Z</time></trkpt><trkpt lat="45.439479800681426" lon="8.06710498924639"><ele>422.0</ele><time>2026-04-21T14:19:29Z</time></trkpt><trkpt lat="45.439383382539376" lon="8.067048430379906"><ele>421.99999999999994</ele><time>2026-04-21T14:19:31Z</time></trkpt><trkpt lat="45.43930725297251" lon="8.067078338907121"><ele>422.0</ele><time>2026-04-21T14:19:32Z</time></trkpt><trkpt lat="45.43921978876963" lon="8.067111178373278"><ele>422.0</ele><time>2026-04-21T14:19:33Z</time></trkpt><trkpt lat="45.439138969808354" lon="8.067135105963263"><ele>422.0</ele><time>2026-04-21T14:19:34Z</time></trkpt><trkpt lat="45.43906644277808" lon="8.067154531533964"><ele>421.99999999999994</ele><time>2026-04-21T14:19:35Z</time></trkpt><trkpt lat="45.43900598531835" lon="8.06718917745778"><ele>422.0</ele><time>2026-04-21T14:19:36Z</time></trkpt><trkpt lat="45.43893966613254" lon="8.067213469912724"><ele>421.99999999999994</ele><time>2026-04-21T14:19:37Z</time></trkpt><trkpt lat="45.4388674542866" lon="8.067205533316958"><ele>422.0</ele><time>2026-04-21T14:19:38Z</time></trkpt><trkpt lat="45.43876270724339" lon="8.067199204830757"><ele>422.0</ele><time>2026-04-21T14:19:40Z</time></trkpt><trkpt lat="45.43868662206163" lon="8.0673013176806"><ele>422.0</ele><time>2026-04-21T14:19:42Z</time></trkpt><trkpt lat="45.438623160079025" lon="8.067348910347848"><ele>421.99999999999994</ele><time>2026-04-21T14:19:43Z</time></trkpt><trkpt lat="45.43853592129621" lon="8.067369129466021"><ele>422.0</ele><time>2026-04-21T14:19:44Z</time></trkpt><trkpt lat="45.43844658463252" lon="8.06738888024633"><ele>421.6</ele><time>2026-04-21T14:19:45Z</time></trkpt><trkpt lat="45.438354997706185" lon="8.067409170286822"><ele>421.20000000000005</ele><time>2026-04-21T14:19:46Z</time></trkpt><trkpt lat="45.43826930198424" lon="8.067427729353787"><ele>420.8</ele><time>2026-04-21T14:19:47Z</time></trkpt><trkpt lat="45.43815585619368" lon="8.067431045151901"><ele>420.4</ele><time>2026-04-21T14:19:49Z</time></trkpt><trkpt lat="45.438056910517254" lon="8.067474818554102"><ele>420.0</ele><time>2026-04-21T14:19:51Z</time></trkpt><trkpt lat="45.43797777310312" lon="8.067518297669046"><ele>420.2</ele><time>2026-04-21T14:19:52Z</time></trkpt><trkpt lat="45.437897135922576" lon="8.067565939987741"><ele>420.4</ele><time>2026-04-21T14:19:53Z</time></trkpt><trkpt lat="45.43781097266742" lon="8.067579711575704"><ele>420.6</ele><time>2026-04-21T14:19:54Z</time></trkpt><trkpt lat="45.437684655130525" lon="8.067631466539622"><ele>420.8</ele><time>2026-04-21T14:19:56Z</time></trkpt><trkpt lat="45.43759622947157" lon="8.067635158583942"><ele>421.0</ele><time>2026-04-21T14:19:57Z</time></trkpt><trkpt lat="45.43752519395837" lon="8.067631582833036"><ele>421.00000000000006</ele><time>2026-04-21T14:19:58Z</time></trkpt><trkpt lat="45.437437633782096" lon="8.067590901536272"><ele>421.0</ele><time>2026-04-21T14:20:00Z</time></trkpt><trkpt lat="45.43736911075848" lon="8.06756252566302"><ele>421.0</ele><time>2026-04-21T14:20:04Z</time></trkpt><trkpt lat="45.43733741962718" lon="8.067668124064468"><ele>421.0</ele><time>2026-04-21T14:20:14.001Z</time></trkpt><trkpt lat="45.437355805220676" lon="8.067772502079073"><ele>421.00000000000006</ele><time>2026-04-21T14:20:16.001Z</time></trkpt><trkpt lat="45.43742223146334" lon="8.067862515793118"><ele>421.0</ele><time>2026-04-21T14:20:18.001Z</time></trkpt><trkpt lat="45.43749753062159" lon="8.067948129099678"><ele>421.0</ele><time>2026-04-21T14:20:20.001Z</time></trkpt><trkpt lat="45.43754791795374" lon="8.068029121045752"><ele>421.0</ele><time>2026-04-21T14:20:22.001Z</time></trkpt><trkpt lat="45.437568006397804" lon="8.068155667349979"><ele>421.0</ele><time>2026-04-21T14:20:24.001Z</time></trkpt><trkpt lat="45.437525109305355" lon="8.068313618951413"><ele>421.0</ele><time>2026-04-21T14:20:26.001Z</time></trkpt><trkpt lat="45.43750117411294" lon="8.068476087602079"><ele>421.0</ele><time>2026-04-21T14:20:28.001Z</time></trkpt><trkpt lat="45.43746487778455" lon="8.068648039237729"><ele>420.83333333333337</ele><time>2026-04-21T14:20:30.001Z</time></trkpt><trkpt lat="45.43745398592831" lon="8.068737334571976"><ele>420.6666666666667</ele><time>2026-04-21T14:20:31.001Z</time></trkpt><trkpt lat="45.43742145199084" lon="8.06883468820905"><ele>420.5</ele><time>2026-04-21T14:20:32.001Z</time></trkpt><trkpt lat="45.43737757167095" lon="8.068982574658403"><ele>420.33333333333337</ele><time>2026-04-21T14:20:34.001Z</time></trkpt><trkpt lat="45.43730743973772" lon="8.069114114497497"><ele>420.1666666666667</ele><time>2026-04-21T14:20:36.001Z</time></trkpt><trkpt lat="45.43726133231392" lon="8.06918805683921"><ele>420.0</ele><time>2026-04-21T14:20:37.001Z</time></trkpt><trkpt lat="45.437212551871866" lon="8.069295751859459"><ele>419.6666666666667</ele><time>2026-04-21T14:20:38.001Z</time></trkpt><trkpt lat="45.43716468858922" lon="8.069406456838768"><ele>419.33333333333337</ele><time>2026-04-21T14:20:39Z</time></trkpt><trkpt lat="45.437124672621636" lon="8.069501183244531"><ele>419.0</ele><time>2026-04-21T14:20:40Z</time></trkpt><trkpt lat="45.43709362337869" lon="8.06958407057931"><ele>418.6666666666667</ele><time>2026-04-21T14:20:41Z</time></trkpt><trkpt lat="45.437051128549896" lon="8.069752110157085"><ele>418.33333333333337</ele><time>2026-04-21T14:20:43Z</time></trkpt><trkpt lat="45.43705880853552" lon="8.069868774972988"><ele>418.0</ele><time>2026-04-21T14:20:44Z</time></trkpt><trkpt lat="45.437062768187054" lon="8.070018329822634"><ele>418.00000000000006</ele><time>2026-04-21T14:20:45Z</time></trkpt><trkpt lat="45.43706811122505" lon="8.070155487136686"><ele>418.0</ele><time>2026-04-21T14:20:46Z</time></trkpt><trkpt lat="45.43706749279722" lon="8.070257638890741"><ele>418.0</ele><time>2026-04-21T14:20:47Z</time></trkpt><trkpt lat="45.43706720133383" lon="8.070388993088613"><ele>418.0</ele><time>2026-04-21T14:20:49Z</time></trkpt><trkpt lat="45.43712044318951" lon="8.070507402578604"><ele>418.00000000000006</ele><time>2026-04-21T14:20:51Z</time></trkpt><trkpt lat="45.43717492242721" lon="8.070578990581394"><ele>418.0</ele><time>2026-04-21T14:20:52Z</time></trkpt><trkpt lat="45.43724243715717" lon="8.07062141186394"><ele>415.79999999999995</ele><time>2026-04-21T14:20:53Z</time></trkpt><trkpt lat="45.43734559026368" lon="8.07068435179717"><ele>413.6</ele><time>2026-04-21T14:20:54Z</time></trkpt><trkpt lat="45.43745353242741" lon="8.070734590863836"><ele>411.4</ele><time>2026-04-21T14:20:55Z</time></trkpt><trkpt lat="45.437546135448464" lon="8.070786299400861"><ele>409.20000000000005</ele><time>2026-04-21T14:20:56Z</time></trkpt><trkpt lat="45.43763163310426" lon="8.070844029469752"><ele>407.0</ele><time>2026-04-21T14:20:57Z</time></trkpt><trkpt lat="45.43769366560116" lon="8.07088611185446"><ele>406.20000000000005</ele><time>2026-04-21T14:20:58Z</time></trkpt><trkpt lat="45.437764214993265" lon="8.07100234859101"><ele>405.4</ele><time>2026-04-21T14:21:00Z</time></trkpt><trkpt lat="45.437717962451515" lon="8.071156436286442"><ele>404.6</ele><time>2026-04-21T14:21:02Z</time></trkpt><trkpt lat="45.437653262950946" lon="8.07123188328678"><ele>403.79999999999995</ele><time>2026-04-21T14:21:03Z</time></trkpt><trkpt lat="45.43756485943164" lon="8.071307634884475"><ele>403.0</ele><time>2026-04-21T14:21:04Z</time></trkpt><trkpt lat="45.43745185324041" lon="8.07141233299979"><ele>403.0</ele><time>2026-04-21T14:21:05Z</time></trkpt><trkpt lat="45.43733379779199" lon="8.071538410798576"><ele>403.0</ele><time>2026-04-21T14:21:06Z</time></trkpt><trkpt lat="45.437216223790756" lon="8.071636701233844"><ele>403.0</ele><time>2026-04-21T14:21:07Z</time></trkpt><trkpt lat="45.43710020036135" lon="8.071704059614465"><ele>403.0</ele><time>2026-04-21T14:21:08Z</time></trkpt><trkpt lat="45.4369973397601" lon="8.071757290116482"><ele>403.79999999999995</ele><time>2026-04-21T14:21:09Z</time></trkpt><trkpt lat="45.436885075656136" lon="8.071810522096925"><ele>404.6</ele><time>2026-04-21T14:21:10Z</time></trkpt><trkpt lat="45.436775438510296" lon="8.071841246369942"><ele>405.4</ele><time>2026-04-21T14:21:11Z</time></trkpt><trkpt lat="45.43668999533647" lon="8.07185663043458"><ele>406.20000000000005</ele><time>2026-04-21T14:21:12Z</time></trkpt><trkpt lat="45.436617608643196" lon="8.071871719617647"><ele>407.0</ele><time>2026-04-21T14:21:13Z</time></trkpt><trkpt lat="45.4365570837831" lon="8.071913024175537"><ele>407.0</ele><time>2026-04-21T14:21:14Z</time></trkpt><trkpt lat="45.43650499284654" lon="8.072094036362207"><ele>407.0</ele><time>2026-04-21T14:21:16Z</time></trkpt><trkpt lat="45.436495540223895" lon="8.072254993492292"><ele>407.0</ele><time>2026-04-21T14:21:17Z</time></trkpt><trkpt lat="45.43649337442261" lon="8.07243571486069"><ele>407.0</ele><time>2026-04-21T14:21:18Z</time></trkpt><trkpt lat="45.43651337985067" lon="8.07260854161861"><ele>406.25</ele><time>2026-04-21T14:21:19Z</time></trkpt><trkpt lat="45.43655142832702" lon="8.07279465746848"><ele>405.5</ele><time>2026-04-21T14:21:20Z</time></trkpt><trkpt lat="45.4366032108034" lon="8.072985390294322"><ele>404.75</ele><time>2026-04-21T14:21:21Z</time></trkpt><trkpt lat="45.436636043509395" lon="8.073128860855864"><ele>404.0</ele><time>2026-04-21T14:21:22Z</time></trkpt><trkpt lat="45.43664125262066" lon="8.073251931620543"><ele>404.4</ele><time>2026-04-21T14:21:23Z</time></trkpt><trkpt lat="45.43663990928016" lon="8.073409903180616"><ele>404.79999999999995</ele><time>2026-04-21T14:21:24Z</time></trkpt><trkpt lat="45.43663639284695" lon="8.073582306061038"><ele>405.20000000000005</ele><time>2026-04-21T14:21:25Z</time></trkpt><trkpt lat="45.43664625465908" lon="8.073719945853746"><ele>405.6</ele><time>2026-04-21T14:21:26Z</time></trkpt><trkpt lat="45.43664714125089" lon="8.073850243903646"><ele>406.0</ele><time>2026-04-21T14:21:27Z</time></trkpt><trkpt lat="45.436640540806934" lon="8.074011921976474"><ele>406.0</ele><time>2026-04-21T14:21:28Z</time></trkpt><trkpt lat="45.436606535478894" lon="8.074188864252989"><ele>406.0</ele><time>2026-04-21T14:21:29Z</time></trkpt><trkpt lat="45.43654478585833" lon="8.074354732251027"><ele>406.0</ele><time>2026-04-21T14:21:30Z</time></trkpt><trkpt lat="45.43648305231154" lon="8.074485362576848"><ele>406.0</ele><time>2026-04-21T14:21:31Z</time></trkpt><trkpt lat="45.436398352107965" lon="8.074605052650762"><ele>406.75</ele><time>2026-04-21T14:21:32Z</time></trkpt><trkpt lat="45.436279511194776" lon="8.07474208664743"><ele>407.5</ele><time>2026-04-21T14:21:33Z</time></trkpt><trkpt lat="45.43618806177923" lon="8.074863875144386"><ele>408.25</ele><time>2026-04-21T14:21:34Z</time></trkpt><trkpt lat="45.43612204635439" lon="8.074979052930827"><ele>409.0</ele><time>2026-04-21T14:21:35Z</time></trkpt><trkpt lat="45.43606265725068" lon="8.075097122160486"><ele>409.00000000000006</ele><time>2026-04-21T14:21:36Z</time></trkpt><trkpt lat="45.43600874967818" lon="8.07522825330776"><ele>409.0</ele><time>2026-04-21T14:21:37Z</time></trkpt><trkpt lat="45.435968763307876" lon="8.075346783860716"><ele>409.0</ele><time>2026-04-21T14:21:38Z</time></trkpt><trkpt lat="45.43595697097706" lon="8.07546663370927"><ele>409.0</ele><time>2026-04-21T14:21:39Z</time></trkpt><trkpt lat="45.43595480526547" lon="8.075566274263451"><ele>409.00000000000006</ele><time>2026-04-21T14:21:40Z</time></trkpt><trkpt lat="45.4359480106448" lon="8.075674742390083"><ele>409.0</ele><time>2026-04-21T14:21:42Z</time></trkpt><trkpt lat="45.43589797200819" lon="8.075748044339408"><ele>409.0</ele><time>2026-04-21T14:21:45Z</time></trkpt><trkpt lat="45.43580568138404" lon="8.0757294235728"><ele>409.0</ele><time>2026-04-21T14:21:47Z</time></trkpt><trkpt lat="45.43571338070652" lon="8.075685353078594"><ele>409.0</ele><time>2026-04-21T14:21:48Z</time></trkpt><trkpt lat="45.43562071924528" lon="8.075622540928883"><ele>409.0</ele><time>2026-04-21T14:21:49Z</time></trkpt><trkpt lat="45.43553593695786" lon="8.075560961746797"><ele>409.0</ele><time>2026-04-21T14:21:50Z</time></trkpt><trkpt lat="45.43546450038211" lon="8.07551589428075"><ele>408.2</ele><time>2026-04-21T14:21:51Z</time></trkpt><trkpt lat="45.43537294296336" lon="8.075481371754359"><ele>407.4</ele><time>2026-04-21T14:21:53Z</time></trkpt><trkpt lat="45.43529351248068" lon="8.075533928810877"><ele>406.6</ele><time>2026-04-21T14:21:55Z</time></trkpt><trkpt lat="45.435207596713724" lon="8.075656344008063"><ele>405.8</ele><time>2026-04-21T14:21:57Z</time></trkpt><trkpt lat="45.435170441853316" lon="8.075802634945648"><ele>405.0</ele><time>2026-04-21T14:21:59Z</time></trkpt><trkpt lat="45.43515819253769" lon="8.075911521766635"><ele>404.8333333333333</ele><time>2026-04-21T14:22:00Z</time></trkpt><trkpt lat="45.4351506183858" lon="8.076019100806548"><ele>404.66666666666663</ele><time>2026-04-21T14:22:01Z</time></trkpt><trkpt lat="45.435139489404115" lon="8.076125557085911"><ele>404.5</ele><time>2026-04-21T14:22:02Z</time></trkpt><trkpt lat="45.435120490315114" lon="8.07621796804951"><ele>404.3333333333333</ele><time>2026-04-21T14:22:03Z</time></trkpt><trkpt lat="45.435096186280845" lon="8.07638112588889"><ele>404.16666666666663</ele><time>2026-04-21T14:22:05Z</time></trkpt><trkpt lat="45.435085066458925" lon="8.076475463234802"><ele>404.0</ele><time>2026-04-21T14:22:06Z</time></trkpt><trkpt lat="45.43505967752183" lon="8.076568489811448"><ele>403.8333333333333</ele><time>2026-04-21T14:22:07Z</time></trkpt><trkpt lat="45.435025448669975" lon="8.07666454687996"><ele>403.66666666666663</ele><time>2026-04-21T14:22:08Z</time></trkpt><trkpt lat="45.434994732211564" lon="8.07674662903163"><ele>403.5</ele><time>2026-04-21T14:22:09Z</time></trkpt><trkpt lat="45.43497381473397" lon="8.076841038737836"><ele>403.33333333333337</ele><time>2026-04-21T14:22:10Z</time></trkpt><trkpt lat="45.43498177030898" lon="8.076960536478696"><ele>403.1666666666667</ele><time>2026-04-21T14:22:11Z</time></trkpt><trkpt lat="45.43500815645702" lon="8.077069327905877"><ele>403.0</ele><time>2026-04-21T14:22:12Z</time></trkpt><trkpt lat="45.43503889936107" lon="8.077176087605492"><ele>403.0</ele><time>2026-04-21T14:22:13Z</time></trkpt><trkpt lat="45.435073412285504" lon="8.077309529588714"><ele>403.0</ele><time>2026-04-21T14:22:15Z</time></trkpt><trkpt lat="45.43513726387431" lon="8.077416548059306"><ele>403.0</ele><time>2026-04-21T14:22:17Z</time></trkpt><trkpt lat="45.43517647331606" lon="8.077540472486032"><ele>403.0</ele><time>2026-04-21T14:22:19.001Z</time></trkpt><trkpt lat="45.435150577879874" lon="8.07767625334008"><ele>403.0</ele><time>2026-04-21T14:22:21.001Z</time></trkpt><trkpt lat="45.435037881107185" lon="8.077742404131566"><ele>402.0</ele><time>2026-04-21T14:22:23.001Z</time></trkpt><trkpt lat="45.434941238248825" lon="8.077747958859677"><ele>401.0</ele><time>2026-04-21T14:22:24.001Z</time></trkpt><trkpt lat="45.43483421641627" lon="8.07779120683541"><ele>400.0</ele><time>2026-04-21T14:22:25.001Z</time></trkpt><trkpt lat="45.43475831834765" lon="8.077841683038088"><ele>399.0</ele><time>2026-04-21T14:22:26.001Z</time></trkpt><trkpt lat="45.43467976041105" lon="8.07790513310388"><ele>398.0</ele><time>2026-04-21T14:22:27.001Z</time></trkpt><trkpt lat="45.434603749779846" lon="8.077975177282049"><ele>397.99999999999994</ele><time>2026-04-21T14:22:28.001Z</time></trkpt><trkpt lat="45.43453502083622" lon="8.078022794804486"><ele>398.0</ele><time>2026-04-21T14:22:29.001Z</time></trkpt><trkpt lat="45.434461579543246" lon="8.07808303534182"><ele>398.0</ele><time>2026-04-21T14:22:30.001Z</time></trkpt><trkpt lat="45.43440274998575" lon="8.078149092734161"><ele>398.0</ele><time>2026-04-21T14:22:31.001Z</time></trkpt><trkpt lat="45.434340846726364" lon="8.07820281434686"><ele>398.0</ele><time>2026-04-21T14:22:32.001Z</time></trkpt><trkpt lat="45.43427760143978" lon="8.07825665305689"><ele>397.99999999999994</ele><time>2026-04-21T14:22:33.001Z</time></trkpt><trkpt lat="45.434215658810956" lon="8.07828091257543"><ele>398.0</ele><time>2026-04-21T14:22:34.001Z</time></trkpt><trkpt lat="45.43409653936953" lon="8.078245151121092"><ele>397.99999999999994</ele><time>2026-04-21T14:22:36Z</time></trkpt><trkpt lat="45.43402188209097" lon="8.078202736889953"><ele>398.0</ele><time>2026-04-21T14:22:37Z</time></trkpt><trkpt lat="45.4339427336392" lon="8.078183110713345"><ele>398.0</ele><time>2026-04-21T14:22:38Z</time></trkpt><trkpt lat="45.433876789042486" lon="8.078162029768961"><ele>398.0</ele><time>2026-04-21T14:22:39Z</time></trkpt><trkpt lat="45.433806461016665" lon="8.078130155756693"><ele>397.99999999999994</ele><time>2026-04-21T14:22:40Z</time></trkpt><trkpt lat="45.433732205536096" lon="8.078080785170481"><ele>398.0</ele><time>2026-04-21T14:22:41Z</time></trkpt><trkpt lat="45.43366361538074" lon="8.078025091001711"><ele>397.3333333333333</ele><time>2026-04-21T14:22:42Z</time></trkpt><trkpt lat="45.433592747870165" lon="8.077960550946019"><ele>396.66666666666663</ele><time>2026-04-21T14:22:43Z</time></trkpt><trkpt lat="45.433542452605494" lon="8.077900111462633"><ele>396.0</ele><time>2026-04-21T14:22:44Z</time></trkpt><trkpt lat="45.43346635299537" lon="8.077773456338429"><ele>395.33333333333337</ele><time>2026-04-21T14:22:46Z</time></trkpt><trkpt lat="45.43342743266099" lon="8.077693471459485"><ele>394.6666666666667</ele><time>2026-04-21T14:22:47Z</time></trkpt><trkpt lat="45.43340056146277" lon="8.077594700224981"><ele>394.0</ele><time>2026-04-21T14:22:48Z</time></trkpt><trkpt lat="45.43337570334844" lon="8.077487897811006"><ele>393.79999999999995</ele><time>2026-04-21T14:22:49Z</time></trkpt><trkpt lat="45.43335222919453" lon="8.077394268953062"><ele>393.59999999999997</ele><time>2026-04-21T14:22:50Z</time></trkpt><trkpt lat="45.43331165762913" lon="8.077197827668794"><ele>393.4</ele><time>2026-04-21T14:22:52Z</time></trkpt><trkpt lat="45.43330491394902" lon="8.077058491675814"><ele>393.2</ele><time>2026-04-21T14:22:53Z</time></trkpt><trkpt lat="45.43331079138747" lon="8.076910910462018"><ele>393.0</ele><time>2026-04-21T14:22:54Z</time></trkpt><trkpt lat="45.43331406297647" lon="8.076773596515402"><ele>393.0</ele><time>2026-04-21T14:22:55Z</time></trkpt><trkpt lat="45.43330075652277" lon="8.076650551172493"><ele>393.0</ele><time>2026-04-21T14:22:56Z</time></trkpt><trkpt lat="45.43327826535279" lon="8.076526456465258"><ele>393.0</ele><time>2026-04-21T14:22:57Z</time></trkpt><trkpt lat="45.43325034700803" lon="8.076430705596087"><ele>393.0</ele><time>2026-04-21T14:22:58Z</time></trkpt><trkpt lat="45.43320506134289" lon="8.076252938240264"><ele>393.0</ele><time>2026-04-21T14:23:00Z</time></trkpt><trkpt lat="45.43320192081789" lon="8.076159562597766"><ele>393.0</ele><time>2026-04-21T14:23:01Z</time></trkpt><trkpt lat="45.43318253531025" lon="8.075991624335385"><ele>392.4</ele><time>2026-04-21T14:23:03Z</time></trkpt><trkpt lat="45.433134695770015" lon="8.075833666995033"><ele>391.79999999999995</ele><time>2026-04-21T14:23:05Z</time></trkpt><trkpt lat="45.433090963926254" lon="8.075741543792114"><ele>391.2</ele><time>2026-04-21T14:23:06Z</time></trkpt><trkpt lat="45.43302853874325" lon="8.075619317561266"><ele>390.6</ele><time>2026-04-21T14:23:07Z</time></trkpt><trkpt lat="45.432984400087946" lon="8.07549532745196"><ele>390.0</ele><time>2026-04-21T14:23:08Z</time></trkpt><trkpt lat="45.43294815923378" lon="8.075353343937865"><ele>390.0</ele><time>2026-04-21T14:23:09Z</time></trkpt><trkpt lat="45.43292367704453" lon="8.07521999885554"><ele>390.0</ele><time>2026-04-21T14:23:10Z</time></trkpt><trkpt lat="45.43290151133961" lon="8.07507689759741"><ele>390.0</ele><time>2026-04-21T14:23:11Z</time></trkpt><trkpt lat="45.43289191174181" lon="8.074916647689598"><ele>390.0</ele><time>2026-04-21T14:23:12Z</time></trkpt><trkpt lat="45.4328808061832" lon="8.074761495483637"><ele>390.0</ele><time>2026-04-21T14:23:13Z</time></trkpt><trkpt lat="45.432858015118256" lon="8.074632559600296"><ele>390.5</ele><time>2026-04-21T14:23:14Z</time></trkpt><trkpt lat="45.43283282137354" lon="8.074528910471283"><ele>391.0</ele><time>2026-04-21T14:23:15Z</time></trkpt><trkpt lat="45.43278326752934" lon="8.074416140624464"><ele>391.5</ele><time>2026-04-21T14:23:17Z</time></trkpt><trkpt lat="45.43269742167207" lon="8.074412165357739"><ele>392.0</ele><time>2026-04-21T14:23:19Z</time></trkpt><trkpt lat="45.432622078316435" lon="8.07441727585626"><ele>392.5</ele><time>2026-04-21T14:23:20Z</time></trkpt><trkpt lat="45.4325479073958" lon="8.074410118942557"><ele>393.0</ele><time>2026-04-21T14:23:21Z</time></trkpt><trkpt lat="45.43248061370821" lon="8.074303316040222"><ele>393.0</ele><time>2026-04-21T14:23:23Z</time></trkpt><trkpt lat="45.43248634287517" lon="8.07420250577126"><ele>393.0</ele><time>2026-04-21T14:23:24Z</time></trkpt><trkpt lat="45.43252215650676" lon="8.074091635469513"><ele>393.0</ele><time>2026-04-21T14:23:25Z</time></trkpt><trkpt lat="45.4325426560718" lon="8.073986875372372"><ele>393.0</ele><time>2026-04-21T14:23:26Z</time></trkpt><trkpt lat="45.4325622916496" lon="8.073868289864423"><ele>393.0</ele><time>2026-04-21T14:23:27Z</time></trkpt><trkpt lat="45.43259952584985" lon="8.07372153448378"><ele>393.0</ele><time>2026-04-21T14:23:28Z</time></trkpt><trkpt lat="45.432653193420386" lon="8.073585632475575"><ele>394.75</ele><time>2026-04-21T14:23:29Z</time></trkpt><trkpt lat="45.43271973992593" lon="8.073412452358657"><ele>396.5</ele><time>2026-04-21T14:23:30Z</time></trkpt><trkpt lat="45.4327792798254" lon="8.07321777818997"><ele>398.25</ele><time>2026-04-21T14:23:31Z</time></trkpt><trkpt lat="45.43282769170457" lon="8.073008960413953"><ele>400.0</ele><time>2026-04-21T14:23:32Z</time></trkpt><trkpt lat="45.43288453333724" lon="8.072802391380861"><ele>401.33333333333337</ele><time>2026-04-21T14:23:33Z</time></trkpt><trkpt lat="45.43294262459725" lon="8.072587285088847"><ele>402.66666666666663</ele><time>2026-04-21T14:23:34Z</time></trkpt><trkpt lat="45.43301244390689" lon="8.072352166624563"><ele>404.0</ele><time>2026-04-21T14:23:35Z</time></trkpt><trkpt lat="45.433086966866874" lon="8.072120972182594"><ele>403.0</ele><time>2026-04-21T14:23:36Z</time></trkpt><trkpt lat="45.4331413054261" lon="8.071932400369992"><ele>402.0</ele><time>2026-04-21T14:23:37Z</time></trkpt><trkpt lat="45.433199514547155" lon="8.071741357669017"><ele>401.0</ele><time>2026-04-21T14:23:38Z</time></trkpt><trkpt lat="45.43325602828131" lon="8.071542536283566"><ele>400.0</ele><time>2026-04-21T14:23:39Z</time></trkpt><trkpt lat="45.433320841525635" lon="8.07137291319153"><ele>400.0</ele><time>2026-04-21T14:23:40Z</time></trkpt><trkpt lat="45.433379575993406" lon="8.071180555996483"><ele>400.0</ele><time>2026-04-21T14:23:41Z</time></trkpt><trkpt lat="45.43342006471424" lon="8.070983260104256"><ele>400.0</ele><time>2026-04-21T14:23:42Z</time></trkpt><trkpt lat="45.43345310177426" lon="8.070788161355146"><ele>400.0</ele><time>2026-04-21T14:23:43Z</time></trkpt><trkpt lat="45.43351278354867" lon="8.07060680482557"><ele>400.75</ele><time>2026-04-21T14:23:44Z</time></trkpt><trkpt lat="45.43358049743148" lon="8.070447313473975"><ele>401.5</ele><time>2026-04-21T14:23:45Z</time></trkpt><trkpt lat="45.43366076143562" lon="8.070294096775138"><ele>402.25</ele><time>2026-04-21T14:23:46Z</time></trkpt><trkpt lat="45.433745246877585" lon="8.070148409260138"><ele>403.0</ele><time>2026-04-21T14:23:47Z</time></trkpt><trkpt lat="45.43380964183898" lon="8.07001672369725"><ele>404.1666666666667</ele><time>2026-04-21T14:23:48Z</time></trkpt><trkpt lat="45.4338594859049" lon="8.069902017451982"><ele>405.33333333333337</ele><time>2026-04-21T14:23:49Z</time></trkpt><trkpt lat="45.43390060085824" lon="8.069812403775954"><ele>406.5</ele><time>2026-04-21T14:23:50Z</time></trkpt><trkpt lat="45.43398854821321" lon="8.069764557474366"><ele>407.66666666666663</ele><time>2026-04-21T14:23:52Z</time></trkpt><trkpt lat="45.43407019091866" lon="8.069797030949607"><ele>408.8333333333333</ele><time>2026-04-21T14:23:53Z</time></trkpt><trkpt lat="45.43414856163224" lon="8.069838875643411"><ele>410.0</ele><time>2026-04-21T14:23:54Z</time></trkpt><trkpt lat="45.43423630463711" lon="8.069857088879507"><ele>410.0</ele><time>2026-04-21T14:23:55Z</time></trkpt><trkpt lat="45.43433944896961" lon="8.069821330706239"><ele>410.0</ele><time>2026-04-21T14:23:56Z</time></trkpt><trkpt lat="45.43446029136021" lon="8.069754568709774"><ele>410.0</ele><time>2026-04-21T14:23:57Z</time></trkpt><trkpt lat="45.43454914272531" lon="8.069686306966389"><ele>410.0</ele><time>2026-04-21T14:23:58Z</time></trkpt><trkpt lat="45.43464096968948" lon="8.069598597252162"><ele>410.0</ele><time>2026-04-21T14:23:59Z</time></trkpt><trkpt lat="45.434757131411786" lon="8.069485739097109"><ele>409.75</ele><time>2026-04-21T14:24:00Z</time></trkpt><trkpt lat="45.43487578106351" lon="8.069381761446254"><ele>409.5</ele><time>2026-04-21T14:24:01Z</time></trkpt><trkpt lat="45.43497731424282" lon="8.069278832603423"><ele>409.25</ele><time>2026-04-21T14:24:02Z</time></trkpt><trkpt lat="45.435072329661025" lon="8.069177449493978"><ele>409.0</ele><time>2026-04-21T14:24:03Z</time></trkpt><trkpt lat="45.43513892640959" lon="8.069101833598827"><ele>409.0</ele><time>2026-04-21T14:24:04Z</time></trkpt><trkpt lat="45.435178937724494" lon="8.068957377187846"><ele>409.0</ele><time>2026-04-21T14:24:06Z</time></trkpt><trkpt lat="45.43520781701338" lon="8.068830358114601"><ele>409.0</ele><time>2026-04-21T14:24:07Z</time></trkpt><trkpt lat="45.43526499208714" lon="8.068697000885226"><ele>409.0</ele><time>2026-04-21T14:24:08Z</time></trkpt><trkpt lat="45.435343650391545" lon="8.068564405444349"><ele>409.0</ele><time>2026-04-21T14:24:09Z</time></trkpt><trkpt lat="45.435397565818036" lon="8.06845820174942"><ele>409.0</ele><time>2026-04-21T14:24:10Z</time></trkpt><trkpt lat="45.43543743447369" lon="8.068382798496712"><ele>409.0</ele><time>2026-04-21T14:24:11Z</time></trkpt><trkpt lat="45.43546368495152" lon="8.068271090173985"><ele>409.0</ele><time>2026-04-21T14:24:12Z</time></trkpt><trkpt lat="45.43547733130679" lon="8.068116859784713"><ele>409.0</ele><time>2026-04-21T14:24:13Z</time></trkpt><trkpt lat="45.435494582910735" lon="8.067951246797847"><ele>409.0</ele><time>2026-04-21T14:24:14Z</time></trkpt><trkpt lat="45.43551648360767" lon="8.067820755339634"><ele>409.1666666666667</ele><time>2026-04-21T14:24:15Z</time></trkpt><trkpt lat="45.43554108673137" lon="8.067709891483345"><ele>409.33333333333337</ele><time>2026-04-21T14:24:16Z</time></trkpt><trkpt lat="45.435565021238546" lon="8.067598205510693"><ele>409.5</ele><time>2026-04-21T14:24:17Z</time></trkpt><trkpt lat="45.43561531709018" lon="8.067497461708271"><ele>409.66666666666663</ele><time>2026-04-21T14:24:18Z</time></trkpt><trkpt lat="45.43567766081701" lon="8.067405011589415"><ele>409.8333333333333</ele><time>2026-04-21T14:24:19Z</time></trkpt><trkpt lat="45.435750777454274" lon="8.06729063790078"><ele>410.0</ele><time>2026-04-21T14:24:20Z</time></trkpt><trkpt lat="45.435817948388234" lon="8.067141547518599"><ele>410.0</ele><time>2026-04-21T14:24:21Z</time></trkpt><trkpt lat="45.435883277393714" lon="8.066974099264826"><ele>410.0</ele><time>2026-04-21T14:24:22Z</time></trkpt><trkpt lat="45.43593188412519" lon="8.066850588231851"><ele>410.0</ele><time>2026-04-21T14:24:23Z</time></trkpt><trkpt lat="45.435972731161826" lon="8.06675023585972"><ele>410.0</ele><time>2026-04-21T14:24:24Z</time></trkpt><trkpt lat="45.43600972071273" lon="8.06665725892486"><ele>410.0</ele><time>2026-04-21T14:24:25.001Z</time></trkpt><trkpt lat="45.436044374161945" lon="8.066558349429263"><ele>410.3333333333333</ele><time>2026-04-21T14:24:26.001Z</time></trkpt><trkpt lat="45.43608014047955" lon="8.066434874079317"><ele>410.66666666666663</ele><time>2026-04-21T14:24:27.001Z</time></trkpt><trkpt lat="45.43611197316947" lon="8.066297604474256"><ele>411.0</ele><time>2026-04-21T14:24:28.001Z</time></trkpt><trkpt lat="45.43613624517952" lon="8.066164399854765"><ele>411.33333333333337</ele><time>2026-04-21T14:24:29.001Z</time></trkpt><trkpt lat="45.4361565886667" lon="8.06605308780271"><ele>411.6666666666667</ele><time>2026-04-21T14:24:30.001Z</time></trkpt><trkpt lat="45.43616671435" lon="8.06595001739141"><ele>412.0</ele><time>2026-04-21T14:24:31.001Z</time></trkpt><trkpt lat="45.436170893485446" lon="8.065798862833185"><ele>412.33333333333337</ele><time>2026-04-21T14:24:33.001Z</time></trkpt><trkpt lat="45.43610187701217" lon="8.065688962762188"><ele>412.6666666666667</ele><time>2026-04-21T14:24:35.001Z</time></trkpt><trkpt lat="45.436028226918495" lon="8.065661243110346"><ele>413.0</ele><time>2026-04-21T14:24:36Z</time></trkpt><trkpt lat="45.435932805696915" lon="8.06564272409505"><ele>413.33333333333337</ele><time>2026-04-21T14:24:37Z</time></trkpt><trkpt lat="45.435848173235385" lon="8.065625965703605"><ele>413.6666666666667</ele><time>2026-04-21T14:24:38Z</time></trkpt><trkpt lat="45.435777327686885" lon="8.065635114516342"><ele>414.0</ele><time>2026-04-21T14:24:40Z</time></trkpt><trkpt lat="45.435693464312465" lon="8.065726522592078"><ele>414.0</ele><time>2026-04-21T14:24:42Z</time></trkpt><trkpt lat="45.4356207888414" lon="8.065712287378657"><ele>414.0</ele><time>2026-04-21T14:24:45Z</time></trkpt><trkpt lat="45.43556759091601" lon="8.065652498622457"><ele>414.0</ele><time>2026-04-21T14:24:52Z</time></trkpt><trkpt lat="45.43551275894465" lon="8.065566014649121"><ele>414.0</ele><time>2026-04-21T14:25:00Z</time></trkpt><trkpt lat="45.43542088369207" lon="8.065441646343508"><ele>414.0</ele><time>2026-04-21T14:25:02Z</time></trkpt><trkpt lat="45.43537339941633" lon="8.065381595698097"><ele>414.0</ele><time>2026-04-21T14:25:03Z</time></trkpt><trkpt lat="45.43530671438953" lon="8.065316361724626"><ele>412.6</ele><time>2026-04-21T14:25:05Z</time></trkpt><trkpt lat="45.43522783562955" lon="8.065212450773508"><ele>411.2</ele><time>2026-04-21T14:25:07Z</time></trkpt><trkpt lat="45.435209156948694" lon="8.065126676661214"><ele>409.8</ele><time>2026-04-21T14:25:08Z</time></trkpt><trkpt lat="45.43517102262342" lon="8.065022899477173"><ele>408.40000000000003</ele><time>2026-04-21T14:25:10Z</time></trkpt><trkpt lat="45.43516391239995" lon="8.064890279394076"><ele>407.0</ele><time>2026-04-21T14:25:12Z</time></trkpt><trkpt lat="45.43523378020053" lon="8.064730030158278"><ele>405.16666666666663</ele><time>2026-04-21T14:25:14Z</time></trkpt><trkpt lat="45.43528251807147" lon="8.064667003726631"><ele>403.3333333333333</ele><time>2026-04-21T14:25:15Z</time></trkpt><trkpt lat="45.43534579065314" lon="8.064621710678612"><ele>401.5</ele><time>2026-04-21T14:25:16Z</time></trkpt><trkpt lat="45.435422287439756" lon="8.064537815744428"><ele>399.66666666666663</ele><time>2026-04-21T14:25:18Z</time></trkpt><trkpt lat="45.435450706623826" lon="8.06445506129137"><ele>397.8333333333333</ele><time>2026-04-21T14:25:19Z</time></trkpt><trkpt lat="45.4354582994283" lon="8.064348140791193"><ele>396.0</ele><time>2026-04-21T14:25:20Z</time></trkpt><trkpt lat="45.43547016120465" lon="8.064238343518982"><ele>398.8</ele><time>2026-04-21T14:25:21Z</time></trkpt><trkpt lat="45.43549699426948" lon="8.0640724264315"><ele>401.6</ele><time>2026-04-21T14:25:23Z</time></trkpt><trkpt lat="45.435505284590725" lon="8.063979224685955"><ele>404.4</ele><time>2026-04-21T14:25:24Z</time></trkpt><trkpt lat="45.43552941565311" lon="8.063838609535502"><ele>407.2</ele><time>2026-04-21T14:25:26Z</time></trkpt><trkpt lat="45.435566475268416" lon="8.063718865742203"><ele>410.0</ele><time>2026-04-21T14:25:28Z</time></trkpt><trkpt lat="45.4355838322466" lon="8.063614440530635"><ele>409.99999999999994</ele><time>2026-04-21T14:25:30Z</time></trkpt><trkpt lat="45.43556371435487" lon="8.063506076704872"><ele>410.0</ele><time>2026-04-21T14:25:32Z</time></trkpt><trkpt lat="45.43550231689528" lon="8.06346347823167"><ele>410.0</ele><time>2026-04-21T14:25:34Z</time></trkpt><trkpt lat="45.43538729540324" lon="8.06347592693252"><ele>410.0</ele><time>2026-04-21T14:25:36Z</time></trkpt><trkpt lat="45.43531515396194" lon="8.063485313411356"><ele>409.99999999999994</ele><time>2026-04-21T14:25:37Z</time></trkpt><trkpt lat="45.43524541086841" lon="8.063453406533608"><ele>410.0</ele><time>2026-04-21T14:25:38Z</time></trkpt><trkpt lat="45.435166213021354" lon="8.0633826583583"><ele>408.0</ele><time>2026-04-21T14:25:39Z</time></trkpt><trkpt lat="45.43508016523418" lon="8.063322452732262"><ele>406.0</ele><time>2026-04-21T14:25:40Z</time></trkpt><trkpt lat="45.434982252868934" lon="8.063290440978681"><ele>404.0</ele><time>2026-04-21T14:25:41Z</time></trkpt><trkpt lat="45.43489773411169" lon="8.063267013124053"><ele>402.0</ele><time>2026-04-21T14:25:42Z</time></trkpt><trkpt lat="45.43482827219324" lon="8.063235797942198"><ele>400.0</ele><time>2026-04-21T14:25:43Z</time></trkpt><trkpt lat="45.43474850259467" lon="8.063123661149252"><ele>400.0</ele><time>2026-04-21T14:25:45Z</time></trkpt><trkpt lat="45.43468685103193" lon="8.062989064634174"><ele>400.0</ele><time>2026-04-21T14:25:47Z</time></trkpt><trkpt lat="45.43461840296073" lon="8.062906615721621"><ele>400.0</ele><time>2026-04-21T14:25:49Z</time></trkpt><trkpt lat="45.43458568048369" lon="8.062764092742619"><ele>400.0</ele><time>2026-04-21T14:25:51Z</time></trkpt><trkpt lat="45.43456764013334" lon="8.062671547754622"><ele>400.0</ele><time>2026-04-21T14:25:52Z</time></trkpt><trkpt lat="45.43453979201499" lon="8.062567094629342"><ele>397.50000000000006</ele><time>2026-04-21T14:25:53Z</time></trkpt><trkpt lat="45.43451968817386" lon="8.062460554923597"><ele>395.0</ele><time>2026-04-21T14:25:54Z</time></trkpt><trkpt lat="45.43451010827461" lon="8.06234784052523"><ele>392.5</ele><time>2026-04-21T14:25:55Z</time></trkpt><trkpt lat="45.43450747219655" lon="8.062229776408472"><ele>390.0</ele><time>2026-04-21T14:25:56Z</time></trkpt><trkpt lat="45.43444970181023" lon="8.062097834844876"><ele>387.50000000000006</ele><time>2026-04-21T14:25:58Z</time></trkpt><trkpt lat="45.434377211388735" lon="8.062056303503933"><ele>385.0</ele><time>2026-04-21T14:25:59Z</time></trkpt><trkpt lat="45.43429522725422" lon="8.062020233088756"><ele>384.6666666666667</ele><time>2026-04-21T14:26:00Z</time></trkpt><trkpt lat="45.434222210689114" lon="8.061982166543753"><ele>384.33333333333337</ele><time>2026-04-21T14:26:01Z</time></trkpt><trkpt lat="45.4341652011397" lon="8.06192448542"><ele>384.0</ele><time>2026-04-21T14:26:02Z</time></trkpt><trkpt lat="45.434138179214706" lon="8.061833798379219"><ele>383.6666666666667</ele><time>2026-04-21T14:26:03Z</time></trkpt><trkpt lat="45.434143523217735" lon="8.061697174358622"><ele>383.33333333333337</ele><time>2026-04-21T14:26:04Z</time></trkpt><trkpt lat="45.434165461336086" lon="8.061538622297544"><ele>383.0</ele><time>2026-04-21T14:26:05Z</time></trkpt><trkpt lat="45.4341836436841" lon="8.061377469950537"><ele>382.59999999999997</ele><time>2026-04-21T14:26:06Z</time></trkpt><trkpt lat="45.434191655104925" lon="8.06120169219691"><ele>382.2</ele><time>2026-04-21T14:26:07Z</time></trkpt><trkpt lat="45.434194424790476" lon="8.061046498864764"><ele>381.8</ele><time>2026-04-21T14:26:08Z</time></trkpt><trkpt lat="45.434194982539005" lon="8.060899527280295"><ele>381.4</ele><time>2026-04-21T14:26:09Z</time></trkpt><trkpt lat="45.434191042478105" lon="8.06076289623664"><ele>381.0</ele><time>2026-04-21T14:26:10Z</time></trkpt><trkpt lat="45.43418146335351" lon="8.060635539206768"><ele>381.8</ele><time>2026-04-21T14:26:11Z</time></trkpt><trkpt lat="45.43414475102438" lon="8.060504966330093"><ele>382.6</ele><time>2026-04-21T14:26:12Z</time></trkpt><trkpt lat="45.43411088857307" lon="8.060385591080914"><ele>383.4</ele><time>2026-04-21T14:26:13Z</time></trkpt><trkpt lat="45.43407324257531" lon="8.060263078020979"><ele>384.2</ele><time>2026-04-21T14:26:14Z</time></trkpt><trkpt lat="45.43403048300649" lon="8.060152288339127"><ele>385.0</ele><time>2026-04-21T14:26:15Z</time></trkpt><trkpt lat="45.433996218772535" lon="8.060051912237357"><ele>385.00000000000006</ele><time>2026-04-21T14:26:16Z</time></trkpt><trkpt lat="45.43396438939511" lon="8.05996254881333"><ele>385.0</ele><time>2026-04-21T14:26:17Z</time></trkpt><trkpt lat="45.433929987578914" lon="8.05987656667026"><ele>385.0</ele><time>2026-04-21T14:26:18Z</time></trkpt><trkpt lat="45.43387715261409" lon="8.059796938576305"><ele>385.0</ele><time>2026-04-21T14:26:19Z</time></trkpt><trkpt lat="45.433806799483804" lon="8.059737381039515"><ele>385.00000000000006</ele><time>2026-04-21T14:26:20Z</time></trkpt><trkpt lat="45.43372197046481" lon="8.05968253872991"><ele>385.0</ele><time>2026-04-21T14:26:21Z</time></trkpt><trkpt lat="45.433627998804575" lon="8.059617485419214"><ele>388.4</ele><time>2026-04-21T14:26:21.999Z</time></trkpt><trkpt lat="45.433539520757634" lon="8.059586394587484"><ele>391.8</ele><time>2026-04-21T14:26:22.999Z</time></trkpt><trkpt lat="45.43344388372815" lon="8.059590295204133"><ele>395.20000000000005</ele><time>2026-04-21T14:26:23.999Z</time></trkpt><trkpt lat="45.4333423848475" lon="8.059662585615213"><ele>398.6</ele><time>2026-04-21T14:26:24.999Z</time></trkpt><trkpt lat="45.433238165240226" lon="8.05978747803552"><ele>402.0</ele><time>2026-04-21T14:26:25.999Z</time></trkpt><trkpt lat="45.433137462728546" lon="8.059920705895529"><ele>401.0</ele><time>2026-04-21T14:26:26.999Z</time></trkpt><trkpt lat="45.43303863941414" lon="8.060040015554172"><ele>400.0</ele><time>2026-04-21T14:26:27.999Z</time></trkpt><trkpt lat="45.43295620061217" lon="8.06013229640305"><ele>399.0</ele><time>2026-04-21T14:26:28.999Z</time></trkpt><trkpt lat="45.432880414825874" lon="8.060217945304384"><ele>398.0</ele><time>2026-04-21T14:26:29.999Z</time></trkpt><trkpt lat="45.43280446777387" lon="8.060299538255078"><ele>397.0</ele><time>2026-04-21T14:26:31Z</time></trkpt><trkpt lat="45.43272812946977" lon="8.060379477155855"><ele>397.0</ele><time>2026-04-21T14:26:32Z</time></trkpt><trkpt lat="45.43263261663638" lon="8.060429779090308"><ele>397.0</ele><time>2026-04-21T14:26:33Z</time></trkpt><trkpt lat="45.4325402286598" lon="8.060469525865653"><ele>397.0</ele><time>2026-04-21T14:26:34Z</time></trkpt><trkpt lat="45.43244594063501" lon="8.060494367091083"><ele>397.0</ele><time>2026-04-21T14:26:35Z</time></trkpt><trkpt lat="45.43234273643292" lon="8.060499809809265"><ele>397.0</ele><time>2026-04-21T14:26:36Z</time></trkpt><trkpt lat="45.43223241234185" lon="8.060503280042456"><ele>397.8</ele><time>2026-04-21T14:26:37Z</time></trkpt><trkpt lat="45.432130084270014" lon="8.060500930522588"><ele>398.6</ele><time>2026-04-21T14:26:38Z</time></trkpt><trkpt lat="45.43202851716449" lon="8.060552955051156"><ele>399.40000000000003</ele><time>2026-04-21T14:26:39Z</time></trkpt><trkpt lat="45.4319310327318" lon="8.060606218429255"><ele>400.20000000000005</ele><time>2026-04-21T14:26:40Z</time></trkpt><trkpt lat="45.431833359072115" lon="8.06064977369501"><ele>401.0</ele><time>2026-04-21T14:26:41Z</time></trkpt><trkpt lat="45.43174033810999" lon="8.060701858402261"><ele>401.0</ele><time>2026-04-21T14:26:42Z</time></trkpt><trkpt lat="45.43163756379333" lon="8.060747846482597"><ele>401.0</ele><time>2026-04-21T14:26:43Z</time></trkpt><trkpt lat="45.431525290637836" lon="8.060778027164917"><ele>401.0</ele><time>2026-04-21T14:26:44Z</time></trkpt><trkpt lat="45.431405506488524" lon="8.060807717450755"><ele>401.0</ele><time>2026-04-21T14:26:45Z</time></trkpt><trkpt lat="45.4312983696909" lon="8.060836416707208"><ele>399.0</ele><time>2026-04-21T14:26:46Z</time></trkpt><trkpt lat="45.43120052118148" lon="8.060861673705071"><ele>397.0</ele><time>2026-04-21T14:26:47Z</time></trkpt><trkpt lat="45.43110054737643" lon="8.060885214063568"><ele>395.0</ele><time>2026-04-21T14:26:48Z</time></trkpt><trkpt lat="45.430989292018516" lon="8.06091186355007"><ele>393.0</ele><time>2026-04-21T14:26:49Z</time></trkpt><trkpt lat="45.4308709420431" lon="8.060953577600001"><ele>391.0</ele><time>2026-04-21T14:26:50Z</time></trkpt><trkpt lat="45.430751832190055" lon="8.061034643172333"><ele>391.0</ele><time>2026-04-21T14:26:51Z</time></trkpt><trkpt lat="45.43064471309947" lon="8.061146900148868"><ele>391.0</ele><time>2026-04-21T14:26:52Z</time></trkpt><trkpt lat="45.43054213994235" lon="8.061250571064773"><ele>391.0</ele><time>2026-04-21T14:26:53Z</time></trkpt><trkpt lat="45.43043270505423" lon="8.06138140873634"><ele>391.0</ele><time>2026-04-21T14:26:54Z</time></trkpt><trkpt lat="45.43032263276388" lon="8.061509221228656"><ele>392.0</ele><time>2026-04-21T14:26:55Z</time></trkpt><trkpt lat="45.43022148751157" lon="8.061599705492194"><ele>393.0</ele><time>2026-04-21T14:26:56Z</time></trkpt><trkpt lat="45.430126977743384" lon="8.0616833812814"><ele>394.0</ele><time>2026-04-21T14:26:57Z</time></trkpt><trkpt lat="45.4300611758777" lon="8.061825220196344"><ele>395.0</ele><time>2026-04-21T14:26:58Z</time></trkpt><trkpt lat="45.43005356753335" lon="8.061984844561781"><ele>395.0</ele><time>2026-04-21T14:26:59Z</time></trkpt><trkpt lat="45.430061408180265" lon="8.062160146102773"><ele>395.0</ele><time>2026-04-21T14:27:00Z</time></trkpt><trkpt lat="45.43008142849586" lon="8.062322775806553"><ele>395.0</ele><time>2026-04-21T14:27:01Z</time></trkpt><trkpt lat="45.43009045222817" lon="8.06246923329801"><ele>395.0</ele><time>2026-04-21T14:27:02Z</time></trkpt><trkpt lat="45.43010278383905" lon="8.062612354383305"><ele>395.0</ele><time>2026-04-21T14:27:03Z</time></trkpt><trkpt lat="45.430110850663716" lon="8.062738921818038"><ele>393.99999999999994</ele><time>2026-04-21T14:27:04Z</time></trkpt><trkpt lat="45.43010632549247" lon="8.062855697357028"><ele>393.0</ele><time>2026-04-21T14:27:05Z</time></trkpt><trkpt lat="45.43007399316506" lon="8.062954618113904"><ele>392.0</ele><time>2026-04-21T14:27:06Z</time></trkpt><trkpt lat="45.430023768212" lon="8.063015238283613"><ele>391.0</ele><time>2026-04-21T14:27:07Z</time></trkpt><trkpt lat="45.429953756109164" lon="8.063008642091585"><ele>389.99999999999994</ele><time>2026-04-21T14:27:08Z</time></trkpt><trkpt lat="45.429884550954945" lon="8.063018750235942"><ele>389.0</ele><time>2026-04-21T14:27:09Z</time></trkpt><trkpt lat="45.42979581423858" lon="8.063044081117361"><ele>389.0</ele><time>2026-04-21T14:27:10Z</time></trkpt><trkpt lat="45.42969775935279" lon="8.063064710026092"><ele>389.0</ele><time>2026-04-21T14:27:11Z</time></trkpt><trkpt lat="45.429626653688125" lon="8.063092149423454"><ele>389.0</ele><time>2026-04-21T14:27:12Z</time></trkpt><trkpt lat="45.4295102728004" lon="8.063082752363687"><ele>389.0</ele><time>2026-04-21T14:27:14Z</time></trkpt><trkpt lat="45.42939261914462" lon="8.063060655249629"><ele>389.0</ele><time>2026-04-21T14:27:16Z</time></trkpt><trkpt lat="45.42930542261833" lon="8.062915027329149"><ele>388.79999999999995</ele><time>2026-04-21T14:27:18Z</time></trkpt><trkpt lat="45.429250852692476" lon="8.062799818193996"><ele>388.59999999999997</ele><time>2026-04-21T14:27:19Z</time></trkpt><trkpt lat="45.42920140972866" lon="8.062666548777218"><ele>388.4</ele><time>2026-04-21T14:27:20Z</time></trkpt><trkpt lat="45.42914379520696" lon="8.062512601227729"><ele>388.2</ele><time>2026-04-21T14:27:21Z</time></trkpt><trkpt lat="45.42908370072234" lon="8.062374985558597"><ele>388.0</ele><time>2026-04-21T14:27:22Z</time></trkpt><trkpt lat="45.429009126365806" lon="8.062253881185978"><ele>389.4</ele><time>2026-04-21T14:27:23Z</time></trkpt><trkpt lat="45.428943014646286" lon="8.062148517355181"><ele>390.79999999999995</ele><time>2026-04-21T14:27:24Z</time></trkpt><trkpt lat="45.42888785877752" lon="8.062042851150862"><ele>392.2</ele><time>2026-04-21T14:27:25Z</time></trkpt><trkpt lat="45.42883766677424" lon="8.061932527419907"><ele>393.6</ele><time>2026-04-21T14:27:26Z</time></trkpt><trkpt lat="45.4287920914195" lon="8.061824993749784"><ele>395.0</ele><time>2026-04-21T14:27:27Z</time></trkpt><trkpt lat="45.42874481780465" lon="8.061727151027599"><ele>392.49999999999994</ele><time>2026-04-21T14:27:28Z</time></trkpt><trkpt lat="45.428679810708466" lon="8.061642368264787"><ele>390.0</ele><time>2026-04-21T14:27:29Z</time></trkpt><trkpt lat="45.42859251386653" lon="8.06158492163763"><ele>387.5</ele><time>2026-04-21T14:27:30Z</time></trkpt><trkpt lat="45.42851892225313" lon="8.061521071226354"><ele>385.0</ele><time>2026-04-21T14:27:31Z</time></trkpt><trkpt lat="45.428460455253315" lon="8.061479508998206"><ele>382.5</ele><time>2026-04-21T14:27:32Z</time></trkpt><trkpt lat="45.42839941503263" lon="8.061445162836842"><ele>380.0</ele><time>2026-04-21T14:27:34Z</time></trkpt><trkpt lat="45.428324798978444" lon="8.061376414574575"><ele>379.8</ele><time>2026-04-21T14:27:36Z</time></trkpt><trkpt lat="45.42824715374891" lon="8.061279607271906"><ele>379.6</ele><time>2026-04-21T14:27:38Z</time></trkpt><trkpt lat="45.428222860271376" lon="8.06119256659866"><ele>379.4</ele><time>2026-04-21T14:27:39Z</time></trkpt><trkpt lat="45.42820585938388" lon="8.061097752311236"><ele>379.2</ele><time>2026-04-21T14:27:40Z</time></trkpt><trkpt lat="45.4281894193241" lon="8.060927031995776"><ele>379.0</ele><time>2026-04-21T14:27:42Z</time></trkpt><trkpt lat="45.428231780999056" lon="8.06076267713487"><ele>378.8333333333333</ele><time>2026-04-21T14:27:44Z</time></trkpt><trkpt lat="45.42827684808729" lon="8.060677254021778"><ele>378.66666666666663</ele><time>2026-04-21T14:27:45Z</time></trkpt><trkpt lat="45.42832719262704" lon="8.060622569612159"><ele>378.5</ele><time>2026-04-21T14:27:46Z</time></trkpt><trkpt lat="45.428387444285036" lon="8.06055215896375"><ele>378.3333333333333</ele><time>2026-04-21T14:27:47Z</time></trkpt><trkpt lat="45.428465558184556" lon="8.0604665822111"><ele>378.1666666666667</ele><time>2026-04-21T14:27:48Z</time></trkpt><trkpt lat="45.428530272250946" lon="8.060377090838182"><ele>378.0</ele><time>2026-04-21T14:27:49Z</time></trkpt><trkpt lat="45.42858738926742" lon="8.060281708586672"><ele>378.0</ele><time>2026-04-21T14:27:50Z</time></trkpt><trkpt lat="45.428610365089156" lon="8.06014588534237"><ele>378.0</ele><time>2026-04-21T14:27:51Z</time></trkpt><trkpt lat="45.42864534760301" lon="8.060017233319387"><ele>378.0</ele><time>2026-04-21T14:27:52Z</time></trkpt><trkpt lat="45.428658289460685" lon="8.059873723739257"><ele>378.0</ele><time>2026-04-21T14:27:53Z</time></trkpt><trkpt lat="45.42867344078051" lon="8.059733171367995"><ele>378.0</ele><time>2026-04-21T14:27:54Z</time></trkpt><trkpt lat="45.42869361395147" lon="8.059575923008452"><ele>378.0</ele><time>2026-04-21T14:27:55Z</time></trkpt><trkpt lat="45.42868729948601" lon="8.059409577938386"><ele>378.0</ele><time>2026-04-21T14:27:56Z</time></trkpt><trkpt lat="45.428664033155556" lon="8.059256527890655"><ele>378.0</ele><time>2026-04-21T14:27:57Z</time></trkpt><trkpt lat="45.42864245937912" lon="8.059120472191331"><ele>378.0</ele><time>2026-04-21T14:27:58Z</time></trkpt><trkpt lat="45.42861939374411" lon="8.058998578419056"><ele>378.0</ele><time>2026-04-21T14:27:59Z</time></trkpt><trkpt lat="45.42859104198446" lon="8.058880601176172"><ele>376.59999999999997</ele><time>2026-04-21T14:28:00Z</time></trkpt><trkpt lat="45.42856619563411" lon="8.058773245304142"><ele>375.2</ele><time>2026-04-21T14:28:01Z</time></trkpt><trkpt lat="45.428543290938755" lon="8.058662818177707"><ele>373.8</ele><time>2026-04-21T14:28:02Z</time></trkpt><trkpt lat="45.428534431974455" lon="8.058551961290123"><ele>372.4</ele><time>2026-04-21T14:28:03Z</time></trkpt><trkpt lat="45.428492577568015" lon="8.058384156678342"><ele>371.0</ele><time>2026-04-21T14:28:05Z</time></trkpt><trkpt lat="45.42841525075345" lon="8.058322870432443"><ele>368.8</ele><time>2026-04-21T14:28:06Z</time></trkpt><trkpt lat="45.42832880541089" lon="8.058273921528734"><ele>366.6</ele><time>2026-04-21T14:28:06.999Z</time></trkpt><trkpt lat="45.428245766669114" lon="8.058230928978341"><ele>364.4</ele><time>2026-04-21T14:28:07.999Z</time></trkpt><trkpt lat="45.42817275492696" lon="8.058183672649884"><ele>362.2</ele><time>2026-04-21T14:28:08.999Z</time></trkpt><trkpt lat="45.42810842928669" lon="8.058138198285816"><ele>360.0</ele><time>2026-04-21T14:28:09.999Z</time></trkpt><trkpt lat="45.42800790958397" lon="8.058046907826936"><ele>359.0</ele><time>2026-04-21T14:28:11.999Z</time></trkpt><trkpt lat="45.427969120395474" lon="8.057971236314671"><ele>358.0</ele><time>2026-04-21T14:28:12.999Z</time></trkpt><trkpt lat="45.42794031930157" lon="8.057883594256927"><ele>357.0</ele><time>2026-04-21T14:28:13.999Z</time></trkpt><trkpt lat="45.4278935308641" lon="8.057748640643005"><ele>356.0</ele><time>2026-04-21T14:28:15.999Z</time></trkpt><trkpt lat="45.427785496495716" lon="8.05764800889857"><ele>355.0</ele><time>2026-04-21T14:28:17.999Z</time></trkpt><trkpt lat="45.42769450906486" lon="8.057522897674795"><ele>354.0</ele><time>2026-04-21T14:28:19.999Z</time></trkpt><trkpt lat="45.42766419287793" lon="8.05737092820796"><ele>353.0</ele><time>2026-04-21T14:28:21.999Z</time></trkpt><trkpt lat="45.4276749248977" lon="8.05725662632956"><ele>352.0</ele><time>2026-04-21T14:28:22.999Z</time></trkpt><trkpt lat="45.42768270216949" lon="8.057137268529791"><ele>351.0</ele><time>2026-04-21T14:28:23.999Z</time></trkpt><trkpt lat="45.42769117641584" lon="8.057025572796736"><ele>350.0</ele><time>2026-04-21T14:28:24.999Z</time></trkpt><trkpt lat="45.427693189996546" lon="8.056921644785882"><ele>349.0</ele><time>2026-04-21T14:28:25.999Z</time></trkpt><trkpt lat="45.42766848622212" lon="8.05677003461404"><ele>349.0</ele><time>2026-04-21T14:28:27.999Z</time></trkpt><trkpt lat="45.427593309306154" lon="8.056665603135015"><ele>349.0</ele><time>2026-04-21T14:28:29.999Z</time></trkpt><trkpt lat="45.42752167032072" lon="8.056668811510125"><ele>349.0</ele><time>2026-04-21T14:28:30.999Z</time></trkpt><trkpt lat="45.42744349456428" lon="8.056717804462673"><ele>349.0</ele><time>2026-04-21T14:28:31.999Z</time></trkpt><trkpt lat="45.42736121391246" lon="8.056766740843912"><ele>349.0</ele><time>2026-04-21T14:28:32.999Z</time></trkpt><trkpt lat="45.42729612938397" lon="8.056823357558793"><ele>349.0</ele><time>2026-04-21T14:28:33.999Z</time></trkpt><trkpt lat="45.42724615031716" lon="8.056918478171697"><ele>349.0</ele><time>2026-04-21T14:28:34.999Z</time></trkpt><trkpt lat="45.427205327954745" lon="8.057034309533902"><ele>349.0</ele><time>2026-04-21T14:28:35.999Z</time></trkpt><trkpt lat="45.427163267498585" lon="8.057145574375765"><ele>349.0</ele><time>2026-04-21T14:28:37Z</time></trkpt><trkpt lat="45.427116982791816" lon="8.057251898230234"><ele>349.0</ele><time>2026-04-21T14:28:38Z</time></trkpt><trkpt lat="45.42706021288637" lon="8.057378436593675"><ele>349.0</ele><time>2026-04-21T14:28:39Z</time></trkpt><trkpt lat="45.42699978376648" lon="8.057517452358438"><ele>345.4</ele><time>2026-04-21T14:28:40Z</time></trkpt><trkpt lat="45.42693847931056" lon="8.057647397211216"><ele>341.79999999999995</ele><time>2026-04-21T14:28:41Z</time></trkpt><trkpt lat="45.426883339986084" lon="8.057783055532028"><ele>338.20000000000005</ele><time>2026-04-21T14:28:42Z</time></trkpt><trkpt lat="45.426830520368235" lon="8.057915312855826"><ele>334.6</ele><time>2026-04-21T14:28:43Z</time></trkpt><trkpt lat="45.42677582806236" lon="8.058045229274963"><ele>331.0</ele><time>2026-04-21T14:28:44Z</time></trkpt><trkpt lat="45.42671704824368" lon="8.058162427759433"><ele>331.0</ele><time>2026-04-21T14:28:45Z</time></trkpt><trkpt lat="45.4266665779468" lon="8.058263864250506"><ele>331.0</ele><time>2026-04-21T14:28:46Z</time></trkpt><trkpt lat="45.42661915567019" lon="8.058356396223132"><ele>331.0</ele><time>2026-04-21T14:28:47Z</time></trkpt><trkpt lat="45.42658061110695" lon="8.058445064828708"><ele>331.0</ele><time>2026-04-21T14:28:48Z</time></trkpt><trkpt lat="45.42651949144675" lon="8.058569297028752"><ele>331.0</ele><time>2026-04-21T14:28:50Z</time></trkpt><trkpt lat="45.42643006461586" lon="8.058600011846458"><ele>331.0</ele><time>2026-04-21T14:28:52Z</time></trkpt><trkpt lat="45.426366823759196" lon="8.058460478806635"><ele>331.0</ele><time>2026-04-21T14:28:54Z</time></trkpt><trkpt lat="45.426387839426084" lon="8.058364380872877"><ele>331.0</ele><time>2026-04-21T14:28:55Z</time></trkpt><trkpt lat="45.42642707689292" lon="8.058262029055095"><ele>331.0</ele><time>2026-04-21T14:28:56Z</time></trkpt><trkpt lat="45.42647651333994" lon="8.05812728948965"><ele>331.0</ele><time>2026-04-21T14:28:57Z</time></trkpt><trkpt lat="45.4265179267858" lon="8.057993025161606"><ele>331.0</ele><time>2026-04-21T14:28:58Z</time></trkpt><trkpt lat="45.426531541628265" lon="8.057861048490226"><ele>331.0</ele><time>2026-04-21T14:28:59Z</time></trkpt><trkpt lat="45.42651525666543" lon="8.057717169374554"><ele>331.0</ele><time>2026-04-21T14:29:00Z</time></trkpt><trkpt lat="45.42649090576444" lon="8.057567881343969"><ele>331.0</ele><time>2026-04-21T14:29:01Z</time></trkpt><trkpt lat="45.426479868057235" lon="8.057428576667212"><ele>331.0</ele><time>2026-04-21T14:29:02Z</time></trkpt><trkpt lat="45.42648999581164" lon="8.057283172237625"><ele>331.0</ele><time>2026-04-21T14:29:03Z</time></trkpt><trkpt lat="45.42650444118938" lon="8.05712863778299"><ele>330.20000000000005</ele><time>2026-04-21T14:29:04Z</time></trkpt><trkpt lat="45.42651248543201" lon="8.05697919928306"><ele>329.40000000000003</ele><time>2026-04-21T14:29:05Z</time></trkpt><trkpt lat="45.426520703878836" lon="8.056831796035395"><ele>328.6</ele><time>2026-04-21T14:29:06Z</time></trkpt><trkpt lat="45.426526095233456" lon="8.056685449779838"><ele>327.8</ele><time>2026-04-21T14:29:07Z</time></trkpt><trkpt lat="45.42654102892093" lon="8.056541149507268"><ele>327.0</ele><time>2026-04-21T14:29:08Z</time></trkpt><trkpt lat="45.42655676769976" lon="8.05640323337356"><ele>325.5</ele><time>2026-04-21T14:29:09Z</time></trkpt><trkpt lat="45.42656099916869" lon="8.05627956484455"><ele>324.0</ele><time>2026-04-21T14:29:10Z</time></trkpt><trkpt lat="45.426549999366955" lon="8.056157796061719"><ele>322.5</ele><time>2026-04-21T14:29:11Z</time></trkpt><trkpt lat="45.42651455258732" lon="8.056041439107007"><ele>321.0</ele><time>2026-04-21T14:29:12Z</time></trkpt><trkpt lat="45.426476032553964" lon="8.055931221069578"><ele>319.5</ele><time>2026-04-21T14:29:13Z</time></trkpt><trkpt lat="45.42643745368546" lon="8.055833803953082"><ele>318.0</ele><time>2026-04-21T14:29:14Z</time></trkpt><trkpt lat="45.426397906358964" lon="8.05574284163973"><ele>317.6</ele><time>2026-04-21T14:29:15Z</time></trkpt><trkpt lat="45.42634190747038" lon="8.055632607667363"><ele>317.20000000000005</ele><time>2026-04-21T14:29:17Z</time></trkpt><trkpt lat="45.42628871946969" lon="8.055578715918973"><ele>316.8</ele><time>2026-04-21T14:29:19Z</time></trkpt><trkpt lat="45.426169956174576" lon="8.055724448514741"><ele>316.40000000000003</ele><time>2026-04-21T14:29:21Z</time></trkpt><trkpt lat="45.42610754627759" lon="8.055829515540818"><ele>316.0</ele><time>2026-04-21T14:29:22Z</time></trkpt><trkpt lat="45.42603286465638" lon="8.055959886530868"><ele>316.0</ele><time>2026-04-21T14:29:23Z</time></trkpt><trkpt lat="45.42595945221486" lon="8.056084680197456"><ele>316.0</ele><time>2026-04-21T14:29:24Z</time></trkpt><trkpt lat="45.42586276196149" lon="8.056202756494008"><ele>316.0</ele><time>2026-04-21T14:29:25Z</time></trkpt><trkpt lat="45.42574993506201" lon="8.056283863334276"><ele>316.0</ele><time>2026-04-21T14:29:26Z</time></trkpt><trkpt lat="45.425621448592565" lon="8.056345962958357"><ele>316.0</ele><time>2026-04-21T14:29:27Z</time></trkpt><trkpt lat="45.42549834296172" lon="8.056402369013039"><ele>316.0</ele><time>2026-04-21T14:29:28Z</time></trkpt><trkpt lat="45.42538649697993" lon="8.056485783070144"><ele>316.0</ele><time>2026-04-21T14:29:29Z</time></trkpt><trkpt lat="45.425294627585195" lon="8.056607578896672"><ele>316.0</ele><time>2026-04-21T14:29:30Z</time></trkpt><trkpt lat="45.42521909790254" lon="8.056751090226651"><ele>315.25</ele><time>2026-04-21T14:29:31Z</time></trkpt><trkpt lat="45.42516186538714" lon="8.056894499894236"><ele>314.5</ele><time>2026-04-21T14:29:32Z</time></trkpt><trkpt lat="45.42509974558471" lon="8.057043448131905"><ele>313.75</ele><time>2026-04-21T14:29:33Z</time></trkpt><trkpt lat="45.4250210124567" lon="8.05718062851643"><ele>313.0</ele><time>2026-04-21T14:29:34Z</time></trkpt><trkpt lat="45.42493538915572" lon="8.057309856084377"><ele>313.0</ele><time>2026-04-21T14:29:35Z</time></trkpt><trkpt lat="45.4248461812449" lon="8.057428763945566"><ele>313.0</ele><time>2026-04-21T14:29:36Z</time></trkpt><trkpt lat="45.42476247912742" lon="8.057531199714502"><ele>313.0</ele><time>2026-04-21T14:29:37Z</time></trkpt><trkpt lat="45.424686437109635" lon="8.057632596489928"><ele>313.0</ele><time>2026-04-21T14:29:38Z</time></trkpt><trkpt lat="45.424616844684365" lon="8.057729227875681"><ele>313.0</ele><time>2026-04-21T14:29:39Z</time></trkpt><trkpt lat="45.424550823623385" lon="8.057824898288805"><ele>313.0</ele><time>2026-04-21T14:29:40Z</time></trkpt><trkpt lat="45.424486127682115" lon="8.057909012513882"><ele>313.0</ele><time>2026-04-21T14:29:41Z</time></trkpt><trkpt lat="45.42441464766376" lon="8.057980135037619"><ele>313.0</ele><time>2026-04-21T14:29:42Z</time></trkpt><trkpt lat="45.42431331730051" lon="8.058004311943721"><ele>313.0</ele><time>2026-04-21T14:29:43Z</time></trkpt><trkpt lat="45.42422229965594" lon="8.05802589695199"><ele>313.0</ele><time>2026-04-21T14:29:44Z</time></trkpt><trkpt lat="45.42413331038139" lon="8.058047790505762"><ele>313.0</ele><time>2026-04-21T14:29:45Z</time></trkpt><trkpt lat="45.42405130266171" lon="8.058076161008138"><ele>313.0</ele><time>2026-04-21T14:29:46Z</time></trkpt><trkpt lat="45.42397004999468" lon="8.05809308364735"><ele>313.0</ele><time>2026-04-21T14:29:47Z</time></trkpt><trkpt lat="45.423860622131095" lon="8.058081545816204"><ele>313.0</ele><time>2026-04-21T14:29:49Z</time></trkpt><trkpt lat="45.42374242859184" lon="8.05800636361218"><ele>313.0</ele><time>2026-04-21T14:29:51Z</time></trkpt><trkpt lat="45.42366384354541" lon="8.057937085963818"><ele>312.25</ele><time>2026-04-21T14:29:52Z</time></trkpt><trkpt lat="45.4235938068366" lon="8.057794783976444"><ele>311.5</ele><time>2026-04-21T14:29:53Z</time></trkpt><trkpt lat="45.423500227268335" lon="8.057658616141584"><ele>310.75</ele><time>2026-04-21T14:29:54Z</time></trkpt><trkpt lat="45.423405237980674" lon="8.057532004607218"><ele>310.0</ele><time>2026-04-21T14:29:55Z</time></trkpt><trkpt lat="45.42331580096513" lon="8.057410863036928"><ele>310.0</ele><time>2026-04-21T14:29:56Z</time></trkpt><trkpt lat="45.42322916473148" lon="8.057290812044485"><ele>310.0</ele><time>2026-04-21T14:29:57Z</time></trkpt><trkpt lat="45.423132018428234" lon="8.05715619736244"><ele>310.0</ele><time>2026-04-21T14:29:58Z</time></trkpt><trkpt lat="45.42302426206613" lon="8.057015251112425"><ele>310.0</ele><time>2026-04-21T14:29:59Z</time></trkpt><trkpt lat="45.42291960154166" lon="8.056886184234644"><ele>306.75</ele><time>2026-04-21T14:30:00Z</time></trkpt><trkpt lat="45.42282703879419" lon="8.056751419454441"><ele>303.5</ele><time>2026-04-21T14:30:01Z</time></trkpt><trkpt lat="45.42274195210899" lon="8.056616598998612"><ele>300.25</ele><time>2026-04-21T14:30:02Z</time></trkpt><trkpt lat="45.42264767499308" lon="8.056498121330252"><ele>297.0</ele><time>2026-04-21T14:30:03Z</time></trkpt><trkpt lat="45.422565544294706" lon="8.056375852481109"><ele>296.6</ele><time>2026-04-21T14:30:04Z</time></trkpt><trkpt lat="45.42248850032531" lon="8.056268102126005"><ele>296.2</ele><time>2026-04-21T14:30:05Z</time></trkpt><trkpt lat="45.42242292439304" lon="8.056180041322065"><ele>295.8</ele><time>2026-04-21T14:30:06Z</time></trkpt><trkpt lat="45.422353444596915" lon="8.056098648476414"><ele>295.4</ele><time>2026-04-21T14:30:07Z</time></trkpt><trkpt lat="45.422270828990705" lon="8.056038713710466"><ele>295.0</ele><time>2026-04-21T14:30:08Z</time></trkpt><trkpt lat="45.422172742075915" lon="8.056029988002418"><ele>292.4</ele><time>2026-04-21T14:30:09Z</time></trkpt><trkpt lat="45.42207982276594" lon="8.0560516818124"><ele>289.8</ele><time>2026-04-21T14:30:10Z</time></trkpt><trkpt lat="45.42199970287142" lon="8.056127901672868"><ele>287.2</ele><time>2026-04-21T14:30:11Z</time></trkpt><trkpt lat="45.421938172440434" lon="8.056258750550505"><ele>284.6</ele><time>2026-04-21T14:30:12Z</time></trkpt><trkpt lat="45.421901747700616" lon="8.056424362329235"><ele>282.0</ele><time>2026-04-21T14:30:13Z</time></trkpt><trkpt lat="45.421862957956364" lon="8.056566709352763"><ele>282.6</ele><time>2026-04-21T14:30:14Z</time></trkpt><trkpt lat="45.42181413268434" lon="8.056702960377777"><ele>283.2</ele><time>2026-04-21T14:30:15Z</time></trkpt><trkpt lat="45.42176196584269" lon="8.05684061092863"><ele>283.8</ele><time>2026-04-21T14:30:16Z</time></trkpt><trkpt lat="45.42171666489379" lon="8.056974071295286"><ele>284.4</ele><time>2026-04-21T14:30:16.999Z</time></trkpt><trkpt lat="45.42167300550343" lon="8.057103637187863"><ele>285.0</ele><time>2026-04-21T14:30:17.999Z</time></trkpt><trkpt lat="45.421627897504486" lon="8.057210039861097"><ele>285.0</ele><time>2026-04-21T14:30:18.999Z</time></trkpt><trkpt lat="45.42157578274023" lon="8.057290738847492"><ele>285.0</ele><time>2026-04-21T14:30:19.999Z</time></trkpt><trkpt lat="45.42150571334604" lon="8.057345865743663"><ele>285.0</ele><time>2026-04-21T14:30:20.999Z</time></trkpt><trkpt lat="45.421423120776495" lon="8.05737324239898"><ele>285.0</ele><time>2026-04-21T14:30:21.999Z</time></trkpt><trkpt lat="45.42133966496826" lon="8.057386201590091"><ele>285.0</ele><time>2026-04-21T14:30:22.999Z</time></trkpt><trkpt lat="45.42125826273602" lon="8.057360297524538"><ele>285.0</ele><time>2026-04-21T14:30:23.999Z</time></trkpt><trkpt lat="45.42118733701505" lon="8.05731585644793"><ele>283.3333333333333</ele><time>2026-04-21T14:30:24.999Z</time></trkpt><trkpt lat="45.42111502698538" lon="8.057302751519561"><ele>281.6666666666667</ele><time>2026-04-21T14:30:25.999Z</time></trkpt><trkpt lat="45.421046901695235" lon="8.057343968101087"><ele>280.0</ele><time>2026-04-21T14:30:26.999Z</time></trkpt><trkpt lat="45.421010153247835" lon="8.0574347662019"><ele>278.33333333333337</ele><time>2026-04-21T14:30:27.999Z</time></trkpt><trkpt lat="45.42100520792082" lon="8.057551045555453"><ele>276.6666666666667</ele><time>2026-04-21T14:30:28.999Z</time></trkpt><trkpt lat="45.42102872417394" lon="8.05765369679452"><ele>275.0</ele><time>2026-04-21T14:30:29.999Z</time></trkpt><trkpt lat="45.42106035833799" lon="8.057753785063955"><ele>275.0</ele><time>2026-04-21T14:30:30.999Z</time></trkpt><trkpt lat="45.4210571786438" lon="8.05788858080939"><ele>275.0</ele><time>2026-04-21T14:30:31.999Z</time></trkpt><trkpt lat="45.42103302824906" lon="8.058031679450329"><ele>275.0</ele><time>2026-04-21T14:30:32.999Z</time></trkpt><trkpt lat="45.4209999759859" lon="8.058161387439071"><ele>275.0</ele><time>2026-04-21T14:30:33.999Z</time></trkpt><trkpt lat="45.42096195036422" lon="8.058294699158626"><ele>275.0</ele><time>2026-04-21T14:30:34.999Z</time></trkpt><trkpt lat="45.42092044263233" lon="8.05842793918554"><ele>275.6</ele><time>2026-04-21T14:30:35.999Z</time></trkpt><trkpt lat="45.42087089267636" lon="8.058551108257419"><ele>276.2</ele><time>2026-04-21T14:30:36.999Z</time></trkpt><trkpt lat="45.420817369632694" lon="8.058679018796703"><ele>276.8</ele><time>2026-04-21T14:30:37.999Z</time></trkpt><trkpt lat="45.420761519512965" lon="8.058808897677547"><ele>277.4</ele><time>2026-04-21T14:30:38.999Z</time></trkpt><trkpt lat="45.4206985122167" lon="8.058940000468148"><ele>278.0</ele><time>2026-04-21T14:30:39.999Z</time></trkpt><trkpt lat="45.420634922495" lon="8.059070017653468"><ele>278.75</ele><time>2026-04-21T14:30:40.999Z</time></trkpt><trkpt lat="45.42056754968379" lon="8.059211416848651"><ele>279.5</ele><time>2026-04-21T14:30:41.999Z</time></trkpt><trkpt lat="45.420497098022864" lon="8.059361200948185"><ele>280.25</ele><time>2026-04-21T14:30:43Z</time></trkpt><trkpt lat="45.42042449268632" lon="8.059515363927133"><ele>281.0</ele><time>2026-04-21T14:30:44Z</time></trkpt><trkpt lat="45.420354299896076" lon="8.05966137474088"><ele>281.0</ele><time>2026-04-21T14:30:45Z</time></trkpt><trkpt lat="45.420285793471294" lon="8.059806271956203"><ele>281.0</ele><time>2026-04-21T14:30:46Z</time></trkpt><trkpt lat="45.420212371312815" lon="8.05995689707778"><ele>281.0</ele><time>2026-04-21T14:30:47Z</time></trkpt><trkpt lat="45.4201367789948" lon="8.060108144148296"><ele>281.0</ele><time>2026-04-21T14:30:48Z</time></trkpt><trkpt lat="45.42006580533558" lon="8.060257191566937"><ele>281.0</ele><time>2026-04-21T14:30:49Z</time></trkpt><trkpt lat="45.4199904198976" lon="8.060401284867632"><ele>281.0</ele><time>2026-04-21T14:30:50Z</time></trkpt><trkpt lat="45.41991112577188" lon="8.06053891170222"><ele>281.0</ele><time>2026-04-21T14:30:51Z</time></trkpt><trkpt lat="45.41983556361496" lon="8.060689949971406"><ele>281.0</ele><time>2026-04-21T14:30:52Z</time></trkpt><trkpt lat="45.41975896565889" lon="8.060849680910051"><ele>281.25</ele><time>2026-04-21T14:30:53Z</time></trkpt><trkpt lat="45.4196855445714" lon="8.061002476561994"><ele>281.5</ele><time>2026-04-21T14:30:54Z</time></trkpt><trkpt lat="45.41961366145304" lon="8.061154988257387"><ele>281.75</ele><time>2026-04-21T14:30:55Z</time></trkpt><trkpt lat="45.41954221149115" lon="8.061308666405674"><ele>282.0</ele><time>2026-04-21T14:30:56Z</time></trkpt><trkpt lat="45.41946699499571" lon="8.061462269075063"><ele>281.25</ele><time>2026-04-21T14:30:57Z</time></trkpt><trkpt lat="45.41939450656282" lon="8.0616146752579"><ele>280.5</ele><time>2026-04-21T14:30:58Z</time></trkpt><trkpt lat="45.419322261725696" lon="8.061765531650957"><ele>279.75</ele><time>2026-04-21T14:30:59Z</time></trkpt><trkpt lat="45.419251450549716" lon="8.061910887955422"><ele>279.0</ele><time>2026-04-21T14:31:00Z</time></trkpt><trkpt lat="45.419177806226216" lon="8.062059877375708"><ele>279.0</ele><time>2026-04-21T14:31:01Z</time></trkpt><trkpt lat="45.41910476236886" lon="8.062217746128699"><ele>279.0</ele><time>2026-04-21T14:31:02Z</time></trkpt><trkpt lat="45.419026428497425" lon="8.06238417425286"><ele>279.0</ele><time>2026-04-21T14:31:03Z</time></trkpt><trkpt lat="45.418955754685825" lon="8.062529888893453"><ele>279.0</ele><time>2026-04-21T14:31:04Z</time></trkpt><trkpt lat="45.4188824679246" lon="8.062679044704351"><ele>279.5</ele><time>2026-04-21T14:31:05Z</time></trkpt><trkpt lat="45.41880683904032" lon="8.062838413703236"><ele>280.0</ele><time>2026-04-21T14:31:06Z</time></trkpt><trkpt lat="45.418729065325316" lon="8.062999307471742"><ele>280.5</ele><time>2026-04-21T14:31:07Z</time></trkpt><trkpt lat="45.41865013168207" lon="8.063164533751404"><ele>281.0</ele><time>2026-04-21T14:31:08Z</time></trkpt><trkpt lat="45.41857892458979" lon="8.06331243098132"><ele>281.75</ele><time>2026-04-21T14:31:09Z</time></trkpt><trkpt lat="45.41851476891764" lon="8.063444085967138"><ele>282.5</ele><time>2026-04-21T14:31:10Z</time></trkpt><trkpt lat="45.41844627643981" lon="8.063577767131543"><ele>283.25</ele><time>2026-04-21T14:31:11Z</time></trkpt><trkpt lat="45.418376093297574" lon="8.06372066569602"><ele>284.0</ele><time>2026-04-21T14:31:12Z</time></trkpt><trkpt lat="45.41831928113746" lon="8.06384771556486"><ele>284.0</ele><time>2026-04-21T14:31:13Z</time></trkpt><trkpt lat="45.41826677468454" lon="8.06396843775062"><ele>284.0</ele><time>2026-04-21T14:31:14Z</time></trkpt><trkpt lat="45.418215939114326" lon="8.064074067035733"><ele>284.0</ele><time>2026-04-21T14:31:15Z</time></trkpt><trkpt lat="45.41816972391756" lon="8.06416623344033"><ele>284.0</ele><time>2026-04-21T14:31:16Z</time></trkpt><trkpt lat="45.418084392215704" lon="8.06425827336594"><ele>284.0</ele><time>2026-04-21T14:31:18Z</time></trkpt><trkpt lat="45.41801994454197" lon="8.0641376607304"><ele>284.0</ele><time>2026-04-21T14:31:20Z</time></trkpt><trkpt lat="45.417974876747635" lon="8.06404752366734"><ele>284.0</ele><time>2026-04-21T14:31:21Z</time></trkpt><trkpt lat="45.41795062922288" lon="8.063936643823219"><ele>284.0</ele><time>2026-04-21T14:31:22Z</time></trkpt><trkpt lat="45.4179385025915" lon="8.063798721726553"><ele>284.0</ele><time>2026-04-21T14:31:23Z</time></trkpt><trkpt lat="45.41794618031205" lon="8.063675115033009"><ele>284.0</ele><time>2026-04-21T14:31:24Z</time></trkpt><trkpt lat="45.41795846615623" lon="8.063554930669156"><ele>284.0</ele><time>2026-04-21T14:31:25Z</time></trkpt><trkpt lat="45.41798894623242" lon="8.063428880038728"><ele>284.0</ele><time>2026-04-21T14:31:26Z</time></trkpt><trkpt lat="45.4180262483014" lon="8.063322013820237"><ele>284.0</ele><time>2026-04-21T14:31:27Z</time></trkpt><trkpt lat="45.41803974195786" lon="8.063215965088043"><ele>284.0</ele><time>2026-04-21T14:31:28Z</time></trkpt><trkpt lat="45.418032186604286" lon="8.06311133042493"><ele>284.0</ele><time>2026-04-21T14:31:29Z</time></trkpt><trkpt lat="45.41798902618173" lon="8.063030282451038"><ele>284.0</ele><time>2026-04-21T14:31:30Z</time></trkpt><trkpt lat="45.41790922007714" lon="8.062967333837738"><ele>284.0</ele><time>2026-04-21T14:31:31Z</time></trkpt><trkpt lat="45.417810756381456" lon="8.062928076217387"><ele>283.2</ele><time>2026-04-21T14:31:32Z</time></trkpt><trkpt lat="45.41774013861274" lon="8.062896822039122"><ele>282.4</ele><time>2026-04-21T14:31:33Z</time></trkpt><trkpt lat="45.41764373116442" lon="8.062804332401813"><ele>281.6</ele><time>2026-04-21T14:31:35Z</time></trkpt><trkpt lat="45.41759888171898" lon="8.062724864802565"><ele>280.8</ele><time>2026-04-21T14:31:36Z</time></trkpt><trkpt lat="45.41754683578774" lon="8.062622837512622"><ele>280.0</ele><time>2026-04-21T14:31:37Z</time></trkpt><trkpt lat="45.41748560416658" lon="8.062498527439606"><ele>279.75</ele><time>2026-04-21T14:31:38Z</time></trkpt><trkpt lat="45.41741984599011" lon="8.06237613188862"><ele>279.5</ele><time>2026-04-21T14:31:39Z</time></trkpt><trkpt lat="45.417347771427764" lon="8.062255753396318"><ele>279.25</ele><time>2026-04-21T14:31:40Z</time></trkpt><trkpt lat="45.417261876346956" lon="8.062131424380452"><ele>279.0</ele><time>2026-04-21T14:31:41Z</time></trkpt><trkpt lat="45.41720244588932" lon="8.061998802161167"><ele>279.1666666666667</ele><time>2026-04-21T14:31:42Z</time></trkpt><trkpt lat="45.41712566415573" lon="8.061911582698373"><ele>279.3333333333333</ele><time>2026-04-21T14:31:43Z</time></trkpt><trkpt lat="45.41705526018889" lon="8.06183227438301"><ele>279.5</ele><time>2026-04-21T14:31:44Z</time></trkpt><trkpt lat="45.41698966515195" lon="8.061758383313032"><ele>279.66666666666663</ele><time>2026-04-21T14:31:45Z</time></trkpt><trkpt lat="45.416930634576545" lon="8.061690135996946"><ele>279.8333333333333</ele><time>2026-04-21T14:31:46Z</time></trkpt><trkpt lat="45.41688588860105" lon="8.06161673837233"><ele>280.0</ele><time>2026-04-21T14:31:47Z</time></trkpt><trkpt lat="45.41686627842314" lon="8.061471847993"><ele>282.0</ele><time>2026-04-21T14:31:49Z</time></trkpt><trkpt lat="45.416738421699165" lon="8.061457135004755"><ele>282.0</ele><time>2026-04-21T14:31:50Z</time></trkpt><trkpt lat="45.41667874416337" lon="8.061362837046687"><ele>282.0</ele><time>2026-04-21T14:31:52Z</time></trkpt><trkpt lat="45.4166305604374" lon="8.061468568817011"><ele>282.0</ele><time>2026-04-21T14:32:22.999Z</time></trkpt></trkseg></trk></gpx>